<?xml version="1.0" encoding="UTF-8" standalone="no" ?>
<gpx xmlns="http://www.topografix.com/GPX/1/1" xmlns:xsi="http://www.w3.org/2001/XMLSchema-instance" xsi:schemaLocation="http://www.topografix.com/GPX/1/1 http://www.topografix.com/GPX/1/1/gpx.xsd" version="1.1" creator="VisuGPX - https://www.visugpx.com">
  <metadata>
    <name>LGT : Plouisy - Circuit du Trieux</name>
    <desc><![CDATA[Un circuit de 13 km au départ du Parking du cimetière de Plouisy. Après avoir remonté jusqu'aux abords de l'Usine Triskalia, vous descendrez sur les bords du Trieux avant de revenir vers vers les hauteurs. Ce circuit qui n'est pas difficile mais possède quelques petites montées est proposé par la mairie de Plouisy qui l'a balisé.]]></desc>
  </metadata>
  <trk>
    <name><![CDATA[LGT : Plouisy - Circuit du Trieux_1]]></name>
    <trkseg>
      <trkpt lat="48.57592" lon="-3.18541">
        <ele>192</ele>
        <time>2016-06-06T11:47:57.1Z</time>
      </trkpt>
      <trkpt lat="48.57592" lon="-3.18543">
        <ele>192</ele>
        <time>2016-06-06T11:47:59.1Z</time>
      </trkpt>
      <trkpt lat="48.57593" lon="-3.18545">
        <ele>192</ele>
        <time>2016-06-06T11:48:01.1Z</time>
      </trkpt>
      <trkpt lat="48.57594" lon="-3.18548">
        <ele>192</ele>
        <time>2016-06-06T11:48:04.1Z</time>
      </trkpt>
      <trkpt lat="48.57593" lon="-3.1855">
        <ele>192</ele>
        <time>2016-06-06T11:48:06.1Z</time>
      </trkpt>
      <trkpt lat="48.57594" lon="-3.18554">
        <ele>192</ele>
        <time>2016-06-06T11:48:09.1Z</time>
      </trkpt>
      <trkpt lat="48.57595" lon="-3.18557">
        <ele>192</ele>
        <time>2016-06-06T11:48:12.1Z</time>
      </trkpt>
      <trkpt lat="48.57595" lon="-3.18561">
        <ele>192</ele>
        <time>2016-06-06T11:48:15.1Z</time>
      </trkpt>
      <trkpt lat="48.57594" lon="-3.18566">
        <ele>192</ele>
        <time>2016-06-06T11:48:17.1Z</time>
      </trkpt>
      <trkpt lat="48.57594" lon="-3.1857">
        <ele>193</ele>
        <time>2016-06-06T11:48:19.1Z</time>
      </trkpt>
      <trkpt lat="48.57593" lon="-3.18574">
        <ele>193</ele>
        <time>2016-06-06T11:48:22.1Z</time>
      </trkpt>
      <trkpt lat="48.57592" lon="-3.18575">
        <ele>193</ele>
        <time>2016-06-06T11:48:24.1Z</time>
      </trkpt>
      <trkpt lat="48.5759" lon="-3.18573">
        <ele>193</ele>
        <time>2016-06-06T11:48:27.1Z</time>
      </trkpt>
      <trkpt lat="48.57588" lon="-3.18568">
        <ele>193</ele>
        <time>2016-06-06T11:48:30.1Z</time>
      </trkpt>
      <trkpt lat="48.57588" lon="-3.18564">
        <ele>194</ele>
        <time>2016-06-06T11:48:32.1Z</time>
      </trkpt>
      <trkpt lat="48.57587" lon="-3.1856">
        <ele>194</ele>
        <time>2016-06-06T11:48:35.1Z</time>
      </trkpt>
      <trkpt lat="48.57585" lon="-3.18558">
        <ele>194</ele>
        <time>2016-06-06T11:48:37.1Z</time>
      </trkpt>
      <trkpt lat="48.57584" lon="-3.18558">
        <ele>194</ele>
        <time>2016-06-06T11:48:40.1Z</time>
      </trkpt>
      <trkpt lat="48.57582" lon="-3.18558">
        <ele>194</ele>
        <time>2016-06-06T11:48:43.1Z</time>
      </trkpt>
      <trkpt lat="48.57581" lon="-3.18557">
        <ele>195</ele>
        <time>2016-06-06T11:48:46.1Z</time>
      </trkpt>
      <trkpt lat="48.57581" lon="-3.18557">
        <ele>195</ele>
        <time>2016-06-06T11:48:48.1Z</time>
      </trkpt>
      <trkpt lat="48.57581" lon="-3.18557">
        <ele>195</ele>
        <time>2016-06-06T11:48:50.1Z</time>
      </trkpt>
      <trkpt lat="48.5758" lon="-3.18557">
        <ele>195</ele>
        <time>2016-06-06T11:48:53.1Z</time>
      </trkpt>
      <trkpt lat="48.5758" lon="-3.18557">
        <ele>195</ele>
        <time>2016-06-06T11:48:55.1Z</time>
      </trkpt>
      <trkpt lat="48.57581" lon="-3.18557">
        <ele>195</ele>
        <time>2016-06-06T11:48:58.1Z</time>
      </trkpt>
      <trkpt lat="48.57581" lon="-3.18558">
        <ele>195</ele>
        <time>2016-06-06T11:49:00.1Z</time>
      </trkpt>
      <trkpt lat="48.57581" lon="-3.1856">
        <ele>195</ele>
        <time>2016-06-06T11:49:03.1Z</time>
      </trkpt>
      <trkpt lat="48.5758" lon="-3.18562">
        <ele>195</ele>
        <time>2016-06-06T11:49:06.1Z</time>
      </trkpt>
      <trkpt lat="48.5758" lon="-3.18562">
        <ele>195</ele>
        <time>2016-06-06T11:49:08.1Z</time>
      </trkpt>
      <trkpt lat="48.57582" lon="-3.18565">
        <ele>195</ele>
        <time>2016-06-06T11:49:11.1Z</time>
      </trkpt>
      <trkpt lat="48.57584" lon="-3.18571">
        <ele>194</ele>
        <time>2016-06-06T11:49:14.1Z</time>
      </trkpt>
      <trkpt lat="48.57586" lon="-3.18575">
        <ele>194</ele>
        <time>2016-06-06T11:49:16.1Z</time>
      </trkpt>
      <trkpt lat="48.57588" lon="-3.18577">
        <ele>193</ele>
        <time>2016-06-06T11:49:18.1Z</time>
      </trkpt>
      <trkpt lat="48.57591" lon="-3.18578">
        <ele>193</ele>
        <time>2016-06-06T11:49:21.1Z</time>
      </trkpt>
      <trkpt lat="48.57594" lon="-3.18578">
        <ele>193</ele>
        <time>2016-06-06T11:49:23.1Z</time>
      </trkpt>
      <trkpt lat="48.57598" lon="-3.18581">
        <ele>193</ele>
        <time>2016-06-06T11:49:26.1Z</time>
      </trkpt>
      <trkpt lat="48.57599" lon="-3.18584">
        <ele>193</ele>
        <time>2016-06-06T11:49:28.1Z</time>
      </trkpt>
      <trkpt lat="48.57601" lon="-3.18587">
        <ele>193</ele>
        <time>2016-06-06T11:49:30.1Z</time>
      </trkpt>
      <trkpt lat="48.57604" lon="-3.18591">
        <ele>193</ele>
        <time>2016-06-06T11:49:33.1Z</time>
      </trkpt>
      <trkpt lat="48.57606" lon="-3.18594">
        <ele>193</ele>
        <time>2016-06-06T11:49:35.1Z</time>
      </trkpt>
      <trkpt lat="48.57608" lon="-3.18598">
        <ele>193</ele>
        <time>2016-06-06T11:49:38.1Z</time>
      </trkpt>
      <trkpt lat="48.5761" lon="-3.18601">
        <ele>193</ele>
        <time>2016-06-06T11:49:40.1Z</time>
      </trkpt>
      <trkpt lat="48.57612" lon="-3.18606">
        <ele>193</ele>
        <time>2016-06-06T11:49:43.1Z</time>
      </trkpt>
      <trkpt lat="48.57613" lon="-3.18611">
        <ele>194</ele>
        <time>2016-06-06T11:49:46.1Z</time>
      </trkpt>
      <trkpt lat="48.57615" lon="-3.18615">
        <ele>194</ele>
        <time>2016-06-06T11:49:48.1Z</time>
      </trkpt>
      <trkpt lat="48.57616" lon="-3.18621">
        <ele>194</ele>
        <time>2016-06-06T11:49:51.1Z</time>
      </trkpt>
      <trkpt lat="48.57618" lon="-3.18626">
        <ele>194</ele>
        <time>2016-06-06T11:49:54.1Z</time>
      </trkpt>
      <trkpt lat="48.57619" lon="-3.1863">
        <ele>194</ele>
        <time>2016-06-06T11:49:56.1Z</time>
      </trkpt>
      <trkpt lat="48.57621" lon="-3.18635">
        <ele>195</ele>
        <time>2016-06-06T11:49:59.1Z</time>
      </trkpt>
      <trkpt lat="48.57622" lon="-3.18639">
        <ele>195</ele>
        <time>2016-06-06T11:50:01.1Z</time>
      </trkpt>
      <trkpt lat="48.57625" lon="-3.18643">
        <ele>195</ele>
        <time>2016-06-06T11:50:04.1Z</time>
      </trkpt>
      <trkpt lat="48.57627" lon="-3.18646">
        <ele>195</ele>
        <time>2016-06-06T11:50:06.1Z</time>
      </trkpt>
      <trkpt lat="48.57629" lon="-3.1865">
        <ele>195</ele>
        <time>2016-06-06T11:50:09.1Z</time>
      </trkpt>
      <trkpt lat="48.57632" lon="-3.18652">
        <ele>196</ele>
        <time>2016-06-06T11:50:12.1Z</time>
      </trkpt>
      <trkpt lat="48.57636" lon="-3.18652">
        <ele>196</ele>
        <time>2016-06-06T11:50:15.1Z</time>
      </trkpt>
      <trkpt lat="48.57639" lon="-3.18652">
        <ele>196</ele>
        <time>2016-06-06T11:50:18.1Z</time>
      </trkpt>
      <trkpt lat="48.57642" lon="-3.18652">
        <ele>196</ele>
        <time>2016-06-06T11:50:20.1Z</time>
      </trkpt>
      <trkpt lat="48.57644" lon="-3.1865">
        <ele>196</ele>
        <time>2016-06-06T11:50:22.1Z</time>
      </trkpt>
      <trkpt lat="48.57646" lon="-3.18648">
        <ele>196</ele>
        <time>2016-06-06T11:50:25.1Z</time>
      </trkpt>
      <trkpt lat="48.57649" lon="-3.18644">
        <ele>197</ele>
        <time>2016-06-06T11:50:28.1Z</time>
      </trkpt>
      <trkpt lat="48.5765" lon="-3.18643">
        <ele>197</ele>
        <time>2016-06-06T11:50:30.1Z</time>
      </trkpt>
      <trkpt lat="48.57653" lon="-3.18641">
        <ele>197</ele>
        <time>2016-06-06T11:50:33.1Z</time>
      </trkpt>
      <trkpt lat="48.57655" lon="-3.18639">
        <ele>197</ele>
        <time>2016-06-06T11:50:35.1Z</time>
      </trkpt>
      <trkpt lat="48.57657" lon="-3.18636">
        <ele>197</ele>
        <time>2016-06-06T11:50:38.1Z</time>
      </trkpt>
      <trkpt lat="48.5766" lon="-3.18633">
        <ele>197</ele>
        <time>2016-06-06T11:50:41.1Z</time>
      </trkpt>
      <trkpt lat="48.57663" lon="-3.18632">
        <ele>197</ele>
        <time>2016-06-06T11:50:43.1Z</time>
      </trkpt>
      <trkpt lat="48.57666" lon="-3.18628">
        <ele>197</ele>
        <time>2016-06-06T11:50:46.1Z</time>
      </trkpt>
      <trkpt lat="48.57668" lon="-3.18626">
        <ele>197</ele>
        <time>2016-06-06T11:50:48.1Z</time>
      </trkpt>
      <trkpt lat="48.57671" lon="-3.18623">
        <ele>197</ele>
        <time>2016-06-06T11:50:51.1Z</time>
      </trkpt>
      <trkpt lat="48.57674" lon="-3.18619">
        <ele>197</ele>
        <time>2016-06-06T11:50:54.1Z</time>
      </trkpt>
      <trkpt lat="48.57675" lon="-3.18617">
        <ele>198</ele>
        <time>2016-06-06T11:50:56.1Z</time>
      </trkpt>
      <trkpt lat="48.57677" lon="-3.18614">
        <ele>198</ele>
        <time>2016-06-06T11:50:59.1Z</time>
      </trkpt>
      <trkpt lat="48.5768" lon="-3.1861">
        <ele>198</ele>
        <time>2016-06-06T11:51:02.1Z</time>
      </trkpt>
      <trkpt lat="48.57682" lon="-3.18608">
        <ele>197</ele>
        <time>2016-06-06T11:51:05.1Z</time>
      </trkpt>
      <trkpt lat="48.57684" lon="-3.18606">
        <ele>198</ele>
        <time>2016-06-06T11:51:08.1Z</time>
      </trkpt>
      <trkpt lat="48.57685" lon="-3.18604">
        <ele>198</ele>
        <time>2016-06-06T11:51:10.1Z</time>
      </trkpt>
      <trkpt lat="48.57687" lon="-3.18601">
        <ele>198</ele>
        <time>2016-06-06T11:51:13.1Z</time>
      </trkpt>
      <trkpt lat="48.57689" lon="-3.18599">
        <ele>198</ele>
        <time>2016-06-06T11:51:16.1Z</time>
      </trkpt>
      <trkpt lat="48.57691" lon="-3.18597">
        <ele>198</ele>
        <time>2016-06-06T11:51:19.1Z</time>
      </trkpt>
      <trkpt lat="48.57694" lon="-3.18596">
        <ele>198</ele>
        <time>2016-06-06T11:51:22.1Z</time>
      </trkpt>
      <trkpt lat="48.57696" lon="-3.18595">
        <ele>198</ele>
        <time>2016-06-06T11:51:24.1Z</time>
      </trkpt>
      <trkpt lat="48.57697" lon="-3.18594">
        <ele>198</ele>
        <time>2016-06-06T11:51:26.1Z</time>
      </trkpt>
      <trkpt lat="48.57699" lon="-3.1859">
        <ele>198</ele>
        <time>2016-06-06T11:51:29.1Z</time>
      </trkpt>
      <trkpt lat="48.57701" lon="-3.18589">
        <ele>198</ele>
        <time>2016-06-06T11:51:32.1Z</time>
      </trkpt>
      <trkpt lat="48.57703" lon="-3.18587">
        <ele>198</ele>
        <time>2016-06-06T11:51:35.1Z</time>
      </trkpt>
      <trkpt lat="48.57706" lon="-3.18585">
        <ele>198</ele>
        <time>2016-06-06T11:51:37.1Z</time>
      </trkpt>
      <trkpt lat="48.57707" lon="-3.18583">
        <ele>197</ele>
        <time>2016-06-06T11:51:40.1Z</time>
      </trkpt>
      <trkpt lat="48.57709" lon="-3.18581">
        <ele>197</ele>
        <time>2016-06-06T11:51:43.1Z</time>
      </trkpt>
      <trkpt lat="48.57712" lon="-3.18579">
        <ele>197</ele>
        <time>2016-06-06T11:51:46.1Z</time>
      </trkpt>
      <trkpt lat="48.57715" lon="-3.18578">
        <ele>197</ele>
        <time>2016-06-06T11:51:49.1Z</time>
      </trkpt>
      <trkpt lat="48.57717" lon="-3.18577">
        <ele>197</ele>
        <time>2016-06-06T11:51:51.1Z</time>
      </trkpt>
      <trkpt lat="48.57721" lon="-3.18576">
        <ele>197</ele>
        <time>2016-06-06T11:51:54.1Z</time>
      </trkpt>
      <trkpt lat="48.57722" lon="-3.18574">
        <ele>196</ele>
        <time>2016-06-06T11:51:56.1Z</time>
      </trkpt>
      <trkpt lat="48.57726" lon="-3.18573">
        <ele>196</ele>
        <time>2016-06-06T11:51:59.1Z</time>
      </trkpt>
      <trkpt lat="48.57727" lon="-3.18572">
        <ele>196</ele>
        <time>2016-06-06T11:52:01.1Z</time>
      </trkpt>
      <trkpt lat="48.5773" lon="-3.18571">
        <ele>196</ele>
        <time>2016-06-06T11:52:04.1Z</time>
      </trkpt>
      <trkpt lat="48.57734" lon="-3.1857">
        <ele>195</ele>
        <time>2016-06-06T11:52:07.1Z</time>
      </trkpt>
      <trkpt lat="48.57737" lon="-3.18569">
        <ele>195</ele>
        <time>2016-06-06T11:52:10.1Z</time>
      </trkpt>
      <trkpt lat="48.57741" lon="-3.18569">
        <ele>195</ele>
        <time>2016-06-06T11:52:13.1Z</time>
      </trkpt>
      <trkpt lat="48.57743" lon="-3.18568">
        <ele>194</ele>
        <time>2016-06-06T11:52:15.1Z</time>
      </trkpt>
      <trkpt lat="48.57745" lon="-3.18568">
        <ele>194</ele>
        <time>2016-06-06T11:52:17.1Z</time>
      </trkpt>
      <trkpt lat="48.57749" lon="-3.18567">
        <ele>194</ele>
        <time>2016-06-06T11:52:20.1Z</time>
      </trkpt>
      <trkpt lat="48.57752" lon="-3.18566">
        <ele>195</ele>
        <time>2016-06-06T11:52:23.1Z</time>
      </trkpt>
      <trkpt lat="48.57753" lon="-3.18565">
        <ele>194</ele>
        <time>2016-06-06T11:52:25.1Z</time>
      </trkpt>
      <trkpt lat="48.57756" lon="-3.18564">
        <ele>195</ele>
        <time>2016-06-06T11:52:28.1Z</time>
      </trkpt>
      <trkpt lat="48.57758" lon="-3.18564">
        <ele>194</ele>
        <time>2016-06-06T11:52:30.1Z</time>
      </trkpt>
      <trkpt lat="48.57761" lon="-3.18562">
        <ele>194</ele>
        <time>2016-06-06T11:52:33.1Z</time>
      </trkpt>
      <trkpt lat="48.57763" lon="-3.1856">
        <ele>194</ele>
        <time>2016-06-06T11:52:36.1Z</time>
      </trkpt>
      <trkpt lat="48.57766" lon="-3.1856">
        <ele>194</ele>
        <time>2016-06-06T11:52:39.1Z</time>
      </trkpt>
      <trkpt lat="48.57768" lon="-3.18559">
        <ele>194</ele>
        <time>2016-06-06T11:52:41.1Z</time>
      </trkpt>
      <trkpt lat="48.57771" lon="-3.18558">
        <ele>194</ele>
        <time>2016-06-06T11:52:43.1Z</time>
      </trkpt>
      <trkpt lat="48.57773" lon="-3.18556">
        <ele>194</ele>
        <time>2016-06-06T11:52:46.1Z</time>
      </trkpt>
      <trkpt lat="48.57776" lon="-3.18556">
        <ele>194</ele>
        <time>2016-06-06T11:52:48.1Z</time>
      </trkpt>
      <trkpt lat="48.57779" lon="-3.18554">
        <ele>194</ele>
        <time>2016-06-06T11:52:51.1Z</time>
      </trkpt>
      <trkpt lat="48.57781" lon="-3.18553">
        <ele>194</ele>
        <time>2016-06-06T11:52:53.1Z</time>
      </trkpt>
      <trkpt lat="48.57783" lon="-3.18552">
        <ele>194</ele>
        <time>2016-06-06T11:52:55.1Z</time>
      </trkpt>
      <trkpt lat="48.57786" lon="-3.18551">
        <ele>194</ele>
        <time>2016-06-06T11:52:58.1Z</time>
      </trkpt>
      <trkpt lat="48.57789" lon="-3.18549">
        <ele>194</ele>
        <time>2016-06-06T11:53:01.1Z</time>
      </trkpt>
      <trkpt lat="48.57791" lon="-3.18548">
        <ele>194</ele>
        <time>2016-06-06T11:53:03.1Z</time>
      </trkpt>
      <trkpt lat="48.57795" lon="-3.18545">
        <ele>194</ele>
        <time>2016-06-06T11:53:05.1Z</time>
      </trkpt>
      <trkpt lat="48.57796" lon="-3.18544">
        <ele>195</ele>
        <time>2016-06-06T11:53:08.1Z</time>
      </trkpt>
      <trkpt lat="48.57798" lon="-3.18543">
        <ele>195</ele>
        <time>2016-06-06T11:53:10.1Z</time>
      </trkpt>
      <trkpt lat="48.578" lon="-3.1854">
        <ele>195</ele>
        <time>2016-06-06T11:53:13.1Z</time>
      </trkpt>
      <trkpt lat="48.57803" lon="-3.18538">
        <ele>195</ele>
        <time>2016-06-06T11:53:15.1Z</time>
      </trkpt>
      <trkpt lat="48.57804" lon="-3.18537">
        <ele>195</ele>
        <time>2016-06-06T11:53:18.1Z</time>
      </trkpt>
      <trkpt lat="48.57807" lon="-3.18534">
        <ele>195</ele>
        <time>2016-06-06T11:53:21.1Z</time>
      </trkpt>
      <trkpt lat="48.57809" lon="-3.18531">
        <ele>195</ele>
        <time>2016-06-06T11:53:24.1Z</time>
      </trkpt>
      <trkpt lat="48.57811" lon="-3.18529">
        <ele>196</ele>
        <time>2016-06-06T11:53:26.1Z</time>
      </trkpt>
      <trkpt lat="48.57813" lon="-3.18527">
        <ele>196</ele>
        <time>2016-06-06T11:53:29.1Z</time>
      </trkpt>
      <trkpt lat="48.57816" lon="-3.18523">
        <ele>196</ele>
        <time>2016-06-06T11:53:31.1Z</time>
      </trkpt>
      <trkpt lat="48.57819" lon="-3.1852">
        <ele>196</ele>
        <time>2016-06-06T11:53:35.1Z</time>
      </trkpt>
      <trkpt lat="48.57819" lon="-3.18517">
        <ele>196</ele>
        <time>2016-06-06T11:53:37.1Z</time>
      </trkpt>
      <trkpt lat="48.57822" lon="-3.18513">
        <ele>197</ele>
        <time>2016-06-06T11:53:39.1Z</time>
      </trkpt>
      <trkpt lat="48.57823" lon="-3.18511">
        <ele>197</ele>
        <time>2016-06-06T11:53:42.1Z</time>
      </trkpt>
      <trkpt lat="48.57825" lon="-3.18507">
        <ele>197</ele>
        <time>2016-06-06T11:53:45.1Z</time>
      </trkpt>
      <trkpt lat="48.57827" lon="-3.18503">
        <ele>197</ele>
        <time>2016-06-06T11:53:47.1Z</time>
      </trkpt>
      <trkpt lat="48.57829" lon="-3.185">
        <ele>197</ele>
        <time>2016-06-06T11:53:50.1Z</time>
      </trkpt>
      <trkpt lat="48.5783" lon="-3.18495">
        <ele>197</ele>
        <time>2016-06-06T11:53:53.1Z</time>
      </trkpt>
      <trkpt lat="48.57831" lon="-3.18492">
        <ele>197</ele>
        <time>2016-06-06T11:53:55.1Z</time>
      </trkpt>
      <trkpt lat="48.57833" lon="-3.18488">
        <ele>198</ele>
        <time>2016-06-06T11:53:58.1Z</time>
      </trkpt>
      <trkpt lat="48.57834" lon="-3.18485">
        <ele>198</ele>
        <time>2016-06-06T11:54:00.1Z</time>
      </trkpt>
      <trkpt lat="48.57836" lon="-3.18481">
        <ele>198</ele>
        <time>2016-06-06T11:54:03.1Z</time>
      </trkpt>
      <trkpt lat="48.57838" lon="-3.18476">
        <ele>198</ele>
        <time>2016-06-06T11:54:06.1Z</time>
      </trkpt>
      <trkpt lat="48.5784" lon="-3.18472">
        <ele>198</ele>
        <time>2016-06-06T11:54:09.1Z</time>
      </trkpt>
      <trkpt lat="48.57841" lon="-3.18467">
        <ele>198</ele>
        <time>2016-06-06T11:54:11.1Z</time>
      </trkpt>
      <trkpt lat="48.57843" lon="-3.18462">
        <ele>198</ele>
        <time>2016-06-06T11:54:15.1Z</time>
      </trkpt>
      <trkpt lat="48.57845" lon="-3.18459">
        <ele>198</ele>
        <time>2016-06-06T11:54:17.1Z</time>
      </trkpt>
      <trkpt lat="48.57846" lon="-3.18454">
        <ele>198</ele>
        <time>2016-06-06T11:54:20.1Z</time>
      </trkpt>
      <trkpt lat="48.57847" lon="-3.1845">
        <ele>198</ele>
        <time>2016-06-06T11:54:23.1Z</time>
      </trkpt>
      <trkpt lat="48.57848" lon="-3.18445">
        <ele>199</ele>
        <time>2016-06-06T11:54:26.1Z</time>
      </trkpt>
      <trkpt lat="48.57849" lon="-3.18441">
        <ele>199</ele>
        <time>2016-06-06T11:54:28.1Z</time>
      </trkpt>
      <trkpt lat="48.5785" lon="-3.18439">
        <ele>199</ele>
        <time>2016-06-06T11:54:31.1Z</time>
      </trkpt>
      <trkpt lat="48.57851" lon="-3.18435">
        <ele>199</ele>
        <time>2016-06-06T11:54:33.1Z</time>
      </trkpt>
      <trkpt lat="48.57852" lon="-3.18433">
        <ele>199</ele>
        <time>2016-06-06T11:54:35.1Z</time>
      </trkpt>
      <trkpt lat="48.57853" lon="-3.1843">
        <ele>199</ele>
        <time>2016-06-06T11:54:38.1Z</time>
      </trkpt>
      <trkpt lat="48.57854" lon="-3.18426">
        <ele>199</ele>
        <time>2016-06-06T11:54:41.1Z</time>
      </trkpt>
      <trkpt lat="48.57856" lon="-3.18424">
        <ele>199</ele>
        <time>2016-06-06T11:54:44.1Z</time>
      </trkpt>
      <trkpt lat="48.57859" lon="-3.18423">
        <ele>199</ele>
        <time>2016-06-06T11:54:47.1Z</time>
      </trkpt>
      <trkpt lat="48.57861" lon="-3.18422">
        <ele>199</ele>
        <time>2016-06-06T11:54:49.1Z</time>
      </trkpt>
      <trkpt lat="48.57863" lon="-3.18422">
        <ele>199</ele>
        <time>2016-06-06T11:54:51.1Z</time>
      </trkpt>
      <trkpt lat="48.57864" lon="-3.18422">
        <ele>199</ele>
        <time>2016-06-06T11:54:54.1Z</time>
      </trkpt>
      <trkpt lat="48.57867" lon="-3.18422">
        <ele>200</ele>
        <time>2016-06-06T11:54:57.1Z</time>
      </trkpt>
      <trkpt lat="48.57868" lon="-3.1842">
        <ele>200</ele>
        <time>2016-06-06T11:55:00.1Z</time>
      </trkpt>
      <trkpt lat="48.57871" lon="-3.18418">
        <ele>200</ele>
        <time>2016-06-06T11:55:02.1Z</time>
      </trkpt>
      <trkpt lat="48.57873" lon="-3.18416">
        <ele>200</ele>
        <time>2016-06-06T11:55:05.1Z</time>
      </trkpt>
      <trkpt lat="48.57874" lon="-3.18413">
        <ele>200</ele>
        <time>2016-06-06T11:55:07.1Z</time>
      </trkpt>
      <trkpt lat="48.57875" lon="-3.1841">
        <ele>200</ele>
        <time>2016-06-06T11:55:10.1Z</time>
      </trkpt>
      <trkpt lat="48.57875" lon="-3.18407">
        <ele>200</ele>
        <time>2016-06-06T11:55:13.1Z</time>
      </trkpt>
      <trkpt lat="48.57878" lon="-3.18404">
        <ele>200</ele>
        <time>2016-06-06T11:55:15.1Z</time>
      </trkpt>
      <trkpt lat="48.5788" lon="-3.18403">
        <ele>200</ele>
        <time>2016-06-06T11:55:17.1Z</time>
      </trkpt>
      <trkpt lat="48.57882" lon="-3.18403">
        <ele>200</ele>
        <time>2016-06-06T11:55:19.1Z</time>
      </trkpt>
      <trkpt lat="48.57884" lon="-3.18404">
        <ele>200</ele>
        <time>2016-06-06T11:55:22.1Z</time>
      </trkpt>
      <trkpt lat="48.57886" lon="-3.18405">
        <ele>200</ele>
        <time>2016-06-06T11:55:25.1Z</time>
      </trkpt>
      <trkpt lat="48.57889" lon="-3.18407">
        <ele>201</ele>
        <time>2016-06-06T11:55:27.1Z</time>
      </trkpt>
      <trkpt lat="48.57891" lon="-3.18408">
        <ele>201</ele>
        <time>2016-06-06T11:55:30.1Z</time>
      </trkpt>
      <trkpt lat="48.57893" lon="-3.1841">
        <ele>201</ele>
        <time>2016-06-06T11:55:33.1Z</time>
      </trkpt>
      <trkpt lat="48.57897" lon="-3.18412">
        <ele>201</ele>
        <time>2016-06-06T11:55:35.1Z</time>
      </trkpt>
      <trkpt lat="48.57898" lon="-3.18412">
        <ele>201</ele>
        <time>2016-06-06T11:55:38.1Z</time>
      </trkpt>
      <trkpt lat="48.57902" lon="-3.18414">
        <ele>202</ele>
        <time>2016-06-06T11:55:40.1Z</time>
      </trkpt>
      <trkpt lat="48.57903" lon="-3.18415">
        <ele>202</ele>
        <time>2016-06-06T11:55:43.1Z</time>
      </trkpt>
      <trkpt lat="48.57906" lon="-3.18418">
        <ele>203</ele>
        <time>2016-06-06T11:55:46.1Z</time>
      </trkpt>
      <trkpt lat="48.57908" lon="-3.1842">
        <ele>203</ele>
        <time>2016-06-06T11:55:49.1Z</time>
      </trkpt>
      <trkpt lat="48.5791" lon="-3.18421">
        <ele>202</ele>
        <time>2016-06-06T11:55:51.1Z</time>
      </trkpt>
      <trkpt lat="48.57912" lon="-3.18423">
        <ele>203</ele>
        <time>2016-06-06T11:55:53.1Z</time>
      </trkpt>
      <trkpt lat="48.57914" lon="-3.18425">
        <ele>202</ele>
        <time>2016-06-06T11:55:56.1Z</time>
      </trkpt>
      <trkpt lat="48.57917" lon="-3.18427">
        <ele>203</ele>
        <time>2016-06-06T11:55:58.1Z</time>
      </trkpt>
      <trkpt lat="48.57919" lon="-3.18428">
        <ele>203</ele>
        <time>2016-06-06T11:56:01.1Z</time>
      </trkpt>
      <trkpt lat="48.5792" lon="-3.1843">
        <ele>203</ele>
        <time>2016-06-06T11:56:03.1Z</time>
      </trkpt>
      <trkpt lat="48.57924" lon="-3.18432">
        <ele>203</ele>
        <time>2016-06-06T11:56:06.1Z</time>
      </trkpt>
      <trkpt lat="48.57927" lon="-3.18434">
        <ele>204</ele>
        <time>2016-06-06T11:56:08.1Z</time>
      </trkpt>
      <trkpt lat="48.57929" lon="-3.18435">
        <ele>204</ele>
        <time>2016-06-06T11:56:11.1Z</time>
      </trkpt>
      <trkpt lat="48.57931" lon="-3.18437">
        <ele>204</ele>
        <time>2016-06-06T11:56:13.1Z</time>
      </trkpt>
      <trkpt lat="48.57934" lon="-3.18439">
        <ele>204</ele>
        <time>2016-06-06T11:56:16.1Z</time>
      </trkpt>
      <trkpt lat="48.57937" lon="-3.18442">
        <ele>204</ele>
        <time>2016-06-06T11:56:19.1Z</time>
      </trkpt>
      <trkpt lat="48.5794" lon="-3.18443">
        <ele>204</ele>
        <time>2016-06-06T11:56:21.1Z</time>
      </trkpt>
      <trkpt lat="48.57942" lon="-3.18446">
        <ele>204</ele>
        <time>2016-06-06T11:56:24.1Z</time>
      </trkpt>
      <trkpt lat="48.57944" lon="-3.18448">
        <ele>204</ele>
        <time>2016-06-06T11:56:27.1Z</time>
      </trkpt>
      <trkpt lat="48.57947" lon="-3.18451">
        <ele>204</ele>
        <time>2016-06-06T11:56:30.1Z</time>
      </trkpt>
      <trkpt lat="48.5795" lon="-3.18453">
        <ele>205</ele>
        <time>2016-06-06T11:56:33.1Z</time>
      </trkpt>
      <trkpt lat="48.57953" lon="-3.18455">
        <ele>205</ele>
        <time>2016-06-06T11:56:35.1Z</time>
      </trkpt>
      <trkpt lat="48.57955" lon="-3.18456">
        <ele>205</ele>
        <time>2016-06-06T11:56:37.1Z</time>
      </trkpt>
      <trkpt lat="48.57957" lon="-3.18458">
        <ele>205</ele>
        <time>2016-06-06T11:56:40.1Z</time>
      </trkpt>
      <trkpt lat="48.5796" lon="-3.1846">
        <ele>206</ele>
        <time>2016-06-06T11:56:43.1Z</time>
      </trkpt>
      <trkpt lat="48.57963" lon="-3.18462">
        <ele>206</ele>
        <time>2016-06-06T11:56:46.1Z</time>
      </trkpt>
      <trkpt lat="48.57965" lon="-3.18463">
        <ele>206</ele>
        <time>2016-06-06T11:56:48.1Z</time>
      </trkpt>
      <trkpt lat="48.57967" lon="-3.18465">
        <ele>206</ele>
        <time>2016-06-06T11:56:50.1Z</time>
      </trkpt>
      <trkpt lat="48.5797" lon="-3.18467">
        <ele>206</ele>
        <time>2016-06-06T11:56:53.1Z</time>
      </trkpt>
      <trkpt lat="48.57971" lon="-3.18469">
        <ele>207</ele>
        <time>2016-06-06T11:56:55.1Z</time>
      </trkpt>
      <trkpt lat="48.57972" lon="-3.1847">
        <ele>207</ele>
        <time>2016-06-06T11:56:57.1Z</time>
      </trkpt>
      <trkpt lat="48.57975" lon="-3.18473">
        <ele>207</ele>
        <time>2016-06-06T11:57:00.1Z</time>
      </trkpt>
      <trkpt lat="48.57978" lon="-3.18475">
        <ele>207</ele>
        <time>2016-06-06T11:57:03.1Z</time>
      </trkpt>
      <trkpt lat="48.5798" lon="-3.18477">
        <ele>207</ele>
        <time>2016-06-06T11:57:05.1Z</time>
      </trkpt>
      <trkpt lat="48.57982" lon="-3.18479">
        <ele>207</ele>
        <time>2016-06-06T11:57:08.1Z</time>
      </trkpt>
      <trkpt lat="48.57984" lon="-3.1848">
        <ele>207</ele>
        <time>2016-06-06T11:57:10.1Z</time>
      </trkpt>
      <trkpt lat="48.57987" lon="-3.1848">
        <ele>207</ele>
        <time>2016-06-06T11:57:13.1Z</time>
      </trkpt>
      <trkpt lat="48.57989" lon="-3.18481">
        <ele>207</ele>
        <time>2016-06-06T11:57:15.1Z</time>
      </trkpt>
      <trkpt lat="48.57992" lon="-3.18482">
        <ele>207</ele>
        <time>2016-06-06T11:57:17.1Z</time>
      </trkpt>
      <trkpt lat="48.57994" lon="-3.18482">
        <ele>207</ele>
        <time>2016-06-06T11:57:20.1Z</time>
      </trkpt>
      <trkpt lat="48.57998" lon="-3.18482">
        <ele>207</ele>
        <time>2016-06-06T11:57:23.1Z</time>
      </trkpt>
      <trkpt lat="48.58001" lon="-3.18482">
        <ele>207</ele>
        <time>2016-06-06T11:57:26.1Z</time>
      </trkpt>
      <trkpt lat="48.58004" lon="-3.18482">
        <ele>207</ele>
        <time>2016-06-06T11:57:28.1Z</time>
      </trkpt>
      <trkpt lat="48.58006" lon="-3.18482">
        <ele>207</ele>
        <time>2016-06-06T11:57:31.1Z</time>
      </trkpt>
      <trkpt lat="48.58009" lon="-3.18483">
        <ele>207</ele>
        <time>2016-06-06T11:57:34.1Z</time>
      </trkpt>
      <trkpt lat="48.58012" lon="-3.18482">
        <ele>207</ele>
        <time>2016-06-06T11:57:37.1Z</time>
      </trkpt>
      <trkpt lat="48.58016" lon="-3.18482">
        <ele>206</ele>
        <time>2016-06-06T11:57:40.1Z</time>
      </trkpt>
      <trkpt lat="48.58019" lon="-3.18483">
        <ele>206</ele>
        <time>2016-06-06T11:57:42.1Z</time>
      </trkpt>
      <trkpt lat="48.58022" lon="-3.18483">
        <ele>206</ele>
        <time>2016-06-06T11:57:45.1Z</time>
      </trkpt>
      <trkpt lat="48.58025" lon="-3.18483">
        <ele>206</ele>
        <time>2016-06-06T11:57:47.1Z</time>
      </trkpt>
      <trkpt lat="48.58027" lon="-3.18482">
        <ele>206</ele>
        <time>2016-06-06T11:57:50.1Z</time>
      </trkpt>
      <trkpt lat="48.58031" lon="-3.18482">
        <ele>206</ele>
        <time>2016-06-06T11:57:53.1Z</time>
      </trkpt>
      <trkpt lat="48.58036" lon="-3.18482">
        <ele>206</ele>
        <time>2016-06-06T11:57:55.1Z</time>
      </trkpt>
      <trkpt lat="48.58038" lon="-3.18482">
        <ele>206</ele>
        <time>2016-06-06T11:57:58.1Z</time>
      </trkpt>
      <trkpt lat="48.58041" lon="-3.18482">
        <ele>206</ele>
        <time>2016-06-06T11:58:00.1Z</time>
      </trkpt>
      <trkpt lat="48.58044" lon="-3.18482">
        <ele>206</ele>
        <time>2016-06-06T11:58:03.1Z</time>
      </trkpt>
      <trkpt lat="48.58047" lon="-3.18482">
        <ele>206</ele>
        <time>2016-06-06T11:58:06.1Z</time>
      </trkpt>
      <trkpt lat="48.58052" lon="-3.18481">
        <ele>206</ele>
        <time>2016-06-06T11:58:09.1Z</time>
      </trkpt>
      <trkpt lat="48.58055" lon="-3.18482">
        <ele>206</ele>
        <time>2016-06-06T11:58:12.1Z</time>
      </trkpt>
      <trkpt lat="48.58059" lon="-3.18482">
        <ele>206</ele>
        <time>2016-06-06T11:58:14.1Z</time>
      </trkpt>
      <trkpt lat="48.58061" lon="-3.18482">
        <ele>206</ele>
        <time>2016-06-06T11:58:17.1Z</time>
      </trkpt>
      <trkpt lat="48.58064" lon="-3.18482">
        <ele>206</ele>
        <time>2016-06-06T11:58:20.1Z</time>
      </trkpt>
      <trkpt lat="48.58067" lon="-3.18481">
        <ele>206</ele>
        <time>2016-06-06T11:58:22.1Z</time>
      </trkpt>
      <trkpt lat="48.58069" lon="-3.18481">
        <ele>206</ele>
        <time>2016-06-06T11:58:25.1Z</time>
      </trkpt>
      <trkpt lat="48.58073" lon="-3.18482">
        <ele>206</ele>
        <time>2016-06-06T11:58:28.1Z</time>
      </trkpt>
      <trkpt lat="48.58075" lon="-3.18482">
        <ele>206</ele>
        <time>2016-06-06T11:58:30.1Z</time>
      </trkpt>
      <trkpt lat="48.58079" lon="-3.18482">
        <ele>206</ele>
        <time>2016-06-06T11:58:33.1Z</time>
      </trkpt>
      <trkpt lat="48.58082" lon="-3.18483">
        <ele>206</ele>
        <time>2016-06-06T11:58:36.1Z</time>
      </trkpt>
      <trkpt lat="48.58084" lon="-3.18483">
        <ele>206</ele>
        <time>2016-06-06T11:58:38.1Z</time>
      </trkpt>
      <trkpt lat="48.58087" lon="-3.18483">
        <ele>206</ele>
        <time>2016-06-06T11:58:41.1Z</time>
      </trkpt>
      <trkpt lat="48.58089" lon="-3.18484">
        <ele>206</ele>
        <time>2016-06-06T11:58:43.1Z</time>
      </trkpt>
      <trkpt lat="48.58092" lon="-3.18485">
        <ele>206</ele>
        <time>2016-06-06T11:58:46.1Z</time>
      </trkpt>
      <trkpt lat="48.58096" lon="-3.18487">
        <ele>206</ele>
        <time>2016-06-06T11:58:49.1Z</time>
      </trkpt>
      <trkpt lat="48.58099" lon="-3.18488">
        <ele>206</ele>
        <time>2016-06-06T11:58:52.1Z</time>
      </trkpt>
      <trkpt lat="48.58102" lon="-3.18489">
        <ele>206</ele>
        <time>2016-06-06T11:58:54.1Z</time>
      </trkpt>
      <trkpt lat="48.58104" lon="-3.1849">
        <ele>206</ele>
        <time>2016-06-06T11:58:56.1Z</time>
      </trkpt>
      <trkpt lat="48.58105" lon="-3.1849">
        <ele>206</ele>
        <time>2016-06-06T11:58:59.1Z</time>
      </trkpt>
      <trkpt lat="48.58109" lon="-3.18492">
        <ele>206</ele>
        <time>2016-06-06T11:59:02.1Z</time>
      </trkpt>
      <trkpt lat="48.58113" lon="-3.18493">
        <ele>206</ele>
        <time>2016-06-06T11:59:04.1Z</time>
      </trkpt>
      <trkpt lat="48.58116" lon="-3.18493">
        <ele>206</ele>
        <time>2016-06-06T11:59:07.1Z</time>
      </trkpt>
      <trkpt lat="48.58118" lon="-3.18494">
        <ele>206</ele>
        <time>2016-06-06T11:59:09.1Z</time>
      </trkpt>
      <trkpt lat="48.58122" lon="-3.18495">
        <ele>206</ele>
        <time>2016-06-06T11:59:12.1Z</time>
      </trkpt>
      <trkpt lat="48.58124" lon="-3.18496">
        <ele>206</ele>
        <time>2016-06-06T11:59:14.1Z</time>
      </trkpt>
      <trkpt lat="48.58127" lon="-3.18498">
        <ele>206</ele>
        <time>2016-06-06T11:59:17.1Z</time>
      </trkpt>
      <trkpt lat="48.5813" lon="-3.18499">
        <ele>206</ele>
        <time>2016-06-06T11:59:19.1Z</time>
      </trkpt>
      <trkpt lat="48.58133" lon="-3.185">
        <ele>206</ele>
        <time>2016-06-06T11:59:21.1Z</time>
      </trkpt>
      <trkpt lat="48.58135" lon="-3.18501">
        <ele>206</ele>
        <time>2016-06-06T11:59:23.1Z</time>
      </trkpt>
      <trkpt lat="48.58138" lon="-3.18501">
        <ele>206</ele>
        <time>2016-06-06T11:59:26.1Z</time>
      </trkpt>
      <trkpt lat="48.58141" lon="-3.18501">
        <ele>206</ele>
        <time>2016-06-06T11:59:28.1Z</time>
      </trkpt>
      <trkpt lat="48.58144" lon="-3.18502">
        <ele>206</ele>
        <time>2016-06-06T11:59:31.1Z</time>
      </trkpt>
      <trkpt lat="48.58147" lon="-3.18503">
        <ele>206</ele>
        <time>2016-06-06T11:59:33.1Z</time>
      </trkpt>
      <trkpt lat="48.5815" lon="-3.18504">
        <ele>206</ele>
        <time>2016-06-06T11:59:35.1Z</time>
      </trkpt>
      <trkpt lat="48.58152" lon="-3.18504">
        <ele>206</ele>
        <time>2016-06-06T11:59:38.1Z</time>
      </trkpt>
      <trkpt lat="48.58155" lon="-3.18505">
        <ele>207</ele>
        <time>2016-06-06T11:59:40.1Z</time>
      </trkpt>
      <trkpt lat="48.58158" lon="-3.18505">
        <ele>207</ele>
        <time>2016-06-06T11:59:42.1Z</time>
      </trkpt>
      <trkpt lat="48.5816" lon="-3.18506">
        <ele>207</ele>
        <time>2016-06-06T11:59:44.1Z</time>
      </trkpt>
      <trkpt lat="48.58163" lon="-3.18507">
        <ele>207</ele>
        <time>2016-06-06T11:59:47.1Z</time>
      </trkpt>
      <trkpt lat="48.58167" lon="-3.18508">
        <ele>207</ele>
        <time>2016-06-06T11:59:49.1Z</time>
      </trkpt>
      <trkpt lat="48.58169" lon="-3.18508">
        <ele>206</ele>
        <time>2016-06-06T11:59:52.1Z</time>
      </trkpt>
      <trkpt lat="48.58173" lon="-3.18509">
        <ele>207</ele>
        <time>2016-06-06T11:59:55.1Z</time>
      </trkpt>
      <trkpt lat="48.58176" lon="-3.18509">
        <ele>207</ele>
        <time>2016-06-06T11:59:58.1Z</time>
      </trkpt>
      <trkpt lat="48.5818" lon="-3.1851">
        <ele>207</ele>
        <time>2016-06-06T12:00:01.1Z</time>
      </trkpt>
      <trkpt lat="48.58183" lon="-3.1851">
        <ele>207</ele>
        <time>2016-06-06T12:00:03.1Z</time>
      </trkpt>
      <trkpt lat="48.58186" lon="-3.1851">
        <ele>207</ele>
        <time>2016-06-06T12:00:06.1Z</time>
      </trkpt>
      <trkpt lat="48.58189" lon="-3.1851">
        <ele>207</ele>
        <time>2016-06-06T12:00:09.1Z</time>
      </trkpt>
      <trkpt lat="48.58191" lon="-3.1851">
        <ele>207</ele>
        <time>2016-06-06T12:00:11.1Z</time>
      </trkpt>
      <trkpt lat="48.58193" lon="-3.1851">
        <ele>207</ele>
        <time>2016-06-06T12:00:13.1Z</time>
      </trkpt>
      <trkpt lat="48.58197" lon="-3.18511">
        <ele>208</ele>
        <time>2016-06-06T12:00:15.1Z</time>
      </trkpt>
      <trkpt lat="48.58199" lon="-3.18511">
        <ele>208</ele>
        <time>2016-06-06T12:00:18.1Z</time>
      </trkpt>
      <trkpt lat="48.58203" lon="-3.18511">
        <ele>207</ele>
        <time>2016-06-06T12:00:21.1Z</time>
      </trkpt>
      <trkpt lat="48.58206" lon="-3.18511">
        <ele>207</ele>
        <time>2016-06-06T12:00:23.1Z</time>
      </trkpt>
      <trkpt lat="48.58209" lon="-3.18511">
        <ele>207</ele>
        <time>2016-06-06T12:00:26.1Z</time>
      </trkpt>
      <trkpt lat="48.58212" lon="-3.18513">
        <ele>207</ele>
        <time>2016-06-06T12:00:29.1Z</time>
      </trkpt>
      <trkpt lat="48.58214" lon="-3.18514">
        <ele>207</ele>
        <time>2016-06-06T12:00:31.1Z</time>
      </trkpt>
      <trkpt lat="48.58218" lon="-3.18514">
        <ele>207</ele>
        <time>2016-06-06T12:00:33.1Z</time>
      </trkpt>
      <trkpt lat="48.5822" lon="-3.18514">
        <ele>208</ele>
        <time>2016-06-06T12:00:36.1Z</time>
      </trkpt>
      <trkpt lat="48.58222" lon="-3.18515">
        <ele>208</ele>
        <time>2016-06-06T12:00:38.1Z</time>
      </trkpt>
      <trkpt lat="48.58225" lon="-3.18515">
        <ele>208</ele>
        <time>2016-06-06T12:00:41.1Z</time>
      </trkpt>
      <trkpt lat="48.58229" lon="-3.18515">
        <ele>208</ele>
        <time>2016-06-06T12:00:43.1Z</time>
      </trkpt>
      <trkpt lat="48.58231" lon="-3.18515">
        <ele>208</ele>
        <time>2016-06-06T12:00:46.1Z</time>
      </trkpt>
      <trkpt lat="48.58235" lon="-3.18515">
        <ele>208</ele>
        <time>2016-06-06T12:00:48.1Z</time>
      </trkpt>
      <trkpt lat="48.58238" lon="-3.18516">
        <ele>208</ele>
        <time>2016-06-06T12:00:50.1Z</time>
      </trkpt>
      <trkpt lat="48.5824" lon="-3.18516">
        <ele>208</ele>
        <time>2016-06-06T12:00:53.1Z</time>
      </trkpt>
      <trkpt lat="48.58243" lon="-3.18517">
        <ele>208</ele>
        <time>2016-06-06T12:00:55.1Z</time>
      </trkpt>
      <trkpt lat="48.58247" lon="-3.18518">
        <ele>209</ele>
        <time>2016-06-06T12:00:58.1Z</time>
      </trkpt>
      <trkpt lat="48.5825" lon="-3.18518">
        <ele>209</ele>
        <time>2016-06-06T12:01:01.1Z</time>
      </trkpt>
      <trkpt lat="48.58254" lon="-3.1852">
        <ele>209</ele>
        <time>2016-06-06T12:01:03.1Z</time>
      </trkpt>
      <trkpt lat="48.58257" lon="-3.1852">
        <ele>209</ele>
        <time>2016-06-06T12:01:06.1Z</time>
      </trkpt>
      <trkpt lat="48.58258" lon="-3.18521">
        <ele>209</ele>
        <time>2016-06-06T12:01:08.1Z</time>
      </trkpt>
      <trkpt lat="48.58262" lon="-3.18522">
        <ele>209</ele>
        <time>2016-06-06T12:01:10.1Z</time>
      </trkpt>
      <trkpt lat="48.58264" lon="-3.18522">
        <ele>209</ele>
        <time>2016-06-06T12:01:13.1Z</time>
      </trkpt>
      <trkpt lat="48.58267" lon="-3.18523">
        <ele>209</ele>
        <time>2016-06-06T12:01:16.1Z</time>
      </trkpt>
      <trkpt lat="48.58269" lon="-3.18525">
        <ele>209</ele>
        <time>2016-06-06T12:01:19.1Z</time>
      </trkpt>
      <trkpt lat="48.58271" lon="-3.18526">
        <ele>209</ele>
        <time>2016-06-06T12:01:22.1Z</time>
      </trkpt>
      <trkpt lat="48.58275" lon="-3.18527">
        <ele>209</ele>
        <time>2016-06-06T12:01:25.1Z</time>
      </trkpt>
      <trkpt lat="48.58277" lon="-3.18528">
        <ele>209</ele>
        <time>2016-06-06T12:01:28.1Z</time>
      </trkpt>
      <trkpt lat="48.5828" lon="-3.1853">
        <ele>209</ele>
        <time>2016-06-06T12:01:30.1Z</time>
      </trkpt>
      <trkpt lat="48.58281" lon="-3.18531">
        <ele>209</ele>
        <time>2016-06-06T12:01:32.1Z</time>
      </trkpt>
      <trkpt lat="48.58283" lon="-3.18532">
        <ele>209</ele>
        <time>2016-06-06T12:01:35.1Z</time>
      </trkpt>
      <trkpt lat="48.58287" lon="-3.18534">
        <ele>209</ele>
        <time>2016-06-06T12:01:38.1Z</time>
      </trkpt>
      <trkpt lat="48.5829" lon="-3.18535">
        <ele>209</ele>
        <time>2016-06-06T12:01:40.1Z</time>
      </trkpt>
      <trkpt lat="48.58292" lon="-3.18536">
        <ele>209</ele>
        <time>2016-06-06T12:01:42.1Z</time>
      </trkpt>
      <trkpt lat="48.58294" lon="-3.18537">
        <ele>209</ele>
        <time>2016-06-06T12:01:45.1Z</time>
      </trkpt>
      <trkpt lat="48.58297" lon="-3.18539">
        <ele>209</ele>
        <time>2016-06-06T12:01:48.1Z</time>
      </trkpt>
      <trkpt lat="48.58299" lon="-3.1854">
        <ele>209</ele>
        <time>2016-06-06T12:01:50.1Z</time>
      </trkpt>
      <trkpt lat="48.58302" lon="-3.18543">
        <ele>209</ele>
        <time>2016-06-06T12:01:52.1Z</time>
      </trkpt>
      <trkpt lat="48.58305" lon="-3.18544">
        <ele>209</ele>
        <time>2016-06-06T12:01:55.1Z</time>
      </trkpt>
      <trkpt lat="48.58308" lon="-3.18546">
        <ele>209</ele>
        <time>2016-06-06T12:01:57.1Z</time>
      </trkpt>
      <trkpt lat="48.5831" lon="-3.18547">
        <ele>209</ele>
        <time>2016-06-06T12:02:00.1Z</time>
      </trkpt>
      <trkpt lat="48.58312" lon="-3.18549">
        <ele>209</ele>
        <time>2016-06-06T12:02:02.1Z</time>
      </trkpt>
      <trkpt lat="48.58315" lon="-3.18551">
        <ele>208</ele>
        <time>2016-06-06T12:02:05.1Z</time>
      </trkpt>
      <trkpt lat="48.58318" lon="-3.18554">
        <ele>208</ele>
        <time>2016-06-06T12:02:07.1Z</time>
      </trkpt>
      <trkpt lat="48.5832" lon="-3.18555">
        <ele>208</ele>
        <time>2016-06-06T12:02:09.1Z</time>
      </trkpt>
      <trkpt lat="48.58322" lon="-3.18557">
        <ele>208</ele>
        <time>2016-06-06T12:02:12.1Z</time>
      </trkpt>
      <trkpt lat="48.58325" lon="-3.1856">
        <ele>208</ele>
        <time>2016-06-06T12:02:14.1Z</time>
      </trkpt>
      <trkpt lat="48.58327" lon="-3.18562">
        <ele>208</ele>
        <time>2016-06-06T12:02:17.1Z</time>
      </trkpt>
      <trkpt lat="48.58331" lon="-3.18565">
        <ele>208</ele>
        <time>2016-06-06T12:02:19.1Z</time>
      </trkpt>
      <trkpt lat="48.58332" lon="-3.18566">
        <ele>208</ele>
        <time>2016-06-06T12:02:21.1Z</time>
      </trkpt>
      <trkpt lat="48.58335" lon="-3.1857">
        <ele>208</ele>
        <time>2016-06-06T12:02:24.1Z</time>
      </trkpt>
      <trkpt lat="48.58337" lon="-3.18572">
        <ele>208</ele>
        <time>2016-06-06T12:02:27.1Z</time>
      </trkpt>
      <trkpt lat="48.58339" lon="-3.18575">
        <ele>208</ele>
        <time>2016-06-06T12:02:29.1Z</time>
      </trkpt>
      <trkpt lat="48.58341" lon="-3.18578">
        <ele>208</ele>
        <time>2016-06-06T12:02:32.1Z</time>
      </trkpt>
      <trkpt lat="48.58345" lon="-3.18581">
        <ele>208</ele>
        <time>2016-06-06T12:02:34.1Z</time>
      </trkpt>
      <trkpt lat="48.58347" lon="-3.18583">
        <ele>208</ele>
        <time>2016-06-06T12:02:37.1Z</time>
      </trkpt>
      <trkpt lat="48.5835" lon="-3.18587">
        <ele>208</ele>
        <time>2016-06-06T12:02:39.1Z</time>
      </trkpt>
      <trkpt lat="48.58352" lon="-3.18588">
        <ele>208</ele>
        <time>2016-06-06T12:02:41.1Z</time>
      </trkpt>
      <trkpt lat="48.58354" lon="-3.1859">
        <ele>208</ele>
        <time>2016-06-06T12:02:43.1Z</time>
      </trkpt>
      <trkpt lat="48.58355" lon="-3.18591">
        <ele>208</ele>
        <time>2016-06-06T12:02:46.1Z</time>
      </trkpt>
      <trkpt lat="48.58359" lon="-3.18594">
        <ele>208</ele>
        <time>2016-06-06T12:02:49.1Z</time>
      </trkpt>
      <trkpt lat="48.58361" lon="-3.18596">
        <ele>208</ele>
        <time>2016-06-06T12:02:52.1Z</time>
      </trkpt>
      <trkpt lat="48.58365" lon="-3.18598">
        <ele>208</ele>
        <time>2016-06-06T12:02:55.1Z</time>
      </trkpt>
      <trkpt lat="48.58368" lon="-3.18601">
        <ele>208</ele>
        <time>2016-06-06T12:02:57.1Z</time>
      </trkpt>
      <trkpt lat="48.5837" lon="-3.18602">
        <ele>208</ele>
        <time>2016-06-06T12:03:00.1Z</time>
      </trkpt>
      <trkpt lat="48.58374" lon="-3.18604">
        <ele>208</ele>
        <time>2016-06-06T12:03:03.1Z</time>
      </trkpt>
      <trkpt lat="48.58376" lon="-3.18606">
        <ele>209</ele>
        <time>2016-06-06T12:03:05.1Z</time>
      </trkpt>
      <trkpt lat="48.58379" lon="-3.18608">
        <ele>209</ele>
        <time>2016-06-06T12:03:07.1Z</time>
      </trkpt>
      <trkpt lat="48.58381" lon="-3.1861">
        <ele>209</ele>
        <time>2016-06-06T12:03:09.1Z</time>
      </trkpt>
      <trkpt lat="48.58384" lon="-3.18612">
        <ele>209</ele>
        <time>2016-06-06T12:03:13.1Z</time>
      </trkpt>
      <trkpt lat="48.58386" lon="-3.18614">
        <ele>209</ele>
        <time>2016-06-06T12:03:15.1Z</time>
      </trkpt>
      <trkpt lat="48.58389" lon="-3.18617">
        <ele>209</ele>
        <time>2016-06-06T12:03:18.1Z</time>
      </trkpt>
      <trkpt lat="48.58392" lon="-3.18619">
        <ele>209</ele>
        <time>2016-06-06T12:03:20.1Z</time>
      </trkpt>
      <trkpt lat="48.58395" lon="-3.18621">
        <ele>209</ele>
        <time>2016-06-06T12:03:22.1Z</time>
      </trkpt>
      <trkpt lat="48.58397" lon="-3.18623">
        <ele>208</ele>
        <time>2016-06-06T12:03:25.1Z</time>
      </trkpt>
      <trkpt lat="48.58401" lon="-3.18626">
        <ele>209</ele>
        <time>2016-06-06T12:03:28.1Z</time>
      </trkpt>
      <trkpt lat="48.58405" lon="-3.18629">
        <ele>209</ele>
        <time>2016-06-06T12:03:31.1Z</time>
      </trkpt>
      <trkpt lat="48.58408" lon="-3.1863">
        <ele>209</ele>
        <time>2016-06-06T12:03:33.1Z</time>
      </trkpt>
      <trkpt lat="48.5841" lon="-3.18631">
        <ele>209</ele>
        <time>2016-06-06T12:03:35.1Z</time>
      </trkpt>
      <trkpt lat="48.58412" lon="-3.18632">
        <ele>209</ele>
        <time>2016-06-06T12:03:37.1Z</time>
      </trkpt>
      <trkpt lat="48.58414" lon="-3.18633">
        <ele>209</ele>
        <time>2016-06-06T12:03:40.1Z</time>
      </trkpt>
      <trkpt lat="48.58417" lon="-3.18635">
        <ele>209</ele>
        <time>2016-06-06T12:03:43.1Z</time>
      </trkpt>
      <trkpt lat="48.5842" lon="-3.18637">
        <ele>208</ele>
        <time>2016-06-06T12:03:46.1Z</time>
      </trkpt>
      <trkpt lat="48.58424" lon="-3.18639">
        <ele>209</ele>
        <time>2016-06-06T12:03:49.1Z</time>
      </trkpt>
      <trkpt lat="48.58427" lon="-3.18641">
        <ele>209</ele>
        <time>2016-06-06T12:03:52.1Z</time>
      </trkpt>
      <trkpt lat="48.5843" lon="-3.18643">
        <ele>209</ele>
        <time>2016-06-06T12:03:54.1Z</time>
      </trkpt>
      <trkpt lat="48.58433" lon="-3.18645">
        <ele>209</ele>
        <time>2016-06-06T12:03:57.1Z</time>
      </trkpt>
      <trkpt lat="48.58435" lon="-3.18647">
        <ele>209</ele>
        <time>2016-06-06T12:03:59.1Z</time>
      </trkpt>
      <trkpt lat="48.58437" lon="-3.18648">
        <ele>209</ele>
        <time>2016-06-06T12:04:01.1Z</time>
      </trkpt>
      <trkpt lat="48.5844" lon="-3.18651">
        <ele>209</ele>
        <time>2016-06-06T12:04:05.1Z</time>
      </trkpt>
      <trkpt lat="48.58443" lon="-3.18653">
        <ele>209</ele>
        <time>2016-06-06T12:04:08.1Z</time>
      </trkpt>
      <trkpt lat="48.58447" lon="-3.18655">
        <ele>209</ele>
        <time>2016-06-06T12:04:11.1Z</time>
      </trkpt>
      <trkpt lat="48.58451" lon="-3.18657">
        <ele>209</ele>
        <time>2016-06-06T12:04:14.1Z</time>
      </trkpt>
      <trkpt lat="48.58453" lon="-3.18658">
        <ele>209</ele>
        <time>2016-06-06T12:04:16.1Z</time>
      </trkpt>
      <trkpt lat="48.58455" lon="-3.18661">
        <ele>209</ele>
        <time>2016-06-06T12:04:18.1Z</time>
      </trkpt>
      <trkpt lat="48.58457" lon="-3.18663">
        <ele>209</ele>
        <time>2016-06-06T12:04:22.1Z</time>
      </trkpt>
      <trkpt lat="48.58459" lon="-3.18665">
        <ele>209</ele>
        <time>2016-06-06T12:04:24.1Z</time>
      </trkpt>
      <trkpt lat="48.58462" lon="-3.18666">
        <ele>210</ele>
        <time>2016-06-06T12:04:27.1Z</time>
      </trkpt>
      <trkpt lat="48.58465" lon="-3.18668">
        <ele>210</ele>
        <time>2016-06-06T12:04:29.1Z</time>
      </trkpt>
      <trkpt lat="48.58467" lon="-3.18669">
        <ele>210</ele>
        <time>2016-06-06T12:04:31.1Z</time>
      </trkpt>
      <trkpt lat="48.5847" lon="-3.1867">
        <ele>210</ele>
        <time>2016-06-06T12:04:34.1Z</time>
      </trkpt>
      <trkpt lat="48.58474" lon="-3.18671">
        <ele>210</ele>
        <time>2016-06-06T12:04:36.1Z</time>
      </trkpt>
      <trkpt lat="48.58475" lon="-3.1867">
        <ele>210</ele>
        <time>2016-06-06T12:04:38.1Z</time>
      </trkpt>
      <trkpt lat="48.58477" lon="-3.18669">
        <ele>210</ele>
        <time>2016-06-06T12:04:40.1Z</time>
      </trkpt>
      <trkpt lat="48.58478" lon="-3.18667">
        <ele>210</ele>
        <time>2016-06-06T12:04:43.1Z</time>
      </trkpt>
      <trkpt lat="48.58479" lon="-3.18663">
        <ele>210</ele>
        <time>2016-06-06T12:04:45.1Z</time>
      </trkpt>
      <trkpt lat="48.58481" lon="-3.18661">
        <ele>210</ele>
        <time>2016-06-06T12:04:48.1Z</time>
      </trkpt>
      <trkpt lat="48.58482" lon="-3.18656">
        <ele>210</ele>
        <time>2016-06-06T12:04:51.1Z</time>
      </trkpt>
      <trkpt lat="48.58483" lon="-3.18652">
        <ele>210</ele>
        <time>2016-06-06T12:04:53.1Z</time>
      </trkpt>
      <trkpt lat="48.58484" lon="-3.1865">
        <ele>209</ele>
        <time>2016-06-06T12:04:55.1Z</time>
      </trkpt>
      <trkpt lat="48.58486" lon="-3.18646">
        <ele>210</ele>
        <time>2016-06-06T12:04:59.1Z</time>
      </trkpt>
      <trkpt lat="48.58487" lon="-3.18642">
        <ele>209</ele>
        <time>2016-06-06T12:05:02.1Z</time>
      </trkpt>
      <trkpt lat="48.58489" lon="-3.18637">
        <ele>209</ele>
        <time>2016-06-06T12:05:04.1Z</time>
      </trkpt>
      <trkpt lat="48.58489" lon="-3.18635">
        <ele>209</ele>
        <time>2016-06-06T12:05:06.1Z</time>
      </trkpt>
      <trkpt lat="48.5849" lon="-3.18632">
        <ele>209</ele>
        <time>2016-06-06T12:05:09.1Z</time>
      </trkpt>
      <trkpt lat="48.58492" lon="-3.18628">
        <ele>209</ele>
        <time>2016-06-06T12:05:11.1Z</time>
      </trkpt>
      <trkpt lat="48.58493" lon="-3.18625">
        <ele>209</ele>
        <time>2016-06-06T12:05:13.1Z</time>
      </trkpt>
      <trkpt lat="48.58494" lon="-3.18621">
        <ele>209</ele>
        <time>2016-06-06T12:05:16.1Z</time>
      </trkpt>
      <trkpt lat="48.58495" lon="-3.18616">
        <ele>209</ele>
        <time>2016-06-06T12:05:20.1Z</time>
      </trkpt>
      <trkpt lat="48.58496" lon="-3.18614">
        <ele>209</ele>
        <time>2016-06-06T12:05:23.1Z</time>
      </trkpt>
      <trkpt lat="48.58498" lon="-3.1861">
        <ele>209</ele>
        <time>2016-06-06T12:05:25.1Z</time>
      </trkpt>
      <trkpt lat="48.58498" lon="-3.18606">
        <ele>209</ele>
        <time>2016-06-06T12:05:27.1Z</time>
      </trkpt>
      <trkpt lat="48.58499" lon="-3.18604">
        <ele>209</ele>
        <time>2016-06-06T12:05:29.1Z</time>
      </trkpt>
      <trkpt lat="48.585" lon="-3.18599">
        <ele>209</ele>
        <time>2016-06-06T12:05:33.1Z</time>
      </trkpt>
      <trkpt lat="48.585" lon="-3.18595">
        <ele>209</ele>
        <time>2016-06-06T12:05:35.1Z</time>
      </trkpt>
      <trkpt lat="48.58502" lon="-3.18591">
        <ele>209</ele>
        <time>2016-06-06T12:05:38.1Z</time>
      </trkpt>
      <trkpt lat="48.58503" lon="-3.18586">
        <ele>209</ele>
        <time>2016-06-06T12:05:40.1Z</time>
      </trkpt>
      <trkpt lat="48.58504" lon="-3.18581">
        <ele>209</ele>
        <time>2016-06-06T12:05:44.1Z</time>
      </trkpt>
      <trkpt lat="48.58506" lon="-3.18575">
        <ele>209</ele>
        <time>2016-06-06T12:05:46.1Z</time>
      </trkpt>
      <trkpt lat="48.58507" lon="-3.18571">
        <ele>209</ele>
        <time>2016-06-06T12:05:48.1Z</time>
      </trkpt>
      <trkpt lat="48.58508" lon="-3.18568">
        <ele>209</ele>
        <time>2016-06-06T12:05:51.1Z</time>
      </trkpt>
      <trkpt lat="48.58511" lon="-3.18562">
        <ele>209</ele>
        <time>2016-06-06T12:05:53.1Z</time>
      </trkpt>
      <trkpt lat="48.58511" lon="-3.18559">
        <ele>209</ele>
        <time>2016-06-06T12:05:55.1Z</time>
      </trkpt>
      <trkpt lat="48.58513" lon="-3.18554">
        <ele>209</ele>
        <time>2016-06-06T12:05:58.1Z</time>
      </trkpt>
      <trkpt lat="48.58514" lon="-3.18549">
        <ele>209</ele>
        <time>2016-06-06T12:06:02.1Z</time>
      </trkpt>
      <trkpt lat="48.58515" lon="-3.18547">
        <ele>209</ele>
        <time>2016-06-06T12:06:04.1Z</time>
      </trkpt>
      <trkpt lat="48.58517" lon="-3.18542">
        <ele>209</ele>
        <time>2016-06-06T12:06:06.1Z</time>
      </trkpt>
      <trkpt lat="48.58518" lon="-3.1854">
        <ele>208</ele>
        <time>2016-06-06T12:06:09.1Z</time>
      </trkpt>
      <trkpt lat="48.5852" lon="-3.18535">
        <ele>208</ele>
        <time>2016-06-06T12:06:11.1Z</time>
      </trkpt>
      <trkpt lat="48.58522" lon="-3.1853">
        <ele>208</ele>
        <time>2016-06-06T12:06:15.1Z</time>
      </trkpt>
      <trkpt lat="48.58523" lon="-3.18525">
        <ele>208</ele>
        <time>2016-06-06T12:06:18.1Z</time>
      </trkpt>
      <trkpt lat="48.58524" lon="-3.18521">
        <ele>208</ele>
        <time>2016-06-06T12:06:20.1Z</time>
      </trkpt>
      <trkpt lat="48.58525" lon="-3.18519">
        <ele>208</ele>
        <time>2016-06-06T12:06:22.1Z</time>
      </trkpt>
      <trkpt lat="48.58526" lon="-3.18516">
        <ele>209</ele>
        <time>2016-06-06T12:06:25.1Z</time>
      </trkpt>
      <trkpt lat="48.58526" lon="-3.18514">
        <ele>209</ele>
        <time>2016-06-06T12:06:28.1Z</time>
      </trkpt>
      <trkpt lat="48.58526" lon="-3.18514">
        <ele>209</ele>
        <time>2016-06-06T12:06:30.1Z</time>
      </trkpt>
      <trkpt lat="48.58526" lon="-3.18513">
        <ele>209</ele>
        <time>2016-06-06T12:06:34.1Z</time>
      </trkpt>
      <trkpt lat="48.58527" lon="-3.18509">
        <ele>208</ele>
        <time>2016-06-06T12:06:37.1Z</time>
      </trkpt>
      <trkpt lat="48.58529" lon="-3.18506">
        <ele>208</ele>
        <time>2016-06-06T12:06:39.1Z</time>
      </trkpt>
      <trkpt lat="48.58529" lon="-3.18504">
        <ele>208</ele>
        <time>2016-06-06T12:06:41.1Z</time>
      </trkpt>
      <trkpt lat="48.5853" lon="-3.185">
        <ele>208</ele>
        <time>2016-06-06T12:06:44.1Z</time>
      </trkpt>
      <trkpt lat="48.58532" lon="-3.18496">
        <ele>208</ele>
        <time>2016-06-06T12:06:47.1Z</time>
      </trkpt>
      <trkpt lat="48.58533" lon="-3.18494">
        <ele>208</ele>
        <time>2016-06-06T12:06:49.1Z</time>
      </trkpt>
      <trkpt lat="48.58534" lon="-3.18492">
        <ele>208</ele>
        <time>2016-06-06T12:06:52.1Z</time>
      </trkpt>
      <trkpt lat="48.58537" lon="-3.18488">
        <ele>208</ele>
        <time>2016-06-06T12:06:54.1Z</time>
      </trkpt>
      <trkpt lat="48.58538" lon="-3.18485">
        <ele>208</ele>
        <time>2016-06-06T12:06:56.1Z</time>
      </trkpt>
      <trkpt lat="48.5854" lon="-3.18483">
        <ele>208</ele>
        <time>2016-06-06T12:06:59.1Z</time>
      </trkpt>
      <trkpt lat="48.58542" lon="-3.1848">
        <ele>208</ele>
        <time>2016-06-06T12:07:01.1Z</time>
      </trkpt>
      <trkpt lat="48.58543" lon="-3.18478">
        <ele>208</ele>
        <time>2016-06-06T12:07:03.1Z</time>
      </trkpt>
      <trkpt lat="48.58545" lon="-3.18476">
        <ele>208</ele>
        <time>2016-06-06T12:07:06.1Z</time>
      </trkpt>
      <trkpt lat="48.58548" lon="-3.18473">
        <ele>208</ele>
        <time>2016-06-06T12:07:08.1Z</time>
      </trkpt>
      <trkpt lat="48.58549" lon="-3.18472">
        <ele>208</ele>
        <time>2016-06-06T12:07:10.1Z</time>
      </trkpt>
      <trkpt lat="48.58551" lon="-3.1847">
        <ele>208</ele>
        <time>2016-06-06T12:07:12.1Z</time>
      </trkpt>
      <trkpt lat="48.58552" lon="-3.18466">
        <ele>208</ele>
        <time>2016-06-06T12:07:15.1Z</time>
      </trkpt>
      <trkpt lat="48.58554" lon="-3.18464">
        <ele>208</ele>
        <time>2016-06-06T12:07:17.1Z</time>
      </trkpt>
      <trkpt lat="48.58556" lon="-3.18461">
        <ele>208</ele>
        <time>2016-06-06T12:07:20.1Z</time>
      </trkpt>
      <trkpt lat="48.58558" lon="-3.18457">
        <ele>207</ele>
        <time>2016-06-06T12:07:23.1Z</time>
      </trkpt>
      <trkpt lat="48.5856" lon="-3.18455">
        <ele>207</ele>
        <time>2016-06-06T12:07:25.1Z</time>
      </trkpt>
      <trkpt lat="48.58562" lon="-3.18453">
        <ele>207</ele>
        <time>2016-06-06T12:07:28.1Z</time>
      </trkpt>
      <trkpt lat="48.58565" lon="-3.1845">
        <ele>207</ele>
        <time>2016-06-06T12:07:31.1Z</time>
      </trkpt>
      <trkpt lat="48.58567" lon="-3.18446">
        <ele>207</ele>
        <time>2016-06-06T12:07:35.1Z</time>
      </trkpt>
      <trkpt lat="48.5857" lon="-3.18442">
        <ele>207</ele>
        <time>2016-06-06T12:07:38.1Z</time>
      </trkpt>
      <trkpt lat="48.58572" lon="-3.18439">
        <ele>207</ele>
        <time>2016-06-06T12:07:41.1Z</time>
      </trkpt>
      <trkpt lat="48.58574" lon="-3.18436">
        <ele>207</ele>
        <time>2016-06-06T12:07:43.1Z</time>
      </trkpt>
      <trkpt lat="48.58576" lon="-3.18433">
        <ele>207</ele>
        <time>2016-06-06T12:07:45.1Z</time>
      </trkpt>
      <trkpt lat="48.58577" lon="-3.18431">
        <ele>207</ele>
        <time>2016-06-06T12:07:48.1Z</time>
      </trkpt>
      <trkpt lat="48.5858" lon="-3.18428">
        <ele>207</ele>
        <time>2016-06-06T12:07:50.1Z</time>
      </trkpt>
      <trkpt lat="48.58582" lon="-3.18426">
        <ele>207</ele>
        <time>2016-06-06T12:07:52.1Z</time>
      </trkpt>
      <trkpt lat="48.58584" lon="-3.18424">
        <ele>206</ele>
        <time>2016-06-06T12:07:55.1Z</time>
      </trkpt>
      <trkpt lat="48.58586" lon="-3.18421">
        <ele>207</ele>
        <time>2016-06-06T12:07:57.1Z</time>
      </trkpt>
      <trkpt lat="48.58587" lon="-3.18418">
        <ele>207</ele>
        <time>2016-06-06T12:07:59.1Z</time>
      </trkpt>
      <trkpt lat="48.58588" lon="-3.18415">
        <ele>207</ele>
        <time>2016-06-06T12:08:01.1Z</time>
      </trkpt>
      <trkpt lat="48.58591" lon="-3.18412">
        <ele>207</ele>
        <time>2016-06-06T12:08:04.1Z</time>
      </trkpt>
      <trkpt lat="48.58593" lon="-3.1841">
        <ele>207</ele>
        <time>2016-06-06T12:08:06.1Z</time>
      </trkpt>
      <trkpt lat="48.58594" lon="-3.18409">
        <ele>207</ele>
        <time>2016-06-06T12:08:08.1Z</time>
      </trkpt>
      <trkpt lat="48.58596" lon="-3.18407">
        <ele>207</ele>
        <time>2016-06-06T12:08:11.1Z</time>
      </trkpt>
      <trkpt lat="48.58596" lon="-3.18405">
        <ele>207</ele>
        <time>2016-06-06T12:08:13.1Z</time>
      </trkpt>
      <trkpt lat="48.58596" lon="-3.18402">
        <ele>206</ele>
        <time>2016-06-06T12:08:16.1Z</time>
      </trkpt>
      <trkpt lat="48.58598" lon="-3.184">
        <ele>206</ele>
        <time>2016-06-06T12:08:19.1Z</time>
      </trkpt>
      <trkpt lat="48.586" lon="-3.18397">
        <ele>206</ele>
        <time>2016-06-06T12:08:21.1Z</time>
      </trkpt>
      <trkpt lat="48.58603" lon="-3.18395">
        <ele>206</ele>
        <time>2016-06-06T12:08:24.1Z</time>
      </trkpt>
      <trkpt lat="48.58606" lon="-3.18392">
        <ele>206</ele>
        <time>2016-06-06T12:08:27.1Z</time>
      </trkpt>
      <trkpt lat="48.58608" lon="-3.1839">
        <ele>207</ele>
        <time>2016-06-06T12:08:29.1Z</time>
      </trkpt>
      <trkpt lat="48.58611" lon="-3.18386">
        <ele>207</ele>
        <time>2016-06-06T12:08:32.1Z</time>
      </trkpt>
      <trkpt lat="48.58614" lon="-3.18382">
        <ele>206</ele>
        <time>2016-06-06T12:08:35.1Z</time>
      </trkpt>
      <trkpt lat="48.58616" lon="-3.18377">
        <ele>206</ele>
        <time>2016-06-06T12:08:38.1Z</time>
      </trkpt>
      <trkpt lat="48.58617" lon="-3.18374">
        <ele>206</ele>
        <time>2016-06-06T12:08:40.1Z</time>
      </trkpt>
      <trkpt lat="48.5862" lon="-3.1837">
        <ele>206</ele>
        <time>2016-06-06T12:08:43.1Z</time>
      </trkpt>
      <trkpt lat="48.58622" lon="-3.18368">
        <ele>206</ele>
        <time>2016-06-06T12:08:45.1Z</time>
      </trkpt>
      <trkpt lat="48.58625" lon="-3.18366">
        <ele>206</ele>
        <time>2016-06-06T12:08:47.1Z</time>
      </trkpt>
      <trkpt lat="48.58626" lon="-3.18363">
        <ele>206</ele>
        <time>2016-06-06T12:08:50.1Z</time>
      </trkpt>
      <trkpt lat="48.58628" lon="-3.18359">
        <ele>206</ele>
        <time>2016-06-06T12:08:52.1Z</time>
      </trkpt>
      <trkpt lat="48.58631" lon="-3.18354">
        <ele>206</ele>
        <time>2016-06-06T12:08:55.1Z</time>
      </trkpt>
      <trkpt lat="48.58633" lon="-3.18351">
        <ele>206</ele>
        <time>2016-06-06T12:08:57.1Z</time>
      </trkpt>
      <trkpt lat="48.58634" lon="-3.18347">
        <ele>206</ele>
        <time>2016-06-06T12:09:00.1Z</time>
      </trkpt>
      <trkpt lat="48.58635" lon="-3.18344">
        <ele>206</ele>
        <time>2016-06-06T12:09:03.1Z</time>
      </trkpt>
      <trkpt lat="48.58636" lon="-3.18338">
        <ele>206</ele>
        <time>2016-06-06T12:09:05.1Z</time>
      </trkpt>
      <trkpt lat="48.58637" lon="-3.18334">
        <ele>206</ele>
        <time>2016-06-06T12:09:08.1Z</time>
      </trkpt>
      <trkpt lat="48.58639" lon="-3.18328">
        <ele>206</ele>
        <time>2016-06-06T12:09:11.1Z</time>
      </trkpt>
      <trkpt lat="48.58641" lon="-3.18323">
        <ele>206</ele>
        <time>2016-06-06T12:09:14.1Z</time>
      </trkpt>
      <trkpt lat="48.58642" lon="-3.18317">
        <ele>206</ele>
        <time>2016-06-06T12:09:17.1Z</time>
      </trkpt>
      <trkpt lat="48.58643" lon="-3.18314">
        <ele>206</ele>
        <time>2016-06-06T12:09:19.1Z</time>
      </trkpt>
      <trkpt lat="48.58645" lon="-3.18309">
        <ele>206</ele>
        <time>2016-06-06T12:09:22.1Z</time>
      </trkpt>
      <trkpt lat="48.58647" lon="-3.18303">
        <ele>205</ele>
        <time>2016-06-06T12:09:25.1Z</time>
      </trkpt>
      <trkpt lat="48.58649" lon="-3.183">
        <ele>205</ele>
        <time>2016-06-06T12:09:27.1Z</time>
      </trkpt>
      <trkpt lat="48.58653" lon="-3.18295">
        <ele>205</ele>
        <time>2016-06-06T12:09:30.1Z</time>
      </trkpt>
      <trkpt lat="48.58653" lon="-3.1829">
        <ele>205</ele>
        <time>2016-06-06T12:09:33.1Z</time>
      </trkpt>
      <trkpt lat="48.58654" lon="-3.18287">
        <ele>206</ele>
        <time>2016-06-06T12:09:35.1Z</time>
      </trkpt>
      <trkpt lat="48.58654" lon="-3.18282">
        <ele>206</ele>
        <time>2016-06-06T12:09:38.1Z</time>
      </trkpt>
      <trkpt lat="48.58654" lon="-3.18277">
        <ele>206</ele>
        <time>2016-06-06T12:09:41.1Z</time>
      </trkpt>
      <trkpt lat="48.58654" lon="-3.18274">
        <ele>205</ele>
        <time>2016-06-06T12:09:44.1Z</time>
      </trkpt>
      <trkpt lat="48.58654" lon="-3.1827">
        <ele>205</ele>
        <time>2016-06-06T12:09:46.1Z</time>
      </trkpt>
      <trkpt lat="48.58655" lon="-3.18266">
        <ele>205</ele>
        <time>2016-06-06T12:09:49.1Z</time>
      </trkpt>
      <trkpt lat="48.58655" lon="-3.18262">
        <ele>205</ele>
        <time>2016-06-06T12:09:51.1Z</time>
      </trkpt>
      <trkpt lat="48.58654" lon="-3.1826">
        <ele>205</ele>
        <time>2016-06-06T12:09:54.1Z</time>
      </trkpt>
      <trkpt lat="48.58652" lon="-3.18259">
        <ele>205</ele>
        <time>2016-06-06T12:09:57.1Z</time>
      </trkpt>
      <trkpt lat="48.58651" lon="-3.18259">
        <ele>205</ele>
        <time>2016-06-06T12:09:59.1Z</time>
      </trkpt>
      <trkpt lat="48.58651" lon="-3.18258">
        <ele>205</ele>
        <time>2016-06-06T12:10:02.1Z</time>
      </trkpt>
      <trkpt lat="48.58652" lon="-3.18254">
        <ele>205</ele>
        <time>2016-06-06T12:10:05.1Z</time>
      </trkpt>
      <trkpt lat="48.58651" lon="-3.1825">
        <ele>205</ele>
        <time>2016-06-06T12:10:07.1Z</time>
      </trkpt>
      <trkpt lat="48.5865" lon="-3.18249">
        <ele>206</ele>
        <time>2016-06-06T12:10:10.1Z</time>
      </trkpt>
      <trkpt lat="48.5865" lon="-3.18248">
        <ele>205</ele>
        <time>2016-06-06T12:10:12.1Z</time>
      </trkpt>
      <trkpt lat="48.5865" lon="-3.18247">
        <ele>205</ele>
        <time>2016-06-06T12:10:14.1Z</time>
      </trkpt>
      <trkpt lat="48.58647" lon="-3.18245">
        <ele>205</ele>
        <time>2016-06-06T12:10:17.1Z</time>
      </trkpt>
      <trkpt lat="48.58646" lon="-3.18243">
        <ele>205</ele>
        <time>2016-06-06T12:10:19.1Z</time>
      </trkpt>
      <trkpt lat="48.58646" lon="-3.18243">
        <ele>206</ele>
        <time>2016-06-06T12:10:22.1Z</time>
      </trkpt>
      <trkpt lat="48.58646" lon="-3.18242">
        <ele>206</ele>
        <time>2016-06-06T12:10:24.1Z</time>
      </trkpt>
      <trkpt lat="48.58645" lon="-3.1824">
        <ele>205</ele>
        <time>2016-06-06T12:10:27.1Z</time>
      </trkpt>
      <trkpt lat="48.58644" lon="-3.18237">
        <ele>205</ele>
        <time>2016-06-06T12:10:29.1Z</time>
      </trkpt>
      <trkpt lat="48.58643" lon="-3.18234">
        <ele>205</ele>
        <time>2016-06-06T12:10:31.1Z</time>
      </trkpt>
      <trkpt lat="48.58642" lon="-3.1823">
        <ele>206</ele>
        <time>2016-06-06T12:10:34.1Z</time>
      </trkpt>
      <trkpt lat="48.5864" lon="-3.18227">
        <ele>205</ele>
        <time>2016-06-06T12:10:37.1Z</time>
      </trkpt>
      <trkpt lat="48.5864" lon="-3.18224">
        <ele>206</ele>
        <time>2016-06-06T12:10:39.1Z</time>
      </trkpt>
      <trkpt lat="48.5864" lon="-3.18222">
        <ele>205</ele>
        <time>2016-06-06T12:10:42.1Z</time>
      </trkpt>
      <trkpt lat="48.58639" lon="-3.1822">
        <ele>205</ele>
        <time>2016-06-06T12:10:44.1Z</time>
      </trkpt>
      <trkpt lat="48.58636" lon="-3.18216">
        <ele>205</ele>
        <time>2016-06-06T12:10:47.1Z</time>
      </trkpt>
      <trkpt lat="48.58634" lon="-3.18214">
        <ele>205</ele>
        <time>2016-06-06T12:10:50.1Z</time>
      </trkpt>
      <trkpt lat="48.58633" lon="-3.18211">
        <ele>205</ele>
        <time>2016-06-06T12:10:52.1Z</time>
      </trkpt>
      <trkpt lat="48.5863" lon="-3.18208">
        <ele>205</ele>
        <time>2016-06-06T12:10:55.1Z</time>
      </trkpt>
      <trkpt lat="48.58629" lon="-3.18206">
        <ele>205</ele>
        <time>2016-06-06T12:10:57.1Z</time>
      </trkpt>
      <trkpt lat="48.58625" lon="-3.18202">
        <ele>205</ele>
        <time>2016-06-06T12:11:00.1Z</time>
      </trkpt>
      <trkpt lat="48.58623" lon="-3.18199">
        <ele>206</ele>
        <time>2016-06-06T12:11:03.1Z</time>
      </trkpt>
      <trkpt lat="48.58623" lon="-3.18196">
        <ele>206</ele>
        <time>2016-06-06T12:11:05.1Z</time>
      </trkpt>
      <trkpt lat="48.5862" lon="-3.18191">
        <ele>205</ele>
        <time>2016-06-06T12:11:08.1Z</time>
      </trkpt>
      <trkpt lat="48.58618" lon="-3.18188">
        <ele>205</ele>
        <time>2016-06-06T12:11:11.1Z</time>
      </trkpt>
      <trkpt lat="48.58616" lon="-3.18185">
        <ele>205</ele>
        <time>2016-06-06T12:11:13.1Z</time>
      </trkpt>
      <trkpt lat="48.58615" lon="-3.18182">
        <ele>205</ele>
        <time>2016-06-06T12:11:16.1Z</time>
      </trkpt>
      <trkpt lat="48.58614" lon="-3.18181">
        <ele>205</ele>
        <time>2016-06-06T12:11:19.1Z</time>
      </trkpt>
      <trkpt lat="48.58614" lon="-3.1818">
        <ele>205</ele>
        <time>2016-06-06T12:11:21.1Z</time>
      </trkpt>
      <trkpt lat="48.58615" lon="-3.18179">
        <ele>205</ele>
        <time>2016-06-06T12:11:24.1Z</time>
      </trkpt>
      <trkpt lat="48.58615" lon="-3.18176">
        <ele>205</ele>
        <time>2016-06-06T12:11:26.1Z</time>
      </trkpt>
      <trkpt lat="48.58617" lon="-3.18173">
        <ele>205</ele>
        <time>2016-06-06T12:11:29.1Z</time>
      </trkpt>
      <trkpt lat="48.5862" lon="-3.18172">
        <ele>204</ele>
        <time>2016-06-06T12:11:32.1Z</time>
      </trkpt>
      <trkpt lat="48.5862" lon="-3.18169">
        <ele>204</ele>
        <time>2016-06-06T12:11:35.1Z</time>
      </trkpt>
      <trkpt lat="48.5862" lon="-3.18166">
        <ele>204</ele>
        <time>2016-06-06T12:11:38.1Z</time>
      </trkpt>
      <trkpt lat="48.58622" lon="-3.18163">
        <ele>204</ele>
        <time>2016-06-06T12:11:40.1Z</time>
      </trkpt>
      <trkpt lat="48.58623" lon="-3.18161">
        <ele>204</ele>
        <time>2016-06-06T12:11:42.1Z</time>
      </trkpt>
      <trkpt lat="48.58624" lon="-3.18159">
        <ele>204</ele>
        <time>2016-06-06T12:11:44.1Z</time>
      </trkpt>
      <trkpt lat="48.58625" lon="-3.18155">
        <ele>204</ele>
        <time>2016-06-06T12:11:47.1Z</time>
      </trkpt>
      <trkpt lat="48.58625" lon="-3.18152">
        <ele>204</ele>
        <time>2016-06-06T12:11:49.1Z</time>
      </trkpt>
      <trkpt lat="48.58627" lon="-3.18147">
        <ele>204</ele>
        <time>2016-06-06T12:11:52.1Z</time>
      </trkpt>
      <trkpt lat="48.58627" lon="-3.18145">
        <ele>204</ele>
        <time>2016-06-06T12:11:54.1Z</time>
      </trkpt>
      <trkpt lat="48.58629" lon="-3.18141">
        <ele>204</ele>
        <time>2016-06-06T12:11:57.1Z</time>
      </trkpt>
      <trkpt lat="48.5863" lon="-3.18138">
        <ele>204</ele>
        <time>2016-06-06T12:12:00.1Z</time>
      </trkpt>
      <trkpt lat="48.58632" lon="-3.18136">
        <ele>204</ele>
        <time>2016-06-06T12:12:02.1Z</time>
      </trkpt>
      <trkpt lat="48.58634" lon="-3.18133">
        <ele>204</ele>
        <time>2016-06-06T12:12:05.1Z</time>
      </trkpt>
      <trkpt lat="48.58636" lon="-3.18129">
        <ele>204</ele>
        <time>2016-06-06T12:12:07.1Z</time>
      </trkpt>
      <trkpt lat="48.58638" lon="-3.18127">
        <ele>204</ele>
        <time>2016-06-06T12:12:09.1Z</time>
      </trkpt>
      <trkpt lat="48.58639" lon="-3.18123">
        <ele>204</ele>
        <time>2016-06-06T12:12:12.1Z</time>
      </trkpt>
      <trkpt lat="48.58641" lon="-3.18119">
        <ele>204</ele>
        <time>2016-06-06T12:12:15.1Z</time>
      </trkpt>
      <trkpt lat="48.58642" lon="-3.18114">
        <ele>204</ele>
        <time>2016-06-06T12:12:18.1Z</time>
      </trkpt>
      <trkpt lat="48.58644" lon="-3.1811">
        <ele>204</ele>
        <time>2016-06-06T12:12:21.1Z</time>
      </trkpt>
      <trkpt lat="48.58646" lon="-3.18107">
        <ele>204</ele>
        <time>2016-06-06T12:12:23.1Z</time>
      </trkpt>
      <trkpt lat="48.58647" lon="-3.18101">
        <ele>204</ele>
        <time>2016-06-06T12:12:26.1Z</time>
      </trkpt>
      <trkpt lat="48.58648" lon="-3.18098">
        <ele>204</ele>
        <time>2016-06-06T12:12:28.1Z</time>
      </trkpt>
      <trkpt lat="48.58649" lon="-3.18092">
        <ele>203</ele>
        <time>2016-06-06T12:12:31.1Z</time>
      </trkpt>
      <trkpt lat="48.5865" lon="-3.18089">
        <ele>203</ele>
        <time>2016-06-06T12:12:33.1Z</time>
      </trkpt>
      <trkpt lat="48.58652" lon="-3.18084">
        <ele>203</ele>
        <time>2016-06-06T12:12:36.1Z</time>
      </trkpt>
      <trkpt lat="48.58653" lon="-3.1808">
        <ele>203</ele>
        <time>2016-06-06T12:12:38.1Z</time>
      </trkpt>
      <trkpt lat="48.58656" lon="-3.18077">
        <ele>203</ele>
        <time>2016-06-06T12:12:41.1Z</time>
      </trkpt>
      <trkpt lat="48.58657" lon="-3.18073">
        <ele>203</ele>
        <time>2016-06-06T12:12:44.1Z</time>
      </trkpt>
      <trkpt lat="48.58658" lon="-3.18068">
        <ele>203</ele>
        <time>2016-06-06T12:12:47.1Z</time>
      </trkpt>
      <trkpt lat="48.58659" lon="-3.18063">
        <ele>203</ele>
        <time>2016-06-06T12:12:50.1Z</time>
      </trkpt>
      <trkpt lat="48.5866" lon="-3.18059">
        <ele>203</ele>
        <time>2016-06-06T12:12:52.1Z</time>
      </trkpt>
      <trkpt lat="48.58661" lon="-3.18053">
        <ele>203</ele>
        <time>2016-06-06T12:12:54.1Z</time>
      </trkpt>
      <trkpt lat="48.58661" lon="-3.18049">
        <ele>203</ele>
        <time>2016-06-06T12:12:56.1Z</time>
      </trkpt>
      <trkpt lat="48.58662" lon="-3.18044">
        <ele>203</ele>
        <time>2016-06-06T12:12:59.1Z</time>
      </trkpt>
      <trkpt lat="48.58664" lon="-3.18043">
        <ele>203</ele>
        <time>2016-06-06T12:13:01.1Z</time>
      </trkpt>
      <trkpt lat="48.58665" lon="-3.18039">
        <ele>203</ele>
        <time>2016-06-06T12:13:04.1Z</time>
      </trkpt>
      <trkpt lat="48.58666" lon="-3.18038">
        <ele>203</ele>
        <time>2016-06-06T12:13:07.1Z</time>
      </trkpt>
      <trkpt lat="48.58668" lon="-3.18034">
        <ele>202</ele>
        <time>2016-06-06T12:13:10.1Z</time>
      </trkpt>
      <trkpt lat="48.5867" lon="-3.18032">
        <ele>202</ele>
        <time>2016-06-06T12:13:12.1Z</time>
      </trkpt>
      <trkpt lat="48.58673" lon="-3.1803">
        <ele>202</ele>
        <time>2016-06-06T12:13:15.1Z</time>
      </trkpt>
      <trkpt lat="48.58675" lon="-3.18029">
        <ele>202</ele>
        <time>2016-06-06T12:13:17.1Z</time>
      </trkpt>
      <trkpt lat="48.58678" lon="-3.18027">
        <ele>202</ele>
        <time>2016-06-06T12:13:20.1Z</time>
      </trkpt>
      <trkpt lat="48.58681" lon="-3.18026">
        <ele>202</ele>
        <time>2016-06-06T12:13:23.1Z</time>
      </trkpt>
      <trkpt lat="48.58683" lon="-3.18025">
        <ele>203</ele>
        <time>2016-06-06T12:13:25.1Z</time>
      </trkpt>
      <trkpt lat="48.58686" lon="-3.18024">
        <ele>203</ele>
        <time>2016-06-06T12:13:28.1Z</time>
      </trkpt>
      <trkpt lat="48.58688" lon="-3.18024">
        <ele>203</ele>
        <time>2016-06-06T12:13:30.1Z</time>
      </trkpt>
      <trkpt lat="48.5869" lon="-3.18024">
        <ele>203</ele>
        <time>2016-06-06T12:13:32.1Z</time>
      </trkpt>
      <trkpt lat="48.58693" lon="-3.18024">
        <ele>202</ele>
        <time>2016-06-06T12:13:35.1Z</time>
      </trkpt>
      <trkpt lat="48.58696" lon="-3.18024">
        <ele>202</ele>
        <time>2016-06-06T12:13:38.1Z</time>
      </trkpt>
      <trkpt lat="48.58699" lon="-3.18023">
        <ele>202</ele>
        <time>2016-06-06T12:13:40.1Z</time>
      </trkpt>
      <trkpt lat="48.58701" lon="-3.18022">
        <ele>202</ele>
        <time>2016-06-06T12:13:42.1Z</time>
      </trkpt>
      <trkpt lat="48.58704" lon="-3.1802">
        <ele>202</ele>
        <time>2016-06-06T12:13:45.1Z</time>
      </trkpt>
      <trkpt lat="48.58707" lon="-3.18016">
        <ele>202</ele>
        <time>2016-06-06T12:13:48.1Z</time>
      </trkpt>
      <trkpt lat="48.58709" lon="-3.18013">
        <ele>202</ele>
        <time>2016-06-06T12:13:50.1Z</time>
      </trkpt>
      <trkpt lat="48.58709" lon="-3.18009">
        <ele>202</ele>
        <time>2016-06-06T12:13:53.1Z</time>
      </trkpt>
      <trkpt lat="48.5871" lon="-3.18004">
        <ele>202</ele>
        <time>2016-06-06T12:13:56.1Z</time>
      </trkpt>
      <trkpt lat="48.58711" lon="-3.17999">
        <ele>202</ele>
        <time>2016-06-06T12:13:59.1Z</time>
      </trkpt>
      <trkpt lat="48.58711" lon="-3.17992">
        <ele>201</ele>
        <time>2016-06-06T12:14:02.1Z</time>
      </trkpt>
      <trkpt lat="48.58714" lon="-3.17988">
        <ele>202</ele>
        <time>2016-06-06T12:14:05.1Z</time>
      </trkpt>
      <trkpt lat="48.58715" lon="-3.17985">
        <ele>202</ele>
        <time>2016-06-06T12:14:07.1Z</time>
      </trkpt>
      <trkpt lat="48.58717" lon="-3.17979">
        <ele>201</ele>
        <time>2016-06-06T12:14:10.1Z</time>
      </trkpt>
      <trkpt lat="48.58718" lon="-3.17974">
        <ele>201</ele>
        <time>2016-06-06T12:14:13.1Z</time>
      </trkpt>
      <trkpt lat="48.5872" lon="-3.17969">
        <ele>201</ele>
        <time>2016-06-06T12:14:16.1Z</time>
      </trkpt>
      <trkpt lat="48.58721" lon="-3.17966">
        <ele>202</ele>
        <time>2016-06-06T12:14:18.1Z</time>
      </trkpt>
      <trkpt lat="48.58722" lon="-3.1796">
        <ele>202</ele>
        <time>2016-06-06T12:14:21.1Z</time>
      </trkpt>
      <trkpt lat="48.58723" lon="-3.17956">
        <ele>202</ele>
        <time>2016-06-06T12:14:23.1Z</time>
      </trkpt>
      <trkpt lat="48.58724" lon="-3.17951">
        <ele>201</ele>
        <time>2016-06-06T12:14:26.1Z</time>
      </trkpt>
      <trkpt lat="48.58725" lon="-3.17947">
        <ele>201</ele>
        <time>2016-06-06T12:14:28.1Z</time>
      </trkpt>
      <trkpt lat="48.58727" lon="-3.17942">
        <ele>201</ele>
        <time>2016-06-06T12:14:31.1Z</time>
      </trkpt>
      <trkpt lat="48.58728" lon="-3.17939">
        <ele>201</ele>
        <time>2016-06-06T12:14:33.1Z</time>
      </trkpt>
      <trkpt lat="48.58731" lon="-3.17935">
        <ele>201</ele>
        <time>2016-06-06T12:14:36.1Z</time>
      </trkpt>
      <trkpt lat="48.58731" lon="-3.17931">
        <ele>201</ele>
        <time>2016-06-06T12:14:38.1Z</time>
      </trkpt>
      <trkpt lat="48.58733" lon="-3.17926">
        <ele>201</ele>
        <time>2016-06-06T12:14:41.1Z</time>
      </trkpt>
      <trkpt lat="48.58734" lon="-3.17923">
        <ele>201</ele>
        <time>2016-06-06T12:14:43.1Z</time>
      </trkpt>
      <trkpt lat="48.58735" lon="-3.17918">
        <ele>201</ele>
        <time>2016-06-06T12:14:46.1Z</time>
      </trkpt>
      <trkpt lat="48.58736" lon="-3.17915">
        <ele>201</ele>
        <time>2016-06-06T12:14:48.1Z</time>
      </trkpt>
      <trkpt lat="48.58739" lon="-3.1791">
        <ele>201</ele>
        <time>2016-06-06T12:14:51.1Z</time>
      </trkpt>
      <trkpt lat="48.58741" lon="-3.17906">
        <ele>201</ele>
        <time>2016-06-06T12:14:53.1Z</time>
      </trkpt>
      <trkpt lat="48.58743" lon="-3.17901">
        <ele>201</ele>
        <time>2016-06-06T12:14:56.1Z</time>
      </trkpt>
      <trkpt lat="48.58745" lon="-3.17898">
        <ele>201</ele>
        <time>2016-06-06T12:14:59.1Z</time>
      </trkpt>
      <trkpt lat="48.58747" lon="-3.17893">
        <ele>201</ele>
        <time>2016-06-06T12:15:02.1Z</time>
      </trkpt>
      <trkpt lat="48.58747" lon="-3.17889">
        <ele>201</ele>
        <time>2016-06-06T12:15:04.1Z</time>
      </trkpt>
      <trkpt lat="48.58749" lon="-3.17885">
        <ele>200</ele>
        <time>2016-06-06T12:15:07.1Z</time>
      </trkpt>
      <trkpt lat="48.5875" lon="-3.17882">
        <ele>200</ele>
        <time>2016-06-06T12:15:09.1Z</time>
      </trkpt>
      <trkpt lat="48.58751" lon="-3.17878">
        <ele>200</ele>
        <time>2016-06-06T12:15:12.1Z</time>
      </trkpt>
      <trkpt lat="48.58752" lon="-3.17872">
        <ele>200</ele>
        <time>2016-06-06T12:15:15.1Z</time>
      </trkpt>
      <trkpt lat="48.58754" lon="-3.1787">
        <ele>200</ele>
        <time>2016-06-06T12:15:17.1Z</time>
      </trkpt>
      <trkpt lat="48.58755" lon="-3.17865">
        <ele>201</ele>
        <time>2016-06-06T12:15:20.1Z</time>
      </trkpt>
      <trkpt lat="48.58757" lon="-3.17861">
        <ele>201</ele>
        <time>2016-06-06T12:15:23.1Z</time>
      </trkpt>
      <trkpt lat="48.58757" lon="-3.17858">
        <ele>201</ele>
        <time>2016-06-06T12:15:25.1Z</time>
      </trkpt>
      <trkpt lat="48.58758" lon="-3.17853">
        <ele>200</ele>
        <time>2016-06-06T12:15:28.1Z</time>
      </trkpt>
      <trkpt lat="48.5876" lon="-3.17848">
        <ele>200</ele>
        <time>2016-06-06T12:15:31.1Z</time>
      </trkpt>
      <trkpt lat="48.5876" lon="-3.17845">
        <ele>200</ele>
        <time>2016-06-06T12:15:33.1Z</time>
      </trkpt>
      <trkpt lat="48.58762" lon="-3.1784">
        <ele>200</ele>
        <time>2016-06-06T12:15:36.1Z</time>
      </trkpt>
      <trkpt lat="48.58763" lon="-3.17836">
        <ele>200</ele>
        <time>2016-06-06T12:15:38.1Z</time>
      </trkpt>
      <trkpt lat="48.58764" lon="-3.17832">
        <ele>200</ele>
        <time>2016-06-06T12:15:40.1Z</time>
      </trkpt>
      <trkpt lat="48.58765" lon="-3.17827">
        <ele>200</ele>
        <time>2016-06-06T12:15:43.1Z</time>
      </trkpt>
      <trkpt lat="48.58765" lon="-3.17821">
        <ele>200</ele>
        <time>2016-06-06T12:15:46.1Z</time>
      </trkpt>
      <trkpt lat="48.58767" lon="-3.17817">
        <ele>200</ele>
        <time>2016-06-06T12:15:48.1Z</time>
      </trkpt>
      <trkpt lat="48.58767" lon="-3.17812">
        <ele>200</ele>
        <time>2016-06-06T12:15:51.1Z</time>
      </trkpt>
      <trkpt lat="48.58768" lon="-3.17807">
        <ele>200</ele>
        <time>2016-06-06T12:15:54.1Z</time>
      </trkpt>
      <trkpt lat="48.58768" lon="-3.17803">
        <ele>200</ele>
        <time>2016-06-06T12:15:56.1Z</time>
      </trkpt>
      <trkpt lat="48.58769" lon="-3.17798">
        <ele>200</ele>
        <time>2016-06-06T12:15:59.1Z</time>
      </trkpt>
      <trkpt lat="48.5877" lon="-3.17792">
        <ele>200</ele>
        <time>2016-06-06T12:16:02.1Z</time>
      </trkpt>
      <trkpt lat="48.5877" lon="-3.17788">
        <ele>200</ele>
        <time>2016-06-06T12:16:04.1Z</time>
      </trkpt>
      <trkpt lat="48.58771" lon="-3.17783">
        <ele>200</ele>
        <time>2016-06-06T12:16:07.1Z</time>
      </trkpt>
      <trkpt lat="48.58772" lon="-3.17779">
        <ele>200</ele>
        <time>2016-06-06T12:16:09.1Z</time>
      </trkpt>
      <trkpt lat="48.58773" lon="-3.17774">
        <ele>200</ele>
        <time>2016-06-06T12:16:12.1Z</time>
      </trkpt>
      <trkpt lat="48.58773" lon="-3.17768">
        <ele>200</ele>
        <time>2016-06-06T12:16:15.1Z</time>
      </trkpt>
      <trkpt lat="48.58773" lon="-3.17762">
        <ele>200</ele>
        <time>2016-06-06T12:16:18.1Z</time>
      </trkpt>
      <trkpt lat="48.58773" lon="-3.17759">
        <ele>200</ele>
        <time>2016-06-06T12:16:20.1Z</time>
      </trkpt>
      <trkpt lat="48.58773" lon="-3.17754">
        <ele>200</ele>
        <time>2016-06-06T12:16:23.1Z</time>
      </trkpt>
      <trkpt lat="48.58773" lon="-3.17749">
        <ele>200</ele>
        <time>2016-06-06T12:16:26.1Z</time>
      </trkpt>
      <trkpt lat="48.58774" lon="-3.17744">
        <ele>200</ele>
        <time>2016-06-06T12:16:29.1Z</time>
      </trkpt>
      <trkpt lat="48.58774" lon="-3.17741">
        <ele>200</ele>
        <time>2016-06-06T12:16:31.1Z</time>
      </trkpt>
      <trkpt lat="48.58775" lon="-3.17735">
        <ele>200</ele>
        <time>2016-06-06T12:16:34.1Z</time>
      </trkpt>
      <trkpt lat="48.58775" lon="-3.17729">
        <ele>200</ele>
        <time>2016-06-06T12:16:37.1Z</time>
      </trkpt>
      <trkpt lat="48.58775" lon="-3.17724">
        <ele>200</ele>
        <time>2016-06-06T12:16:40.1Z</time>
      </trkpt>
      <trkpt lat="48.58776" lon="-3.17719">
        <ele>200</ele>
        <time>2016-06-06T12:16:43.1Z</time>
      </trkpt>
      <trkpt lat="48.58778" lon="-3.17714">
        <ele>200</ele>
        <time>2016-06-06T12:16:46.1Z</time>
      </trkpt>
      <trkpt lat="48.5878" lon="-3.17708">
        <ele>200</ele>
        <time>2016-06-06T12:16:49.1Z</time>
      </trkpt>
      <trkpt lat="48.58781" lon="-3.17705">
        <ele>200</ele>
        <time>2016-06-06T12:16:51.1Z</time>
      </trkpt>
      <trkpt lat="48.58782" lon="-3.17701">
        <ele>200</ele>
        <time>2016-06-06T12:16:54.1Z</time>
      </trkpt>
      <trkpt lat="48.58784" lon="-3.17698">
        <ele>200</ele>
        <time>2016-06-06T12:16:56.1Z</time>
      </trkpt>
      <trkpt lat="48.58785" lon="-3.17694">
        <ele>200</ele>
        <time>2016-06-06T12:16:59.1Z</time>
      </trkpt>
      <trkpt lat="48.58788" lon="-3.17689">
        <ele>200</ele>
        <time>2016-06-06T12:17:02.1Z</time>
      </trkpt>
      <trkpt lat="48.58789" lon="-3.17685">
        <ele>200</ele>
        <time>2016-06-06T12:17:05.1Z</time>
      </trkpt>
      <trkpt lat="48.58791" lon="-3.17682">
        <ele>200</ele>
        <time>2016-06-06T12:17:07.1Z</time>
      </trkpt>
      <trkpt lat="48.58792" lon="-3.17676">
        <ele>200</ele>
        <time>2016-06-06T12:17:10.1Z</time>
      </trkpt>
      <trkpt lat="48.58794" lon="-3.17673">
        <ele>200</ele>
        <time>2016-06-06T12:17:12.1Z</time>
      </trkpt>
      <trkpt lat="48.58796" lon="-3.1767">
        <ele>200</ele>
        <time>2016-06-06T12:17:15.1Z</time>
      </trkpt>
      <trkpt lat="48.58799" lon="-3.17665">
        <ele>200</ele>
        <time>2016-06-06T12:17:18.1Z</time>
      </trkpt>
      <trkpt lat="48.58801" lon="-3.17662">
        <ele>200</ele>
        <time>2016-06-06T12:17:21.1Z</time>
      </trkpt>
      <trkpt lat="48.58802" lon="-3.17659">
        <ele>200</ele>
        <time>2016-06-06T12:17:23.1Z</time>
      </trkpt>
      <trkpt lat="48.58803" lon="-3.17657">
        <ele>200</ele>
        <time>2016-06-06T12:17:25.1Z</time>
      </trkpt>
      <trkpt lat="48.58805" lon="-3.17654">
        <ele>200</ele>
        <time>2016-06-06T12:17:28.1Z</time>
      </trkpt>
      <trkpt lat="48.58807" lon="-3.1765">
        <ele>200</ele>
        <time>2016-06-06T12:17:31.1Z</time>
      </trkpt>
      <trkpt lat="48.58808" lon="-3.17648">
        <ele>200</ele>
        <time>2016-06-06T12:17:33.1Z</time>
      </trkpt>
      <trkpt lat="48.58811" lon="-3.17643">
        <ele>200</ele>
        <time>2016-06-06T12:17:36.1Z</time>
      </trkpt>
      <trkpt lat="48.58813" lon="-3.1764">
        <ele>200</ele>
        <time>2016-06-06T12:17:39.1Z</time>
      </trkpt>
      <trkpt lat="48.58816" lon="-3.17637">
        <ele>200</ele>
        <time>2016-06-06T12:17:42.1Z</time>
      </trkpt>
      <trkpt lat="48.58818" lon="-3.17635">
        <ele>200</ele>
        <time>2016-06-06T12:17:44.1Z</time>
      </trkpt>
      <trkpt lat="48.58821" lon="-3.17632">
        <ele>200</ele>
        <time>2016-06-06T12:17:47.1Z</time>
      </trkpt>
      <trkpt lat="48.58822" lon="-3.17628">
        <ele>201</ele>
        <time>2016-06-06T12:17:50.1Z</time>
      </trkpt>
      <trkpt lat="48.58824" lon="-3.17622">
        <ele>201</ele>
        <time>2016-06-06T12:17:53.1Z</time>
      </trkpt>
      <trkpt lat="48.58825" lon="-3.17619">
        <ele>201</ele>
        <time>2016-06-06T12:17:55.1Z</time>
      </trkpt>
      <trkpt lat="48.58825" lon="-3.17615">
        <ele>201</ele>
        <time>2016-06-06T12:17:57.1Z</time>
      </trkpt>
      <trkpt lat="48.58825" lon="-3.17609">
        <ele>201</ele>
        <time>2016-06-06T12:18:00.1Z</time>
      </trkpt>
      <trkpt lat="48.58824" lon="-3.17605">
        <ele>201</ele>
        <time>2016-06-06T12:18:02.1Z</time>
      </trkpt>
      <trkpt lat="48.58824" lon="-3.17602">
        <ele>201</ele>
        <time>2016-06-06T12:18:04.1Z</time>
      </trkpt>
      <trkpt lat="48.58824" lon="-3.17597">
        <ele>201</ele>
        <time>2016-06-06T12:18:07.1Z</time>
      </trkpt>
      <trkpt lat="48.58823" lon="-3.17591">
        <ele>201</ele>
        <time>2016-06-06T12:18:10.1Z</time>
      </trkpt>
      <trkpt lat="48.58823" lon="-3.17588">
        <ele>202</ele>
        <time>2016-06-06T12:18:12.1Z</time>
      </trkpt>
      <trkpt lat="48.58823" lon="-3.17582">
        <ele>202</ele>
        <time>2016-06-06T12:18:15.1Z</time>
      </trkpt>
      <trkpt lat="48.58823" lon="-3.17577">
        <ele>201</ele>
        <time>2016-06-06T12:18:17.1Z</time>
      </trkpt>
      <trkpt lat="48.58823" lon="-3.17572">
        <ele>201</ele>
        <time>2016-06-06T12:18:20.1Z</time>
      </trkpt>
      <trkpt lat="48.58824" lon="-3.17568">
        <ele>201</ele>
        <time>2016-06-06T12:18:22.1Z</time>
      </trkpt>
      <trkpt lat="48.58824" lon="-3.17562">
        <ele>201</ele>
        <time>2016-06-06T12:18:25.1Z</time>
      </trkpt>
      <trkpt lat="48.58825" lon="-3.17556">
        <ele>202</ele>
        <time>2016-06-06T12:18:28.1Z</time>
      </trkpt>
      <trkpt lat="48.58825" lon="-3.17551">
        <ele>202</ele>
        <time>2016-06-06T12:18:30.1Z</time>
      </trkpt>
      <trkpt lat="48.58825" lon="-3.17546">
        <ele>201</ele>
        <time>2016-06-06T12:18:33.1Z</time>
      </trkpt>
      <trkpt lat="48.58826" lon="-3.1754">
        <ele>201</ele>
        <time>2016-06-06T12:18:36.1Z</time>
      </trkpt>
      <trkpt lat="48.58826" lon="-3.17537">
        <ele>201</ele>
        <time>2016-06-06T12:18:38.1Z</time>
      </trkpt>
      <trkpt lat="48.58826" lon="-3.17531">
        <ele>201</ele>
        <time>2016-06-06T12:18:41.1Z</time>
      </trkpt>
      <trkpt lat="48.58826" lon="-3.17528">
        <ele>200</ele>
        <time>2016-06-06T12:18:43.1Z</time>
      </trkpt>
      <trkpt lat="48.58825" lon="-3.17523">
        <ele>200</ele>
        <time>2016-06-06T12:18:46.1Z</time>
      </trkpt>
      <trkpt lat="48.58825" lon="-3.17519">
        <ele>199</ele>
        <time>2016-06-06T12:18:48.1Z</time>
      </trkpt>
      <trkpt lat="48.58825" lon="-3.17515">
        <ele>199</ele>
        <time>2016-06-06T12:18:51.1Z</time>
      </trkpt>
      <trkpt lat="48.58826" lon="-3.17509">
        <ele>199</ele>
        <time>2016-06-06T12:18:54.1Z</time>
      </trkpt>
      <trkpt lat="48.58827" lon="-3.17507">
        <ele>199</ele>
        <time>2016-06-06T12:18:56.1Z</time>
      </trkpt>
      <trkpt lat="48.58828" lon="-3.17505">
        <ele>199</ele>
        <time>2016-06-06T12:18:58.1Z</time>
      </trkpt>
      <trkpt lat="48.58829" lon="-3.17501">
        <ele>199</ele>
        <time>2016-06-06T12:19:01.1Z</time>
      </trkpt>
      <trkpt lat="48.5883" lon="-3.175">
        <ele>198</ele>
        <time>2016-06-06T12:19:03.1Z</time>
      </trkpt>
      <trkpt lat="48.58829" lon="-3.17499">
        <ele>198</ele>
        <time>2016-06-06T12:19:06.1Z</time>
      </trkpt>
      <trkpt lat="48.5883" lon="-3.175">
        <ele>198</ele>
        <time>2016-06-06T12:19:09.1Z</time>
      </trkpt>
      <trkpt lat="48.5883" lon="-3.175">
        <ele>198</ele>
        <time>2016-06-06T12:19:12.1Z</time>
      </trkpt>
      <trkpt lat="48.58829" lon="-3.17501">
        <ele>199</ele>
        <time>2016-06-06T12:19:15.1Z</time>
      </trkpt>
      <trkpt lat="48.58829" lon="-3.17502">
        <ele>199</ele>
        <time>2016-06-06T12:19:17.1Z</time>
      </trkpt>
      <trkpt lat="48.58829" lon="-3.17503">
        <ele>200</ele>
        <time>2016-06-06T12:19:19.1Z</time>
      </trkpt>
      <trkpt lat="48.58829" lon="-3.17503">
        <ele>200</ele>
        <time>2016-06-06T12:19:23.1Z</time>
      </trkpt>
      <trkpt lat="48.58829" lon="-3.17502">
        <ele>200</ele>
        <time>2016-06-06T12:19:25.1Z</time>
      </trkpt>
      <trkpt lat="48.58829" lon="-3.17502">
        <ele>200</ele>
        <time>2016-06-06T12:19:28.1Z</time>
      </trkpt>
      <trkpt lat="48.5883" lon="-3.17502">
        <ele>200</ele>
        <time>2016-06-06T12:19:31.1Z</time>
      </trkpt>
      <trkpt lat="48.5883" lon="-3.17501">
        <ele>199</ele>
        <time>2016-06-06T12:19:33.1Z</time>
      </trkpt>
      <trkpt lat="48.5883" lon="-3.175">
        <ele>199</ele>
        <time>2016-06-06T12:19:36.1Z</time>
      </trkpt>
      <trkpt lat="48.5883" lon="-3.17498">
        <ele>199</ele>
        <time>2016-06-06T12:19:39.1Z</time>
      </trkpt>
      <trkpt lat="48.58829" lon="-3.17497">
        <ele>198</ele>
        <time>2016-06-06T12:19:41.1Z</time>
      </trkpt>
      <trkpt lat="48.58829" lon="-3.17495">
        <ele>198</ele>
        <time>2016-06-06T12:19:43.1Z</time>
      </trkpt>
      <trkpt lat="48.5883" lon="-3.17492">
        <ele>198</ele>
        <time>2016-06-06T12:19:46.1Z</time>
      </trkpt>
      <trkpt lat="48.5883" lon="-3.17488">
        <ele>198</ele>
        <time>2016-06-06T12:19:48.1Z</time>
      </trkpt>
      <trkpt lat="48.58831" lon="-3.17486">
        <ele>198</ele>
        <time>2016-06-06T12:19:50.1Z</time>
      </trkpt>
      <trkpt lat="48.58833" lon="-3.17485">
        <ele>198</ele>
        <time>2016-06-06T12:19:53.1Z</time>
      </trkpt>
      <trkpt lat="48.58835" lon="-3.17484">
        <ele>198</ele>
        <time>2016-06-06T12:19:55.1Z</time>
      </trkpt>
      <trkpt lat="48.58836" lon="-3.17484">
        <ele>198</ele>
        <time>2016-06-06T12:19:58.1Z</time>
      </trkpt>
      <trkpt lat="48.58838" lon="-3.17484">
        <ele>197</ele>
        <time>2016-06-06T12:20:00.1Z</time>
      </trkpt>
      <trkpt lat="48.58842" lon="-3.17484">
        <ele>197</ele>
        <time>2016-06-06T12:20:03.1Z</time>
      </trkpt>
      <trkpt lat="48.58845" lon="-3.17484">
        <ele>197</ele>
        <time>2016-06-06T12:20:06.1Z</time>
      </trkpt>
      <trkpt lat="48.58847" lon="-3.17484">
        <ele>197</ele>
        <time>2016-06-06T12:20:08.1Z</time>
      </trkpt>
      <trkpt lat="48.5885" lon="-3.17484">
        <ele>197</ele>
        <time>2016-06-06T12:20:11.1Z</time>
      </trkpt>
      <trkpt lat="48.58852" lon="-3.17484">
        <ele>197</ele>
        <time>2016-06-06T12:20:13.1Z</time>
      </trkpt>
      <trkpt lat="48.58855" lon="-3.17484">
        <ele>197</ele>
        <time>2016-06-06T12:20:16.1Z</time>
      </trkpt>
      <trkpt lat="48.58857" lon="-3.17484">
        <ele>197</ele>
        <time>2016-06-06T12:20:19.1Z</time>
      </trkpt>
      <trkpt lat="48.58861" lon="-3.17484">
        <ele>197</ele>
        <time>2016-06-06T12:20:22.1Z</time>
      </trkpt>
      <trkpt lat="48.58863" lon="-3.17484">
        <ele>197</ele>
        <time>2016-06-06T12:20:24.1Z</time>
      </trkpt>
      <trkpt lat="48.58866" lon="-3.17484">
        <ele>197</ele>
        <time>2016-06-06T12:20:26.1Z</time>
      </trkpt>
      <trkpt lat="48.58869" lon="-3.17484">
        <ele>197</ele>
        <time>2016-06-06T12:20:29.1Z</time>
      </trkpt>
      <trkpt lat="48.58871" lon="-3.17484">
        <ele>198</ele>
        <time>2016-06-06T12:20:31.1Z</time>
      </trkpt>
      <trkpt lat="48.58874" lon="-3.17485">
        <ele>198</ele>
        <time>2016-06-06T12:20:33.1Z</time>
      </trkpt>
      <trkpt lat="48.58877" lon="-3.17485">
        <ele>197</ele>
        <time>2016-06-06T12:20:36.1Z</time>
      </trkpt>
      <trkpt lat="48.58881" lon="-3.17485">
        <ele>197</ele>
        <time>2016-06-06T12:20:39.1Z</time>
      </trkpt>
      <trkpt lat="48.58883" lon="-3.17485">
        <ele>197</ele>
        <time>2016-06-06T12:20:41.1Z</time>
      </trkpt>
      <trkpt lat="48.58886" lon="-3.17485">
        <ele>197</ele>
        <time>2016-06-06T12:20:44.1Z</time>
      </trkpt>
      <trkpt lat="48.58889" lon="-3.17485">
        <ele>197</ele>
        <time>2016-06-06T12:20:46.1Z</time>
      </trkpt>
      <trkpt lat="48.58892" lon="-3.17485">
        <ele>197</ele>
        <time>2016-06-06T12:20:49.1Z</time>
      </trkpt>
      <trkpt lat="48.58895" lon="-3.17484">
        <ele>198</ele>
        <time>2016-06-06T12:20:52.1Z</time>
      </trkpt>
      <trkpt lat="48.58898" lon="-3.17483">
        <ele>197</ele>
        <time>2016-06-06T12:20:55.1Z</time>
      </trkpt>
      <trkpt lat="48.589" lon="-3.17483">
        <ele>197</ele>
        <time>2016-06-06T12:20:58.1Z</time>
      </trkpt>
      <trkpt lat="48.58902" lon="-3.17482">
        <ele>197</ele>
        <time>2016-06-06T12:21:00.1Z</time>
      </trkpt>
      <trkpt lat="48.58905" lon="-3.17481">
        <ele>197</ele>
        <time>2016-06-06T12:21:03.1Z</time>
      </trkpt>
      <trkpt lat="48.58907" lon="-3.17479">
        <ele>197</ele>
        <time>2016-06-06T12:21:05.1Z</time>
      </trkpt>
      <trkpt lat="48.58909" lon="-3.17478">
        <ele>197</ele>
        <time>2016-06-06T12:21:07.1Z</time>
      </trkpt>
      <trkpt lat="48.58912" lon="-3.17475">
        <ele>197</ele>
        <time>2016-06-06T12:21:10.1Z</time>
      </trkpt>
      <trkpt lat="48.58913" lon="-3.17473">
        <ele>197</ele>
        <time>2016-06-06T12:21:12.1Z</time>
      </trkpt>
      <trkpt lat="48.58916" lon="-3.17468">
        <ele>197</ele>
        <time>2016-06-06T12:21:15.1Z</time>
      </trkpt>
      <trkpt lat="48.58918" lon="-3.17463">
        <ele>197</ele>
        <time>2016-06-06T12:21:18.1Z</time>
      </trkpt>
      <trkpt lat="48.58919" lon="-3.1746">
        <ele>197</ele>
        <time>2016-06-06T12:21:20.1Z</time>
      </trkpt>
      <trkpt lat="48.58921" lon="-3.17455">
        <ele>197</ele>
        <time>2016-06-06T12:21:23.1Z</time>
      </trkpt>
      <trkpt lat="48.58922" lon="-3.17452">
        <ele>197</ele>
        <time>2016-06-06T12:21:25.1Z</time>
      </trkpt>
      <trkpt lat="48.58923" lon="-3.17447">
        <ele>197</ele>
        <time>2016-06-06T12:21:28.1Z</time>
      </trkpt>
      <trkpt lat="48.58925" lon="-3.17443">
        <ele>196</ele>
        <time>2016-06-06T12:21:31.1Z</time>
      </trkpt>
      <trkpt lat="48.58926" lon="-3.17438">
        <ele>196</ele>
        <time>2016-06-06T12:21:34.1Z</time>
      </trkpt>
      <trkpt lat="48.58927" lon="-3.17436">
        <ele>196</ele>
        <time>2016-06-06T12:21:36.1Z</time>
      </trkpt>
      <trkpt lat="48.58928" lon="-3.1743">
        <ele>197</ele>
        <time>2016-06-06T12:21:39.1Z</time>
      </trkpt>
      <trkpt lat="48.58929" lon="-3.17428">
        <ele>197</ele>
        <time>2016-06-06T12:21:41.1Z</time>
      </trkpt>
      <trkpt lat="48.5893" lon="-3.17425">
        <ele>197</ele>
        <time>2016-06-06T12:21:43.1Z</time>
      </trkpt>
      <trkpt lat="48.58932" lon="-3.1742">
        <ele>197</ele>
        <time>2016-06-06T12:21:46.1Z</time>
      </trkpt>
      <trkpt lat="48.58934" lon="-3.17414">
        <ele>197</ele>
        <time>2016-06-06T12:21:49.1Z</time>
      </trkpt>
      <trkpt lat="48.58936" lon="-3.1741">
        <ele>196</ele>
        <time>2016-06-06T12:21:51.1Z</time>
      </trkpt>
      <trkpt lat="48.58937" lon="-3.17407">
        <ele>196</ele>
        <time>2016-06-06T12:21:54.1Z</time>
      </trkpt>
      <trkpt lat="48.58939" lon="-3.17404">
        <ele>196</ele>
        <time>2016-06-06T12:21:56.1Z</time>
      </trkpt>
      <trkpt lat="48.58941" lon="-3.17399">
        <ele>196</ele>
        <time>2016-06-06T12:21:59.1Z</time>
      </trkpt>
      <trkpt lat="48.58942" lon="-3.17396">
        <ele>196</ele>
        <time>2016-06-06T12:22:02.1Z</time>
      </trkpt>
      <trkpt lat="48.58944" lon="-3.17394">
        <ele>196</ele>
        <time>2016-06-06T12:22:04.1Z</time>
      </trkpt>
      <trkpt lat="48.58945" lon="-3.17391">
        <ele>196</ele>
        <time>2016-06-06T12:22:06.1Z</time>
      </trkpt>
      <trkpt lat="48.58948" lon="-3.17388">
        <ele>196</ele>
        <time>2016-06-06T12:22:09.1Z</time>
      </trkpt>
      <trkpt lat="48.5895" lon="-3.17384">
        <ele>196</ele>
        <time>2016-06-06T12:22:12.1Z</time>
      </trkpt>
      <trkpt lat="48.58951" lon="-3.17383">
        <ele>196</ele>
        <time>2016-06-06T12:22:14.1Z</time>
      </trkpt>
      <trkpt lat="48.58953" lon="-3.17378">
        <ele>196</ele>
        <time>2016-06-06T12:22:17.1Z</time>
      </trkpt>
      <trkpt lat="48.58955" lon="-3.17376">
        <ele>195</ele>
        <time>2016-06-06T12:22:19.1Z</time>
      </trkpt>
      <trkpt lat="48.58957" lon="-3.17372">
        <ele>196</ele>
        <time>2016-06-06T12:22:22.1Z</time>
      </trkpt>
      <trkpt lat="48.58959" lon="-3.1737">
        <ele>196</ele>
        <time>2016-06-06T12:22:24.1Z</time>
      </trkpt>
      <trkpt lat="48.58961" lon="-3.17367">
        <ele>195</ele>
        <time>2016-06-06T12:22:27.1Z</time>
      </trkpt>
      <trkpt lat="48.58963" lon="-3.17365">
        <ele>195</ele>
        <time>2016-06-06T12:22:29.1Z</time>
      </trkpt>
      <trkpt lat="48.58965" lon="-3.17364">
        <ele>195</ele>
        <time>2016-06-06T12:22:31.1Z</time>
      </trkpt>
      <trkpt lat="48.58966" lon="-3.17362">
        <ele>195</ele>
        <time>2016-06-06T12:22:33.1Z</time>
      </trkpt>
      <trkpt lat="48.58969" lon="-3.17358">
        <ele>195</ele>
        <time>2016-06-06T12:22:36.1Z</time>
      </trkpt>
      <trkpt lat="48.58971" lon="-3.17355">
        <ele>195</ele>
        <time>2016-06-06T12:22:39.1Z</time>
      </trkpt>
      <trkpt lat="48.58973" lon="-3.17353">
        <ele>195</ele>
        <time>2016-06-06T12:22:41.1Z</time>
      </trkpt>
      <trkpt lat="48.58976" lon="-3.1735">
        <ele>195</ele>
        <time>2016-06-06T12:22:44.1Z</time>
      </trkpt>
      <trkpt lat="48.58977" lon="-3.17347">
        <ele>195</ele>
        <time>2016-06-06T12:22:46.1Z</time>
      </trkpt>
      <trkpt lat="48.58979" lon="-3.17343">
        <ele>195</ele>
        <time>2016-06-06T12:22:49.1Z</time>
      </trkpt>
      <trkpt lat="48.58982" lon="-3.1734">
        <ele>195</ele>
        <time>2016-06-06T12:22:52.1Z</time>
      </trkpt>
      <trkpt lat="48.58985" lon="-3.17336">
        <ele>194</ele>
        <time>2016-06-06T12:22:55.1Z</time>
      </trkpt>
      <trkpt lat="48.58986" lon="-3.17334">
        <ele>194</ele>
        <time>2016-06-06T12:22:57.1Z</time>
      </trkpt>
      <trkpt lat="48.58987" lon="-3.17331">
        <ele>194</ele>
        <time>2016-06-06T12:22:59.1Z</time>
      </trkpt>
      <trkpt lat="48.5899" lon="-3.17328">
        <ele>194</ele>
        <time>2016-06-06T12:23:02.1Z</time>
      </trkpt>
      <trkpt lat="48.58992" lon="-3.17324">
        <ele>194</ele>
        <time>2016-06-06T12:23:05.1Z</time>
      </trkpt>
      <trkpt lat="48.58993" lon="-3.17321">
        <ele>194</ele>
        <time>2016-06-06T12:23:07.1Z</time>
      </trkpt>
      <trkpt lat="48.58996" lon="-3.17318">
        <ele>194</ele>
        <time>2016-06-06T12:23:10.1Z</time>
      </trkpt>
      <trkpt lat="48.58997" lon="-3.17315">
        <ele>194</ele>
        <time>2016-06-06T12:23:12.1Z</time>
      </trkpt>
      <trkpt lat="48.59" lon="-3.17312">
        <ele>194</ele>
        <time>2016-06-06T12:23:15.1Z</time>
      </trkpt>
      <trkpt lat="48.59003" lon="-3.17308">
        <ele>194</ele>
        <time>2016-06-06T12:23:18.1Z</time>
      </trkpt>
      <trkpt lat="48.59004" lon="-3.17304">
        <ele>194</ele>
        <time>2016-06-06T12:23:21.1Z</time>
      </trkpt>
      <trkpt lat="48.59005" lon="-3.17302">
        <ele>194</ele>
        <time>2016-06-06T12:23:23.1Z</time>
      </trkpt>
      <trkpt lat="48.59008" lon="-3.17299">
        <ele>195</ele>
        <time>2016-06-06T12:23:26.1Z</time>
      </trkpt>
      <trkpt lat="48.59009" lon="-3.17297">
        <ele>194</ele>
        <time>2016-06-06T12:23:28.1Z</time>
      </trkpt>
      <trkpt lat="48.59011" lon="-3.17293">
        <ele>194</ele>
        <time>2016-06-06T12:23:31.1Z</time>
      </trkpt>
      <trkpt lat="48.59013" lon="-3.1729">
        <ele>194</ele>
        <time>2016-06-06T12:23:33.1Z</time>
      </trkpt>
      <trkpt lat="48.59014" lon="-3.17287">
        <ele>194</ele>
        <time>2016-06-06T12:23:35.1Z</time>
      </trkpt>
      <trkpt lat="48.59016" lon="-3.17284">
        <ele>195</ele>
        <time>2016-06-06T12:23:38.1Z</time>
      </trkpt>
      <trkpt lat="48.59018" lon="-3.17281">
        <ele>195</ele>
        <time>2016-06-06T12:23:40.1Z</time>
      </trkpt>
      <trkpt lat="48.5902" lon="-3.1728">
        <ele>195</ele>
        <time>2016-06-06T12:23:42.1Z</time>
      </trkpt>
      <trkpt lat="48.59022" lon="-3.17276">
        <ele>195</ele>
        <time>2016-06-06T12:23:45.1Z</time>
      </trkpt>
      <trkpt lat="48.59024" lon="-3.17272">
        <ele>195</ele>
        <time>2016-06-06T12:23:48.1Z</time>
      </trkpt>
      <trkpt lat="48.59025" lon="-3.1727">
        <ele>195</ele>
        <time>2016-06-06T12:23:50.1Z</time>
      </trkpt>
      <trkpt lat="48.59028" lon="-3.17266">
        <ele>195</ele>
        <time>2016-06-06T12:23:53.1Z</time>
      </trkpt>
      <trkpt lat="48.59029" lon="-3.17264">
        <ele>195</ele>
        <time>2016-06-06T12:23:55.1Z</time>
      </trkpt>
      <trkpt lat="48.59031" lon="-3.1726">
        <ele>195</ele>
        <time>2016-06-06T12:23:58.1Z</time>
      </trkpt>
      <trkpt lat="48.59034" lon="-3.17256">
        <ele>195</ele>
        <time>2016-06-06T12:24:01.1Z</time>
      </trkpt>
      <trkpt lat="48.59035" lon="-3.17253">
        <ele>195</ele>
        <time>2016-06-06T12:24:03.1Z</time>
      </trkpt>
      <trkpt lat="48.59038" lon="-3.1725">
        <ele>195</ele>
        <time>2016-06-06T12:24:06.1Z</time>
      </trkpt>
      <trkpt lat="48.59039" lon="-3.17248">
        <ele>195</ele>
        <time>2016-06-06T12:24:08.1Z</time>
      </trkpt>
      <trkpt lat="48.59042" lon="-3.17243">
        <ele>195</ele>
        <time>2016-06-06T12:24:11.1Z</time>
      </trkpt>
      <trkpt lat="48.59045" lon="-3.17241">
        <ele>195</ele>
        <time>2016-06-06T12:24:14.1Z</time>
      </trkpt>
      <trkpt lat="48.59046" lon="-3.17236">
        <ele>195</ele>
        <time>2016-06-06T12:24:17.1Z</time>
      </trkpt>
      <trkpt lat="48.59047" lon="-3.17233">
        <ele>196</ele>
        <time>2016-06-06T12:24:19.1Z</time>
      </trkpt>
      <trkpt lat="48.59049" lon="-3.17229">
        <ele>196</ele>
        <time>2016-06-06T12:24:22.1Z</time>
      </trkpt>
      <trkpt lat="48.5905" lon="-3.17226">
        <ele>196</ele>
        <time>2016-06-06T12:24:24.1Z</time>
      </trkpt>
      <trkpt lat="48.59052" lon="-3.17222">
        <ele>195</ele>
        <time>2016-06-06T12:24:27.1Z</time>
      </trkpt>
      <trkpt lat="48.59053" lon="-3.17218">
        <ele>195</ele>
        <time>2016-06-06T12:24:29.1Z</time>
      </trkpt>
      <trkpt lat="48.59055" lon="-3.17214">
        <ele>196</ele>
        <time>2016-06-06T12:24:32.1Z</time>
      </trkpt>
      <trkpt lat="48.59057" lon="-3.1721">
        <ele>196</ele>
        <time>2016-06-06T12:24:35.1Z</time>
      </trkpt>
      <trkpt lat="48.59058" lon="-3.17206">
        <ele>196</ele>
        <time>2016-06-06T12:24:37.1Z</time>
      </trkpt>
      <trkpt lat="48.5906" lon="-3.17202">
        <ele>196</ele>
        <time>2016-06-06T12:24:40.1Z</time>
      </trkpt>
      <trkpt lat="48.59061" lon="-3.17196">
        <ele>196</ele>
        <time>2016-06-06T12:24:43.1Z</time>
      </trkpt>
      <trkpt lat="48.59062" lon="-3.17193">
        <ele>196</ele>
        <time>2016-06-06T12:24:45.1Z</time>
      </trkpt>
      <trkpt lat="48.59063" lon="-3.17188">
        <ele>196</ele>
        <time>2016-06-06T12:24:48.1Z</time>
      </trkpt>
      <trkpt lat="48.59065" lon="-3.17183">
        <ele>196</ele>
        <time>2016-06-06T12:24:51.1Z</time>
      </trkpt>
      <trkpt lat="48.59066" lon="-3.17179">
        <ele>196</ele>
        <time>2016-06-06T12:24:54.1Z</time>
      </trkpt>
      <trkpt lat="48.59068" lon="-3.17176">
        <ele>196</ele>
        <time>2016-06-06T12:24:56.1Z</time>
      </trkpt>
      <trkpt lat="48.5907" lon="-3.17172">
        <ele>196</ele>
        <time>2016-06-06T12:24:59.1Z</time>
      </trkpt>
      <trkpt lat="48.59072" lon="-3.1717">
        <ele>196</ele>
        <time>2016-06-06T12:25:02.1Z</time>
      </trkpt>
      <trkpt lat="48.59075" lon="-3.17171">
        <ele>196</ele>
        <time>2016-06-06T12:25:05.1Z</time>
      </trkpt>
      <trkpt lat="48.59078" lon="-3.17172">
        <ele>196</ele>
        <time>2016-06-06T12:25:08.1Z</time>
      </trkpt>
      <trkpt lat="48.5908" lon="-3.17172">
        <ele>197</ele>
        <time>2016-06-06T12:25:10.1Z</time>
      </trkpt>
      <trkpt lat="48.59082" lon="-3.17173">
        <ele>197</ele>
        <time>2016-06-06T12:25:12.1Z</time>
      </trkpt>
      <trkpt lat="48.59085" lon="-3.17174">
        <ele>197</ele>
        <time>2016-06-06T12:25:15.1Z</time>
      </trkpt>
      <trkpt lat="48.59087" lon="-3.17175">
        <ele>197</ele>
        <time>2016-06-06T12:25:17.1Z</time>
      </trkpt>
      <trkpt lat="48.59089" lon="-3.17175">
        <ele>197</ele>
        <time>2016-06-06T12:25:19.1Z</time>
      </trkpt>
      <trkpt lat="48.59092" lon="-3.17177">
        <ele>197</ele>
        <time>2016-06-06T12:25:22.1Z</time>
      </trkpt>
      <trkpt lat="48.59094" lon="-3.17177">
        <ele>196</ele>
        <time>2016-06-06T12:25:24.1Z</time>
      </trkpt>
      <trkpt lat="48.59097" lon="-3.17178">
        <ele>196</ele>
        <time>2016-06-06T12:25:27.1Z</time>
      </trkpt>
      <trkpt lat="48.59099" lon="-3.17179">
        <ele>196</ele>
        <time>2016-06-06T12:25:29.1Z</time>
      </trkpt>
      <trkpt lat="48.59102" lon="-3.1718">
        <ele>196</ele>
        <time>2016-06-06T12:25:32.1Z</time>
      </trkpt>
      <trkpt lat="48.59105" lon="-3.17181">
        <ele>196</ele>
        <time>2016-06-06T12:25:35.1Z</time>
      </trkpt>
      <trkpt lat="48.59107" lon="-3.17182">
        <ele>196</ele>
        <time>2016-06-06T12:25:37.1Z</time>
      </trkpt>
      <trkpt lat="48.5911" lon="-3.17183">
        <ele>197</ele>
        <time>2016-06-06T12:25:40.1Z</time>
      </trkpt>
      <trkpt lat="48.59111" lon="-3.17184">
        <ele>196</ele>
        <time>2016-06-06T12:25:42.1Z</time>
      </trkpt>
      <trkpt lat="48.59114" lon="-3.17186">
        <ele>196</ele>
        <time>2016-06-06T12:25:45.1Z</time>
      </trkpt>
      <trkpt lat="48.59116" lon="-3.17188">
        <ele>196</ele>
        <time>2016-06-06T12:25:48.1Z</time>
      </trkpt>
      <trkpt lat="48.59119" lon="-3.17191">
        <ele>196</ele>
        <time>2016-06-06T12:25:51.1Z</time>
      </trkpt>
      <trkpt lat="48.59123" lon="-3.17193">
        <ele>196</ele>
        <time>2016-06-06T12:25:54.1Z</time>
      </trkpt>
      <trkpt lat="48.59127" lon="-3.17196">
        <ele>196</ele>
        <time>2016-06-06T12:25:57.1Z</time>
      </trkpt>
      <trkpt lat="48.59129" lon="-3.17196">
        <ele>196</ele>
        <time>2016-06-06T12:25:59.1Z</time>
      </trkpt>
      <trkpt lat="48.59133" lon="-3.17199">
        <ele>196</ele>
        <time>2016-06-06T12:26:02.1Z</time>
      </trkpt>
      <trkpt lat="48.59135" lon="-3.172">
        <ele>196</ele>
        <time>2016-06-06T12:26:04.1Z</time>
      </trkpt>
      <trkpt lat="48.59139" lon="-3.17202">
        <ele>197</ele>
        <time>2016-06-06T12:26:07.1Z</time>
      </trkpt>
      <trkpt lat="48.59141" lon="-3.17204">
        <ele>197</ele>
        <time>2016-06-06T12:26:09.1Z</time>
      </trkpt>
      <trkpt lat="48.59144" lon="-3.17205">
        <ele>197</ele>
        <time>2016-06-06T12:26:12.1Z</time>
      </trkpt>
      <trkpt lat="48.59148" lon="-3.17208">
        <ele>197</ele>
        <time>2016-06-06T12:26:15.1Z</time>
      </trkpt>
      <trkpt lat="48.59151" lon="-3.1721">
        <ele>197</ele>
        <time>2016-06-06T12:26:18.1Z</time>
      </trkpt>
      <trkpt lat="48.59154" lon="-3.17211">
        <ele>197</ele>
        <time>2016-06-06T12:26:20.1Z</time>
      </trkpt>
      <trkpt lat="48.59157" lon="-3.17213">
        <ele>197</ele>
        <time>2016-06-06T12:26:23.1Z</time>
      </trkpt>
      <trkpt lat="48.5916" lon="-3.17215">
        <ele>196</ele>
        <time>2016-06-06T12:26:26.1Z</time>
      </trkpt>
      <trkpt lat="48.59163" lon="-3.17216">
        <ele>197</ele>
        <time>2016-06-06T12:26:28.1Z</time>
      </trkpt>
      <trkpt lat="48.59166" lon="-3.17217">
        <ele>196</ele>
        <time>2016-06-06T12:26:31.1Z</time>
      </trkpt>
      <trkpt lat="48.59168" lon="-3.17219">
        <ele>197</ele>
        <time>2016-06-06T12:26:33.1Z</time>
      </trkpt>
      <trkpt lat="48.59172" lon="-3.1722">
        <ele>196</ele>
        <time>2016-06-06T12:26:36.1Z</time>
      </trkpt>
      <trkpt lat="48.59175" lon="-3.17223">
        <ele>196</ele>
        <time>2016-06-06T12:26:39.1Z</time>
      </trkpt>
      <trkpt lat="48.59177" lon="-3.17224">
        <ele>196</ele>
        <time>2016-06-06T12:26:41.1Z</time>
      </trkpt>
      <trkpt lat="48.59179" lon="-3.17225">
        <ele>197</ele>
        <time>2016-06-06T12:26:43.1Z</time>
      </trkpt>
      <trkpt lat="48.59182" lon="-3.17226">
        <ele>196</ele>
        <time>2016-06-06T12:26:46.1Z</time>
      </trkpt>
      <trkpt lat="48.59184" lon="-3.17228">
        <ele>196</ele>
        <time>2016-06-06T12:26:48.1Z</time>
      </trkpt>
      <trkpt lat="48.59187" lon="-3.17229">
        <ele>196</ele>
        <time>2016-06-06T12:26:50.1Z</time>
      </trkpt>
      <trkpt lat="48.59189" lon="-3.17231">
        <ele>196</ele>
        <time>2016-06-06T12:26:53.1Z</time>
      </trkpt>
      <trkpt lat="48.59192" lon="-3.17233">
        <ele>196</ele>
        <time>2016-06-06T12:26:56.1Z</time>
      </trkpt>
      <trkpt lat="48.59194" lon="-3.17234">
        <ele>196</ele>
        <time>2016-06-06T12:26:58.1Z</time>
      </trkpt>
      <trkpt lat="48.59196" lon="-3.17236">
        <ele>196</ele>
        <time>2016-06-06T12:27:00.1Z</time>
      </trkpt>
      <trkpt lat="48.59198" lon="-3.17239">
        <ele>196</ele>
        <time>2016-06-06T12:27:03.1Z</time>
      </trkpt>
      <trkpt lat="48.59201" lon="-3.17242">
        <ele>196</ele>
        <time>2016-06-06T12:27:06.1Z</time>
      </trkpt>
      <trkpt lat="48.59203" lon="-3.17244">
        <ele>196</ele>
        <time>2016-06-06T12:27:08.1Z</time>
      </trkpt>
      <trkpt lat="48.59206" lon="-3.17245">
        <ele>196</ele>
        <time>2016-06-06T12:27:10.1Z</time>
      </trkpt>
      <trkpt lat="48.59209" lon="-3.17247">
        <ele>196</ele>
        <time>2016-06-06T12:27:13.1Z</time>
      </trkpt>
      <trkpt lat="48.59212" lon="-3.17249">
        <ele>196</ele>
        <time>2016-06-06T12:27:16.1Z</time>
      </trkpt>
      <trkpt lat="48.59214" lon="-3.17252">
        <ele>196</ele>
        <time>2016-06-06T12:27:19.1Z</time>
      </trkpt>
      <trkpt lat="48.59217" lon="-3.17254">
        <ele>195</ele>
        <time>2016-06-06T12:27:21.1Z</time>
      </trkpt>
      <trkpt lat="48.5922" lon="-3.17256">
        <ele>195</ele>
        <time>2016-06-06T12:27:24.1Z</time>
      </trkpt>
      <trkpt lat="48.59223" lon="-3.17259">
        <ele>195</ele>
        <time>2016-06-06T12:27:27.1Z</time>
      </trkpt>
      <trkpt lat="48.59226" lon="-3.17262">
        <ele>195</ele>
        <time>2016-06-06T12:27:30.1Z</time>
      </trkpt>
      <trkpt lat="48.59229" lon="-3.17266">
        <ele>195</ele>
        <time>2016-06-06T12:27:33.1Z</time>
      </trkpt>
      <trkpt lat="48.59232" lon="-3.17267">
        <ele>195</ele>
        <time>2016-06-06T12:27:35.1Z</time>
      </trkpt>
      <trkpt lat="48.59236" lon="-3.17271">
        <ele>194</ele>
        <time>2016-06-06T12:27:38.1Z</time>
      </trkpt>
      <trkpt lat="48.59238" lon="-3.17273">
        <ele>194</ele>
        <time>2016-06-06T12:27:40.1Z</time>
      </trkpt>
      <trkpt lat="48.5924" lon="-3.17274">
        <ele>194</ele>
        <time>2016-06-06T12:27:42.1Z</time>
      </trkpt>
      <trkpt lat="48.59242" lon="-3.17276">
        <ele>194</ele>
        <time>2016-06-06T12:27:45.1Z</time>
      </trkpt>
      <trkpt lat="48.59245" lon="-3.17277">
        <ele>194</ele>
        <time>2016-06-06T12:27:47.1Z</time>
      </trkpt>
      <trkpt lat="48.59248" lon="-3.17279">
        <ele>194</ele>
        <time>2016-06-06T12:27:50.1Z</time>
      </trkpt>
      <trkpt lat="48.5925" lon="-3.1728">
        <ele>194</ele>
        <time>2016-06-06T12:27:52.1Z</time>
      </trkpt>
      <trkpt lat="48.59253" lon="-3.17281">
        <ele>194</ele>
        <time>2016-06-06T12:27:54.1Z</time>
      </trkpt>
      <trkpt lat="48.59257" lon="-3.17283">
        <ele>194</ele>
        <time>2016-06-06T12:27:57.1Z</time>
      </trkpt>
      <trkpt lat="48.59259" lon="-3.17284">
        <ele>193</ele>
        <time>2016-06-06T12:27:59.1Z</time>
      </trkpt>
      <trkpt lat="48.59262" lon="-3.17286">
        <ele>193</ele>
        <time>2016-06-06T12:28:02.1Z</time>
      </trkpt>
      <trkpt lat="48.59264" lon="-3.17288">
        <ele>193</ele>
        <time>2016-06-06T12:28:04.1Z</time>
      </trkpt>
      <trkpt lat="48.59266" lon="-3.17289">
        <ele>193</ele>
        <time>2016-06-06T12:28:06.1Z</time>
      </trkpt>
      <trkpt lat="48.59269" lon="-3.17292">
        <ele>193</ele>
        <time>2016-06-06T12:28:09.1Z</time>
      </trkpt>
      <trkpt lat="48.59272" lon="-3.17294">
        <ele>193</ele>
        <time>2016-06-06T12:28:11.1Z</time>
      </trkpt>
      <trkpt lat="48.59275" lon="-3.17296">
        <ele>193</ele>
        <time>2016-06-06T12:28:14.1Z</time>
      </trkpt>
      <trkpt lat="48.59278" lon="-3.17296">
        <ele>193</ele>
        <time>2016-06-06T12:28:17.1Z</time>
      </trkpt>
      <trkpt lat="48.5928" lon="-3.17297">
        <ele>193</ele>
        <time>2016-06-06T12:28:19.1Z</time>
      </trkpt>
      <trkpt lat="48.59283" lon="-3.17298">
        <ele>192</ele>
        <time>2016-06-06T12:28:22.1Z</time>
      </trkpt>
      <trkpt lat="48.59285" lon="-3.17298">
        <ele>192</ele>
        <time>2016-06-06T12:28:24.1Z</time>
      </trkpt>
      <trkpt lat="48.59288" lon="-3.17298">
        <ele>191</ele>
        <time>2016-06-06T12:28:27.1Z</time>
      </trkpt>
      <trkpt lat="48.5929" lon="-3.17298">
        <ele>191</ele>
        <time>2016-06-06T12:28:29.1Z</time>
      </trkpt>
      <trkpt lat="48.59293" lon="-3.173">
        <ele>191</ele>
        <time>2016-06-06T12:28:32.1Z</time>
      </trkpt>
      <trkpt lat="48.59297" lon="-3.173">
        <ele>191</ele>
        <time>2016-06-06T12:28:35.1Z</time>
      </trkpt>
      <trkpt lat="48.59301" lon="-3.17301">
        <ele>191</ele>
        <time>2016-06-06T12:28:38.1Z</time>
      </trkpt>
      <trkpt lat="48.59303" lon="-3.17302">
        <ele>191</ele>
        <time>2016-06-06T12:28:40.1Z</time>
      </trkpt>
      <trkpt lat="48.59306" lon="-3.17302">
        <ele>190</ele>
        <time>2016-06-06T12:28:43.1Z</time>
      </trkpt>
      <trkpt lat="48.59309" lon="-3.17301">
        <ele>190</ele>
        <time>2016-06-06T12:28:46.1Z</time>
      </trkpt>
      <trkpt lat="48.59311" lon="-3.173">
        <ele>189</ele>
        <time>2016-06-06T12:28:48.1Z</time>
      </trkpt>
      <trkpt lat="48.59315" lon="-3.17301">
        <ele>189</ele>
        <time>2016-06-06T12:28:51.1Z</time>
      </trkpt>
      <trkpt lat="48.59317" lon="-3.17301">
        <ele>189</ele>
        <time>2016-06-06T12:28:53.1Z</time>
      </trkpt>
      <trkpt lat="48.5932" lon="-3.17302">
        <ele>189</ele>
        <time>2016-06-06T12:28:56.1Z</time>
      </trkpt>
      <trkpt lat="48.59322" lon="-3.17303">
        <ele>189</ele>
        <time>2016-06-06T12:28:58.1Z</time>
      </trkpt>
      <trkpt lat="48.59325" lon="-3.17304">
        <ele>189</ele>
        <time>2016-06-06T12:29:00.1Z</time>
      </trkpt>
      <trkpt lat="48.59328" lon="-3.17305">
        <ele>189</ele>
        <time>2016-06-06T12:29:03.1Z</time>
      </trkpt>
      <trkpt lat="48.59331" lon="-3.17306">
        <ele>189</ele>
        <time>2016-06-06T12:29:06.1Z</time>
      </trkpt>
      <trkpt lat="48.59334" lon="-3.17306">
        <ele>188</ele>
        <time>2016-06-06T12:29:08.1Z</time>
      </trkpt>
      <trkpt lat="48.59338" lon="-3.17308">
        <ele>188</ele>
        <time>2016-06-06T12:29:11.1Z</time>
      </trkpt>
      <trkpt lat="48.5934" lon="-3.17308">
        <ele>188</ele>
        <time>2016-06-06T12:29:14.1Z</time>
      </trkpt>
      <trkpt lat="48.59343" lon="-3.17308">
        <ele>188</ele>
        <time>2016-06-06T12:29:17.1Z</time>
      </trkpt>
      <trkpt lat="48.59346" lon="-3.17309">
        <ele>187</ele>
        <time>2016-06-06T12:29:20.1Z</time>
      </trkpt>
      <trkpt lat="48.59349" lon="-3.1731">
        <ele>187</ele>
        <time>2016-06-06T12:29:23.1Z</time>
      </trkpt>
      <trkpt lat="48.59351" lon="-3.1731">
        <ele>187</ele>
        <time>2016-06-06T12:29:25.1Z</time>
      </trkpt>
      <trkpt lat="48.59352" lon="-3.1731">
        <ele>186</ele>
        <time>2016-06-06T12:29:27.1Z</time>
      </trkpt>
      <trkpt lat="48.59356" lon="-3.17312">
        <ele>186</ele>
        <time>2016-06-06T12:29:30.1Z</time>
      </trkpt>
      <trkpt lat="48.5936" lon="-3.17314">
        <ele>186</ele>
        <time>2016-06-06T12:29:33.1Z</time>
      </trkpt>
      <trkpt lat="48.59363" lon="-3.17315">
        <ele>186</ele>
        <time>2016-06-06T12:29:35.1Z</time>
      </trkpt>
      <trkpt lat="48.59368" lon="-3.17317">
        <ele>185</ele>
        <time>2016-06-06T12:29:38.1Z</time>
      </trkpt>
      <trkpt lat="48.5937" lon="-3.17317">
        <ele>185</ele>
        <time>2016-06-06T12:29:40.1Z</time>
      </trkpt>
      <trkpt lat="48.59372" lon="-3.17318">
        <ele>185</ele>
        <time>2016-06-06T12:29:42.1Z</time>
      </trkpt>
      <trkpt lat="48.59377" lon="-3.17319">
        <ele>184</ele>
        <time>2016-06-06T12:29:45.1Z</time>
      </trkpt>
      <trkpt lat="48.5938" lon="-3.1732">
        <ele>184</ele>
        <time>2016-06-06T12:29:48.1Z</time>
      </trkpt>
      <trkpt lat="48.59383" lon="-3.17321">
        <ele>184</ele>
        <time>2016-06-06T12:29:50.1Z</time>
      </trkpt>
      <trkpt lat="48.59386" lon="-3.17323">
        <ele>184</ele>
        <time>2016-06-06T12:29:53.1Z</time>
      </trkpt>
      <trkpt lat="48.59388" lon="-3.17324">
        <ele>184</ele>
        <time>2016-06-06T12:29:55.1Z</time>
      </trkpt>
      <trkpt lat="48.5939" lon="-3.17325">
        <ele>184</ele>
        <time>2016-06-06T12:29:58.1Z</time>
      </trkpt>
      <trkpt lat="48.59392" lon="-3.17325">
        <ele>184</ele>
        <time>2016-06-06T12:30:00.1Z</time>
      </trkpt>
      <trkpt lat="48.59396" lon="-3.17326">
        <ele>183</ele>
        <time>2016-06-06T12:30:03.1Z</time>
      </trkpt>
      <trkpt lat="48.59398" lon="-3.17326">
        <ele>183</ele>
        <time>2016-06-06T12:30:05.1Z</time>
      </trkpt>
      <trkpt lat="48.59402" lon="-3.17327">
        <ele>183</ele>
        <time>2016-06-06T12:30:08.1Z</time>
      </trkpt>
      <trkpt lat="48.59404" lon="-3.17328">
        <ele>183</ele>
        <time>2016-06-06T12:30:10.1Z</time>
      </trkpt>
      <trkpt lat="48.59408" lon="-3.17329">
        <ele>183</ele>
        <time>2016-06-06T12:30:13.1Z</time>
      </trkpt>
      <trkpt lat="48.59411" lon="-3.17329">
        <ele>183</ele>
        <time>2016-06-06T12:30:16.1Z</time>
      </trkpt>
      <trkpt lat="48.59414" lon="-3.1733">
        <ele>182</ele>
        <time>2016-06-06T12:30:19.1Z</time>
      </trkpt>
      <trkpt lat="48.59415" lon="-3.1733">
        <ele>182</ele>
        <time>2016-06-06T12:30:21.1Z</time>
      </trkpt>
      <trkpt lat="48.59418" lon="-3.17331">
        <ele>182</ele>
        <time>2016-06-06T12:30:24.1Z</time>
      </trkpt>
      <trkpt lat="48.59423" lon="-3.17333">
        <ele>182</ele>
        <time>2016-06-06T12:30:27.1Z</time>
      </trkpt>
      <trkpt lat="48.59427" lon="-3.17335">
        <ele>182</ele>
        <time>2016-06-06T12:30:30.1Z</time>
      </trkpt>
      <trkpt lat="48.5943" lon="-3.17336">
        <ele>182</ele>
        <time>2016-06-06T12:30:33.1Z</time>
      </trkpt>
      <trkpt lat="48.59432" lon="-3.17336">
        <ele>182</ele>
        <time>2016-06-06T12:30:35.1Z</time>
      </trkpt>
      <trkpt lat="48.59434" lon="-3.17337">
        <ele>182</ele>
        <time>2016-06-06T12:30:37.1Z</time>
      </trkpt>
      <trkpt lat="48.59437" lon="-3.17339">
        <ele>181</ele>
        <time>2016-06-06T12:30:40.1Z</time>
      </trkpt>
      <trkpt lat="48.59441" lon="-3.1734">
        <ele>181</ele>
        <time>2016-06-06T12:30:43.1Z</time>
      </trkpt>
      <trkpt lat="48.59442" lon="-3.17341">
        <ele>181</ele>
        <time>2016-06-06T12:30:45.1Z</time>
      </trkpt>
      <trkpt lat="48.59445" lon="-3.17344">
        <ele>181</ele>
        <time>2016-06-06T12:30:48.1Z</time>
      </trkpt>
      <trkpt lat="48.59449" lon="-3.17347">
        <ele>181</ele>
        <time>2016-06-06T12:30:51.1Z</time>
      </trkpt>
      <trkpt lat="48.59452" lon="-3.17349">
        <ele>181</ele>
        <time>2016-06-06T12:30:54.1Z</time>
      </trkpt>
      <trkpt lat="48.59454" lon="-3.17351">
        <ele>181</ele>
        <time>2016-06-06T12:30:56.1Z</time>
      </trkpt>
      <trkpt lat="48.59457" lon="-3.17352">
        <ele>181</ele>
        <time>2016-06-06T12:30:59.1Z</time>
      </trkpt>
      <trkpt lat="48.5946" lon="-3.17354">
        <ele>180</ele>
        <time>2016-06-06T12:31:02.1Z</time>
      </trkpt>
      <trkpt lat="48.59462" lon="-3.17356">
        <ele>180</ele>
        <time>2016-06-06T12:31:04.1Z</time>
      </trkpt>
      <trkpt lat="48.59464" lon="-3.17359">
        <ele>180</ele>
        <time>2016-06-06T12:31:06.1Z</time>
      </trkpt>
      <trkpt lat="48.59468" lon="-3.17362">
        <ele>181</ele>
        <time>2016-06-06T12:31:09.1Z</time>
      </trkpt>
      <trkpt lat="48.59472" lon="-3.17365">
        <ele>181</ele>
        <time>2016-06-06T12:31:12.1Z</time>
      </trkpt>
      <trkpt lat="48.59476" lon="-3.17368">
        <ele>181</ele>
        <time>2016-06-06T12:31:15.1Z</time>
      </trkpt>
      <trkpt lat="48.59477" lon="-3.1737">
        <ele>181</ele>
        <time>2016-06-06T12:31:17.1Z</time>
      </trkpt>
      <trkpt lat="48.59478" lon="-3.17372">
        <ele>181</ele>
        <time>2016-06-06T12:31:20.1Z</time>
      </trkpt>
      <trkpt lat="48.59479" lon="-3.17375">
        <ele>181</ele>
        <time>2016-06-06T12:31:22.1Z</time>
      </trkpt>
      <trkpt lat="48.59481" lon="-3.17378">
        <ele>181</ele>
        <time>2016-06-06T12:31:25.1Z</time>
      </trkpt>
      <trkpt lat="48.59483" lon="-3.1738">
        <ele>181</ele>
        <time>2016-06-06T12:31:28.1Z</time>
      </trkpt>
      <trkpt lat="48.59483" lon="-3.1738">
        <ele>181</ele>
        <time>2016-06-06T12:31:31.1Z</time>
      </trkpt>
      <trkpt lat="48.59483" lon="-3.17381">
        <ele>181</ele>
        <time>2016-06-06T12:31:33.1Z</time>
      </trkpt>
      <trkpt lat="48.59484" lon="-3.17381">
        <ele>181</ele>
        <time>2016-06-06T12:31:35.1Z</time>
      </trkpt>
      <trkpt lat="48.59485" lon="-3.17383">
        <ele>181</ele>
        <time>2016-06-06T12:31:38.1Z</time>
      </trkpt>
      <trkpt lat="48.59484" lon="-3.17385">
        <ele>180</ele>
        <time>2016-06-06T12:31:40.1Z</time>
      </trkpt>
      <trkpt lat="48.59485" lon="-3.17388">
        <ele>181</ele>
        <time>2016-06-06T12:31:43.1Z</time>
      </trkpt>
      <trkpt lat="48.59484" lon="-3.1739">
        <ele>180</ele>
        <time>2016-06-06T12:31:45.1Z</time>
      </trkpt>
      <trkpt lat="48.59485" lon="-3.17391">
        <ele>180</ele>
        <time>2016-06-06T12:31:47.1Z</time>
      </trkpt>
      <trkpt lat="48.59486" lon="-3.17389">
        <ele>180</ele>
        <time>2016-06-06T12:31:50.1Z</time>
      </trkpt>
      <trkpt lat="48.59486" lon="-3.17386">
        <ele>180</ele>
        <time>2016-06-06T12:31:53.1Z</time>
      </trkpt>
      <trkpt lat="48.59487" lon="-3.17383">
        <ele>180</ele>
        <time>2016-06-06T12:31:55.1Z</time>
      </trkpt>
      <trkpt lat="48.59488" lon="-3.17381">
        <ele>180</ele>
        <time>2016-06-06T12:31:58.1Z</time>
      </trkpt>
      <trkpt lat="48.59488" lon="-3.1738">
        <ele>180</ele>
        <time>2016-06-06T12:32:00.1Z</time>
      </trkpt>
      <trkpt lat="48.59489" lon="-3.17378">
        <ele>181</ele>
        <time>2016-06-06T12:32:03.1Z</time>
      </trkpt>
      <trkpt lat="48.59489" lon="-3.17378">
        <ele>181</ele>
        <time>2016-06-06T12:32:06.1Z</time>
      </trkpt>
      <trkpt lat="48.5949" lon="-3.17378">
        <ele>181</ele>
        <time>2016-06-06T12:32:09.1Z</time>
      </trkpt>
      <trkpt lat="48.5949" lon="-3.17378">
        <ele>181</ele>
        <time>2016-06-06T12:32:12.1Z</time>
      </trkpt>
      <trkpt lat="48.59491" lon="-3.17378">
        <ele>181</ele>
        <time>2016-06-06T12:32:14.1Z</time>
      </trkpt>
      <trkpt lat="48.59491" lon="-3.17378">
        <ele>181</ele>
        <time>2016-06-06T12:32:17.1Z</time>
      </trkpt>
      <trkpt lat="48.59492" lon="-3.17378">
        <ele>181</ele>
        <time>2016-06-06T12:32:20.1Z</time>
      </trkpt>
      <trkpt lat="48.59492" lon="-3.17378">
        <ele>181</ele>
        <time>2016-06-06T12:32:22.1Z</time>
      </trkpt>
      <trkpt lat="48.59492" lon="-3.17379">
        <ele>181</ele>
        <time>2016-06-06T12:32:25.1Z</time>
      </trkpt>
      <trkpt lat="48.59492" lon="-3.17379">
        <ele>181</ele>
        <time>2016-06-06T12:32:28.1Z</time>
      </trkpt>
      <trkpt lat="48.59493" lon="-3.17379">
        <ele>181</ele>
        <time>2016-06-06T12:32:31.1Z</time>
      </trkpt>
      <trkpt lat="48.59493" lon="-3.17379">
        <ele>181</ele>
        <time>2016-06-06T12:32:34.1Z</time>
      </trkpt>
      <trkpt lat="48.59494" lon="-3.17379">
        <ele>181</ele>
        <time>2016-06-06T12:32:37.1Z</time>
      </trkpt>
      <trkpt lat="48.59495" lon="-3.17379">
        <ele>181</ele>
        <time>2016-06-06T12:32:39.1Z</time>
      </trkpt>
      <trkpt lat="48.59496" lon="-3.17378">
        <ele>181</ele>
        <time>2016-06-06T12:32:41.1Z</time>
      </trkpt>
      <trkpt lat="48.59497" lon="-3.17378">
        <ele>181</ele>
        <time>2016-06-06T12:32:43.1Z</time>
      </trkpt>
      <trkpt lat="48.59498" lon="-3.17379">
        <ele>181</ele>
        <time>2016-06-06T12:32:45.1Z</time>
      </trkpt>
      <trkpt lat="48.59498" lon="-3.17378">
        <ele>181</ele>
        <time>2016-06-06T12:32:47.1Z</time>
      </trkpt>
      <trkpt lat="48.59498" lon="-3.17378">
        <ele>181</ele>
        <time>2016-06-06T12:32:50.1Z</time>
      </trkpt>
      <trkpt lat="48.59498" lon="-3.17378">
        <ele>181</ele>
        <time>2016-06-06T12:32:54.1Z</time>
      </trkpt>
      <trkpt lat="48.59497" lon="-3.17378">
        <ele>181</ele>
        <time>2016-06-06T12:32:56.1Z</time>
      </trkpt>
      <trkpt lat="48.59495" lon="-3.17378">
        <ele>181</ele>
        <time>2016-06-06T12:32:59.1Z</time>
      </trkpt>
      <trkpt lat="48.59494" lon="-3.17377">
        <ele>181</ele>
        <time>2016-06-06T12:33:02.1Z</time>
      </trkpt>
      <trkpt lat="48.59494" lon="-3.17376">
        <ele>181</ele>
        <time>2016-06-06T12:33:05.1Z</time>
      </trkpt>
      <trkpt lat="48.59494" lon="-3.17376">
        <ele>181</ele>
        <time>2016-06-06T12:33:08.1Z</time>
      </trkpt>
      <trkpt lat="48.59494" lon="-3.17375">
        <ele>181</ele>
        <time>2016-06-06T12:33:11.1Z</time>
      </trkpt>
      <trkpt lat="48.59494" lon="-3.17374">
        <ele>180</ele>
        <time>2016-06-06T12:33:14.1Z</time>
      </trkpt>
      <trkpt lat="48.59494" lon="-3.17374">
        <ele>180</ele>
        <time>2016-06-06T12:33:16.1Z</time>
      </trkpt>
      <trkpt lat="48.59493" lon="-3.17374">
        <ele>180</ele>
        <time>2016-06-06T12:33:19.1Z</time>
      </trkpt>
      <trkpt lat="48.59493" lon="-3.17373">
        <ele>180</ele>
        <time>2016-06-06T12:33:22.1Z</time>
      </trkpt>
      <trkpt lat="48.59493" lon="-3.17373">
        <ele>181</ele>
        <time>2016-06-06T12:33:25.1Z</time>
      </trkpt>
      <trkpt lat="48.59493" lon="-3.17373">
        <ele>181</ele>
        <time>2016-06-06T12:33:27.1Z</time>
      </trkpt>
      <trkpt lat="48.59494" lon="-3.17372">
        <ele>181</ele>
        <time>2016-06-06T12:33:30.1Z</time>
      </trkpt>
      <trkpt lat="48.59494" lon="-3.17371">
        <ele>181</ele>
        <time>2016-06-06T12:33:33.1Z</time>
      </trkpt>
      <trkpt lat="48.59495" lon="-3.17372">
        <ele>181</ele>
        <time>2016-06-06T12:33:35.1Z</time>
      </trkpt>
      <trkpt lat="48.59496" lon="-3.17373">
        <ele>181</ele>
        <time>2016-06-06T12:33:38.1Z</time>
      </trkpt>
      <trkpt lat="48.59496" lon="-3.17374">
        <ele>181</ele>
        <time>2016-06-06T12:33:40.1Z</time>
      </trkpt>
      <trkpt lat="48.59496" lon="-3.17378">
        <ele>180</ele>
        <time>2016-06-06T12:33:43.1Z</time>
      </trkpt>
      <trkpt lat="48.59495" lon="-3.17379">
        <ele>180</ele>
        <time>2016-06-06T12:33:46.1Z</time>
      </trkpt>
      <trkpt lat="48.59494" lon="-3.17379">
        <ele>181</ele>
        <time>2016-06-06T12:33:49.1Z</time>
      </trkpt>
      <trkpt lat="48.59493" lon="-3.17381">
        <ele>181</ele>
        <time>2016-06-06T12:33:52.1Z</time>
      </trkpt>
      <trkpt lat="48.59492" lon="-3.17382">
        <ele>181</ele>
        <time>2016-06-06T12:33:55.1Z</time>
      </trkpt>
      <trkpt lat="48.59492" lon="-3.17382">
        <ele>181</ele>
        <time>2016-06-06T12:33:57.1Z</time>
      </trkpt>
      <trkpt lat="48.59492" lon="-3.17379">
        <ele>181</ele>
        <time>2016-06-06T12:34:00.1Z</time>
      </trkpt>
      <trkpt lat="48.59493" lon="-3.17379">
        <ele>181</ele>
        <time>2016-06-06T12:34:03.1Z</time>
      </trkpt>
      <trkpt lat="48.59494" lon="-3.17379">
        <ele>181</ele>
        <time>2016-06-06T12:34:05.1Z</time>
      </trkpt>
      <trkpt lat="48.59494" lon="-3.17379">
        <ele>181</ele>
        <time>2016-06-06T12:34:08.1Z</time>
      </trkpt>
      <trkpt lat="48.59496" lon="-3.17378">
        <ele>181</ele>
        <time>2016-06-06T12:34:10.1Z</time>
      </trkpt>
      <trkpt lat="48.59498" lon="-3.17379">
        <ele>181</ele>
        <time>2016-06-06T12:34:13.1Z</time>
      </trkpt>
      <trkpt lat="48.59501" lon="-3.1738">
        <ele>181</ele>
        <time>2016-06-06T12:34:16.1Z</time>
      </trkpt>
      <trkpt lat="48.59504" lon="-3.17382">
        <ele>181</ele>
        <time>2016-06-06T12:34:19.1Z</time>
      </trkpt>
      <trkpt lat="48.59507" lon="-3.17384">
        <ele>181</ele>
        <time>2016-06-06T12:34:22.1Z</time>
      </trkpt>
      <trkpt lat="48.59508" lon="-3.17385">
        <ele>181</ele>
        <time>2016-06-06T12:34:24.1Z</time>
      </trkpt>
      <trkpt lat="48.5951" lon="-3.17385">
        <ele>180</ele>
        <time>2016-06-06T12:34:26.1Z</time>
      </trkpt>
      <trkpt lat="48.59512" lon="-3.17386">
        <ele>180</ele>
        <time>2016-06-06T12:34:29.1Z</time>
      </trkpt>
      <trkpt lat="48.59514" lon="-3.17387">
        <ele>181</ele>
        <time>2016-06-06T12:34:32.1Z</time>
      </trkpt>
      <trkpt lat="48.59517" lon="-3.17388">
        <ele>181</ele>
        <time>2016-06-06T12:34:35.1Z</time>
      </trkpt>
      <trkpt lat="48.59518" lon="-3.17389">
        <ele>181</ele>
        <time>2016-06-06T12:34:37.1Z</time>
      </trkpt>
      <trkpt lat="48.5952" lon="-3.17389">
        <ele>180</ele>
        <time>2016-06-06T12:34:39.1Z</time>
      </trkpt>
      <trkpt lat="48.59523" lon="-3.1739">
        <ele>180</ele>
        <time>2016-06-06T12:34:42.1Z</time>
      </trkpt>
      <trkpt lat="48.59526" lon="-3.1739">
        <ele>181</ele>
        <time>2016-06-06T12:34:45.1Z</time>
      </trkpt>
      <trkpt lat="48.59529" lon="-3.17391">
        <ele>180</ele>
        <time>2016-06-06T12:34:48.1Z</time>
      </trkpt>
      <trkpt lat="48.59531" lon="-3.17391">
        <ele>180</ele>
        <time>2016-06-06T12:34:50.1Z</time>
      </trkpt>
      <trkpt lat="48.59534" lon="-3.17392">
        <ele>180</ele>
        <time>2016-06-06T12:34:53.1Z</time>
      </trkpt>
      <trkpt lat="48.59536" lon="-3.17392">
        <ele>180</ele>
        <time>2016-06-06T12:34:56.1Z</time>
      </trkpt>
      <trkpt lat="48.59539" lon="-3.17393">
        <ele>180</ele>
        <time>2016-06-06T12:34:59.1Z</time>
      </trkpt>
      <trkpt lat="48.59541" lon="-3.17394">
        <ele>180</ele>
        <time>2016-06-06T12:35:01.1Z</time>
      </trkpt>
      <trkpt lat="48.59544" lon="-3.17396">
        <ele>180</ele>
        <time>2016-06-06T12:35:04.1Z</time>
      </trkpt>
      <trkpt lat="48.59546" lon="-3.17396">
        <ele>180</ele>
        <time>2016-06-06T12:35:06.1Z</time>
      </trkpt>
      <trkpt lat="48.59548" lon="-3.17396">
        <ele>180</ele>
        <time>2016-06-06T12:35:08.1Z</time>
      </trkpt>
      <trkpt lat="48.5955" lon="-3.17398">
        <ele>180</ele>
        <time>2016-06-06T12:35:11.1Z</time>
      </trkpt>
      <trkpt lat="48.59553" lon="-3.17398">
        <ele>180</ele>
        <time>2016-06-06T12:35:14.1Z</time>
      </trkpt>
      <trkpt lat="48.59556" lon="-3.174">
        <ele>180</ele>
        <time>2016-06-06T12:35:17.1Z</time>
      </trkpt>
      <trkpt lat="48.59558" lon="-3.17401">
        <ele>180</ele>
        <time>2016-06-06T12:35:19.1Z</time>
      </trkpt>
      <trkpt lat="48.59561" lon="-3.17402">
        <ele>180</ele>
        <time>2016-06-06T12:35:21.1Z</time>
      </trkpt>
      <trkpt lat="48.59564" lon="-3.17403">
        <ele>180</ele>
        <time>2016-06-06T12:35:24.1Z</time>
      </trkpt>
      <trkpt lat="48.59567" lon="-3.17404">
        <ele>180</ele>
        <time>2016-06-06T12:35:26.1Z</time>
      </trkpt>
      <trkpt lat="48.5957" lon="-3.17406">
        <ele>180</ele>
        <time>2016-06-06T12:35:29.1Z</time>
      </trkpt>
      <trkpt lat="48.59573" lon="-3.17407">
        <ele>180</ele>
        <time>2016-06-06T12:35:32.1Z</time>
      </trkpt>
      <trkpt lat="48.59576" lon="-3.17407">
        <ele>180</ele>
        <time>2016-06-06T12:35:35.1Z</time>
      </trkpt>
      <trkpt lat="48.59579" lon="-3.17408">
        <ele>180</ele>
        <time>2016-06-06T12:35:37.1Z</time>
      </trkpt>
      <trkpt lat="48.59583" lon="-3.17409">
        <ele>180</ele>
        <time>2016-06-06T12:35:40.1Z</time>
      </trkpt>
      <trkpt lat="48.59585" lon="-3.17411">
        <ele>180</ele>
        <time>2016-06-06T12:35:42.1Z</time>
      </trkpt>
      <trkpt lat="48.59589" lon="-3.17413">
        <ele>180</ele>
        <time>2016-06-06T12:35:45.1Z</time>
      </trkpt>
      <trkpt lat="48.59593" lon="-3.17416">
        <ele>180</ele>
        <time>2016-06-06T12:35:48.1Z</time>
      </trkpt>
      <trkpt lat="48.59595" lon="-3.17418">
        <ele>180</ele>
        <time>2016-06-06T12:35:50.1Z</time>
      </trkpt>
      <trkpt lat="48.59599" lon="-3.1742">
        <ele>180</ele>
        <time>2016-06-06T12:35:53.1Z</time>
      </trkpt>
      <trkpt lat="48.59601" lon="-3.17422">
        <ele>180</ele>
        <time>2016-06-06T12:35:56.1Z</time>
      </trkpt>
      <trkpt lat="48.59604" lon="-3.17424">
        <ele>180</ele>
        <time>2016-06-06T12:35:58.1Z</time>
      </trkpt>
      <trkpt lat="48.59607" lon="-3.17426">
        <ele>180</ele>
        <time>2016-06-06T12:36:01.1Z</time>
      </trkpt>
      <trkpt lat="48.5961" lon="-3.17429">
        <ele>180</ele>
        <time>2016-06-06T12:36:04.1Z</time>
      </trkpt>
      <trkpt lat="48.59614" lon="-3.17432">
        <ele>179</ele>
        <time>2016-06-06T12:36:07.1Z</time>
      </trkpt>
      <trkpt lat="48.59616" lon="-3.17433">
        <ele>180</ele>
        <time>2016-06-06T12:36:09.1Z</time>
      </trkpt>
      <trkpt lat="48.59619" lon="-3.17435">
        <ele>180</ele>
        <time>2016-06-06T12:36:12.1Z</time>
      </trkpt>
      <trkpt lat="48.59622" lon="-3.17436">
        <ele>180</ele>
        <time>2016-06-06T12:36:14.1Z</time>
      </trkpt>
      <trkpt lat="48.59626" lon="-3.17437">
        <ele>180</ele>
        <time>2016-06-06T12:36:17.1Z</time>
      </trkpt>
      <trkpt lat="48.59628" lon="-3.17438">
        <ele>180</ele>
        <time>2016-06-06T12:36:19.1Z</time>
      </trkpt>
      <trkpt lat="48.5963" lon="-3.17439">
        <ele>180</ele>
        <time>2016-06-06T12:36:21.1Z</time>
      </trkpt>
      <trkpt lat="48.59633" lon="-3.17441">
        <ele>180</ele>
        <time>2016-06-06T12:36:24.1Z</time>
      </trkpt>
      <trkpt lat="48.59635" lon="-3.17442">
        <ele>180</ele>
        <time>2016-06-06T12:36:26.1Z</time>
      </trkpt>
      <trkpt lat="48.59638" lon="-3.17444">
        <ele>180</ele>
        <time>2016-06-06T12:36:29.1Z</time>
      </trkpt>
      <trkpt lat="48.59641" lon="-3.17446">
        <ele>180</ele>
        <time>2016-06-06T12:36:31.1Z</time>
      </trkpt>
      <trkpt lat="48.59644" lon="-3.17447">
        <ele>179</ele>
        <time>2016-06-06T12:36:34.1Z</time>
      </trkpt>
      <trkpt lat="48.59647" lon="-3.1745">
        <ele>179</ele>
        <time>2016-06-06T12:36:37.1Z</time>
      </trkpt>
      <trkpt lat="48.59649" lon="-3.17451">
        <ele>179</ele>
        <time>2016-06-06T12:36:39.1Z</time>
      </trkpt>
      <trkpt lat="48.59652" lon="-3.17453">
        <ele>179</ele>
        <time>2016-06-06T12:36:42.1Z</time>
      </trkpt>
      <trkpt lat="48.59655" lon="-3.17454">
        <ele>179</ele>
        <time>2016-06-06T12:36:44.1Z</time>
      </trkpt>
      <trkpt lat="48.59657" lon="-3.17455">
        <ele>179</ele>
        <time>2016-06-06T12:36:46.1Z</time>
      </trkpt>
      <trkpt lat="48.5966" lon="-3.17457">
        <ele>180</ele>
        <time>2016-06-06T12:36:49.1Z</time>
      </trkpt>
      <trkpt lat="48.59662" lon="-3.17459">
        <ele>180</ele>
        <time>2016-06-06T12:36:51.1Z</time>
      </trkpt>
      <trkpt lat="48.59665" lon="-3.1746">
        <ele>180</ele>
        <time>2016-06-06T12:36:54.1Z</time>
      </trkpt>
      <trkpt lat="48.59668" lon="-3.17462">
        <ele>180</ele>
        <time>2016-06-06T12:36:57.1Z</time>
      </trkpt>
      <trkpt lat="48.5967" lon="-3.17463">
        <ele>180</ele>
        <time>2016-06-06T12:36:59.1Z</time>
      </trkpt>
      <trkpt lat="48.59673" lon="-3.17464">
        <ele>180</ele>
        <time>2016-06-06T12:37:02.1Z</time>
      </trkpt>
      <trkpt lat="48.59674" lon="-3.17465">
        <ele>180</ele>
        <time>2016-06-06T12:37:04.1Z</time>
      </trkpt>
      <trkpt lat="48.59676" lon="-3.17467">
        <ele>180</ele>
        <time>2016-06-06T12:37:06.1Z</time>
      </trkpt>
      <trkpt lat="48.59677" lon="-3.17469">
        <ele>180</ele>
        <time>2016-06-06T12:37:08.1Z</time>
      </trkpt>
      <trkpt lat="48.59679" lon="-3.17471">
        <ele>181</ele>
        <time>2016-06-06T12:37:10.1Z</time>
      </trkpt>
      <trkpt lat="48.59681" lon="-3.17473">
        <ele>181</ele>
        <time>2016-06-06T12:37:13.1Z</time>
      </trkpt>
      <trkpt lat="48.59684" lon="-3.17476">
        <ele>181</ele>
        <time>2016-06-06T12:37:16.1Z</time>
      </trkpt>
      <trkpt lat="48.59686" lon="-3.17478">
        <ele>181</ele>
        <time>2016-06-06T12:37:18.1Z</time>
      </trkpt>
      <trkpt lat="48.59689" lon="-3.1748">
        <ele>181</ele>
        <time>2016-06-06T12:37:21.1Z</time>
      </trkpt>
      <trkpt lat="48.59691" lon="-3.17483">
        <ele>182</ele>
        <time>2016-06-06T12:37:23.1Z</time>
      </trkpt>
      <trkpt lat="48.59692" lon="-3.17485">
        <ele>182</ele>
        <time>2016-06-06T12:37:25.1Z</time>
      </trkpt>
      <trkpt lat="48.59694" lon="-3.1749">
        <ele>182</ele>
        <time>2016-06-06T12:37:28.1Z</time>
      </trkpt>
      <trkpt lat="48.59696" lon="-3.17492">
        <ele>182</ele>
        <time>2016-06-06T12:37:30.1Z</time>
      </trkpt>
      <trkpt lat="48.59697" lon="-3.17494">
        <ele>183</ele>
        <time>2016-06-06T12:37:32.1Z</time>
      </trkpt>
      <trkpt lat="48.597" lon="-3.17497">
        <ele>183</ele>
        <time>2016-06-06T12:37:35.1Z</time>
      </trkpt>
      <trkpt lat="48.59703" lon="-3.175">
        <ele>183</ele>
        <time>2016-06-06T12:37:38.1Z</time>
      </trkpt>
      <trkpt lat="48.59704" lon="-3.17503">
        <ele>183</ele>
        <time>2016-06-06T12:37:40.1Z</time>
      </trkpt>
      <trkpt lat="48.59706" lon="-3.17506">
        <ele>183</ele>
        <time>2016-06-06T12:37:43.1Z</time>
      </trkpt>
      <trkpt lat="48.59708" lon="-3.17508">
        <ele>183</ele>
        <time>2016-06-06T12:37:45.1Z</time>
      </trkpt>
      <trkpt lat="48.5971" lon="-3.17511">
        <ele>183</ele>
        <time>2016-06-06T12:37:48.1Z</time>
      </trkpt>
      <trkpt lat="48.59712" lon="-3.17514">
        <ele>183</ele>
        <time>2016-06-06T12:37:50.1Z</time>
      </trkpt>
      <trkpt lat="48.59714" lon="-3.17517">
        <ele>183</ele>
        <time>2016-06-06T12:37:53.1Z</time>
      </trkpt>
      <trkpt lat="48.59717" lon="-3.17521">
        <ele>184</ele>
        <time>2016-06-06T12:37:56.1Z</time>
      </trkpt>
      <trkpt lat="48.59718" lon="-3.17523">
        <ele>184</ele>
        <time>2016-06-06T12:37:58.1Z</time>
      </trkpt>
      <trkpt lat="48.5972" lon="-3.17526">
        <ele>184</ele>
        <time>2016-06-06T12:38:01.1Z</time>
      </trkpt>
      <trkpt lat="48.59722" lon="-3.17528">
        <ele>184</ele>
        <time>2016-06-06T12:38:03.1Z</time>
      </trkpt>
      <trkpt lat="48.59724" lon="-3.1753">
        <ele>184</ele>
        <time>2016-06-06T12:38:05.1Z</time>
      </trkpt>
      <trkpt lat="48.59727" lon="-3.17532">
        <ele>185</ele>
        <time>2016-06-06T12:38:08.1Z</time>
      </trkpt>
      <trkpt lat="48.59729" lon="-3.17533">
        <ele>185</ele>
        <time>2016-06-06T12:38:10.1Z</time>
      </trkpt>
      <trkpt lat="48.59731" lon="-3.17535">
        <ele>185</ele>
        <time>2016-06-06T12:38:13.1Z</time>
      </trkpt>
      <trkpt lat="48.59732" lon="-3.17537">
        <ele>185</ele>
        <time>2016-06-06T12:38:15.1Z</time>
      </trkpt>
      <trkpt lat="48.59734" lon="-3.17535">
        <ele>185</ele>
        <time>2016-06-06T12:38:17.1Z</time>
      </trkpt>
      <trkpt lat="48.59736" lon="-3.17533">
        <ele>185</ele>
        <time>2016-06-06T12:38:20.1Z</time>
      </trkpt>
      <trkpt lat="48.59738" lon="-3.17531">
        <ele>185</ele>
        <time>2016-06-06T12:38:22.1Z</time>
      </trkpt>
      <trkpt lat="48.59741" lon="-3.17529">
        <ele>185</ele>
        <time>2016-06-06T12:38:25.1Z</time>
      </trkpt>
      <trkpt lat="48.59744" lon="-3.17526">
        <ele>185</ele>
        <time>2016-06-06T12:38:28.1Z</time>
      </trkpt>
      <trkpt lat="48.59747" lon="-3.17523">
        <ele>185</ele>
        <time>2016-06-06T12:38:31.1Z</time>
      </trkpt>
      <trkpt lat="48.59748" lon="-3.17521">
        <ele>185</ele>
        <time>2016-06-06T12:38:33.1Z</time>
      </trkpt>
      <trkpt lat="48.59751" lon="-3.17518">
        <ele>185</ele>
        <time>2016-06-06T12:38:36.1Z</time>
      </trkpt>
      <trkpt lat="48.59753" lon="-3.17516">
        <ele>185</ele>
        <time>2016-06-06T12:38:38.1Z</time>
      </trkpt>
      <trkpt lat="48.59756" lon="-3.17514">
        <ele>185</ele>
        <time>2016-06-06T12:38:41.1Z</time>
      </trkpt>
      <trkpt lat="48.59758" lon="-3.17512">
        <ele>185</ele>
        <time>2016-06-06T12:38:43.1Z</time>
      </trkpt>
      <trkpt lat="48.59761" lon="-3.17509">
        <ele>185</ele>
        <time>2016-06-06T12:38:46.1Z</time>
      </trkpt>
      <trkpt lat="48.59763" lon="-3.17506">
        <ele>186</ele>
        <time>2016-06-06T12:38:49.1Z</time>
      </trkpt>
      <trkpt lat="48.59765" lon="-3.17503">
        <ele>186</ele>
        <time>2016-06-06T12:38:52.1Z</time>
      </trkpt>
      <trkpt lat="48.59768" lon="-3.175">
        <ele>186</ele>
        <time>2016-06-06T12:38:55.1Z</time>
      </trkpt>
      <trkpt lat="48.5977" lon="-3.17498">
        <ele>185</ele>
        <time>2016-06-06T12:38:57.1Z</time>
      </trkpt>
      <trkpt lat="48.59772" lon="-3.17495">
        <ele>185</ele>
        <time>2016-06-06T12:39:00.1Z</time>
      </trkpt>
      <trkpt lat="48.59774" lon="-3.17493">
        <ele>185</ele>
        <time>2016-06-06T12:39:02.1Z</time>
      </trkpt>
      <trkpt lat="48.59776" lon="-3.17491">
        <ele>185</ele>
        <time>2016-06-06T12:39:04.1Z</time>
      </trkpt>
      <trkpt lat="48.59779" lon="-3.17488">
        <ele>185</ele>
        <time>2016-06-06T12:39:07.1Z</time>
      </trkpt>
      <trkpt lat="48.59779" lon="-3.17487">
        <ele>185</ele>
        <time>2016-06-06T12:39:10.1Z</time>
      </trkpt>
      <trkpt lat="48.59782" lon="-3.17484">
        <ele>185</ele>
        <time>2016-06-06T12:39:13.1Z</time>
      </trkpt>
      <trkpt lat="48.59783" lon="-3.17482">
        <ele>185</ele>
        <time>2016-06-06T12:39:15.1Z</time>
      </trkpt>
      <trkpt lat="48.59785" lon="-3.1748">
        <ele>185</ele>
        <time>2016-06-06T12:39:17.1Z</time>
      </trkpt>
      <trkpt lat="48.59788" lon="-3.17477">
        <ele>185</ele>
        <time>2016-06-06T12:39:20.1Z</time>
      </trkpt>
      <trkpt lat="48.5979" lon="-3.17474">
        <ele>185</ele>
        <time>2016-06-06T12:39:22.1Z</time>
      </trkpt>
      <trkpt lat="48.59792" lon="-3.17472">
        <ele>185</ele>
        <time>2016-06-06T12:39:24.1Z</time>
      </trkpt>
      <trkpt lat="48.59794" lon="-3.17468">
        <ele>185</ele>
        <time>2016-06-06T12:39:27.1Z</time>
      </trkpt>
      <trkpt lat="48.59796" lon="-3.17465">
        <ele>185</ele>
        <time>2016-06-06T12:39:29.1Z</time>
      </trkpt>
      <trkpt lat="48.59799" lon="-3.17462">
        <ele>185</ele>
        <time>2016-06-06T12:39:32.1Z</time>
      </trkpt>
      <trkpt lat="48.59802" lon="-3.17459">
        <ele>185</ele>
        <time>2016-06-06T12:39:35.1Z</time>
      </trkpt>
      <trkpt lat="48.59804" lon="-3.17457">
        <ele>185</ele>
        <time>2016-06-06T12:39:37.1Z</time>
      </trkpt>
      <trkpt lat="48.59806" lon="-3.17453">
        <ele>185</ele>
        <time>2016-06-06T12:39:40.1Z</time>
      </trkpt>
      <trkpt lat="48.59806" lon="-3.1745">
        <ele>186</ele>
        <time>2016-06-06T12:39:43.1Z</time>
      </trkpt>
      <trkpt lat="48.59805" lon="-3.1745">
        <ele>185</ele>
        <time>2016-06-06T12:39:46.1Z</time>
      </trkpt>
      <trkpt lat="48.59805" lon="-3.1745">
        <ele>185</ele>
        <time>2016-06-06T12:39:48.1Z</time>
      </trkpt>
      <trkpt lat="48.59805" lon="-3.17449">
        <ele>185</ele>
        <time>2016-06-06T12:39:50.1Z</time>
      </trkpt>
      <trkpt lat="48.59805" lon="-3.17449">
        <ele>185</ele>
        <time>2016-06-06T12:39:53.1Z</time>
      </trkpt>
      <trkpt lat="48.59805" lon="-3.17449">
        <ele>186</ele>
        <time>2016-06-06T12:39:55.1Z</time>
      </trkpt>
      <trkpt lat="48.59805" lon="-3.17448">
        <ele>186</ele>
        <time>2016-06-06T12:39:58.1Z</time>
      </trkpt>
      <trkpt lat="48.59805" lon="-3.17449">
        <ele>186</ele>
        <time>2016-06-06T12:40:00.1Z</time>
      </trkpt>
      <trkpt lat="48.59805" lon="-3.17448">
        <ele>186</ele>
        <time>2016-06-06T12:40:02.1Z</time>
      </trkpt>
      <trkpt lat="48.59805" lon="-3.17448">
        <ele>185</ele>
        <time>2016-06-06T12:40:05.1Z</time>
      </trkpt>
      <trkpt lat="48.59805" lon="-3.17448">
        <ele>185</ele>
        <time>2016-06-06T12:40:08.1Z</time>
      </trkpt>
      <trkpt lat="48.59806" lon="-3.17448">
        <ele>185</ele>
        <time>2016-06-06T12:40:10.1Z</time>
      </trkpt>
      <trkpt lat="48.59807" lon="-3.17446">
        <ele>185</ele>
        <time>2016-06-06T12:40:13.1Z</time>
      </trkpt>
      <trkpt lat="48.59807" lon="-3.17447">
        <ele>185</ele>
        <time>2016-06-06T12:40:15.1Z</time>
      </trkpt>
      <trkpt lat="48.59808" lon="-3.17447">
        <ele>185</ele>
        <time>2016-06-06T12:40:20.1Z</time>
      </trkpt>
      <trkpt lat="48.59807" lon="-3.17447">
        <ele>185</ele>
        <time>2016-06-06T12:40:23.1Z</time>
      </trkpt>
      <trkpt lat="48.59808" lon="-3.17448">
        <ele>185</ele>
        <time>2016-06-06T12:40:25.1Z</time>
      </trkpt>
      <trkpt lat="48.59808" lon="-3.17449">
        <ele>185</ele>
        <time>2016-06-06T12:40:28.1Z</time>
      </trkpt>
      <trkpt lat="48.59807" lon="-3.17449">
        <ele>185</ele>
        <time>2016-06-06T12:40:31.1Z</time>
      </trkpt>
      <trkpt lat="48.59806" lon="-3.17448">
        <ele>185</ele>
        <time>2016-06-06T12:40:34.1Z</time>
      </trkpt>
      <trkpt lat="48.59806" lon="-3.17447">
        <ele>185</ele>
        <time>2016-06-06T12:40:37.1Z</time>
      </trkpt>
      <trkpt lat="48.59805" lon="-3.17446">
        <ele>185</ele>
        <time>2016-06-06T12:40:40.1Z</time>
      </trkpt>
      <trkpt lat="48.59805" lon="-3.17447">
        <ele>185</ele>
        <time>2016-06-06T12:40:43.1Z</time>
      </trkpt>
      <trkpt lat="48.59807" lon="-3.17445">
        <ele>185</ele>
        <time>2016-06-06T12:40:46.1Z</time>
      </trkpt>
      <trkpt lat="48.5981" lon="-3.17443">
        <ele>185</ele>
        <time>2016-06-06T12:40:49.1Z</time>
      </trkpt>
      <trkpt lat="48.59813" lon="-3.17441">
        <ele>185</ele>
        <time>2016-06-06T12:40:51.1Z</time>
      </trkpt>
      <trkpt lat="48.59816" lon="-3.17438">
        <ele>185</ele>
        <time>2016-06-06T12:40:54.1Z</time>
      </trkpt>
      <trkpt lat="48.5982" lon="-3.17436">
        <ele>185</ele>
        <time>2016-06-06T12:40:57.1Z</time>
      </trkpt>
      <trkpt lat="48.59822" lon="-3.17433">
        <ele>185</ele>
        <time>2016-06-06T12:40:59.1Z</time>
      </trkpt>
      <trkpt lat="48.59826" lon="-3.17431">
        <ele>185</ele>
        <time>2016-06-06T12:41:02.1Z</time>
      </trkpt>
      <trkpt lat="48.59829" lon="-3.17429">
        <ele>185</ele>
        <time>2016-06-06T12:41:04.1Z</time>
      </trkpt>
      <trkpt lat="48.59832" lon="-3.17426">
        <ele>185</ele>
        <time>2016-06-06T12:41:07.1Z</time>
      </trkpt>
      <trkpt lat="48.59834" lon="-3.17424">
        <ele>185</ele>
        <time>2016-06-06T12:41:09.1Z</time>
      </trkpt>
      <trkpt lat="48.59837" lon="-3.17422">
        <ele>185</ele>
        <time>2016-06-06T12:41:12.1Z</time>
      </trkpt>
      <trkpt lat="48.5984" lon="-3.1742">
        <ele>186</ele>
        <time>2016-06-06T12:41:15.1Z</time>
      </trkpt>
      <trkpt lat="48.59843" lon="-3.17419">
        <ele>185</ele>
        <time>2016-06-06T12:41:17.1Z</time>
      </trkpt>
      <trkpt lat="48.59845" lon="-3.17419">
        <ele>185</ele>
        <time>2016-06-06T12:41:19.1Z</time>
      </trkpt>
      <trkpt lat="48.59849" lon="-3.17417">
        <ele>185</ele>
        <time>2016-06-06T12:41:22.1Z</time>
      </trkpt>
      <trkpt lat="48.59851" lon="-3.17416">
        <ele>186</ele>
        <time>2016-06-06T12:41:24.1Z</time>
      </trkpt>
      <trkpt lat="48.59854" lon="-3.17414">
        <ele>186</ele>
        <time>2016-06-06T12:41:26.1Z</time>
      </trkpt>
      <trkpt lat="48.59858" lon="-3.17412">
        <ele>186</ele>
        <time>2016-06-06T12:41:29.1Z</time>
      </trkpt>
      <trkpt lat="48.5986" lon="-3.1741">
        <ele>185</ele>
        <time>2016-06-06T12:41:31.1Z</time>
      </trkpt>
      <trkpt lat="48.59864" lon="-3.17409">
        <ele>186</ele>
        <time>2016-06-06T12:41:34.1Z</time>
      </trkpt>
      <trkpt lat="48.59866" lon="-3.17408">
        <ele>186</ele>
        <time>2016-06-06T12:41:36.1Z</time>
      </trkpt>
      <trkpt lat="48.59868" lon="-3.17407">
        <ele>186</ele>
        <time>2016-06-06T12:41:38.1Z</time>
      </trkpt>
      <trkpt lat="48.59872" lon="-3.17407">
        <ele>186</ele>
        <time>2016-06-06T12:41:41.1Z</time>
      </trkpt>
      <trkpt lat="48.59875" lon="-3.17406">
        <ele>186</ele>
        <time>2016-06-06T12:41:44.1Z</time>
      </trkpt>
      <trkpt lat="48.59878" lon="-3.17405">
        <ele>186</ele>
        <time>2016-06-06T12:41:47.1Z</time>
      </trkpt>
      <trkpt lat="48.5988" lon="-3.17404">
        <ele>186</ele>
        <time>2016-06-06T12:41:49.1Z</time>
      </trkpt>
      <trkpt lat="48.59884" lon="-3.17402">
        <ele>186</ele>
        <time>2016-06-06T12:41:52.1Z</time>
      </trkpt>
      <trkpt lat="48.59888" lon="-3.174">
        <ele>186</ele>
        <time>2016-06-06T12:41:55.1Z</time>
      </trkpt>
      <trkpt lat="48.5989" lon="-3.17398">
        <ele>186</ele>
        <time>2016-06-06T12:41:57.1Z</time>
      </trkpt>
      <trkpt lat="48.59894" lon="-3.17395">
        <ele>186</ele>
        <time>2016-06-06T12:42:00.1Z</time>
      </trkpt>
      <trkpt lat="48.59897" lon="-3.17394">
        <ele>186</ele>
        <time>2016-06-06T12:42:02.1Z</time>
      </trkpt>
      <trkpt lat="48.59901" lon="-3.17392">
        <ele>187</ele>
        <time>2016-06-06T12:42:05.1Z</time>
      </trkpt>
      <trkpt lat="48.59904" lon="-3.1739">
        <ele>187</ele>
        <time>2016-06-06T12:42:07.1Z</time>
      </trkpt>
      <trkpt lat="48.59908" lon="-3.17388">
        <ele>187</ele>
        <time>2016-06-06T12:42:10.1Z</time>
      </trkpt>
      <trkpt lat="48.59912" lon="-3.17387">
        <ele>187</ele>
        <time>2016-06-06T12:42:13.1Z</time>
      </trkpt>
      <trkpt lat="48.59916" lon="-3.17386">
        <ele>187</ele>
        <time>2016-06-06T12:42:16.1Z</time>
      </trkpt>
      <trkpt lat="48.5992" lon="-3.17384">
        <ele>187</ele>
        <time>2016-06-06T12:42:19.1Z</time>
      </trkpt>
      <trkpt lat="48.59924" lon="-3.17383">
        <ele>187</ele>
        <time>2016-06-06T12:42:22.1Z</time>
      </trkpt>
      <trkpt lat="48.59927" lon="-3.17381">
        <ele>187</ele>
        <time>2016-06-06T12:42:25.1Z</time>
      </trkpt>
      <trkpt lat="48.59931" lon="-3.17379">
        <ele>187</ele>
        <time>2016-06-06T12:42:28.1Z</time>
      </trkpt>
      <trkpt lat="48.59933" lon="-3.17378">
        <ele>187</ele>
        <time>2016-06-06T12:42:30.1Z</time>
      </trkpt>
      <trkpt lat="48.59935" lon="-3.17377">
        <ele>187</ele>
        <time>2016-06-06T12:42:32.1Z</time>
      </trkpt>
      <trkpt lat="48.59939" lon="-3.17376">
        <ele>187</ele>
        <time>2016-06-06T12:42:35.1Z</time>
      </trkpt>
      <trkpt lat="48.59942" lon="-3.17374">
        <ele>187</ele>
        <time>2016-06-06T12:42:38.1Z</time>
      </trkpt>
      <trkpt lat="48.59946" lon="-3.17372">
        <ele>187</ele>
        <time>2016-06-06T12:42:41.1Z</time>
      </trkpt>
      <trkpt lat="48.59948" lon="-3.17371">
        <ele>187</ele>
        <time>2016-06-06T12:42:43.1Z</time>
      </trkpt>
      <trkpt lat="48.59952" lon="-3.17369">
        <ele>187</ele>
        <time>2016-06-06T12:42:46.1Z</time>
      </trkpt>
      <trkpt lat="48.59954" lon="-3.17367">
        <ele>187</ele>
        <time>2016-06-06T12:42:48.1Z</time>
      </trkpt>
      <trkpt lat="48.59958" lon="-3.17366">
        <ele>186</ele>
        <time>2016-06-06T12:42:51.1Z</time>
      </trkpt>
      <trkpt lat="48.5996" lon="-3.17365">
        <ele>186</ele>
        <time>2016-06-06T12:42:53.1Z</time>
      </trkpt>
      <trkpt lat="48.59964" lon="-3.17364">
        <ele>186</ele>
        <time>2016-06-06T12:42:56.1Z</time>
      </trkpt>
      <trkpt lat="48.59967" lon="-3.17363">
        <ele>187</ele>
        <time>2016-06-06T12:42:58.1Z</time>
      </trkpt>
      <trkpt lat="48.59971" lon="-3.17361">
        <ele>187</ele>
        <time>2016-06-06T12:43:01.1Z</time>
      </trkpt>
      <trkpt lat="48.59975" lon="-3.17359">
        <ele>187</ele>
        <time>2016-06-06T12:43:04.1Z</time>
      </trkpt>
      <trkpt lat="48.59978" lon="-3.17357">
        <ele>187</ele>
        <time>2016-06-06T12:43:07.1Z</time>
      </trkpt>
      <trkpt lat="48.59981" lon="-3.17356">
        <ele>187</ele>
        <time>2016-06-06T12:43:09.1Z</time>
      </trkpt>
      <trkpt lat="48.59985" lon="-3.17354">
        <ele>186</ele>
        <time>2016-06-06T12:43:12.1Z</time>
      </trkpt>
      <trkpt lat="48.59988" lon="-3.17354">
        <ele>187</ele>
        <time>2016-06-06T12:43:14.1Z</time>
      </trkpt>
      <trkpt lat="48.5999" lon="-3.17353">
        <ele>187</ele>
        <time>2016-06-06T12:43:16.1Z</time>
      </trkpt>
      <trkpt lat="48.59995" lon="-3.17351">
        <ele>186</ele>
        <time>2016-06-06T12:43:19.1Z</time>
      </trkpt>
      <trkpt lat="48.59997" lon="-3.1735">
        <ele>186</ele>
        <time>2016-06-06T12:43:21.1Z</time>
      </trkpt>
      <trkpt lat="48.60001" lon="-3.17349">
        <ele>187</ele>
        <time>2016-06-06T12:43:24.1Z</time>
      </trkpt>
      <trkpt lat="48.60004" lon="-3.17348">
        <ele>187</ele>
        <time>2016-06-06T12:43:27.1Z</time>
      </trkpt>
      <trkpt lat="48.60007" lon="-3.17346">
        <ele>187</ele>
        <time>2016-06-06T12:43:29.1Z</time>
      </trkpt>
      <trkpt lat="48.60011" lon="-3.17345">
        <ele>187</ele>
        <time>2016-06-06T12:43:32.1Z</time>
      </trkpt>
      <trkpt lat="48.60015" lon="-3.17343">
        <ele>186</ele>
        <time>2016-06-06T12:43:35.1Z</time>
      </trkpt>
      <trkpt lat="48.60017" lon="-3.17342">
        <ele>186</ele>
        <time>2016-06-06T12:43:37.1Z</time>
      </trkpt>
      <trkpt lat="48.6002" lon="-3.17339">
        <ele>186</ele>
        <time>2016-06-06T12:43:40.1Z</time>
      </trkpt>
      <trkpt lat="48.60023" lon="-3.17338">
        <ele>186</ele>
        <time>2016-06-06T12:43:42.1Z</time>
      </trkpt>
      <trkpt lat="48.60026" lon="-3.17338">
        <ele>186</ele>
        <time>2016-06-06T12:43:44.1Z</time>
      </trkpt>
      <trkpt lat="48.60029" lon="-3.17336">
        <ele>186</ele>
        <time>2016-06-06T12:43:47.1Z</time>
      </trkpt>
      <trkpt lat="48.60031" lon="-3.17335">
        <ele>186</ele>
        <time>2016-06-06T12:43:49.1Z</time>
      </trkpt>
      <trkpt lat="48.60035" lon="-3.17334">
        <ele>186</ele>
        <time>2016-06-06T12:43:52.1Z</time>
      </trkpt>
      <trkpt lat="48.60038" lon="-3.17333">
        <ele>185</ele>
        <time>2016-06-06T12:43:54.1Z</time>
      </trkpt>
      <trkpt lat="48.60041" lon="-3.17333">
        <ele>186</ele>
        <time>2016-06-06T12:43:57.1Z</time>
      </trkpt>
      <trkpt lat="48.60044" lon="-3.17332">
        <ele>186</ele>
        <time>2016-06-06T12:43:59.1Z</time>
      </trkpt>
      <trkpt lat="48.60048" lon="-3.17331">
        <ele>185</ele>
        <time>2016-06-06T12:44:02.1Z</time>
      </trkpt>
      <trkpt lat="48.6005" lon="-3.17332">
        <ele>185</ele>
        <time>2016-06-06T12:44:04.1Z</time>
      </trkpt>
      <trkpt lat="48.60053" lon="-3.17331">
        <ele>185</ele>
        <time>2016-06-06T12:44:06.1Z</time>
      </trkpt>
      <trkpt lat="48.60055" lon="-3.17331">
        <ele>185</ele>
        <time>2016-06-06T12:44:08.1Z</time>
      </trkpt>
      <trkpt lat="48.60059" lon="-3.17331">
        <ele>185</ele>
        <time>2016-06-06T12:44:11.1Z</time>
      </trkpt>
      <trkpt lat="48.60061" lon="-3.17331">
        <ele>185</ele>
        <time>2016-06-06T12:44:13.1Z</time>
      </trkpt>
      <trkpt lat="48.60064" lon="-3.1733">
        <ele>185</ele>
        <time>2016-06-06T12:44:16.1Z</time>
      </trkpt>
      <trkpt lat="48.60067" lon="-3.17329">
        <ele>185</ele>
        <time>2016-06-06T12:44:18.1Z</time>
      </trkpt>
      <trkpt lat="48.6007" lon="-3.17329">
        <ele>185</ele>
        <time>2016-06-06T12:44:21.1Z</time>
      </trkpt>
      <trkpt lat="48.60072" lon="-3.17329">
        <ele>185</ele>
        <time>2016-06-06T12:44:23.1Z</time>
      </trkpt>
      <trkpt lat="48.60075" lon="-3.1733">
        <ele>185</ele>
        <time>2016-06-06T12:44:26.1Z</time>
      </trkpt>
      <trkpt lat="48.60078" lon="-3.1733">
        <ele>185</ele>
        <time>2016-06-06T12:44:29.1Z</time>
      </trkpt>
      <trkpt lat="48.6008" lon="-3.1733">
        <ele>185</ele>
        <time>2016-06-06T12:44:31.1Z</time>
      </trkpt>
      <trkpt lat="48.60083" lon="-3.17331">
        <ele>185</ele>
        <time>2016-06-06T12:44:34.1Z</time>
      </trkpt>
      <trkpt lat="48.60086" lon="-3.17331">
        <ele>185</ele>
        <time>2016-06-06T12:44:36.1Z</time>
      </trkpt>
      <trkpt lat="48.60089" lon="-3.17332">
        <ele>185</ele>
        <time>2016-06-06T12:44:39.1Z</time>
      </trkpt>
      <trkpt lat="48.60094" lon="-3.17332">
        <ele>185</ele>
        <time>2016-06-06T12:44:42.1Z</time>
      </trkpt>
      <trkpt lat="48.60098" lon="-3.17332">
        <ele>185</ele>
        <time>2016-06-06T12:44:45.1Z</time>
      </trkpt>
      <trkpt lat="48.601" lon="-3.17333">
        <ele>185</ele>
        <time>2016-06-06T12:44:47.1Z</time>
      </trkpt>
      <trkpt lat="48.60104" lon="-3.17333">
        <ele>185</ele>
        <time>2016-06-06T12:44:50.1Z</time>
      </trkpt>
      <trkpt lat="48.60106" lon="-3.17333">
        <ele>185</ele>
        <time>2016-06-06T12:44:52.1Z</time>
      </trkpt>
      <trkpt lat="48.60108" lon="-3.17333">
        <ele>185</ele>
        <time>2016-06-06T12:44:54.1Z</time>
      </trkpt>
      <trkpt lat="48.60111" lon="-3.17333">
        <ele>185</ele>
        <time>2016-06-06T12:44:56.1Z</time>
      </trkpt>
      <trkpt lat="48.60114" lon="-3.17333">
        <ele>185</ele>
        <time>2016-06-06T12:44:59.1Z</time>
      </trkpt>
      <trkpt lat="48.60116" lon="-3.17334">
        <ele>185</ele>
        <time>2016-06-06T12:45:01.1Z</time>
      </trkpt>
      <trkpt lat="48.6012" lon="-3.17333">
        <ele>185</ele>
        <time>2016-06-06T12:45:04.1Z</time>
      </trkpt>
      <trkpt lat="48.60121" lon="-3.17334">
        <ele>185</ele>
        <time>2016-06-06T12:45:06.1Z</time>
      </trkpt>
      <trkpt lat="48.60125" lon="-3.17334">
        <ele>185</ele>
        <time>2016-06-06T12:45:09.1Z</time>
      </trkpt>
      <trkpt lat="48.60129" lon="-3.17334">
        <ele>186</ele>
        <time>2016-06-06T12:45:12.1Z</time>
      </trkpt>
      <trkpt lat="48.60132" lon="-3.17333">
        <ele>186</ele>
        <time>2016-06-06T12:45:14.1Z</time>
      </trkpt>
      <trkpt lat="48.60135" lon="-3.17333">
        <ele>186</ele>
        <time>2016-06-06T12:45:16.1Z</time>
      </trkpt>
      <trkpt lat="48.60138" lon="-3.17333">
        <ele>185</ele>
        <time>2016-06-06T12:45:19.1Z</time>
      </trkpt>
      <trkpt lat="48.60141" lon="-3.17332">
        <ele>185</ele>
        <time>2016-06-06T12:45:21.1Z</time>
      </trkpt>
      <trkpt lat="48.60144" lon="-3.17332">
        <ele>185</ele>
        <time>2016-06-06T12:45:23.1Z</time>
      </trkpt>
      <trkpt lat="48.60147" lon="-3.17331">
        <ele>186</ele>
        <time>2016-06-06T12:45:25.1Z</time>
      </trkpt>
      <trkpt lat="48.60151" lon="-3.17332">
        <ele>186</ele>
        <time>2016-06-06T12:45:28.1Z</time>
      </trkpt>
      <trkpt lat="48.60154" lon="-3.17331">
        <ele>185</ele>
        <time>2016-06-06T12:45:30.1Z</time>
      </trkpt>
      <trkpt lat="48.60157" lon="-3.17331">
        <ele>185</ele>
        <time>2016-06-06T12:45:33.1Z</time>
      </trkpt>
      <trkpt lat="48.60161" lon="-3.1733">
        <ele>185</ele>
        <time>2016-06-06T12:45:35.1Z</time>
      </trkpt>
      <trkpt lat="48.60165" lon="-3.1733">
        <ele>185</ele>
        <time>2016-06-06T12:45:38.1Z</time>
      </trkpt>
      <trkpt lat="48.60167" lon="-3.1733">
        <ele>186</ele>
        <time>2016-06-06T12:45:40.1Z</time>
      </trkpt>
      <trkpt lat="48.60171" lon="-3.1733">
        <ele>186</ele>
        <time>2016-06-06T12:45:43.1Z</time>
      </trkpt>
      <trkpt lat="48.60174" lon="-3.1733">
        <ele>186</ele>
        <time>2016-06-06T12:45:45.1Z</time>
      </trkpt>
      <trkpt lat="48.60177" lon="-3.17329">
        <ele>186</ele>
        <time>2016-06-06T12:45:48.1Z</time>
      </trkpt>
      <trkpt lat="48.60181" lon="-3.17328">
        <ele>186</ele>
        <time>2016-06-06T12:45:51.1Z</time>
      </trkpt>
      <trkpt lat="48.60184" lon="-3.17328">
        <ele>186</ele>
        <time>2016-06-06T12:45:54.1Z</time>
      </trkpt>
      <trkpt lat="48.60187" lon="-3.17326">
        <ele>185</ele>
        <time>2016-06-06T12:45:57.1Z</time>
      </trkpt>
      <trkpt lat="48.60189" lon="-3.17326">
        <ele>185</ele>
        <time>2016-06-06T12:46:00.1Z</time>
      </trkpt>
      <trkpt lat="48.60192" lon="-3.17325">
        <ele>185</ele>
        <time>2016-06-06T12:46:03.1Z</time>
      </trkpt>
      <trkpt lat="48.60195" lon="-3.17325">
        <ele>185</ele>
        <time>2016-06-06T12:46:05.1Z</time>
      </trkpt>
      <trkpt lat="48.60197" lon="-3.17325">
        <ele>185</ele>
        <time>2016-06-06T12:46:08.1Z</time>
      </trkpt>
      <trkpt lat="48.60201" lon="-3.17327">
        <ele>185</ele>
        <time>2016-06-06T12:46:10.1Z</time>
      </trkpt>
      <trkpt lat="48.60203" lon="-3.17327">
        <ele>185</ele>
        <time>2016-06-06T12:46:13.1Z</time>
      </trkpt>
      <trkpt lat="48.60204" lon="-3.17326">
        <ele>185</ele>
        <time>2016-06-06T12:46:16.1Z</time>
      </trkpt>
      <trkpt lat="48.60205" lon="-3.17325">
        <ele>185</ele>
        <time>2016-06-06T12:46:19.1Z</time>
      </trkpt>
      <trkpt lat="48.60205" lon="-3.17323">
        <ele>185</ele>
        <time>2016-06-06T12:46:22.1Z</time>
      </trkpt>
      <trkpt lat="48.60206" lon="-3.1732">
        <ele>185</ele>
        <time>2016-06-06T12:46:25.1Z</time>
      </trkpt>
      <trkpt lat="48.60206" lon="-3.17319">
        <ele>185</ele>
        <time>2016-06-06T12:46:28.1Z</time>
      </trkpt>
      <trkpt lat="48.60206" lon="-3.17318">
        <ele>185</ele>
        <time>2016-06-06T12:46:30.1Z</time>
      </trkpt>
      <trkpt lat="48.60207" lon="-3.17317">
        <ele>185</ele>
        <time>2016-06-06T12:46:33.1Z</time>
      </trkpt>
      <trkpt lat="48.60206" lon="-3.17316">
        <ele>185</ele>
        <time>2016-06-06T12:46:35.1Z</time>
      </trkpt>
      <trkpt lat="48.60207" lon="-3.17315">
        <ele>185</ele>
        <time>2016-06-06T12:46:38.1Z</time>
      </trkpt>
      <trkpt lat="48.60207" lon="-3.17315">
        <ele>185</ele>
        <time>2016-06-06T12:46:41.1Z</time>
      </trkpt>
      <trkpt lat="48.60208" lon="-3.17315">
        <ele>185</ele>
        <time>2016-06-06T12:46:43.1Z</time>
      </trkpt>
      <trkpt lat="48.60209" lon="-3.17316">
        <ele>185</ele>
        <time>2016-06-06T12:46:46.1Z</time>
      </trkpt>
      <trkpt lat="48.6021" lon="-3.17316">
        <ele>185</ele>
        <time>2016-06-06T12:46:49.1Z</time>
      </trkpt>
      <trkpt lat="48.6021" lon="-3.17316">
        <ele>185</ele>
        <time>2016-06-06T12:46:52.1Z</time>
      </trkpt>
      <trkpt lat="48.6021" lon="-3.17316">
        <ele>185</ele>
        <time>2016-06-06T12:46:54.1Z</time>
      </trkpt>
      <trkpt lat="48.60209" lon="-3.17314">
        <ele>185</ele>
        <time>2016-06-06T12:46:57.1Z</time>
      </trkpt>
      <trkpt lat="48.60209" lon="-3.17314">
        <ele>185</ele>
        <time>2016-06-06T12:47:00.1Z</time>
      </trkpt>
      <trkpt lat="48.60209" lon="-3.17314">
        <ele>186</ele>
        <time>2016-06-06T12:47:03.1Z</time>
      </trkpt>
      <trkpt lat="48.6021" lon="-3.17314">
        <ele>185</ele>
        <time>2016-06-06T12:47:05.1Z</time>
      </trkpt>
      <trkpt lat="48.6021" lon="-3.17312">
        <ele>185</ele>
        <time>2016-06-06T12:47:07.1Z</time>
      </trkpt>
      <trkpt lat="48.60211" lon="-3.17312">
        <ele>185</ele>
        <time>2016-06-06T12:47:09.1Z</time>
      </trkpt>
      <trkpt lat="48.60212" lon="-3.17311">
        <ele>185</ele>
        <time>2016-06-06T12:47:12.1Z</time>
      </trkpt>
      <trkpt lat="48.60212" lon="-3.17311">
        <ele>185</ele>
        <time>2016-06-06T12:47:14.1Z</time>
      </trkpt>
      <trkpt lat="48.60212" lon="-3.17311">
        <ele>186</ele>
        <time>2016-06-06T12:47:17.1Z</time>
      </trkpt>
      <trkpt lat="48.60212" lon="-3.1731">
        <ele>186</ele>
        <time>2016-06-06T12:47:19.1Z</time>
      </trkpt>
      <trkpt lat="48.60213" lon="-3.1731">
        <ele>186</ele>
        <time>2016-06-06T12:47:22.1Z</time>
      </trkpt>
      <trkpt lat="48.60213" lon="-3.1731">
        <ele>186</ele>
        <time>2016-06-06T12:47:24.1Z</time>
      </trkpt>
      <trkpt lat="48.60214" lon="-3.1731">
        <ele>186</ele>
        <time>2016-06-06T12:47:27.1Z</time>
      </trkpt>
      <trkpt lat="48.60215" lon="-3.1731">
        <ele>185</ele>
        <time>2016-06-06T12:47:30.1Z</time>
      </trkpt>
      <trkpt lat="48.60215" lon="-3.17309">
        <ele>185</ele>
        <time>2016-06-06T12:47:33.1Z</time>
      </trkpt>
      <trkpt lat="48.60215" lon="-3.17309">
        <ele>186</ele>
        <time>2016-06-06T12:47:35.1Z</time>
      </trkpt>
      <trkpt lat="48.60215" lon="-3.17309">
        <ele>186</ele>
        <time>2016-06-06T12:47:38.1Z</time>
      </trkpt>
      <trkpt lat="48.60215" lon="-3.17309">
        <ele>186</ele>
        <time>2016-06-06T12:47:41.1Z</time>
      </trkpt>
      <trkpt lat="48.60215" lon="-3.17309">
        <ele>185</ele>
        <time>2016-06-06T12:47:43.1Z</time>
      </trkpt>
      <trkpt lat="48.60216" lon="-3.17309">
        <ele>185</ele>
        <time>2016-06-06T12:47:45.1Z</time>
      </trkpt>
      <trkpt lat="48.60215" lon="-3.17308">
        <ele>185</ele>
        <time>2016-06-06T12:47:48.1Z</time>
      </trkpt>
      <trkpt lat="48.60216" lon="-3.17307">
        <ele>185</ele>
        <time>2016-06-06T12:47:50.1Z</time>
      </trkpt>
      <trkpt lat="48.60215" lon="-3.17305">
        <ele>185</ele>
        <time>2016-06-06T12:47:53.1Z</time>
      </trkpt>
      <trkpt lat="48.60215" lon="-3.17304">
        <ele>185</ele>
        <time>2016-06-06T12:47:55.1Z</time>
      </trkpt>
      <trkpt lat="48.60214" lon="-3.17303">
        <ele>185</ele>
        <time>2016-06-06T12:47:58.1Z</time>
      </trkpt>
      <trkpt lat="48.60214" lon="-3.17301">
        <ele>185</ele>
        <time>2016-06-06T12:48:01.1Z</time>
      </trkpt>
      <trkpt lat="48.60213" lon="-3.17298">
        <ele>185</ele>
        <time>2016-06-06T12:48:03.1Z</time>
      </trkpt>
      <trkpt lat="48.60212" lon="-3.17294">
        <ele>184</ele>
        <time>2016-06-06T12:48:06.1Z</time>
      </trkpt>
      <trkpt lat="48.60212" lon="-3.1729">
        <ele>184</ele>
        <time>2016-06-06T12:48:08.1Z</time>
      </trkpt>
      <trkpt lat="48.60212" lon="-3.17287">
        <ele>185</ele>
        <time>2016-06-06T12:48:10.1Z</time>
      </trkpt>
      <trkpt lat="48.60212" lon="-3.17283">
        <ele>184</ele>
        <time>2016-06-06T12:48:13.1Z</time>
      </trkpt>
      <trkpt lat="48.60211" lon="-3.17279">
        <ele>184</ele>
        <time>2016-06-06T12:48:15.1Z</time>
      </trkpt>
      <trkpt lat="48.60211" lon="-3.17274">
        <ele>184</ele>
        <time>2016-06-06T12:48:18.1Z</time>
      </trkpt>
      <trkpt lat="48.60211" lon="-3.1727">
        <ele>184</ele>
        <time>2016-06-06T12:48:21.1Z</time>
      </trkpt>
      <trkpt lat="48.60211" lon="-3.17266">
        <ele>184</ele>
        <time>2016-06-06T12:48:23.1Z</time>
      </trkpt>
      <trkpt lat="48.60211" lon="-3.17264">
        <ele>184</ele>
        <time>2016-06-06T12:48:25.1Z</time>
      </trkpt>
      <trkpt lat="48.6021" lon="-3.17259">
        <ele>184</ele>
        <time>2016-06-06T12:48:28.1Z</time>
      </trkpt>
      <trkpt lat="48.60209" lon="-3.17256">
        <ele>184</ele>
        <time>2016-06-06T12:48:30.1Z</time>
      </trkpt>
      <trkpt lat="48.60207" lon="-3.17254">
        <ele>184</ele>
        <time>2016-06-06T12:48:33.1Z</time>
      </trkpt>
      <trkpt lat="48.60205" lon="-3.17253">
        <ele>184</ele>
        <time>2016-06-06T12:48:35.1Z</time>
      </trkpt>
      <trkpt lat="48.60204" lon="-3.17252">
        <ele>184</ele>
        <time>2016-06-06T12:48:37.1Z</time>
      </trkpt>
      <trkpt lat="48.60201" lon="-3.1725">
        <ele>185</ele>
        <time>2016-06-06T12:48:40.1Z</time>
      </trkpt>
      <trkpt lat="48.60199" lon="-3.17246">
        <ele>185</ele>
        <time>2016-06-06T12:48:43.1Z</time>
      </trkpt>
      <trkpt lat="48.60199" lon="-3.17243">
        <ele>185</ele>
        <time>2016-06-06T12:48:45.1Z</time>
      </trkpt>
      <trkpt lat="48.60198" lon="-3.17238">
        <ele>184</ele>
        <time>2016-06-06T12:48:48.1Z</time>
      </trkpt>
      <trkpt lat="48.60199" lon="-3.17237">
        <ele>184</ele>
        <time>2016-06-06T12:48:50.1Z</time>
      </trkpt>
      <trkpt lat="48.60199" lon="-3.17233">
        <ele>184</ele>
        <time>2016-06-06T12:48:53.1Z</time>
      </trkpt>
      <trkpt lat="48.60201" lon="-3.17231">
        <ele>184</ele>
        <time>2016-06-06T12:48:55.1Z</time>
      </trkpt>
      <trkpt lat="48.60202" lon="-3.17228">
        <ele>184</ele>
        <time>2016-06-06T12:48:57.1Z</time>
      </trkpt>
      <trkpt lat="48.60203" lon="-3.17224">
        <ele>184</ele>
        <time>2016-06-06T12:49:00.1Z</time>
      </trkpt>
      <trkpt lat="48.60203" lon="-3.17219">
        <ele>184</ele>
        <time>2016-06-06T12:49:03.1Z</time>
      </trkpt>
      <trkpt lat="48.60204" lon="-3.17215">
        <ele>184</ele>
        <time>2016-06-06T12:49:05.1Z</time>
      </trkpt>
      <trkpt lat="48.60203" lon="-3.17213">
        <ele>184</ele>
        <time>2016-06-06T12:49:07.1Z</time>
      </trkpt>
      <trkpt lat="48.60204" lon="-3.17207">
        <ele>184</ele>
        <time>2016-06-06T12:49:10.1Z</time>
      </trkpt>
      <trkpt lat="48.60205" lon="-3.17203">
        <ele>184</ele>
        <time>2016-06-06T12:49:12.1Z</time>
      </trkpt>
      <trkpt lat="48.60206" lon="-3.17198">
        <ele>185</ele>
        <time>2016-06-06T12:49:15.1Z</time>
      </trkpt>
      <trkpt lat="48.60208" lon="-3.17195">
        <ele>185</ele>
        <time>2016-06-06T12:49:17.1Z</time>
      </trkpt>
      <trkpt lat="48.60209" lon="-3.17192">
        <ele>185</ele>
        <time>2016-06-06T12:49:19.1Z</time>
      </trkpt>
      <trkpt lat="48.6021" lon="-3.17186">
        <ele>184</ele>
        <time>2016-06-06T12:49:22.1Z</time>
      </trkpt>
      <trkpt lat="48.60211" lon="-3.17182">
        <ele>184</ele>
        <time>2016-06-06T12:49:24.1Z</time>
      </trkpt>
      <trkpt lat="48.60212" lon="-3.17177">
        <ele>184</ele>
        <time>2016-06-06T12:49:27.1Z</time>
      </trkpt>
      <trkpt lat="48.60213" lon="-3.17173">
        <ele>184</ele>
        <time>2016-06-06T12:49:29.1Z</time>
      </trkpt>
      <trkpt lat="48.60214" lon="-3.17168">
        <ele>185</ele>
        <time>2016-06-06T12:49:32.1Z</time>
      </trkpt>
      <trkpt lat="48.60216" lon="-3.17163">
        <ele>185</ele>
        <time>2016-06-06T12:49:35.1Z</time>
      </trkpt>
      <trkpt lat="48.60217" lon="-3.1716">
        <ele>185</ele>
        <time>2016-06-06T12:49:37.1Z</time>
      </trkpt>
      <trkpt lat="48.60218" lon="-3.17156">
        <ele>184</ele>
        <time>2016-06-06T12:49:40.1Z</time>
      </trkpt>
      <trkpt lat="48.60218" lon="-3.17151">
        <ele>184</ele>
        <time>2016-06-06T12:49:43.1Z</time>
      </trkpt>
      <trkpt lat="48.60218" lon="-3.17145">
        <ele>184</ele>
        <time>2016-06-06T12:49:46.1Z</time>
      </trkpt>
      <trkpt lat="48.60218" lon="-3.17141">
        <ele>185</ele>
        <time>2016-06-06T12:49:49.1Z</time>
      </trkpt>
      <trkpt lat="48.60219" lon="-3.17135">
        <ele>184</ele>
        <time>2016-06-06T12:49:52.1Z</time>
      </trkpt>
      <trkpt lat="48.60219" lon="-3.17132">
        <ele>184</ele>
        <time>2016-06-06T12:49:54.1Z</time>
      </trkpt>
      <trkpt lat="48.6022" lon="-3.17126">
        <ele>184</ele>
        <time>2016-06-06T12:49:57.1Z</time>
      </trkpt>
      <trkpt lat="48.6022" lon="-3.17122">
        <ele>184</ele>
        <time>2016-06-06T12:50:00.1Z</time>
      </trkpt>
      <trkpt lat="48.6022" lon="-3.17118">
        <ele>184</ele>
        <time>2016-06-06T12:50:02.1Z</time>
      </trkpt>
      <trkpt lat="48.6022" lon="-3.17112">
        <ele>184</ele>
        <time>2016-06-06T12:50:05.1Z</time>
      </trkpt>
      <trkpt lat="48.6022" lon="-3.17109">
        <ele>184</ele>
        <time>2016-06-06T12:50:07.1Z</time>
      </trkpt>
      <trkpt lat="48.6022" lon="-3.17104">
        <ele>184</ele>
        <time>2016-06-06T12:50:10.1Z</time>
      </trkpt>
      <trkpt lat="48.6022" lon="-3.17099">
        <ele>184</ele>
        <time>2016-06-06T12:50:13.1Z</time>
      </trkpt>
      <trkpt lat="48.60221" lon="-3.17095">
        <ele>184</ele>
        <time>2016-06-06T12:50:15.1Z</time>
      </trkpt>
      <trkpt lat="48.6022" lon="-3.1709">
        <ele>184</ele>
        <time>2016-06-06T12:50:18.1Z</time>
      </trkpt>
      <trkpt lat="48.60221" lon="-3.17088">
        <ele>184</ele>
        <time>2016-06-06T12:50:20.1Z</time>
      </trkpt>
      <trkpt lat="48.60221" lon="-3.17083">
        <ele>184</ele>
        <time>2016-06-06T12:50:23.1Z</time>
      </trkpt>
      <trkpt lat="48.60221" lon="-3.17078">
        <ele>184</ele>
        <time>2016-06-06T12:50:26.1Z</time>
      </trkpt>
      <trkpt lat="48.60221" lon="-3.17074">
        <ele>184</ele>
        <time>2016-06-06T12:50:28.1Z</time>
      </trkpt>
      <trkpt lat="48.60221" lon="-3.17069">
        <ele>184</ele>
        <time>2016-06-06T12:50:31.1Z</time>
      </trkpt>
      <trkpt lat="48.60221" lon="-3.17066">
        <ele>184</ele>
        <time>2016-06-06T12:50:33.1Z</time>
      </trkpt>
      <trkpt lat="48.60222" lon="-3.1706">
        <ele>184</ele>
        <time>2016-06-06T12:50:36.1Z</time>
      </trkpt>
      <trkpt lat="48.60223" lon="-3.17057">
        <ele>184</ele>
        <time>2016-06-06T12:50:38.1Z</time>
      </trkpt>
      <trkpt lat="48.60224" lon="-3.17052">
        <ele>184</ele>
        <time>2016-06-06T12:50:41.1Z</time>
      </trkpt>
      <trkpt lat="48.60225" lon="-3.17049">
        <ele>184</ele>
        <time>2016-06-06T12:50:43.1Z</time>
      </trkpt>
      <trkpt lat="48.60228" lon="-3.17045">
        <ele>183</ele>
        <time>2016-06-06T12:50:46.1Z</time>
      </trkpt>
      <trkpt lat="48.60229" lon="-3.17044">
        <ele>183</ele>
        <time>2016-06-06T12:50:48.1Z</time>
      </trkpt>
      <trkpt lat="48.60233" lon="-3.17042">
        <ele>183</ele>
        <time>2016-06-06T12:50:51.1Z</time>
      </trkpt>
      <trkpt lat="48.60237" lon="-3.17042">
        <ele>183</ele>
        <time>2016-06-06T12:50:54.1Z</time>
      </trkpt>
      <trkpt lat="48.60239" lon="-3.17042">
        <ele>183</ele>
        <time>2016-06-06T12:50:56.1Z</time>
      </trkpt>
      <trkpt lat="48.60243" lon="-3.17042">
        <ele>183</ele>
        <time>2016-06-06T12:50:59.1Z</time>
      </trkpt>
      <trkpt lat="48.60247" lon="-3.17042">
        <ele>183</ele>
        <time>2016-06-06T12:51:02.1Z</time>
      </trkpt>
      <trkpt lat="48.60249" lon="-3.17043">
        <ele>183</ele>
        <time>2016-06-06T12:51:05.1Z</time>
      </trkpt>
      <trkpt lat="48.60252" lon="-3.17042">
        <ele>183</ele>
        <time>2016-06-06T12:51:07.1Z</time>
      </trkpt>
      <trkpt lat="48.60255" lon="-3.17043">
        <ele>183</ele>
        <time>2016-06-06T12:51:10.1Z</time>
      </trkpt>
      <trkpt lat="48.60257" lon="-3.1704">
        <ele>183</ele>
        <time>2016-06-06T12:51:13.1Z</time>
      </trkpt>
      <trkpt lat="48.60258" lon="-3.17039">
        <ele>183</ele>
        <time>2016-06-06T12:51:15.1Z</time>
      </trkpt>
      <trkpt lat="48.60261" lon="-3.17038">
        <ele>182</ele>
        <time>2016-06-06T12:51:17.1Z</time>
      </trkpt>
      <trkpt lat="48.60262" lon="-3.17034">
        <ele>182</ele>
        <time>2016-06-06T12:51:19.1Z</time>
      </trkpt>
      <trkpt lat="48.60264" lon="-3.1703">
        <ele>182</ele>
        <time>2016-06-06T12:51:22.1Z</time>
      </trkpt>
      <trkpt lat="48.60265" lon="-3.17027">
        <ele>183</ele>
        <time>2016-06-06T12:51:24.1Z</time>
      </trkpt>
      <trkpt lat="48.60267" lon="-3.17024">
        <ele>183</ele>
        <time>2016-06-06T12:51:26.1Z</time>
      </trkpt>
      <trkpt lat="48.60269" lon="-3.17018">
        <ele>183</ele>
        <time>2016-06-06T12:51:29.1Z</time>
      </trkpt>
      <trkpt lat="48.60271" lon="-3.17015">
        <ele>183</ele>
        <time>2016-06-06T12:51:31.1Z</time>
      </trkpt>
      <trkpt lat="48.60272" lon="-3.1701">
        <ele>183</ele>
        <time>2016-06-06T12:51:34.1Z</time>
      </trkpt>
      <trkpt lat="48.60274" lon="-3.17005">
        <ele>183</ele>
        <time>2016-06-06T12:51:37.1Z</time>
      </trkpt>
      <trkpt lat="48.60275" lon="-3.17">
        <ele>183</ele>
        <time>2016-06-06T12:51:40.1Z</time>
      </trkpt>
      <trkpt lat="48.60277" lon="-3.16996">
        <ele>183</ele>
        <time>2016-06-06T12:51:43.1Z</time>
      </trkpt>
      <trkpt lat="48.60278" lon="-3.16993">
        <ele>183</ele>
        <time>2016-06-06T12:51:45.1Z</time>
      </trkpt>
      <trkpt lat="48.6028" lon="-3.1699">
        <ele>183</ele>
        <time>2016-06-06T12:51:48.1Z</time>
      </trkpt>
      <trkpt lat="48.60282" lon="-3.16988">
        <ele>183</ele>
        <time>2016-06-06T12:51:50.1Z</time>
      </trkpt>
      <trkpt lat="48.60284" lon="-3.16984">
        <ele>183</ele>
        <time>2016-06-06T12:51:53.1Z</time>
      </trkpt>
      <trkpt lat="48.60286" lon="-3.16981">
        <ele>183</ele>
        <time>2016-06-06T12:51:56.1Z</time>
      </trkpt>
      <trkpt lat="48.60287" lon="-3.16976">
        <ele>183</ele>
        <time>2016-06-06T12:51:59.1Z</time>
      </trkpt>
      <trkpt lat="48.60289" lon="-3.1697">
        <ele>183</ele>
        <time>2016-06-06T12:52:02.1Z</time>
      </trkpt>
      <trkpt lat="48.60289" lon="-3.16964">
        <ele>184</ele>
        <time>2016-06-06T12:52:05.1Z</time>
      </trkpt>
      <trkpt lat="48.60289" lon="-3.16959">
        <ele>184</ele>
        <time>2016-06-06T12:52:08.1Z</time>
      </trkpt>
      <trkpt lat="48.60287" lon="-3.16955">
        <ele>184</ele>
        <time>2016-06-06T12:52:11.1Z</time>
      </trkpt>
      <trkpt lat="48.60287" lon="-3.16953">
        <ele>184</ele>
        <time>2016-06-06T12:52:13.1Z</time>
      </trkpt>
      <trkpt lat="48.60284" lon="-3.16949">
        <ele>184</ele>
        <time>2016-06-06T12:52:16.1Z</time>
      </trkpt>
      <trkpt lat="48.60283" lon="-3.16945">
        <ele>184</ele>
        <time>2016-06-06T12:52:18.1Z</time>
      </trkpt>
      <trkpt lat="48.60281" lon="-3.16941">
        <ele>183</ele>
        <time>2016-06-06T12:52:21.1Z</time>
      </trkpt>
      <trkpt lat="48.6028" lon="-3.16937">
        <ele>184</ele>
        <time>2016-06-06T12:52:24.1Z</time>
      </trkpt>
      <trkpt lat="48.60278" lon="-3.16933">
        <ele>184</ele>
        <time>2016-06-06T12:52:27.1Z</time>
      </trkpt>
      <trkpt lat="48.60276" lon="-3.16931">
        <ele>184</ele>
        <time>2016-06-06T12:52:29.1Z</time>
      </trkpt>
      <trkpt lat="48.60275" lon="-3.16927">
        <ele>184</ele>
        <time>2016-06-06T12:52:31.1Z</time>
      </trkpt>
      <trkpt lat="48.60273" lon="-3.16922">
        <ele>184</ele>
        <time>2016-06-06T12:52:34.1Z</time>
      </trkpt>
      <trkpt lat="48.60272" lon="-3.16919">
        <ele>184</ele>
        <time>2016-06-06T12:52:36.1Z</time>
      </trkpt>
      <trkpt lat="48.6027" lon="-3.16915">
        <ele>184</ele>
        <time>2016-06-06T12:52:39.1Z</time>
      </trkpt>
      <trkpt lat="48.60269" lon="-3.16911">
        <ele>184</ele>
        <time>2016-06-06T12:52:41.1Z</time>
      </trkpt>
      <trkpt lat="48.60268" lon="-3.16906">
        <ele>184</ele>
        <time>2016-06-06T12:52:43.1Z</time>
      </trkpt>
      <trkpt lat="48.60268" lon="-3.16901">
        <ele>185</ele>
        <time>2016-06-06T12:52:46.1Z</time>
      </trkpt>
      <trkpt lat="48.60268" lon="-3.16895">
        <ele>185</ele>
        <time>2016-06-06T12:52:49.1Z</time>
      </trkpt>
      <trkpt lat="48.6027" lon="-3.1689">
        <ele>184</ele>
        <time>2016-06-06T12:52:52.1Z</time>
      </trkpt>
      <trkpt lat="48.60271" lon="-3.16886">
        <ele>184</ele>
        <time>2016-06-06T12:52:54.1Z</time>
      </trkpt>
      <trkpt lat="48.60273" lon="-3.16881">
        <ele>184</ele>
        <time>2016-06-06T12:52:57.1Z</time>
      </trkpt>
      <trkpt lat="48.60274" lon="-3.16876">
        <ele>184</ele>
        <time>2016-06-06T12:53:00.1Z</time>
      </trkpt>
      <trkpt lat="48.60275" lon="-3.16872">
        <ele>184</ele>
        <time>2016-06-06T12:53:02.1Z</time>
      </trkpt>
      <trkpt lat="48.60276" lon="-3.16867">
        <ele>185</ele>
        <time>2016-06-06T12:53:05.1Z</time>
      </trkpt>
      <trkpt lat="48.60276" lon="-3.16864">
        <ele>185</ele>
        <time>2016-06-06T12:53:07.1Z</time>
      </trkpt>
      <trkpt lat="48.60278" lon="-3.1686">
        <ele>185</ele>
        <time>2016-06-06T12:53:10.1Z</time>
      </trkpt>
      <trkpt lat="48.60279" lon="-3.16855">
        <ele>184</ele>
        <time>2016-06-06T12:53:13.1Z</time>
      </trkpt>
      <trkpt lat="48.60281" lon="-3.16849">
        <ele>184</ele>
        <time>2016-06-06T12:53:16.1Z</time>
      </trkpt>
      <trkpt lat="48.60281" lon="-3.16845">
        <ele>184</ele>
        <time>2016-06-06T12:53:19.1Z</time>
      </trkpt>
      <trkpt lat="48.60282" lon="-3.16842">
        <ele>184</ele>
        <time>2016-06-06T12:53:21.1Z</time>
      </trkpt>
      <trkpt lat="48.60283" lon="-3.16836">
        <ele>184</ele>
        <time>2016-06-06T12:53:24.1Z</time>
      </trkpt>
      <trkpt lat="48.60284" lon="-3.16833">
        <ele>185</ele>
        <time>2016-06-06T12:53:26.1Z</time>
      </trkpt>
      <trkpt lat="48.60286" lon="-3.16829">
        <ele>184</ele>
        <time>2016-06-06T12:53:29.1Z</time>
      </trkpt>
      <trkpt lat="48.60287" lon="-3.16827">
        <ele>184</ele>
        <time>2016-06-06T12:53:31.1Z</time>
      </trkpt>
      <trkpt lat="48.60289" lon="-3.16822">
        <ele>184</ele>
        <time>2016-06-06T12:53:34.1Z</time>
      </trkpt>
      <trkpt lat="48.6029" lon="-3.16819">
        <ele>184</ele>
        <time>2016-06-06T12:53:36.1Z</time>
      </trkpt>
      <trkpt lat="48.60291" lon="-3.16814">
        <ele>184</ele>
        <time>2016-06-06T12:53:39.1Z</time>
      </trkpt>
      <trkpt lat="48.60293" lon="-3.1681">
        <ele>184</ele>
        <time>2016-06-06T12:53:42.1Z</time>
      </trkpt>
      <trkpt lat="48.60296" lon="-3.16806">
        <ele>184</ele>
        <time>2016-06-06T12:53:45.1Z</time>
      </trkpt>
      <trkpt lat="48.60299" lon="-3.16802">
        <ele>184</ele>
        <time>2016-06-06T12:53:48.1Z</time>
      </trkpt>
      <trkpt lat="48.60301" lon="-3.16799">
        <ele>184</ele>
        <time>2016-06-06T12:53:50.1Z</time>
      </trkpt>
      <trkpt lat="48.60303" lon="-3.16797">
        <ele>184</ele>
        <time>2016-06-06T12:53:52.1Z</time>
      </trkpt>
      <trkpt lat="48.60305" lon="-3.16792">
        <ele>184</ele>
        <time>2016-06-06T12:53:55.1Z</time>
      </trkpt>
      <trkpt lat="48.60305" lon="-3.16787">
        <ele>184</ele>
        <time>2016-06-06T12:53:58.1Z</time>
      </trkpt>
      <trkpt lat="48.60307" lon="-3.16782">
        <ele>184</ele>
        <time>2016-06-06T12:54:01.1Z</time>
      </trkpt>
      <trkpt lat="48.60308" lon="-3.16779">
        <ele>184</ele>
        <time>2016-06-06T12:54:03.1Z</time>
      </trkpt>
      <trkpt lat="48.60306" lon="-3.16774">
        <ele>184</ele>
        <time>2016-06-06T12:54:06.1Z</time>
      </trkpt>
      <trkpt lat="48.60306" lon="-3.1677">
        <ele>184</ele>
        <time>2016-06-06T12:54:08.1Z</time>
      </trkpt>
      <trkpt lat="48.60305" lon="-3.16764">
        <ele>184</ele>
        <time>2016-06-06T12:54:11.1Z</time>
      </trkpt>
      <trkpt lat="48.60302" lon="-3.16759">
        <ele>184</ele>
        <time>2016-06-06T12:54:14.1Z</time>
      </trkpt>
      <trkpt lat="48.603" lon="-3.16756">
        <ele>184</ele>
        <time>2016-06-06T12:54:17.1Z</time>
      </trkpt>
      <trkpt lat="48.60299" lon="-3.16752">
        <ele>184</ele>
        <time>2016-06-06T12:54:19.1Z</time>
      </trkpt>
      <trkpt lat="48.60297" lon="-3.16748">
        <ele>184</ele>
        <time>2016-06-06T12:54:22.1Z</time>
      </trkpt>
      <trkpt lat="48.60296" lon="-3.16745">
        <ele>184</ele>
        <time>2016-06-06T12:54:24.1Z</time>
      </trkpt>
      <trkpt lat="48.60294" lon="-3.1674">
        <ele>183</ele>
        <time>2016-06-06T12:54:27.1Z</time>
      </trkpt>
      <trkpt lat="48.60292" lon="-3.16736">
        <ele>183</ele>
        <time>2016-06-06T12:54:30.1Z</time>
      </trkpt>
      <trkpt lat="48.60291" lon="-3.1673">
        <ele>183</ele>
        <time>2016-06-06T12:54:33.1Z</time>
      </trkpt>
      <trkpt lat="48.6029" lon="-3.16728">
        <ele>183</ele>
        <time>2016-06-06T12:54:35.1Z</time>
      </trkpt>
      <trkpt lat="48.60287" lon="-3.16725">
        <ele>183</ele>
        <time>2016-06-06T12:54:38.1Z</time>
      </trkpt>
      <trkpt lat="48.60286" lon="-3.16722">
        <ele>184</ele>
        <time>2016-06-06T12:54:40.1Z</time>
      </trkpt>
      <trkpt lat="48.60283" lon="-3.16719">
        <ele>184</ele>
        <time>2016-06-06T12:54:43.1Z</time>
      </trkpt>
      <trkpt lat="48.60281" lon="-3.16715">
        <ele>184</ele>
        <time>2016-06-06T12:54:46.1Z</time>
      </trkpt>
      <trkpt lat="48.60279" lon="-3.16713">
        <ele>184</ele>
        <time>2016-06-06T12:54:48.1Z</time>
      </trkpt>
      <trkpt lat="48.60276" lon="-3.16709">
        <ele>183</ele>
        <time>2016-06-06T12:54:51.1Z</time>
      </trkpt>
      <trkpt lat="48.60273" lon="-3.16705">
        <ele>183</ele>
        <time>2016-06-06T12:54:54.1Z</time>
      </trkpt>
      <trkpt lat="48.60271" lon="-3.16702">
        <ele>183</ele>
        <time>2016-06-06T12:54:56.1Z</time>
      </trkpt>
      <trkpt lat="48.6027" lon="-3.16697">
        <ele>183</ele>
        <time>2016-06-06T12:54:59.1Z</time>
      </trkpt>
      <trkpt lat="48.60269" lon="-3.16694">
        <ele>183</ele>
        <time>2016-06-06T12:55:01.1Z</time>
      </trkpt>
      <trkpt lat="48.60268" lon="-3.16688">
        <ele>183</ele>
        <time>2016-06-06T12:55:04.1Z</time>
      </trkpt>
      <trkpt lat="48.60269" lon="-3.16683">
        <ele>183</ele>
        <time>2016-06-06T12:55:07.1Z</time>
      </trkpt>
      <trkpt lat="48.6027" lon="-3.1668">
        <ele>183</ele>
        <time>2016-06-06T12:55:09.1Z</time>
      </trkpt>
      <trkpt lat="48.60271" lon="-3.16676">
        <ele>183</ele>
        <time>2016-06-06T12:55:12.1Z</time>
      </trkpt>
      <trkpt lat="48.6027" lon="-3.16676">
        <ele>183</ele>
        <time>2016-06-06T12:55:15.1Z</time>
      </trkpt>
      <trkpt lat="48.60271" lon="-3.16676">
        <ele>182</ele>
        <time>2016-06-06T12:55:18.1Z</time>
      </trkpt>
      <trkpt lat="48.60271" lon="-3.16676">
        <ele>182</ele>
        <time>2016-06-06T12:55:20.1Z</time>
      </trkpt>
      <trkpt lat="48.60271" lon="-3.16677">
        <ele>182</ele>
        <time>2016-06-06T12:55:23.1Z</time>
      </trkpt>
      <trkpt lat="48.6027" lon="-3.16678">
        <ele>182</ele>
        <time>2016-06-06T12:55:25.1Z</time>
      </trkpt>
      <trkpt lat="48.6027" lon="-3.16679">
        <ele>183</ele>
        <time>2016-06-06T12:55:28.1Z</time>
      </trkpt>
      <trkpt lat="48.60272" lon="-3.1668">
        <ele>183</ele>
        <time>2016-06-06T12:55:31.1Z</time>
      </trkpt>
      <trkpt lat="48.60272" lon="-3.16681">
        <ele>183</ele>
        <time>2016-06-06T12:55:34.1Z</time>
      </trkpt>
      <trkpt lat="48.60272" lon="-3.16681">
        <ele>183</ele>
        <time>2016-06-06T12:55:36.1Z</time>
      </trkpt>
      <trkpt lat="48.60272" lon="-3.16682">
        <ele>183</ele>
        <time>2016-06-06T12:55:38.1Z</time>
      </trkpt>
      <trkpt lat="48.60273" lon="-3.16682">
        <ele>183</ele>
        <time>2016-06-06T12:55:41.1Z</time>
      </trkpt>
      <trkpt lat="48.60272" lon="-3.16682">
        <ele>183</ele>
        <time>2016-06-06T12:55:43.1Z</time>
      </trkpt>
      <trkpt lat="48.60272" lon="-3.16682">
        <ele>182</ele>
        <time>2016-06-06T12:55:46.1Z</time>
      </trkpt>
      <trkpt lat="48.60272" lon="-3.16682">
        <ele>182</ele>
        <time>2016-06-06T12:55:49.1Z</time>
      </trkpt>
      <trkpt lat="48.60273" lon="-3.16682">
        <ele>182</ele>
        <time>2016-06-06T12:55:52.1Z</time>
      </trkpt>
      <trkpt lat="48.60273" lon="-3.16682">
        <ele>182</ele>
        <time>2016-06-06T12:55:54.1Z</time>
      </trkpt>
      <trkpt lat="48.60272" lon="-3.16683">
        <ele>182</ele>
        <time>2016-06-06T12:55:57.1Z</time>
      </trkpt>
      <trkpt lat="48.60272" lon="-3.16683">
        <ele>182</ele>
        <time>2016-06-06T12:55:59.1Z</time>
      </trkpt>
      <trkpt lat="48.60272" lon="-3.16683">
        <ele>183</ele>
        <time>2016-06-06T12:56:01.1Z</time>
      </trkpt>
      <trkpt lat="48.60272" lon="-3.16683">
        <ele>183</ele>
        <time>2016-06-06T12:56:04.1Z</time>
      </trkpt>
      <trkpt lat="48.60272" lon="-3.16683">
        <ele>183</ele>
        <time>2016-06-06T12:56:08.1Z</time>
      </trkpt>
      <trkpt lat="48.60272" lon="-3.16683">
        <ele>183</ele>
        <time>2016-06-06T12:56:11.1Z</time>
      </trkpt>
      <trkpt lat="48.60271" lon="-3.16683">
        <ele>183</ele>
        <time>2016-06-06T12:56:14.1Z</time>
      </trkpt>
      <trkpt lat="48.60272" lon="-3.16682">
        <ele>182</ele>
        <time>2016-06-06T12:56:16.1Z</time>
      </trkpt>
      <trkpt lat="48.60271" lon="-3.16682">
        <ele>182</ele>
        <time>2016-06-06T12:56:19.1Z</time>
      </trkpt>
      <trkpt lat="48.60271" lon="-3.16682">
        <ele>182</ele>
        <time>2016-06-06T12:56:21.1Z</time>
      </trkpt>
      <trkpt lat="48.60271" lon="-3.16682">
        <ele>182</ele>
        <time>2016-06-06T12:56:24.1Z</time>
      </trkpt>
      <trkpt lat="48.60271" lon="-3.16682">
        <ele>183</ele>
        <time>2016-06-06T12:56:27.1Z</time>
      </trkpt>
      <trkpt lat="48.60272" lon="-3.16682">
        <ele>183</ele>
        <time>2016-06-06T12:56:29.1Z</time>
      </trkpt>
      <trkpt lat="48.60271" lon="-3.16682">
        <ele>183</ele>
        <time>2016-06-06T12:56:31.1Z</time>
      </trkpt>
      <trkpt lat="48.60271" lon="-3.16683">
        <ele>183</ele>
        <time>2016-06-06T12:56:34.1Z</time>
      </trkpt>
      <trkpt lat="48.6027" lon="-3.16683">
        <ele>183</ele>
        <time>2016-06-06T12:56:36.1Z</time>
      </trkpt>
      <trkpt lat="48.60269" lon="-3.16683">
        <ele>183</ele>
        <time>2016-06-06T12:56:39.1Z</time>
      </trkpt>
      <trkpt lat="48.60268" lon="-3.16683">
        <ele>183</ele>
        <time>2016-06-06T12:56:44.1Z</time>
      </trkpt>
      <trkpt lat="48.60269" lon="-3.16683">
        <ele>183</ele>
        <time>2016-06-06T12:56:47.1Z</time>
      </trkpt>
      <trkpt lat="48.6027" lon="-3.16682">
        <ele>183</ele>
        <time>2016-06-06T12:56:50.1Z</time>
      </trkpt>
      <trkpt lat="48.60271" lon="-3.16682">
        <ele>183</ele>
        <time>2016-06-06T12:56:53.1Z</time>
      </trkpt>
      <trkpt lat="48.60271" lon="-3.16682">
        <ele>183</ele>
        <time>2016-06-06T12:56:56.1Z</time>
      </trkpt>
      <trkpt lat="48.6027" lon="-3.16683">
        <ele>183</ele>
        <time>2016-06-06T12:56:59.1Z</time>
      </trkpt>
      <trkpt lat="48.60271" lon="-3.16683">
        <ele>183</ele>
        <time>2016-06-06T12:57:03.1Z</time>
      </trkpt>
      <trkpt lat="48.60272" lon="-3.16681">
        <ele>183</ele>
        <time>2016-06-06T12:57:06.1Z</time>
      </trkpt>
      <trkpt lat="48.60273" lon="-3.16678">
        <ele>183</ele>
        <time>2016-06-06T12:57:08.1Z</time>
      </trkpt>
      <trkpt lat="48.60274" lon="-3.16675">
        <ele>183</ele>
        <time>2016-06-06T12:57:10.1Z</time>
      </trkpt>
      <trkpt lat="48.60275" lon="-3.1667">
        <ele>183</ele>
        <time>2016-06-06T12:57:13.1Z</time>
      </trkpt>
      <trkpt lat="48.60276" lon="-3.16668">
        <ele>183</ele>
        <time>2016-06-06T12:57:15.1Z</time>
      </trkpt>
      <trkpt lat="48.60277" lon="-3.16664">
        <ele>183</ele>
        <time>2016-06-06T12:57:18.1Z</time>
      </trkpt>
      <trkpt lat="48.60278" lon="-3.16661">
        <ele>183</ele>
        <time>2016-06-06T12:57:20.1Z</time>
      </trkpt>
      <trkpt lat="48.60278" lon="-3.16656">
        <ele>183</ele>
        <time>2016-06-06T12:57:23.1Z</time>
      </trkpt>
      <trkpt lat="48.60277" lon="-3.16652">
        <ele>183</ele>
        <time>2016-06-06T12:57:26.1Z</time>
      </trkpt>
      <trkpt lat="48.60277" lon="-3.16647">
        <ele>182</ele>
        <time>2016-06-06T12:57:29.1Z</time>
      </trkpt>
      <trkpt lat="48.60277" lon="-3.16643">
        <ele>182</ele>
        <time>2016-06-06T12:57:32.1Z</time>
      </trkpt>
      <trkpt lat="48.60278" lon="-3.16638">
        <ele>182</ele>
        <time>2016-06-06T12:57:35.1Z</time>
      </trkpt>
      <trkpt lat="48.60279" lon="-3.16632">
        <ele>182</ele>
        <time>2016-06-06T12:57:38.1Z</time>
      </trkpt>
      <trkpt lat="48.6028" lon="-3.16628">
        <ele>181</ele>
        <time>2016-06-06T12:57:41.1Z</time>
      </trkpt>
      <trkpt lat="48.60279" lon="-3.16623">
        <ele>181</ele>
        <time>2016-06-06T12:57:44.1Z</time>
      </trkpt>
      <trkpt lat="48.60281" lon="-3.16618">
        <ele>181</ele>
        <time>2016-06-06T12:57:47.1Z</time>
      </trkpt>
      <trkpt lat="48.60282" lon="-3.16615">
        <ele>181</ele>
        <time>2016-06-06T12:57:49.1Z</time>
      </trkpt>
      <trkpt lat="48.60284" lon="-3.1661">
        <ele>181</ele>
        <time>2016-06-06T12:57:51.1Z</time>
      </trkpt>
      <trkpt lat="48.60286" lon="-3.16605">
        <ele>181</ele>
        <time>2016-06-06T12:57:54.1Z</time>
      </trkpt>
      <trkpt lat="48.60287" lon="-3.166">
        <ele>181</ele>
        <time>2016-06-06T12:57:57.1Z</time>
      </trkpt>
      <trkpt lat="48.60288" lon="-3.16594">
        <ele>181</ele>
        <time>2016-06-06T12:58:00.1Z</time>
      </trkpt>
      <trkpt lat="48.60288" lon="-3.16589">
        <ele>181</ele>
        <time>2016-06-06T12:58:03.1Z</time>
      </trkpt>
      <trkpt lat="48.60288" lon="-3.16584">
        <ele>181</ele>
        <time>2016-06-06T12:58:06.1Z</time>
      </trkpt>
      <trkpt lat="48.60289" lon="-3.16579">
        <ele>180</ele>
        <time>2016-06-06T12:58:09.1Z</time>
      </trkpt>
      <trkpt lat="48.60289" lon="-3.16573">
        <ele>180</ele>
        <time>2016-06-06T12:58:12.1Z</time>
      </trkpt>
      <trkpt lat="48.6029" lon="-3.16571">
        <ele>180</ele>
        <time>2016-06-06T12:58:14.1Z</time>
      </trkpt>
      <trkpt lat="48.60288" lon="-3.16567">
        <ele>180</ele>
        <time>2016-06-06T12:58:17.1Z</time>
      </trkpt>
      <trkpt lat="48.60287" lon="-3.16564">
        <ele>180</ele>
        <time>2016-06-06T12:58:19.1Z</time>
      </trkpt>
      <trkpt lat="48.60286" lon="-3.16563">
        <ele>180</ele>
        <time>2016-06-06T12:58:21.1Z</time>
      </trkpt>
      <trkpt lat="48.60284" lon="-3.16561">
        <ele>180</ele>
        <time>2016-06-06T12:58:24.1Z</time>
      </trkpt>
      <trkpt lat="48.60281" lon="-3.16561">
        <ele>180</ele>
        <time>2016-06-06T12:58:27.1Z</time>
      </trkpt>
      <trkpt lat="48.60279" lon="-3.16561">
        <ele>180</ele>
        <time>2016-06-06T12:58:29.1Z</time>
      </trkpt>
      <trkpt lat="48.60277" lon="-3.1656">
        <ele>180</ele>
        <time>2016-06-06T12:58:31.1Z</time>
      </trkpt>
      <trkpt lat="48.60274" lon="-3.16559">
        <ele>180</ele>
        <time>2016-06-06T12:58:34.1Z</time>
      </trkpt>
      <trkpt lat="48.60272" lon="-3.16559">
        <ele>180</ele>
        <time>2016-06-06T12:58:36.1Z</time>
      </trkpt>
      <trkpt lat="48.60269" lon="-3.16559">
        <ele>179</ele>
        <time>2016-06-06T12:58:39.1Z</time>
      </trkpt>
      <trkpt lat="48.60267" lon="-3.16559">
        <ele>179</ele>
        <time>2016-06-06T12:58:41.1Z</time>
      </trkpt>
      <trkpt lat="48.60264" lon="-3.16558">
        <ele>179</ele>
        <time>2016-06-06T12:58:44.1Z</time>
      </trkpt>
      <trkpt lat="48.60262" lon="-3.16557">
        <ele>179</ele>
        <time>2016-06-06T12:58:46.1Z</time>
      </trkpt>
      <trkpt lat="48.60259" lon="-3.16557">
        <ele>179</ele>
        <time>2016-06-06T12:58:49.1Z</time>
      </trkpt>
      <trkpt lat="48.60255" lon="-3.16556">
        <ele>179</ele>
        <time>2016-06-06T12:58:52.1Z</time>
      </trkpt>
      <trkpt lat="48.60253" lon="-3.16556">
        <ele>179</ele>
        <time>2016-06-06T12:58:54.1Z</time>
      </trkpt>
      <trkpt lat="48.60249" lon="-3.16556">
        <ele>179</ele>
        <time>2016-06-06T12:58:57.1Z</time>
      </trkpt>
      <trkpt lat="48.60247" lon="-3.16556">
        <ele>179</ele>
        <time>2016-06-06T12:58:59.1Z</time>
      </trkpt>
      <trkpt lat="48.60244" lon="-3.16555">
        <ele>179</ele>
        <time>2016-06-06T12:59:02.1Z</time>
      </trkpt>
      <trkpt lat="48.60243" lon="-3.16555">
        <ele>178</ele>
        <time>2016-06-06T12:59:04.1Z</time>
      </trkpt>
      <trkpt lat="48.60241" lon="-3.16554">
        <ele>179</ele>
        <time>2016-06-06T12:59:07.1Z</time>
      </trkpt>
      <trkpt lat="48.60238" lon="-3.16554">
        <ele>178</ele>
        <time>2016-06-06T12:59:09.1Z</time>
      </trkpt>
      <trkpt lat="48.60236" lon="-3.16554">
        <ele>178</ele>
        <time>2016-06-06T12:59:11.1Z</time>
      </trkpt>
      <trkpt lat="48.60233" lon="-3.16555">
        <ele>178</ele>
        <time>2016-06-06T12:59:14.1Z</time>
      </trkpt>
      <trkpt lat="48.60231" lon="-3.16554">
        <ele>178</ele>
        <time>2016-06-06T12:59:17.1Z</time>
      </trkpt>
      <trkpt lat="48.60228" lon="-3.16553">
        <ele>178</ele>
        <time>2016-06-06T12:59:20.1Z</time>
      </trkpt>
      <trkpt lat="48.60225" lon="-3.16552">
        <ele>178</ele>
        <time>2016-06-06T12:59:22.1Z</time>
      </trkpt>
      <trkpt lat="48.60221" lon="-3.16551">
        <ele>178</ele>
        <time>2016-06-06T12:59:25.1Z</time>
      </trkpt>
      <trkpt lat="48.60218" lon="-3.16551">
        <ele>178</ele>
        <time>2016-06-06T12:59:27.1Z</time>
      </trkpt>
      <trkpt lat="48.60215" lon="-3.1655">
        <ele>178</ele>
        <time>2016-06-06T12:59:30.1Z</time>
      </trkpt>
      <trkpt lat="48.60213" lon="-3.1655">
        <ele>178</ele>
        <time>2016-06-06T12:59:32.1Z</time>
      </trkpt>
      <trkpt lat="48.60212" lon="-3.16549">
        <ele>178</ele>
        <time>2016-06-06T12:59:35.1Z</time>
      </trkpt>
      <trkpt lat="48.6021" lon="-3.16548">
        <ele>178</ele>
        <time>2016-06-06T12:59:37.1Z</time>
      </trkpt>
      <trkpt lat="48.60206" lon="-3.16546">
        <ele>178</ele>
        <time>2016-06-06T12:59:40.1Z</time>
      </trkpt>
      <trkpt lat="48.60203" lon="-3.16544">
        <ele>178</ele>
        <time>2016-06-06T12:59:43.1Z</time>
      </trkpt>
      <trkpt lat="48.60201" lon="-3.16543">
        <ele>178</ele>
        <time>2016-06-06T12:59:45.1Z</time>
      </trkpt>
      <trkpt lat="48.60197" lon="-3.16541">
        <ele>177</ele>
        <time>2016-06-06T12:59:48.1Z</time>
      </trkpt>
      <trkpt lat="48.60194" lon="-3.1654">
        <ele>177</ele>
        <time>2016-06-06T12:59:51.1Z</time>
      </trkpt>
      <trkpt lat="48.60192" lon="-3.16539">
        <ele>178</ele>
        <time>2016-06-06T12:59:54.1Z</time>
      </trkpt>
      <trkpt lat="48.6019" lon="-3.16539">
        <ele>178</ele>
        <time>2016-06-06T12:59:56.1Z</time>
      </trkpt>
      <trkpt lat="48.60187" lon="-3.16537">
        <ele>178</ele>
        <time>2016-06-06T12:59:59.1Z</time>
      </trkpt>
      <trkpt lat="48.60185" lon="-3.16536">
        <ele>178</ele>
        <time>2016-06-06T13:00:01.1Z</time>
      </trkpt>
      <trkpt lat="48.60182" lon="-3.16535">
        <ele>178</ele>
        <time>2016-06-06T13:00:04.1Z</time>
      </trkpt>
      <trkpt lat="48.6018" lon="-3.16533">
        <ele>178</ele>
        <time>2016-06-06T13:00:07.1Z</time>
      </trkpt>
      <trkpt lat="48.60178" lon="-3.16533">
        <ele>178</ele>
        <time>2016-06-06T13:00:09.1Z</time>
      </trkpt>
      <trkpt lat="48.60175" lon="-3.16532">
        <ele>178</ele>
        <time>2016-06-06T13:00:12.1Z</time>
      </trkpt>
      <trkpt lat="48.60172" lon="-3.16532">
        <ele>178</ele>
        <time>2016-06-06T13:00:14.1Z</time>
      </trkpt>
      <trkpt lat="48.60168" lon="-3.16531">
        <ele>178</ele>
        <time>2016-06-06T13:00:17.1Z</time>
      </trkpt>
      <trkpt lat="48.60166" lon="-3.16531">
        <ele>178</ele>
        <time>2016-06-06T13:00:19.1Z</time>
      </trkpt>
      <trkpt lat="48.60162" lon="-3.16532">
        <ele>178</ele>
        <time>2016-06-06T13:00:22.1Z</time>
      </trkpt>
      <trkpt lat="48.6016" lon="-3.16532">
        <ele>178</ele>
        <time>2016-06-06T13:00:25.1Z</time>
      </trkpt>
      <trkpt lat="48.60157" lon="-3.16533">
        <ele>178</ele>
        <time>2016-06-06T13:00:27.1Z</time>
      </trkpt>
      <trkpt lat="48.60153" lon="-3.16534">
        <ele>178</ele>
        <time>2016-06-06T13:00:30.1Z</time>
      </trkpt>
      <trkpt lat="48.60151" lon="-3.16534">
        <ele>178</ele>
        <time>2016-06-06T13:00:32.1Z</time>
      </trkpt>
      <trkpt lat="48.60147" lon="-3.16534">
        <ele>178</ele>
        <time>2016-06-06T13:00:35.1Z</time>
      </trkpt>
      <trkpt lat="48.60145" lon="-3.16533">
        <ele>178</ele>
        <time>2016-06-06T13:00:37.1Z</time>
      </trkpt>
      <trkpt lat="48.60142" lon="-3.16533">
        <ele>179</ele>
        <time>2016-06-06T13:00:40.1Z</time>
      </trkpt>
      <trkpt lat="48.60139" lon="-3.16532">
        <ele>178</ele>
        <time>2016-06-06T13:00:43.1Z</time>
      </trkpt>
      <trkpt lat="48.60137" lon="-3.1653">
        <ele>179</ele>
        <time>2016-06-06T13:00:45.1Z</time>
      </trkpt>
      <trkpt lat="48.60137" lon="-3.16527">
        <ele>178</ele>
        <time>2016-06-06T13:00:48.1Z</time>
      </trkpt>
      <trkpt lat="48.60136" lon="-3.16525">
        <ele>178</ele>
        <time>2016-06-06T13:00:50.1Z</time>
      </trkpt>
      <trkpt lat="48.60136" lon="-3.16525">
        <ele>178</ele>
        <time>2016-06-06T13:00:55.1Z</time>
      </trkpt>
      <trkpt lat="48.60135" lon="-3.16525">
        <ele>178</ele>
        <time>2016-06-06T13:00:57.1Z</time>
      </trkpt>
      <trkpt lat="48.60133" lon="-3.16522">
        <ele>178</ele>
        <time>2016-06-06T13:01:00.1Z</time>
      </trkpt>
      <trkpt lat="48.60134" lon="-3.1652">
        <ele>178</ele>
        <time>2016-06-06T13:01:02.1Z</time>
      </trkpt>
      <trkpt lat="48.60134" lon="-3.16518">
        <ele>178</ele>
        <time>2016-06-06T13:01:04.1Z</time>
      </trkpt>
      <trkpt lat="48.60134" lon="-3.16513">
        <ele>177</ele>
        <time>2016-06-06T13:01:07.1Z</time>
      </trkpt>
      <trkpt lat="48.60135" lon="-3.1651">
        <ele>177</ele>
        <time>2016-06-06T13:01:10.1Z</time>
      </trkpt>
      <trkpt lat="48.60136" lon="-3.16506">
        <ele>177</ele>
        <time>2016-06-06T13:01:13.1Z</time>
      </trkpt>
      <trkpt lat="48.60138" lon="-3.16503">
        <ele>177</ele>
        <time>2016-06-06T13:01:16.1Z</time>
      </trkpt>
      <trkpt lat="48.60138" lon="-3.16503">
        <ele>177</ele>
        <time>2016-06-06T13:01:18.1Z</time>
      </trkpt>
      <trkpt lat="48.60138" lon="-3.16502">
        <ele>177</ele>
        <time>2016-06-06T13:01:20.1Z</time>
      </trkpt>
      <trkpt lat="48.60139" lon="-3.16501">
        <ele>177</ele>
        <time>2016-06-06T13:01:23.1Z</time>
      </trkpt>
      <trkpt lat="48.60139" lon="-3.16501">
        <ele>177</ele>
        <time>2016-06-06T13:01:25.1Z</time>
      </trkpt>
      <trkpt lat="48.60139" lon="-3.16501">
        <ele>177</ele>
        <time>2016-06-06T13:01:28.1Z</time>
      </trkpt>
      <trkpt lat="48.60139" lon="-3.16501">
        <ele>177</ele>
        <time>2016-06-06T13:01:30.1Z</time>
      </trkpt>
      <trkpt lat="48.60141" lon="-3.16501">
        <ele>178</ele>
        <time>2016-06-06T13:01:32.1Z</time>
      </trkpt>
      <trkpt lat="48.60142" lon="-3.16501">
        <ele>178</ele>
        <time>2016-06-06T13:01:34.1Z</time>
      </trkpt>
      <trkpt lat="48.60143" lon="-3.16498">
        <ele>177</ele>
        <time>2016-06-06T13:01:37.1Z</time>
      </trkpt>
      <trkpt lat="48.60144" lon="-3.16495">
        <ele>177</ele>
        <time>2016-06-06T13:01:39.1Z</time>
      </trkpt>
      <trkpt lat="48.60143" lon="-3.16492">
        <ele>177</ele>
        <time>2016-06-06T13:01:41.1Z</time>
      </trkpt>
      <trkpt lat="48.60143" lon="-3.16488">
        <ele>176</ele>
        <time>2016-06-06T13:01:43.1Z</time>
      </trkpt>
      <trkpt lat="48.60142" lon="-3.16483">
        <ele>176</ele>
        <time>2016-06-06T13:01:46.1Z</time>
      </trkpt>
      <trkpt lat="48.60142" lon="-3.16478">
        <ele>176</ele>
        <time>2016-06-06T13:01:49.1Z</time>
      </trkpt>
      <trkpt lat="48.60142" lon="-3.16474">
        <ele>176</ele>
        <time>2016-06-06T13:01:52.1Z</time>
      </trkpt>
      <trkpt lat="48.60142" lon="-3.16471">
        <ele>176</ele>
        <time>2016-06-06T13:01:54.1Z</time>
      </trkpt>
      <trkpt lat="48.60141" lon="-3.16466">
        <ele>175</ele>
        <time>2016-06-06T13:01:57.1Z</time>
      </trkpt>
      <trkpt lat="48.60142" lon="-3.16463">
        <ele>175</ele>
        <time>2016-06-06T13:01:59.1Z</time>
      </trkpt>
      <trkpt lat="48.60141" lon="-3.16457">
        <ele>175</ele>
        <time>2016-06-06T13:02:02.1Z</time>
      </trkpt>
      <trkpt lat="48.60141" lon="-3.16452">
        <ele>174</ele>
        <time>2016-06-06T13:02:05.1Z</time>
      </trkpt>
      <trkpt lat="48.60141" lon="-3.16449">
        <ele>174</ele>
        <time>2016-06-06T13:02:07.1Z</time>
      </trkpt>
      <trkpt lat="48.60141" lon="-3.16444">
        <ele>174</ele>
        <time>2016-06-06T13:02:10.1Z</time>
      </trkpt>
      <trkpt lat="48.60143" lon="-3.16442">
        <ele>174</ele>
        <time>2016-06-06T13:02:12.1Z</time>
      </trkpt>
      <trkpt lat="48.60143" lon="-3.1644">
        <ele>174</ele>
        <time>2016-06-06T13:02:14.1Z</time>
      </trkpt>
      <trkpt lat="48.60144" lon="-3.16435">
        <ele>173</ele>
        <time>2016-06-06T13:02:17.1Z</time>
      </trkpt>
      <trkpt lat="48.60148" lon="-3.16428">
        <ele>173</ele>
        <time>2016-06-06T13:02:20.1Z</time>
      </trkpt>
      <trkpt lat="48.60149" lon="-3.16424">
        <ele>173</ele>
        <time>2016-06-06T13:02:22.1Z</time>
      </trkpt>
      <trkpt lat="48.60149" lon="-3.16417">
        <ele>173</ele>
        <time>2016-06-06T13:02:25.1Z</time>
      </trkpt>
      <trkpt lat="48.60149" lon="-3.16413">
        <ele>173</ele>
        <time>2016-06-06T13:02:27.1Z</time>
      </trkpt>
      <trkpt lat="48.6015" lon="-3.16409">
        <ele>173</ele>
        <time>2016-06-06T13:02:29.1Z</time>
      </trkpt>
      <trkpt lat="48.60152" lon="-3.16403">
        <ele>173</ele>
        <time>2016-06-06T13:02:32.1Z</time>
      </trkpt>
      <trkpt lat="48.60152" lon="-3.16397">
        <ele>172</ele>
        <time>2016-06-06T13:02:35.1Z</time>
      </trkpt>
      <trkpt lat="48.60153" lon="-3.16391">
        <ele>172</ele>
        <time>2016-06-06T13:02:38.1Z</time>
      </trkpt>
      <trkpt lat="48.60152" lon="-3.16387">
        <ele>172</ele>
        <time>2016-06-06T13:02:40.1Z</time>
      </trkpt>
      <trkpt lat="48.60153" lon="-3.16381">
        <ele>172</ele>
        <time>2016-06-06T13:02:43.1Z</time>
      </trkpt>
      <trkpt lat="48.60154" lon="-3.16376">
        <ele>172</ele>
        <time>2016-06-06T13:02:46.1Z</time>
      </trkpt>
      <trkpt lat="48.60154" lon="-3.1637">
        <ele>172</ele>
        <time>2016-06-06T13:02:49.1Z</time>
      </trkpt>
      <trkpt lat="48.60155" lon="-3.16365">
        <ele>172</ele>
        <time>2016-06-06T13:02:52.1Z</time>
      </trkpt>
      <trkpt lat="48.60156" lon="-3.1636">
        <ele>172</ele>
        <time>2016-06-06T13:02:55.1Z</time>
      </trkpt>
      <trkpt lat="48.60157" lon="-3.16354">
        <ele>172</ele>
        <time>2016-06-06T13:02:58.1Z</time>
      </trkpt>
      <trkpt lat="48.60157" lon="-3.1635">
        <ele>171</ele>
        <time>2016-06-06T13:03:01.1Z</time>
      </trkpt>
      <trkpt lat="48.60158" lon="-3.16346">
        <ele>171</ele>
        <time>2016-06-06T13:03:04.1Z</time>
      </trkpt>
      <trkpt lat="48.60159" lon="-3.16341">
        <ele>171</ele>
        <time>2016-06-06T13:03:07.1Z</time>
      </trkpt>
      <trkpt lat="48.6016" lon="-3.16336">
        <ele>171</ele>
        <time>2016-06-06T13:03:10.1Z</time>
      </trkpt>
      <trkpt lat="48.60159" lon="-3.16332">
        <ele>171</ele>
        <time>2016-06-06T13:03:12.1Z</time>
      </trkpt>
      <trkpt lat="48.60159" lon="-3.16328">
        <ele>170</ele>
        <time>2016-06-06T13:03:15.1Z</time>
      </trkpt>
      <trkpt lat="48.60159" lon="-3.16324">
        <ele>170</ele>
        <time>2016-06-06T13:03:17.1Z</time>
      </trkpt>
      <trkpt lat="48.60158" lon="-3.16318">
        <ele>170</ele>
        <time>2016-06-06T13:03:20.1Z</time>
      </trkpt>
      <trkpt lat="48.60157" lon="-3.16314">
        <ele>170</ele>
        <time>2016-06-06T13:03:23.1Z</time>
      </trkpt>
      <trkpt lat="48.60157" lon="-3.16309">
        <ele>170</ele>
        <time>2016-06-06T13:03:26.1Z</time>
      </trkpt>
      <trkpt lat="48.60159" lon="-3.16304">
        <ele>170</ele>
        <time>2016-06-06T13:03:29.1Z</time>
      </trkpt>
      <trkpt lat="48.6016" lon="-3.16302">
        <ele>169</ele>
        <time>2016-06-06T13:03:31.1Z</time>
      </trkpt>
      <trkpt lat="48.60162" lon="-3.16298">
        <ele>169</ele>
        <time>2016-06-06T13:03:33.1Z</time>
      </trkpt>
      <trkpt lat="48.60163" lon="-3.16294">
        <ele>169</ele>
        <time>2016-06-06T13:03:36.1Z</time>
      </trkpt>
      <trkpt lat="48.60165" lon="-3.1629">
        <ele>169</ele>
        <time>2016-06-06T13:03:39.1Z</time>
      </trkpt>
      <trkpt lat="48.60168" lon="-3.16286">
        <ele>169</ele>
        <time>2016-06-06T13:03:42.1Z</time>
      </trkpt>
      <trkpt lat="48.6017" lon="-3.16284">
        <ele>169</ele>
        <time>2016-06-06T13:03:44.1Z</time>
      </trkpt>
      <trkpt lat="48.60171" lon="-3.16282">
        <ele>169</ele>
        <time>2016-06-06T13:03:46.1Z</time>
      </trkpt>
      <trkpt lat="48.60172" lon="-3.16278">
        <ele>169</ele>
        <time>2016-06-06T13:03:49.1Z</time>
      </trkpt>
      <trkpt lat="48.60171" lon="-3.16276">
        <ele>169</ele>
        <time>2016-06-06T13:03:51.1Z</time>
      </trkpt>
      <trkpt lat="48.60172" lon="-3.16271">
        <ele>169</ele>
        <time>2016-06-06T13:03:54.1Z</time>
      </trkpt>
      <trkpt lat="48.60172" lon="-3.16268">
        <ele>169</ele>
        <time>2016-06-06T13:03:56.1Z</time>
      </trkpt>
      <trkpt lat="48.60172" lon="-3.16266">
        <ele>169</ele>
        <time>2016-06-06T13:03:58.1Z</time>
      </trkpt>
      <trkpt lat="48.60173" lon="-3.16264">
        <ele>169</ele>
        <time>2016-06-06T13:04:01.1Z</time>
      </trkpt>
      <trkpt lat="48.60175" lon="-3.16259">
        <ele>169</ele>
        <time>2016-06-06T13:04:04.1Z</time>
      </trkpt>
      <trkpt lat="48.60175" lon="-3.16256">
        <ele>169</ele>
        <time>2016-06-06T13:04:06.1Z</time>
      </trkpt>
      <trkpt lat="48.60177" lon="-3.16252">
        <ele>169</ele>
        <time>2016-06-06T13:04:09.1Z</time>
      </trkpt>
      <trkpt lat="48.60177" lon="-3.16248">
        <ele>169</ele>
        <time>2016-06-06T13:04:12.1Z</time>
      </trkpt>
      <trkpt lat="48.60177" lon="-3.16245">
        <ele>169</ele>
        <time>2016-06-06T13:04:15.1Z</time>
      </trkpt>
      <trkpt lat="48.60176" lon="-3.16241">
        <ele>169</ele>
        <time>2016-06-06T13:04:17.1Z</time>
      </trkpt>
      <trkpt lat="48.60176" lon="-3.16236">
        <ele>169</ele>
        <time>2016-06-06T13:04:20.1Z</time>
      </trkpt>
      <trkpt lat="48.60176" lon="-3.16232">
        <ele>169</ele>
        <time>2016-06-06T13:04:22.1Z</time>
      </trkpt>
      <trkpt lat="48.60178" lon="-3.16227">
        <ele>168</ele>
        <time>2016-06-06T13:04:25.1Z</time>
      </trkpt>
      <trkpt lat="48.60179" lon="-3.16221">
        <ele>168</ele>
        <time>2016-06-06T13:04:28.1Z</time>
      </trkpt>
      <trkpt lat="48.6018" lon="-3.16218">
        <ele>168</ele>
        <time>2016-06-06T13:04:30.1Z</time>
      </trkpt>
      <trkpt lat="48.60181" lon="-3.16214">
        <ele>168</ele>
        <time>2016-06-06T13:04:33.1Z</time>
      </trkpt>
      <trkpt lat="48.60183" lon="-3.1621">
        <ele>168</ele>
        <time>2016-06-06T13:04:36.1Z</time>
      </trkpt>
      <trkpt lat="48.60185" lon="-3.16209">
        <ele>168</ele>
        <time>2016-06-06T13:04:38.1Z</time>
      </trkpt>
      <trkpt lat="48.60186" lon="-3.16203">
        <ele>168</ele>
        <time>2016-06-06T13:04:41.1Z</time>
      </trkpt>
      <trkpt lat="48.60187" lon="-3.16198">
        <ele>167</ele>
        <time>2016-06-06T13:04:44.1Z</time>
      </trkpt>
      <trkpt lat="48.60189" lon="-3.16192">
        <ele>167</ele>
        <time>2016-06-06T13:04:47.1Z</time>
      </trkpt>
      <trkpt lat="48.60189" lon="-3.16187">
        <ele>168</ele>
        <time>2016-06-06T13:04:50.1Z</time>
      </trkpt>
      <trkpt lat="48.6019" lon="-3.16182">
        <ele>168</ele>
        <time>2016-06-06T13:04:53.1Z</time>
      </trkpt>
      <trkpt lat="48.60191" lon="-3.16177">
        <ele>167</ele>
        <time>2016-06-06T13:04:56.1Z</time>
      </trkpt>
      <trkpt lat="48.60192" lon="-3.16173">
        <ele>167</ele>
        <time>2016-06-06T13:04:59.1Z</time>
      </trkpt>
      <trkpt lat="48.60193" lon="-3.1617">
        <ele>167</ele>
        <time>2016-06-06T13:05:01.1Z</time>
      </trkpt>
      <trkpt lat="48.60193" lon="-3.16164">
        <ele>167</ele>
        <time>2016-06-06T13:05:04.1Z</time>
      </trkpt>
      <trkpt lat="48.60192" lon="-3.1616">
        <ele>167</ele>
        <time>2016-06-06T13:05:07.1Z</time>
      </trkpt>
      <trkpt lat="48.60191" lon="-3.16154">
        <ele>167</ele>
        <time>2016-06-06T13:05:10.1Z</time>
      </trkpt>
      <trkpt lat="48.60191" lon="-3.16148">
        <ele>167</ele>
        <time>2016-06-06T13:05:13.1Z</time>
      </trkpt>
      <trkpt lat="48.60191" lon="-3.16144">
        <ele>167</ele>
        <time>2016-06-06T13:05:15.1Z</time>
      </trkpt>
      <trkpt lat="48.60192" lon="-3.16138">
        <ele>167</ele>
        <time>2016-06-06T13:05:18.1Z</time>
      </trkpt>
      <trkpt lat="48.60191" lon="-3.16131">
        <ele>166</ele>
        <time>2016-06-06T13:05:21.1Z</time>
      </trkpt>
      <trkpt lat="48.60191" lon="-3.16125">
        <ele>166</ele>
        <time>2016-06-06T13:05:24.1Z</time>
      </trkpt>
      <trkpt lat="48.60191" lon="-3.16121">
        <ele>166</ele>
        <time>2016-06-06T13:05:26.1Z</time>
      </trkpt>
      <trkpt lat="48.60191" lon="-3.16117">
        <ele>166</ele>
        <time>2016-06-06T13:05:29.1Z</time>
      </trkpt>
      <trkpt lat="48.6019" lon="-3.16113">
        <ele>166</ele>
        <time>2016-06-06T13:05:32.1Z</time>
      </trkpt>
      <trkpt lat="48.60188" lon="-3.16108">
        <ele>166</ele>
        <time>2016-06-06T13:05:35.1Z</time>
      </trkpt>
      <trkpt lat="48.60186" lon="-3.16105">
        <ele>166</ele>
        <time>2016-06-06T13:05:37.1Z</time>
      </trkpt>
      <trkpt lat="48.60185" lon="-3.16101">
        <ele>166</ele>
        <time>2016-06-06T13:05:40.1Z</time>
      </trkpt>
      <trkpt lat="48.60183" lon="-3.16096">
        <ele>165</ele>
        <time>2016-06-06T13:05:43.1Z</time>
      </trkpt>
      <trkpt lat="48.60182" lon="-3.16093">
        <ele>165</ele>
        <time>2016-06-06T13:05:45.1Z</time>
      </trkpt>
      <trkpt lat="48.6018" lon="-3.16089">
        <ele>165</ele>
        <time>2016-06-06T13:05:48.1Z</time>
      </trkpt>
      <trkpt lat="48.60178" lon="-3.16086">
        <ele>165</ele>
        <time>2016-06-06T13:05:51.1Z</time>
      </trkpt>
      <trkpt lat="48.60178" lon="-3.16084">
        <ele>165</ele>
        <time>2016-06-06T13:05:53.1Z</time>
      </trkpt>
      <trkpt lat="48.60177" lon="-3.16083">
        <ele>165</ele>
        <time>2016-06-06T13:05:55.1Z</time>
      </trkpt>
      <trkpt lat="48.60176" lon="-3.1608">
        <ele>165</ele>
        <time>2016-06-06T13:05:58.1Z</time>
      </trkpt>
      <trkpt lat="48.60174" lon="-3.16078">
        <ele>165</ele>
        <time>2016-06-06T13:06:00.1Z</time>
      </trkpt>
      <trkpt lat="48.60173" lon="-3.16076">
        <ele>165</ele>
        <time>2016-06-06T13:06:02.1Z</time>
      </trkpt>
      <trkpt lat="48.60171" lon="-3.16072">
        <ele>165</ele>
        <time>2016-06-06T13:06:05.1Z</time>
      </trkpt>
      <trkpt lat="48.60169" lon="-3.16069">
        <ele>165</ele>
        <time>2016-06-06T13:06:07.1Z</time>
      </trkpt>
      <trkpt lat="48.60167" lon="-3.16066">
        <ele>164</ele>
        <time>2016-06-06T13:06:10.1Z</time>
      </trkpt>
      <trkpt lat="48.60164" lon="-3.16062">
        <ele>164</ele>
        <time>2016-06-06T13:06:13.1Z</time>
      </trkpt>
      <trkpt lat="48.60163" lon="-3.1606">
        <ele>164</ele>
        <time>2016-06-06T13:06:15.1Z</time>
      </trkpt>
      <trkpt lat="48.60161" lon="-3.16058">
        <ele>164</ele>
        <time>2016-06-06T13:06:18.1Z</time>
      </trkpt>
      <trkpt lat="48.6016" lon="-3.16056">
        <ele>164</ele>
        <time>2016-06-06T13:06:20.1Z</time>
      </trkpt>
      <trkpt lat="48.60159" lon="-3.16052">
        <ele>164</ele>
        <time>2016-06-06T13:06:22.1Z</time>
      </trkpt>
      <trkpt lat="48.60156" lon="-3.16048">
        <ele>164</ele>
        <time>2016-06-06T13:06:25.1Z</time>
      </trkpt>
      <trkpt lat="48.60155" lon="-3.16045">
        <ele>164</ele>
        <time>2016-06-06T13:06:27.1Z</time>
      </trkpt>
      <trkpt lat="48.60153" lon="-3.16038">
        <ele>164</ele>
        <time>2016-06-06T13:06:30.1Z</time>
      </trkpt>
      <trkpt lat="48.60152" lon="-3.16035">
        <ele>163</ele>
        <time>2016-06-06T13:06:33.1Z</time>
      </trkpt>
      <trkpt lat="48.6015" lon="-3.16031">
        <ele>164</ele>
        <time>2016-06-06T13:06:35.1Z</time>
      </trkpt>
      <trkpt lat="48.60148" lon="-3.16028">
        <ele>163</ele>
        <time>2016-06-06T13:06:38.1Z</time>
      </trkpt>
      <trkpt lat="48.60146" lon="-3.16025">
        <ele>163</ele>
        <time>2016-06-06T13:06:41.1Z</time>
      </trkpt>
      <trkpt lat="48.60144" lon="-3.16022">
        <ele>164</ele>
        <time>2016-06-06T13:06:43.1Z</time>
      </trkpt>
      <trkpt lat="48.60143" lon="-3.16016">
        <ele>163</ele>
        <time>2016-06-06T13:06:46.1Z</time>
      </trkpt>
      <trkpt lat="48.60141" lon="-3.16011">
        <ele>163</ele>
        <time>2016-06-06T13:06:49.1Z</time>
      </trkpt>
      <trkpt lat="48.60139" lon="-3.16004">
        <ele>163</ele>
        <time>2016-06-06T13:06:52.1Z</time>
      </trkpt>
      <trkpt lat="48.60136" lon="-3.16">
        <ele>163</ele>
        <time>2016-06-06T13:06:55.1Z</time>
      </trkpt>
      <trkpt lat="48.60134" lon="-3.15995">
        <ele>163</ele>
        <time>2016-06-06T13:06:58.1Z</time>
      </trkpt>
      <trkpt lat="48.60133" lon="-3.15991">
        <ele>163</ele>
        <time>2016-06-06T13:07:00.1Z</time>
      </trkpt>
      <trkpt lat="48.60132" lon="-3.15987">
        <ele>163</ele>
        <time>2016-06-06T13:07:03.1Z</time>
      </trkpt>
      <trkpt lat="48.60131" lon="-3.15985">
        <ele>163</ele>
        <time>2016-06-06T13:07:05.1Z</time>
      </trkpt>
      <trkpt lat="48.6013" lon="-3.15982">
        <ele>163</ele>
        <time>2016-06-06T13:07:08.1Z</time>
      </trkpt>
      <trkpt lat="48.60128" lon="-3.15979">
        <ele>163</ele>
        <time>2016-06-06T13:07:11.1Z</time>
      </trkpt>
      <trkpt lat="48.60127" lon="-3.15976">
        <ele>163</ele>
        <time>2016-06-06T13:07:13.1Z</time>
      </trkpt>
      <trkpt lat="48.60126" lon="-3.15973">
        <ele>163</ele>
        <time>2016-06-06T13:07:16.1Z</time>
      </trkpt>
      <trkpt lat="48.60126" lon="-3.15972">
        <ele>163</ele>
        <time>2016-06-06T13:07:19.1Z</time>
      </trkpt>
      <trkpt lat="48.60126" lon="-3.1597">
        <ele>163</ele>
        <time>2016-06-06T13:07:21.1Z</time>
      </trkpt>
      <trkpt lat="48.60127" lon="-3.15969">
        <ele>163</ele>
        <time>2016-06-06T13:07:24.1Z</time>
      </trkpt>
      <trkpt lat="48.60127" lon="-3.15969">
        <ele>163</ele>
        <time>2016-06-06T13:07:26.1Z</time>
      </trkpt>
      <trkpt lat="48.60126" lon="-3.15967">
        <ele>164</ele>
        <time>2016-06-06T13:07:29.1Z</time>
      </trkpt>
      <trkpt lat="48.60125" lon="-3.15964">
        <ele>164</ele>
        <time>2016-06-06T13:07:32.1Z</time>
      </trkpt>
      <trkpt lat="48.60123" lon="-3.15962">
        <ele>164</ele>
        <time>2016-06-06T13:07:34.1Z</time>
      </trkpt>
      <trkpt lat="48.60121" lon="-3.15958">
        <ele>164</ele>
        <time>2016-06-06T13:07:37.1Z</time>
      </trkpt>
      <trkpt lat="48.60117" lon="-3.15953">
        <ele>164</ele>
        <time>2016-06-06T13:07:40.1Z</time>
      </trkpt>
      <trkpt lat="48.60116" lon="-3.15949">
        <ele>164</ele>
        <time>2016-06-06T13:07:43.1Z</time>
      </trkpt>
      <trkpt lat="48.60114" lon="-3.15943">
        <ele>164</ele>
        <time>2016-06-06T13:07:46.1Z</time>
      </trkpt>
      <trkpt lat="48.60114" lon="-3.15939">
        <ele>165</ele>
        <time>2016-06-06T13:07:48.1Z</time>
      </trkpt>
      <trkpt lat="48.60112" lon="-3.15934">
        <ele>165</ele>
        <time>2016-06-06T13:07:51.1Z</time>
      </trkpt>
      <trkpt lat="48.60112" lon="-3.15931">
        <ele>166</ele>
        <time>2016-06-06T13:07:53.1Z</time>
      </trkpt>
      <trkpt lat="48.6011" lon="-3.15926">
        <ele>166</ele>
        <time>2016-06-06T13:07:56.1Z</time>
      </trkpt>
      <trkpt lat="48.60109" lon="-3.15922">
        <ele>166</ele>
        <time>2016-06-06T13:07:59.1Z</time>
      </trkpt>
      <trkpt lat="48.60107" lon="-3.15916">
        <ele>166</ele>
        <time>2016-06-06T13:08:02.1Z</time>
      </trkpt>
      <trkpt lat="48.60107" lon="-3.15913">
        <ele>166</ele>
        <time>2016-06-06T13:08:04.1Z</time>
      </trkpt>
      <trkpt lat="48.60106" lon="-3.1591">
        <ele>167</ele>
        <time>2016-06-06T13:08:06.1Z</time>
      </trkpt>
      <trkpt lat="48.60104" lon="-3.15903">
        <ele>167</ele>
        <time>2016-06-06T13:08:09.1Z</time>
      </trkpt>
      <trkpt lat="48.60104" lon="-3.15899">
        <ele>167</ele>
        <time>2016-06-06T13:08:11.1Z</time>
      </trkpt>
      <trkpt lat="48.60104" lon="-3.15894">
        <ele>167</ele>
        <time>2016-06-06T13:08:14.1Z</time>
      </trkpt>
      <trkpt lat="48.60102" lon="-3.15888">
        <ele>167</ele>
        <time>2016-06-06T13:08:17.1Z</time>
      </trkpt>
      <trkpt lat="48.60101" lon="-3.15882">
        <ele>167</ele>
        <time>2016-06-06T13:08:20.1Z</time>
      </trkpt>
      <trkpt lat="48.60101" lon="-3.15876">
        <ele>167</ele>
        <time>2016-06-06T13:08:23.1Z</time>
      </trkpt>
      <trkpt lat="48.60101" lon="-3.15872">
        <ele>167</ele>
        <time>2016-06-06T13:08:25.1Z</time>
      </trkpt>
      <trkpt lat="48.601" lon="-3.15865">
        <ele>168</ele>
        <time>2016-06-06T13:08:28.1Z</time>
      </trkpt>
      <trkpt lat="48.60099" lon="-3.15861">
        <ele>168</ele>
        <time>2016-06-06T13:08:30.1Z</time>
      </trkpt>
      <trkpt lat="48.60098" lon="-3.15856">
        <ele>168</ele>
        <time>2016-06-06T13:08:32.1Z</time>
      </trkpt>
      <trkpt lat="48.60097" lon="-3.1585">
        <ele>168</ele>
        <time>2016-06-06T13:08:35.1Z</time>
      </trkpt>
      <trkpt lat="48.60096" lon="-3.15845">
        <ele>168</ele>
        <time>2016-06-06T13:08:38.1Z</time>
      </trkpt>
      <trkpt lat="48.60096" lon="-3.15842">
        <ele>168</ele>
        <time>2016-06-06T13:08:40.1Z</time>
      </trkpt>
      <trkpt lat="48.60095" lon="-3.15836">
        <ele>168</ele>
        <time>2016-06-06T13:08:43.1Z</time>
      </trkpt>
      <trkpt lat="48.60094" lon="-3.15829">
        <ele>168</ele>
        <time>2016-06-06T13:08:46.1Z</time>
      </trkpt>
      <trkpt lat="48.60093" lon="-3.15826">
        <ele>168</ele>
        <time>2016-06-06T13:08:48.1Z</time>
      </trkpt>
      <trkpt lat="48.60091" lon="-3.15819">
        <ele>167</ele>
        <time>2016-06-06T13:08:51.1Z</time>
      </trkpt>
      <trkpt lat="48.60091" lon="-3.15814">
        <ele>168</ele>
        <time>2016-06-06T13:08:53.1Z</time>
      </trkpt>
      <trkpt lat="48.60091" lon="-3.15811">
        <ele>168</ele>
        <time>2016-06-06T13:08:55.1Z</time>
      </trkpt>
      <trkpt lat="48.6009" lon="-3.15804">
        <ele>168</ele>
        <time>2016-06-06T13:08:58.1Z</time>
      </trkpt>
      <trkpt lat="48.60089" lon="-3.15801">
        <ele>168</ele>
        <time>2016-06-06T13:09:00.1Z</time>
      </trkpt>
      <trkpt lat="48.60086" lon="-3.15795">
        <ele>167</ele>
        <time>2016-06-06T13:09:03.1Z</time>
      </trkpt>
      <trkpt lat="48.60086" lon="-3.15792">
        <ele>167</ele>
        <time>2016-06-06T13:09:05.1Z</time>
      </trkpt>
      <trkpt lat="48.60086" lon="-3.15789">
        <ele>167</ele>
        <time>2016-06-06T13:09:08.1Z</time>
      </trkpt>
      <trkpt lat="48.60086" lon="-3.15785">
        <ele>167</ele>
        <time>2016-06-06T13:09:11.1Z</time>
      </trkpt>
      <trkpt lat="48.60086" lon="-3.1578">
        <ele>167</ele>
        <time>2016-06-06T13:09:14.1Z</time>
      </trkpt>
      <trkpt lat="48.60087" lon="-3.15777">
        <ele>167</ele>
        <time>2016-06-06T13:09:16.1Z</time>
      </trkpt>
      <trkpt lat="48.60088" lon="-3.15775">
        <ele>167</ele>
        <time>2016-06-06T13:09:18.1Z</time>
      </trkpt>
      <trkpt lat="48.60088" lon="-3.15771">
        <ele>167</ele>
        <time>2016-06-06T13:09:21.1Z</time>
      </trkpt>
      <trkpt lat="48.60089" lon="-3.15767">
        <ele>167</ele>
        <time>2016-06-06T13:09:23.1Z</time>
      </trkpt>
      <trkpt lat="48.60091" lon="-3.15762">
        <ele>167</ele>
        <time>2016-06-06T13:09:26.1Z</time>
      </trkpt>
      <trkpt lat="48.6009" lon="-3.15757">
        <ele>167</ele>
        <time>2016-06-06T13:09:29.1Z</time>
      </trkpt>
      <trkpt lat="48.60088" lon="-3.15754">
        <ele>167</ele>
        <time>2016-06-06T13:09:31.1Z</time>
      </trkpt>
      <trkpt lat="48.60088" lon="-3.15751">
        <ele>167</ele>
        <time>2016-06-06T13:09:33.1Z</time>
      </trkpt>
      <trkpt lat="48.60088" lon="-3.15748">
        <ele>167</ele>
        <time>2016-06-06T13:09:35.1Z</time>
      </trkpt>
      <trkpt lat="48.60087" lon="-3.15743">
        <ele>167</ele>
        <time>2016-06-06T13:09:38.1Z</time>
      </trkpt>
      <trkpt lat="48.60086" lon="-3.15736">
        <ele>167</ele>
        <time>2016-06-06T13:09:41.1Z</time>
      </trkpt>
      <trkpt lat="48.60086" lon="-3.15732">
        <ele>167</ele>
        <time>2016-06-06T13:09:43.1Z</time>
      </trkpt>
      <trkpt lat="48.60085" lon="-3.15728">
        <ele>167</ele>
        <time>2016-06-06T13:09:45.1Z</time>
      </trkpt>
      <trkpt lat="48.60085" lon="-3.15724">
        <ele>167</ele>
        <time>2016-06-06T13:09:47.1Z</time>
      </trkpt>
      <trkpt lat="48.60084" lon="-3.1572">
        <ele>167</ele>
        <time>2016-06-06T13:09:49.1Z</time>
      </trkpt>
      <trkpt lat="48.60083" lon="-3.15717">
        <ele>167</ele>
        <time>2016-06-06T13:09:51.1Z</time>
      </trkpt>
      <trkpt lat="48.60081" lon="-3.15711">
        <ele>167</ele>
        <time>2016-06-06T13:09:54.1Z</time>
      </trkpt>
      <trkpt lat="48.6008" lon="-3.15705">
        <ele>167</ele>
        <time>2016-06-06T13:09:57.1Z</time>
      </trkpt>
      <trkpt lat="48.60079" lon="-3.15699">
        <ele>167</ele>
        <time>2016-06-06T13:10:00.1Z</time>
      </trkpt>
      <trkpt lat="48.60079" lon="-3.15695">
        <ele>168</ele>
        <time>2016-06-06T13:10:02.1Z</time>
      </trkpt>
      <trkpt lat="48.60079" lon="-3.15689">
        <ele>168</ele>
        <time>2016-06-06T13:10:05.1Z</time>
      </trkpt>
      <trkpt lat="48.60079" lon="-3.15686">
        <ele>168</ele>
        <time>2016-06-06T13:10:07.1Z</time>
      </trkpt>
      <trkpt lat="48.60079" lon="-3.15681">
        <ele>168</ele>
        <time>2016-06-06T13:10:10.1Z</time>
      </trkpt>
      <trkpt lat="48.6008" lon="-3.15675">
        <ele>168</ele>
        <time>2016-06-06T13:10:13.1Z</time>
      </trkpt>
      <trkpt lat="48.6008" lon="-3.15671">
        <ele>168</ele>
        <time>2016-06-06T13:10:15.1Z</time>
      </trkpt>
      <trkpt lat="48.60081" lon="-3.15665">
        <ele>168</ele>
        <time>2016-06-06T13:10:18.1Z</time>
      </trkpt>
      <trkpt lat="48.60081" lon="-3.15661">
        <ele>168</ele>
        <time>2016-06-06T13:10:20.1Z</time>
      </trkpt>
      <trkpt lat="48.6008" lon="-3.15655">
        <ele>168</ele>
        <time>2016-06-06T13:10:23.1Z</time>
      </trkpt>
      <trkpt lat="48.6008" lon="-3.15653">
        <ele>168</ele>
        <time>2016-06-06T13:10:25.1Z</time>
      </trkpt>
      <trkpt lat="48.60081" lon="-3.15652">
        <ele>168</ele>
        <time>2016-06-06T13:10:28.1Z</time>
      </trkpt>
      <trkpt lat="48.60082" lon="-3.15647">
        <ele>168</ele>
        <time>2016-06-06T13:10:31.1Z</time>
      </trkpt>
      <trkpt lat="48.60082" lon="-3.15644">
        <ele>168</ele>
        <time>2016-06-06T13:10:33.1Z</time>
      </trkpt>
      <trkpt lat="48.60085" lon="-3.15639">
        <ele>168</ele>
        <time>2016-06-06T13:10:36.1Z</time>
      </trkpt>
      <trkpt lat="48.60087" lon="-3.15637">
        <ele>168</ele>
        <time>2016-06-06T13:10:39.1Z</time>
      </trkpt>
      <trkpt lat="48.60088" lon="-3.15633">
        <ele>168</ele>
        <time>2016-06-06T13:10:42.1Z</time>
      </trkpt>
      <trkpt lat="48.6009" lon="-3.15628">
        <ele>168</ele>
        <time>2016-06-06T13:10:45.1Z</time>
      </trkpt>
      <trkpt lat="48.60091" lon="-3.15623">
        <ele>168</ele>
        <time>2016-06-06T13:10:47.1Z</time>
      </trkpt>
      <trkpt lat="48.60092" lon="-3.15619">
        <ele>168</ele>
        <time>2016-06-06T13:10:49.1Z</time>
      </trkpt>
      <trkpt lat="48.60094" lon="-3.15614">
        <ele>168</ele>
        <time>2016-06-06T13:10:52.1Z</time>
      </trkpt>
      <trkpt lat="48.60096" lon="-3.15608">
        <ele>169</ele>
        <time>2016-06-06T13:10:55.1Z</time>
      </trkpt>
      <trkpt lat="48.60097" lon="-3.15604">
        <ele>168</ele>
        <time>2016-06-06T13:10:57.1Z</time>
      </trkpt>
      <trkpt lat="48.60098" lon="-3.15598">
        <ele>168</ele>
        <time>2016-06-06T13:11:00.1Z</time>
      </trkpt>
      <trkpt lat="48.60099" lon="-3.15592">
        <ele>168</ele>
        <time>2016-06-06T13:11:03.1Z</time>
      </trkpt>
      <trkpt lat="48.601" lon="-3.15588">
        <ele>168</ele>
        <time>2016-06-06T13:11:05.1Z</time>
      </trkpt>
      <trkpt lat="48.601" lon="-3.15581">
        <ele>168</ele>
        <time>2016-06-06T13:11:08.1Z</time>
      </trkpt>
      <trkpt lat="48.60101" lon="-3.15577">
        <ele>168</ele>
        <time>2016-06-06T13:11:10.1Z</time>
      </trkpt>
      <trkpt lat="48.60101" lon="-3.15574">
        <ele>168</ele>
        <time>2016-06-06T13:11:12.1Z</time>
      </trkpt>
      <trkpt lat="48.60099" lon="-3.15568">
        <ele>168</ele>
        <time>2016-06-06T13:11:15.1Z</time>
      </trkpt>
      <trkpt lat="48.60099" lon="-3.15564">
        <ele>168</ele>
        <time>2016-06-06T13:11:17.1Z</time>
      </trkpt>
      <trkpt lat="48.60098" lon="-3.1556">
        <ele>168</ele>
        <time>2016-06-06T13:11:19.1Z</time>
      </trkpt>
      <trkpt lat="48.60096" lon="-3.15557">
        <ele>168</ele>
        <time>2016-06-06T13:11:21.1Z</time>
      </trkpt>
      <trkpt lat="48.60094" lon="-3.15551">
        <ele>168</ele>
        <time>2016-06-06T13:11:24.1Z</time>
      </trkpt>
      <trkpt lat="48.60093" lon="-3.15548">
        <ele>168</ele>
        <time>2016-06-06T13:11:26.1Z</time>
      </trkpt>
      <trkpt lat="48.60092" lon="-3.15544">
        <ele>168</ele>
        <time>2016-06-06T13:11:29.1Z</time>
      </trkpt>
      <trkpt lat="48.60091" lon="-3.1554">
        <ele>168</ele>
        <time>2016-06-06T13:11:32.1Z</time>
      </trkpt>
      <trkpt lat="48.60089" lon="-3.15534">
        <ele>168</ele>
        <time>2016-06-06T13:11:35.1Z</time>
      </trkpt>
      <trkpt lat="48.6009" lon="-3.15529">
        <ele>168</ele>
        <time>2016-06-06T13:11:38.1Z</time>
      </trkpt>
      <trkpt lat="48.60089" lon="-3.15525">
        <ele>167</ele>
        <time>2016-06-06T13:11:40.1Z</time>
      </trkpt>
      <trkpt lat="48.6009" lon="-3.15523">
        <ele>168</ele>
        <time>2016-06-06T13:11:42.1Z</time>
      </trkpt>
      <trkpt lat="48.60089" lon="-3.15517">
        <ele>168</ele>
        <time>2016-06-06T13:11:45.1Z</time>
      </trkpt>
      <trkpt lat="48.60089" lon="-3.15513">
        <ele>168</ele>
        <time>2016-06-06T13:11:47.1Z</time>
      </trkpt>
      <trkpt lat="48.60088" lon="-3.15508">
        <ele>168</ele>
        <time>2016-06-06T13:11:50.1Z</time>
      </trkpt>
      <trkpt lat="48.60089" lon="-3.15504">
        <ele>168</ele>
        <time>2016-06-06T13:11:52.1Z</time>
      </trkpt>
      <trkpt lat="48.60089" lon="-3.15501">
        <ele>168</ele>
        <time>2016-06-06T13:11:54.1Z</time>
      </trkpt>
      <trkpt lat="48.60088" lon="-3.15498">
        <ele>168</ele>
        <time>2016-06-06T13:11:56.1Z</time>
      </trkpt>
      <trkpt lat="48.60087" lon="-3.15493">
        <ele>168</ele>
        <time>2016-06-06T13:11:59.1Z</time>
      </trkpt>
      <trkpt lat="48.60088" lon="-3.15489">
        <ele>168</ele>
        <time>2016-06-06T13:12:02.1Z</time>
      </trkpt>
      <trkpt lat="48.60087" lon="-3.15484">
        <ele>168</ele>
        <time>2016-06-06T13:12:05.1Z</time>
      </trkpt>
      <trkpt lat="48.60086" lon="-3.15479">
        <ele>167</ele>
        <time>2016-06-06T13:12:08.1Z</time>
      </trkpt>
      <trkpt lat="48.60086" lon="-3.15476">
        <ele>168</ele>
        <time>2016-06-06T13:12:10.1Z</time>
      </trkpt>
      <trkpt lat="48.60084" lon="-3.15471">
        <ele>167</ele>
        <time>2016-06-06T13:12:13.1Z</time>
      </trkpt>
      <trkpt lat="48.60083" lon="-3.15467">
        <ele>167</ele>
        <time>2016-06-06T13:12:15.1Z</time>
      </trkpt>
      <trkpt lat="48.60081" lon="-3.15463">
        <ele>167</ele>
        <time>2016-06-06T13:12:18.1Z</time>
      </trkpt>
      <trkpt lat="48.6008" lon="-3.15457">
        <ele>168</ele>
        <time>2016-06-06T13:12:21.1Z</time>
      </trkpt>
      <trkpt lat="48.60079" lon="-3.15452">
        <ele>168</ele>
        <time>2016-06-06T13:12:24.1Z</time>
      </trkpt>
      <trkpt lat="48.60077" lon="-3.15445">
        <ele>168</ele>
        <time>2016-06-06T13:12:27.1Z</time>
      </trkpt>
      <trkpt lat="48.60075" lon="-3.1544">
        <ele>168</ele>
        <time>2016-06-06T13:12:30.1Z</time>
      </trkpt>
      <trkpt lat="48.60075" lon="-3.15435">
        <ele>168</ele>
        <time>2016-06-06T13:12:33.1Z</time>
      </trkpt>
      <trkpt lat="48.60074" lon="-3.15431">
        <ele>167</ele>
        <time>2016-06-06T13:12:36.1Z</time>
      </trkpt>
      <trkpt lat="48.60073" lon="-3.15427">
        <ele>167</ele>
        <time>2016-06-06T13:12:39.1Z</time>
      </trkpt>
      <trkpt lat="48.60072" lon="-3.15424">
        <ele>167</ele>
        <time>2016-06-06T13:12:41.1Z</time>
      </trkpt>
      <trkpt lat="48.60072" lon="-3.1542">
        <ele>168</ele>
        <time>2016-06-06T13:12:43.1Z</time>
      </trkpt>
      <trkpt lat="48.60071" lon="-3.15416">
        <ele>168</ele>
        <time>2016-06-06T13:12:46.1Z</time>
      </trkpt>
      <trkpt lat="48.60069" lon="-3.15412">
        <ele>168</ele>
        <time>2016-06-06T13:12:49.1Z</time>
      </trkpt>
      <trkpt lat="48.60068" lon="-3.15408">
        <ele>168</ele>
        <time>2016-06-06T13:12:52.1Z</time>
      </trkpt>
      <trkpt lat="48.60067" lon="-3.15404">
        <ele>168</ele>
        <time>2016-06-06T13:12:55.1Z</time>
      </trkpt>
      <trkpt lat="48.60065" lon="-3.154">
        <ele>168</ele>
        <time>2016-06-06T13:12:58.1Z</time>
      </trkpt>
      <trkpt lat="48.60064" lon="-3.15397">
        <ele>168</ele>
        <time>2016-06-06T13:13:00.1Z</time>
      </trkpt>
      <trkpt lat="48.60062" lon="-3.15392">
        <ele>168</ele>
        <time>2016-06-06T13:13:03.1Z</time>
      </trkpt>
      <trkpt lat="48.60062" lon="-3.15388">
        <ele>168</ele>
        <time>2016-06-06T13:13:06.1Z</time>
      </trkpt>
      <trkpt lat="48.60061" lon="-3.15385">
        <ele>168</ele>
        <time>2016-06-06T13:13:08.1Z</time>
      </trkpt>
      <trkpt lat="48.6006" lon="-3.15381">
        <ele>168</ele>
        <time>2016-06-06T13:13:11.1Z</time>
      </trkpt>
      <trkpt lat="48.6006" lon="-3.15379">
        <ele>168</ele>
        <time>2016-06-06T13:13:13.1Z</time>
      </trkpt>
      <trkpt lat="48.60059" lon="-3.15378">
        <ele>168</ele>
        <time>2016-06-06T13:13:15.1Z</time>
      </trkpt>
      <trkpt lat="48.60058" lon="-3.15375">
        <ele>167</ele>
        <time>2016-06-06T13:13:18.1Z</time>
      </trkpt>
      <trkpt lat="48.60058" lon="-3.15374">
        <ele>167</ele>
        <time>2016-06-06T13:13:20.1Z</time>
      </trkpt>
      <trkpt lat="48.60059" lon="-3.15373">
        <ele>167</ele>
        <time>2016-06-06T13:13:23.1Z</time>
      </trkpt>
      <trkpt lat="48.60058" lon="-3.15373">
        <ele>168</ele>
        <time>2016-06-06T13:13:26.1Z</time>
      </trkpt>
      <trkpt lat="48.60058" lon="-3.15373">
        <ele>168</ele>
        <time>2016-06-06T13:13:28.1Z</time>
      </trkpt>
      <trkpt lat="48.60057" lon="-3.15373">
        <ele>168</ele>
        <time>2016-06-06T13:13:31.1Z</time>
      </trkpt>
      <trkpt lat="48.60058" lon="-3.15373">
        <ele>168</ele>
        <time>2016-06-06T13:13:34.1Z</time>
      </trkpt>
      <trkpt lat="48.60057" lon="-3.15374">
        <ele>168</ele>
        <time>2016-06-06T13:13:37.1Z</time>
      </trkpt>
      <trkpt lat="48.60057" lon="-3.15374">
        <ele>168</ele>
        <time>2016-06-06T13:13:40.1Z</time>
      </trkpt>
      <trkpt lat="48.60057" lon="-3.15375">
        <ele>168</ele>
        <time>2016-06-06T13:13:43.1Z</time>
      </trkpt>
      <trkpt lat="48.60056" lon="-3.15375">
        <ele>168</ele>
        <time>2016-06-06T13:13:46.1Z</time>
      </trkpt>
      <trkpt lat="48.60056" lon="-3.15375">
        <ele>168</ele>
        <time>2016-06-06T13:13:48.1Z</time>
      </trkpt>
      <trkpt lat="48.60056" lon="-3.15375">
        <ele>168</ele>
        <time>2016-06-06T13:13:51.1Z</time>
      </trkpt>
      <trkpt lat="48.60056" lon="-3.15375">
        <ele>168</ele>
        <time>2016-06-06T13:13:54.1Z</time>
      </trkpt>
      <trkpt lat="48.60058" lon="-3.15375">
        <ele>168</ele>
        <time>2016-06-06T13:13:57.1Z</time>
      </trkpt>
      <trkpt lat="48.60059" lon="-3.15374">
        <ele>168</ele>
        <time>2016-06-06T13:13:59.1Z</time>
      </trkpt>
      <trkpt lat="48.6006" lon="-3.15372">
        <ele>168</ele>
        <time>2016-06-06T13:14:02.1Z</time>
      </trkpt>
      <trkpt lat="48.6006" lon="-3.15372">
        <ele>168</ele>
        <time>2016-06-06T13:14:05.1Z</time>
      </trkpt>
      <trkpt lat="48.60059" lon="-3.15371">
        <ele>168</ele>
        <time>2016-06-06T13:14:07.1Z</time>
      </trkpt>
      <trkpt lat="48.60059" lon="-3.15371">
        <ele>167</ele>
        <time>2016-06-06T13:14:11.1Z</time>
      </trkpt>
      <trkpt lat="48.60059" lon="-3.15371">
        <ele>167</ele>
        <time>2016-06-06T13:14:13.1Z</time>
      </trkpt>
      <trkpt lat="48.60059" lon="-3.15371">
        <ele>168</ele>
        <time>2016-06-06T13:14:16.1Z</time>
      </trkpt>
      <trkpt lat="48.60058" lon="-3.15371">
        <ele>168</ele>
        <time>2016-06-06T13:14:21.1Z</time>
      </trkpt>
      <trkpt lat="48.60059" lon="-3.15371">
        <ele>168</ele>
        <time>2016-06-06T13:14:24.1Z</time>
      </trkpt>
      <trkpt lat="48.60059" lon="-3.15371">
        <ele>168</ele>
        <time>2016-06-06T13:14:26.1Z</time>
      </trkpt>
      <trkpt lat="48.60058" lon="-3.15371">
        <ele>168</ele>
        <time>2016-06-06T13:14:30.1Z</time>
      </trkpt>
      <trkpt lat="48.60058" lon="-3.15371">
        <ele>168</ele>
        <time>2016-06-06T13:14:33.1Z</time>
      </trkpt>
      <trkpt lat="48.60058" lon="-3.15372">
        <ele>168</ele>
        <time>2016-06-06T13:14:36.1Z</time>
      </trkpt>
      <trkpt lat="48.60059" lon="-3.15371">
        <ele>168</ele>
        <time>2016-06-06T13:14:39.1Z</time>
      </trkpt>
      <trkpt lat="48.60059" lon="-3.15371">
        <ele>168</ele>
        <time>2016-06-06T13:14:42.1Z</time>
      </trkpt>
      <trkpt lat="48.60059" lon="-3.1537">
        <ele>168</ele>
        <time>2016-06-06T13:14:45.1Z</time>
      </trkpt>
      <trkpt lat="48.60059" lon="-3.15369">
        <ele>168</ele>
        <time>2016-06-06T13:14:48.1Z</time>
      </trkpt>
      <trkpt lat="48.60059" lon="-3.15366">
        <ele>168</ele>
        <time>2016-06-06T13:14:51.1Z</time>
      </trkpt>
      <trkpt lat="48.60058" lon="-3.15363">
        <ele>168</ele>
        <time>2016-06-06T13:14:54.1Z</time>
      </trkpt>
      <trkpt lat="48.60058" lon="-3.15361">
        <ele>168</ele>
        <time>2016-06-06T13:14:56.1Z</time>
      </trkpt>
      <trkpt lat="48.60057" lon="-3.15361">
        <ele>168</ele>
        <time>2016-06-06T13:14:59.1Z</time>
      </trkpt>
      <trkpt lat="48.60057" lon="-3.15361">
        <ele>167</ele>
        <time>2016-06-06T13:15:01.1Z</time>
      </trkpt>
      <trkpt lat="48.60057" lon="-3.1536">
        <ele>167</ele>
        <time>2016-06-06T13:15:04.1Z</time>
      </trkpt>
      <trkpt lat="48.60056" lon="-3.15357">
        <ele>167</ele>
        <time>2016-06-06T13:15:07.1Z</time>
      </trkpt>
      <trkpt lat="48.60054" lon="-3.15352">
        <ele>168</ele>
        <time>2016-06-06T13:15:10.1Z</time>
      </trkpt>
      <trkpt lat="48.60052" lon="-3.1535">
        <ele>168</ele>
        <time>2016-06-06T13:15:12.1Z</time>
      </trkpt>
      <trkpt lat="48.60051" lon="-3.15347">
        <ele>168</ele>
        <time>2016-06-06T13:15:15.1Z</time>
      </trkpt>
      <trkpt lat="48.60049" lon="-3.15343">
        <ele>168</ele>
        <time>2016-06-06T13:15:18.1Z</time>
      </trkpt>
      <trkpt lat="48.60047" lon="-3.1534">
        <ele>168</ele>
        <time>2016-06-06T13:15:21.1Z</time>
      </trkpt>
      <trkpt lat="48.60047" lon="-3.15339">
        <ele>168</ele>
        <time>2016-06-06T13:15:24.1Z</time>
      </trkpt>
      <trkpt lat="48.60045" lon="-3.15336">
        <ele>168</ele>
        <time>2016-06-06T13:15:27.1Z</time>
      </trkpt>
      <trkpt lat="48.60044" lon="-3.15332">
        <ele>168</ele>
        <time>2016-06-06T13:15:30.1Z</time>
      </trkpt>
      <trkpt lat="48.60043" lon="-3.1533">
        <ele>168</ele>
        <time>2016-06-06T13:15:32.1Z</time>
      </trkpt>
      <trkpt lat="48.60042" lon="-3.15326">
        <ele>168</ele>
        <time>2016-06-06T13:15:35.1Z</time>
      </trkpt>
      <trkpt lat="48.60041" lon="-3.15322">
        <ele>168</ele>
        <time>2016-06-06T13:15:38.1Z</time>
      </trkpt>
      <trkpt lat="48.6004" lon="-3.1532">
        <ele>168</ele>
        <time>2016-06-06T13:15:40.1Z</time>
      </trkpt>
      <trkpt lat="48.60038" lon="-3.15316">
        <ele>167</ele>
        <time>2016-06-06T13:15:43.1Z</time>
      </trkpt>
      <trkpt lat="48.60036" lon="-3.15313">
        <ele>167</ele>
        <time>2016-06-06T13:15:46.1Z</time>
      </trkpt>
      <trkpt lat="48.60035" lon="-3.15309">
        <ele>168</ele>
        <time>2016-06-06T13:15:49.1Z</time>
      </trkpt>
      <trkpt lat="48.60033" lon="-3.15304">
        <ele>168</ele>
        <time>2016-06-06T13:15:52.1Z</time>
      </trkpt>
      <trkpt lat="48.60032" lon="-3.15301">
        <ele>168</ele>
        <time>2016-06-06T13:15:55.1Z</time>
      </trkpt>
      <trkpt lat="48.60031" lon="-3.153">
        <ele>168</ele>
        <time>2016-06-06T13:15:57.1Z</time>
      </trkpt>
      <trkpt lat="48.6003" lon="-3.15297">
        <ele>168</ele>
        <time>2016-06-06T13:15:59.1Z</time>
      </trkpt>
      <trkpt lat="48.60028" lon="-3.15294">
        <ele>167</ele>
        <time>2016-06-06T13:16:02.1Z</time>
      </trkpt>
      <trkpt lat="48.60027" lon="-3.15291">
        <ele>167</ele>
        <time>2016-06-06T13:16:04.1Z</time>
      </trkpt>
      <trkpt lat="48.60025" lon="-3.15288">
        <ele>167</ele>
        <time>2016-06-06T13:16:07.1Z</time>
      </trkpt>
      <trkpt lat="48.60024" lon="-3.15284">
        <ele>167</ele>
        <time>2016-06-06T13:16:10.1Z</time>
      </trkpt>
      <trkpt lat="48.60022" lon="-3.1528">
        <ele>168</ele>
        <time>2016-06-06T13:16:13.1Z</time>
      </trkpt>
      <trkpt lat="48.6002" lon="-3.15276">
        <ele>168</ele>
        <time>2016-06-06T13:16:16.1Z</time>
      </trkpt>
      <trkpt lat="48.6002" lon="-3.15273">
        <ele>168</ele>
        <time>2016-06-06T13:16:18.1Z</time>
      </trkpt>
      <trkpt lat="48.60018" lon="-3.1527">
        <ele>168</ele>
        <time>2016-06-06T13:16:21.1Z</time>
      </trkpt>
      <trkpt lat="48.60018" lon="-3.15269">
        <ele>167</ele>
        <time>2016-06-06T13:16:24.1Z</time>
      </trkpt>
      <trkpt lat="48.60017" lon="-3.15267">
        <ele>167</ele>
        <time>2016-06-06T13:16:26.1Z</time>
      </trkpt>
      <trkpt lat="48.60016" lon="-3.15264">
        <ele>167</ele>
        <time>2016-06-06T13:16:29.1Z</time>
      </trkpt>
      <trkpt lat="48.60015" lon="-3.15262">
        <ele>167</ele>
        <time>2016-06-06T13:16:31.1Z</time>
      </trkpt>
      <trkpt lat="48.60015" lon="-3.1526">
        <ele>168</ele>
        <time>2016-06-06T13:16:33.1Z</time>
      </trkpt>
      <trkpt lat="48.60014" lon="-3.15257">
        <ele>168</ele>
        <time>2016-06-06T13:16:36.1Z</time>
      </trkpt>
      <trkpt lat="48.60013" lon="-3.15254">
        <ele>168</ele>
        <time>2016-06-06T13:16:38.1Z</time>
      </trkpt>
      <trkpt lat="48.60012" lon="-3.1525">
        <ele>167</ele>
        <time>2016-06-06T13:16:41.1Z</time>
      </trkpt>
      <trkpt lat="48.60011" lon="-3.15247">
        <ele>168</ele>
        <time>2016-06-06T13:16:44.1Z</time>
      </trkpt>
      <trkpt lat="48.60011" lon="-3.15244">
        <ele>167</ele>
        <time>2016-06-06T13:16:46.1Z</time>
      </trkpt>
      <trkpt lat="48.6001" lon="-3.15241">
        <ele>167</ele>
        <time>2016-06-06T13:16:49.1Z</time>
      </trkpt>
      <trkpt lat="48.6001" lon="-3.15238">
        <ele>167</ele>
        <time>2016-06-06T13:16:51.1Z</time>
      </trkpt>
      <trkpt lat="48.60009" lon="-3.15236">
        <ele>167</ele>
        <time>2016-06-06T13:16:53.1Z</time>
      </trkpt>
      <trkpt lat="48.60008" lon="-3.15231">
        <ele>167</ele>
        <time>2016-06-06T13:16:56.1Z</time>
      </trkpt>
      <trkpt lat="48.60007" lon="-3.15228">
        <ele>167</ele>
        <time>2016-06-06T13:16:58.1Z</time>
      </trkpt>
      <trkpt lat="48.60006" lon="-3.15223">
        <ele>168</ele>
        <time>2016-06-06T13:17:01.1Z</time>
      </trkpt>
      <trkpt lat="48.60005" lon="-3.15218">
        <ele>168</ele>
        <time>2016-06-06T13:17:04.1Z</time>
      </trkpt>
      <trkpt lat="48.60004" lon="-3.15216">
        <ele>168</ele>
        <time>2016-06-06T13:17:06.1Z</time>
      </trkpt>
      <trkpt lat="48.60003" lon="-3.1521">
        <ele>168</ele>
        <time>2016-06-06T13:17:09.1Z</time>
      </trkpt>
      <trkpt lat="48.60002" lon="-3.15206">
        <ele>168</ele>
        <time>2016-06-06T13:17:12.1Z</time>
      </trkpt>
      <trkpt lat="48.6" lon="-3.15203">
        <ele>168</ele>
        <time>2016-06-06T13:17:14.1Z</time>
      </trkpt>
      <trkpt lat="48.59998" lon="-3.15199">
        <ele>168</ele>
        <time>2016-06-06T13:17:17.1Z</time>
      </trkpt>
      <trkpt lat="48.59998" lon="-3.15196">
        <ele>168</ele>
        <time>2016-06-06T13:17:19.1Z</time>
      </trkpt>
      <trkpt lat="48.59996" lon="-3.15193">
        <ele>167</ele>
        <time>2016-06-06T13:17:22.1Z</time>
      </trkpt>
      <trkpt lat="48.59995" lon="-3.15189">
        <ele>167</ele>
        <time>2016-06-06T13:17:25.1Z</time>
      </trkpt>
      <trkpt lat="48.59994" lon="-3.15184">
        <ele>168</ele>
        <time>2016-06-06T13:17:28.1Z</time>
      </trkpt>
      <trkpt lat="48.59993" lon="-3.15179">
        <ele>168</ele>
        <time>2016-06-06T13:17:31.1Z</time>
      </trkpt>
      <trkpt lat="48.59992" lon="-3.15177">
        <ele>168</ele>
        <time>2016-06-06T13:17:33.1Z</time>
      </trkpt>
      <trkpt lat="48.5999" lon="-3.15172">
        <ele>168</ele>
        <time>2016-06-06T13:17:36.1Z</time>
      </trkpt>
      <trkpt lat="48.59988" lon="-3.15168">
        <ele>168</ele>
        <time>2016-06-06T13:17:39.1Z</time>
      </trkpt>
      <trkpt lat="48.59987" lon="-3.15165">
        <ele>168</ele>
        <time>2016-06-06T13:17:41.1Z</time>
      </trkpt>
      <trkpt lat="48.59985" lon="-3.15161">
        <ele>168</ele>
        <time>2016-06-06T13:17:44.1Z</time>
      </trkpt>
      <trkpt lat="48.59985" lon="-3.15158">
        <ele>168</ele>
        <time>2016-06-06T13:17:46.1Z</time>
      </trkpt>
      <trkpt lat="48.59984" lon="-3.15155">
        <ele>168</ele>
        <time>2016-06-06T13:17:48.1Z</time>
      </trkpt>
      <trkpt lat="48.59983" lon="-3.15151">
        <ele>168</ele>
        <time>2016-06-06T13:17:51.1Z</time>
      </trkpt>
      <trkpt lat="48.59982" lon="-3.15148">
        <ele>168</ele>
        <time>2016-06-06T13:17:53.1Z</time>
      </trkpt>
      <trkpt lat="48.59982" lon="-3.15145">
        <ele>169</ele>
        <time>2016-06-06T13:17:55.1Z</time>
      </trkpt>
      <trkpt lat="48.5998" lon="-3.15141">
        <ele>169</ele>
        <time>2016-06-06T13:17:58.1Z</time>
      </trkpt>
      <trkpt lat="48.59978" lon="-3.15138">
        <ele>169</ele>
        <time>2016-06-06T13:18:01.1Z</time>
      </trkpt>
      <trkpt lat="48.59977" lon="-3.15135">
        <ele>169</ele>
        <time>2016-06-06T13:18:04.1Z</time>
      </trkpt>
      <trkpt lat="48.59976" lon="-3.15132">
        <ele>169</ele>
        <time>2016-06-06T13:18:07.1Z</time>
      </trkpt>
      <trkpt lat="48.59976" lon="-3.1513">
        <ele>170</ele>
        <time>2016-06-06T13:18:09.1Z</time>
      </trkpt>
      <trkpt lat="48.59975" lon="-3.15127">
        <ele>170</ele>
        <time>2016-06-06T13:18:12.1Z</time>
      </trkpt>
      <trkpt lat="48.59975" lon="-3.15124">
        <ele>170</ele>
        <time>2016-06-06T13:18:15.1Z</time>
      </trkpt>
      <trkpt lat="48.59975" lon="-3.1512">
        <ele>170</ele>
        <time>2016-06-06T13:18:18.1Z</time>
      </trkpt>
      <trkpt lat="48.59974" lon="-3.15117">
        <ele>170</ele>
        <time>2016-06-06T13:18:21.1Z</time>
      </trkpt>
      <trkpt lat="48.59974" lon="-3.15117">
        <ele>170</ele>
        <time>2016-06-06T13:18:24.1Z</time>
      </trkpt>
      <trkpt lat="48.59973" lon="-3.15117">
        <ele>170</ele>
        <time>2016-06-06T13:18:27.1Z</time>
      </trkpt>
      <trkpt lat="48.59973" lon="-3.15117">
        <ele>170</ele>
        <time>2016-06-06T13:18:30.1Z</time>
      </trkpt>
      <trkpt lat="48.59973" lon="-3.15118">
        <ele>171</ele>
        <time>2016-06-06T13:18:32.1Z</time>
      </trkpt>
      <trkpt lat="48.59973" lon="-3.15118">
        <ele>171</ele>
        <time>2016-06-06T13:18:35.1Z</time>
      </trkpt>
      <trkpt lat="48.59973" lon="-3.15119">
        <ele>171</ele>
        <time>2016-06-06T13:18:39.1Z</time>
      </trkpt>
      <trkpt lat="48.59972" lon="-3.15119">
        <ele>171</ele>
        <time>2016-06-06T13:18:41.1Z</time>
      </trkpt>
      <trkpt lat="48.59972" lon="-3.15119">
        <ele>171</ele>
        <time>2016-06-06T13:18:45.1Z</time>
      </trkpt>
      <trkpt lat="48.59971" lon="-3.15119">
        <ele>171</ele>
        <time>2016-06-06T13:18:48.1Z</time>
      </trkpt>
      <trkpt lat="48.59971" lon="-3.15119">
        <ele>170</ele>
        <time>2016-06-06T13:18:51.1Z</time>
      </trkpt>
      <trkpt lat="48.59969" lon="-3.15117">
        <ele>170</ele>
        <time>2016-06-06T13:18:54.1Z</time>
      </trkpt>
      <trkpt lat="48.59967" lon="-3.15114">
        <ele>170</ele>
        <time>2016-06-06T13:18:57.1Z</time>
      </trkpt>
      <trkpt lat="48.59967" lon="-3.15114">
        <ele>171</ele>
        <time>2016-06-06T13:19:01.1Z</time>
      </trkpt>
      <trkpt lat="48.59967" lon="-3.15113">
        <ele>171</ele>
        <time>2016-06-06T13:19:04.1Z</time>
      </trkpt>
      <trkpt lat="48.59966" lon="-3.15113">
        <ele>171</ele>
        <time>2016-06-06T13:19:06.1Z</time>
      </trkpt>
      <trkpt lat="48.59966" lon="-3.15112">
        <ele>171</ele>
        <time>2016-06-06T13:19:09.1Z</time>
      </trkpt>
      <trkpt lat="48.59965" lon="-3.15111">
        <ele>171</ele>
        <time>2016-06-06T13:19:11.1Z</time>
      </trkpt>
      <trkpt lat="48.59963" lon="-3.15109">
        <ele>171</ele>
        <time>2016-06-06T13:19:14.1Z</time>
      </trkpt>
      <trkpt lat="48.59961" lon="-3.15108">
        <ele>171</ele>
        <time>2016-06-06T13:19:17.1Z</time>
      </trkpt>
      <trkpt lat="48.5996" lon="-3.15107">
        <ele>171</ele>
        <time>2016-06-06T13:19:19.1Z</time>
      </trkpt>
      <trkpt lat="48.59959" lon="-3.15106">
        <ele>171</ele>
        <time>2016-06-06T13:19:21.1Z</time>
      </trkpt>
      <trkpt lat="48.59957" lon="-3.15105">
        <ele>171</ele>
        <time>2016-06-06T13:19:23.1Z</time>
      </trkpt>
      <trkpt lat="48.59955" lon="-3.15103">
        <ele>171</ele>
        <time>2016-06-06T13:19:26.1Z</time>
      </trkpt>
      <trkpt lat="48.59951" lon="-3.15101">
        <ele>171</ele>
        <time>2016-06-06T13:19:29.1Z</time>
      </trkpt>
      <trkpt lat="48.59948" lon="-3.151">
        <ele>171</ele>
        <time>2016-06-06T13:19:32.1Z</time>
      </trkpt>
      <trkpt lat="48.59946" lon="-3.15098">
        <ele>171</ele>
        <time>2016-06-06T13:19:35.1Z</time>
      </trkpt>
      <trkpt lat="48.59944" lon="-3.15097">
        <ele>171</ele>
        <time>2016-06-06T13:19:37.1Z</time>
      </trkpt>
      <trkpt lat="48.59942" lon="-3.15096">
        <ele>171</ele>
        <time>2016-06-06T13:19:40.1Z</time>
      </trkpt>
      <trkpt lat="48.5994" lon="-3.15094">
        <ele>171</ele>
        <time>2016-06-06T13:19:43.1Z</time>
      </trkpt>
      <trkpt lat="48.59937" lon="-3.15094">
        <ele>171</ele>
        <time>2016-06-06T13:19:46.1Z</time>
      </trkpt>
      <trkpt lat="48.59934" lon="-3.15093">
        <ele>171</ele>
        <time>2016-06-06T13:19:49.1Z</time>
      </trkpt>
      <trkpt lat="48.59931" lon="-3.15093">
        <ele>171</ele>
        <time>2016-06-06T13:19:52.1Z</time>
      </trkpt>
      <trkpt lat="48.59928" lon="-3.15093">
        <ele>171</ele>
        <time>2016-06-06T13:19:54.1Z</time>
      </trkpt>
      <trkpt lat="48.59925" lon="-3.15091">
        <ele>171</ele>
        <time>2016-06-06T13:19:57.1Z</time>
      </trkpt>
      <trkpt lat="48.59923" lon="-3.1509">
        <ele>170</ele>
        <time>2016-06-06T13:20:00.1Z</time>
      </trkpt>
      <trkpt lat="48.5992" lon="-3.15089">
        <ele>170</ele>
        <time>2016-06-06T13:20:02.1Z</time>
      </trkpt>
      <trkpt lat="48.59918" lon="-3.15089">
        <ele>170</ele>
        <time>2016-06-06T13:20:04.1Z</time>
      </trkpt>
      <trkpt lat="48.59916" lon="-3.15089">
        <ele>169</ele>
        <time>2016-06-06T13:20:07.1Z</time>
      </trkpt>
      <trkpt lat="48.59914" lon="-3.15088">
        <ele>169</ele>
        <time>2016-06-06T13:20:09.1Z</time>
      </trkpt>
      <trkpt lat="48.5991" lon="-3.15087">
        <ele>170</ele>
        <time>2016-06-06T13:20:12.1Z</time>
      </trkpt>
      <trkpt lat="48.59908" lon="-3.15086">
        <ele>170</ele>
        <time>2016-06-06T13:20:14.1Z</time>
      </trkpt>
      <trkpt lat="48.59906" lon="-3.15084">
        <ele>170</ele>
        <time>2016-06-06T13:20:16.1Z</time>
      </trkpt>
      <trkpt lat="48.59903" lon="-3.15082">
        <ele>170</ele>
        <time>2016-06-06T13:20:19.1Z</time>
      </trkpt>
      <trkpt lat="48.599" lon="-3.15079">
        <ele>169</ele>
        <time>2016-06-06T13:20:22.1Z</time>
      </trkpt>
      <trkpt lat="48.59898" lon="-3.15077">
        <ele>169</ele>
        <time>2016-06-06T13:20:24.1Z</time>
      </trkpt>
      <trkpt lat="48.59896" lon="-3.15075">
        <ele>169</ele>
        <time>2016-06-06T13:20:26.1Z</time>
      </trkpt>
      <trkpt lat="48.59893" lon="-3.15074">
        <ele>169</ele>
        <time>2016-06-06T13:20:29.1Z</time>
      </trkpt>
      <trkpt lat="48.59891" lon="-3.15072">
        <ele>169</ele>
        <time>2016-06-06T13:20:31.1Z</time>
      </trkpt>
      <trkpt lat="48.5989" lon="-3.1507">
        <ele>169</ele>
        <time>2016-06-06T13:20:33.1Z</time>
      </trkpt>
      <trkpt lat="48.59888" lon="-3.15068">
        <ele>169</ele>
        <time>2016-06-06T13:20:35.1Z</time>
      </trkpt>
      <trkpt lat="48.59885" lon="-3.15066">
        <ele>169</ele>
        <time>2016-06-06T13:20:38.1Z</time>
      </trkpt>
      <trkpt lat="48.59882" lon="-3.15064">
        <ele>169</ele>
        <time>2016-06-06T13:20:40.1Z</time>
      </trkpt>
      <trkpt lat="48.59879" lon="-3.15061">
        <ele>169</ele>
        <time>2016-06-06T13:20:43.1Z</time>
      </trkpt>
      <trkpt lat="48.59876" lon="-3.15059">
        <ele>169</ele>
        <time>2016-06-06T13:20:46.1Z</time>
      </trkpt>
      <trkpt lat="48.59875" lon="-3.15058">
        <ele>169</ele>
        <time>2016-06-06T13:20:48.1Z</time>
      </trkpt>
      <trkpt lat="48.59873" lon="-3.15057">
        <ele>169</ele>
        <time>2016-06-06T13:20:50.1Z</time>
      </trkpt>
      <trkpt lat="48.5987" lon="-3.15055">
        <ele>169</ele>
        <time>2016-06-06T13:20:53.1Z</time>
      </trkpt>
      <trkpt lat="48.59867" lon="-3.15053">
        <ele>169</ele>
        <time>2016-06-06T13:20:56.1Z</time>
      </trkpt>
      <trkpt lat="48.59864" lon="-3.15052">
        <ele>169</ele>
        <time>2016-06-06T13:20:59.1Z</time>
      </trkpt>
      <trkpt lat="48.59861" lon="-3.15053">
        <ele>168</ele>
        <time>2016-06-06T13:21:01.1Z</time>
      </trkpt>
      <trkpt lat="48.59858" lon="-3.15053">
        <ele>168</ele>
        <time>2016-06-06T13:21:04.1Z</time>
      </trkpt>
      <trkpt lat="48.59856" lon="-3.15053">
        <ele>168</ele>
        <time>2016-06-06T13:21:07.1Z</time>
      </trkpt>
      <trkpt lat="48.59854" lon="-3.15052">
        <ele>168</ele>
        <time>2016-06-06T13:21:09.1Z</time>
      </trkpt>
      <trkpt lat="48.59852" lon="-3.15051">
        <ele>168</ele>
        <time>2016-06-06T13:21:11.1Z</time>
      </trkpt>
      <trkpt lat="48.59849" lon="-3.15048">
        <ele>168</ele>
        <time>2016-06-06T13:21:14.1Z</time>
      </trkpt>
      <trkpt lat="48.59846" lon="-3.15047">
        <ele>168</ele>
        <time>2016-06-06T13:21:17.1Z</time>
      </trkpt>
      <trkpt lat="48.59844" lon="-3.15045">
        <ele>168</ele>
        <time>2016-06-06T13:21:19.1Z</time>
      </trkpt>
      <trkpt lat="48.59841" lon="-3.15043">
        <ele>168</ele>
        <time>2016-06-06T13:21:22.1Z</time>
      </trkpt>
      <trkpt lat="48.59838" lon="-3.1504">
        <ele>168</ele>
        <time>2016-06-06T13:21:24.1Z</time>
      </trkpt>
      <trkpt lat="48.59835" lon="-3.15038">
        <ele>168</ele>
        <time>2016-06-06T13:21:27.1Z</time>
      </trkpt>
      <trkpt lat="48.59832" lon="-3.15035">
        <ele>168</ele>
        <time>2016-06-06T13:21:30.1Z</time>
      </trkpt>
      <trkpt lat="48.5983" lon="-3.15034">
        <ele>168</ele>
        <time>2016-06-06T13:21:32.1Z</time>
      </trkpt>
      <trkpt lat="48.59827" lon="-3.15032">
        <ele>168</ele>
        <time>2016-06-06T13:21:35.1Z</time>
      </trkpt>
      <trkpt lat="48.59826" lon="-3.1503">
        <ele>167</ele>
        <time>2016-06-06T13:21:37.1Z</time>
      </trkpt>
      <trkpt lat="48.59823" lon="-3.15027">
        <ele>168</ele>
        <time>2016-06-06T13:21:40.1Z</time>
      </trkpt>
      <trkpt lat="48.59821" lon="-3.15025">
        <ele>168</ele>
        <time>2016-06-06T13:21:42.1Z</time>
      </trkpt>
      <trkpt lat="48.59817" lon="-3.15022">
        <ele>168</ele>
        <time>2016-06-06T13:21:45.1Z</time>
      </trkpt>
      <trkpt lat="48.59814" lon="-3.1502">
        <ele>168</ele>
        <time>2016-06-06T13:21:48.1Z</time>
      </trkpt>
      <trkpt lat="48.59812" lon="-3.15018">
        <ele>168</ele>
        <time>2016-06-06T13:21:50.1Z</time>
      </trkpt>
      <trkpt lat="48.59808" lon="-3.15016">
        <ele>168</ele>
        <time>2016-06-06T13:21:53.1Z</time>
      </trkpt>
      <trkpt lat="48.59806" lon="-3.15014">
        <ele>168</ele>
        <time>2016-06-06T13:21:55.1Z</time>
      </trkpt>
      <trkpt lat="48.59803" lon="-3.15012">
        <ele>168</ele>
        <time>2016-06-06T13:21:58.1Z</time>
      </trkpt>
      <trkpt lat="48.59801" lon="-3.1501">
        <ele>168</ele>
        <time>2016-06-06T13:22:00.1Z</time>
      </trkpt>
      <trkpt lat="48.59798" lon="-3.15009">
        <ele>167</ele>
        <time>2016-06-06T13:22:03.1Z</time>
      </trkpt>
      <trkpt lat="48.59796" lon="-3.15008">
        <ele>167</ele>
        <time>2016-06-06T13:22:05.1Z</time>
      </trkpt>
      <trkpt lat="48.59792" lon="-3.15007">
        <ele>167</ele>
        <time>2016-06-06T13:22:08.1Z</time>
      </trkpt>
      <trkpt lat="48.5979" lon="-3.15007">
        <ele>167</ele>
        <time>2016-06-06T13:22:10.1Z</time>
      </trkpt>
      <trkpt lat="48.59786" lon="-3.15006">
        <ele>167</ele>
        <time>2016-06-06T13:22:13.1Z</time>
      </trkpt>
      <trkpt lat="48.59784" lon="-3.15006">
        <ele>167</ele>
        <time>2016-06-06T13:22:16.1Z</time>
      </trkpt>
      <trkpt lat="48.59781" lon="-3.15006">
        <ele>167</ele>
        <time>2016-06-06T13:22:19.1Z</time>
      </trkpt>
      <trkpt lat="48.59778" lon="-3.15006">
        <ele>166</ele>
        <time>2016-06-06T13:22:22.1Z</time>
      </trkpt>
      <trkpt lat="48.59775" lon="-3.15006">
        <ele>166</ele>
        <time>2016-06-06T13:22:25.1Z</time>
      </trkpt>
      <trkpt lat="48.59773" lon="-3.15005">
        <ele>166</ele>
        <time>2016-06-06T13:22:28.1Z</time>
      </trkpt>
      <trkpt lat="48.59771" lon="-3.15005">
        <ele>166</ele>
        <time>2016-06-06T13:22:30.1Z</time>
      </trkpt>
      <trkpt lat="48.59767" lon="-3.15005">
        <ele>166</ele>
        <time>2016-06-06T13:22:33.1Z</time>
      </trkpt>
      <trkpt lat="48.59764" lon="-3.15005">
        <ele>165</ele>
        <time>2016-06-06T13:22:35.1Z</time>
      </trkpt>
      <trkpt lat="48.5976" lon="-3.15006">
        <ele>165</ele>
        <time>2016-06-06T13:22:38.1Z</time>
      </trkpt>
      <trkpt lat="48.59758" lon="-3.15006">
        <ele>165</ele>
        <time>2016-06-06T13:22:40.1Z</time>
      </trkpt>
      <trkpt lat="48.59755" lon="-3.15007">
        <ele>165</ele>
        <time>2016-06-06T13:22:43.1Z</time>
      </trkpt>
      <trkpt lat="48.5975" lon="-3.15008">
        <ele>164</ele>
        <time>2016-06-06T13:22:46.1Z</time>
      </trkpt>
      <trkpt lat="48.59749" lon="-3.15009">
        <ele>164</ele>
        <time>2016-06-06T13:22:48.1Z</time>
      </trkpt>
      <trkpt lat="48.59747" lon="-3.1501">
        <ele>164</ele>
        <time>2016-06-06T13:22:50.1Z</time>
      </trkpt>
      <trkpt lat="48.59743" lon="-3.15012">
        <ele>164</ele>
        <time>2016-06-06T13:22:53.1Z</time>
      </trkpt>
      <trkpt lat="48.5974" lon="-3.15012">
        <ele>164</ele>
        <time>2016-06-06T13:22:56.1Z</time>
      </trkpt>
      <trkpt lat="48.59737" lon="-3.15012">
        <ele>163</ele>
        <time>2016-06-06T13:22:58.1Z</time>
      </trkpt>
      <trkpt lat="48.59735" lon="-3.15011">
        <ele>163</ele>
        <time>2016-06-06T13:23:00.1Z</time>
      </trkpt>
      <trkpt lat="48.59733" lon="-3.1501">
        <ele>163</ele>
        <time>2016-06-06T13:23:02.1Z</time>
      </trkpt>
      <trkpt lat="48.5973" lon="-3.15009">
        <ele>162</ele>
        <time>2016-06-06T13:23:04.1Z</time>
      </trkpt>
      <trkpt lat="48.59728" lon="-3.15009">
        <ele>162</ele>
        <time>2016-06-06T13:23:06.1Z</time>
      </trkpt>
      <trkpt lat="48.59725" lon="-3.15007">
        <ele>162</ele>
        <time>2016-06-06T13:23:09.1Z</time>
      </trkpt>
      <trkpt lat="48.59722" lon="-3.15006">
        <ele>162</ele>
        <time>2016-06-06T13:23:12.1Z</time>
      </trkpt>
      <trkpt lat="48.59718" lon="-3.15005">
        <ele>162</ele>
        <time>2016-06-06T13:23:15.1Z</time>
      </trkpt>
      <trkpt lat="48.59716" lon="-3.15004">
        <ele>162</ele>
        <time>2016-06-06T13:23:17.1Z</time>
      </trkpt>
      <trkpt lat="48.59714" lon="-3.15002">
        <ele>161</ele>
        <time>2016-06-06T13:23:19.1Z</time>
      </trkpt>
      <trkpt lat="48.59712" lon="-3.15001">
        <ele>161</ele>
        <time>2016-06-06T13:23:21.1Z</time>
      </trkpt>
      <trkpt lat="48.59711" lon="-3.15">
        <ele>162</ele>
        <time>2016-06-06T13:23:23.1Z</time>
      </trkpt>
      <trkpt lat="48.59707" lon="-3.14998">
        <ele>162</ele>
        <time>2016-06-06T13:23:26.1Z</time>
      </trkpt>
      <trkpt lat="48.59705" lon="-3.14997">
        <ele>162</ele>
        <time>2016-06-06T13:23:28.1Z</time>
      </trkpt>
      <trkpt lat="48.59703" lon="-3.14996">
        <ele>162</ele>
        <time>2016-06-06T13:23:30.1Z</time>
      </trkpt>
      <trkpt lat="48.59699" lon="-3.14994">
        <ele>162</ele>
        <time>2016-06-06T13:23:33.1Z</time>
      </trkpt>
      <trkpt lat="48.59697" lon="-3.14992">
        <ele>162</ele>
        <time>2016-06-06T13:23:35.1Z</time>
      </trkpt>
      <trkpt lat="48.59694" lon="-3.14991">
        <ele>161</ele>
        <time>2016-06-06T13:23:37.1Z</time>
      </trkpt>
      <trkpt lat="48.59691" lon="-3.14989">
        <ele>161</ele>
        <time>2016-06-06T13:23:40.1Z</time>
      </trkpt>
      <trkpt lat="48.59689" lon="-3.14988">
        <ele>161</ele>
        <time>2016-06-06T13:23:43.1Z</time>
      </trkpt>
      <trkpt lat="48.59687" lon="-3.14987">
        <ele>161</ele>
        <time>2016-06-06T13:23:45.1Z</time>
      </trkpt>
      <trkpt lat="48.59684" lon="-3.14985">
        <ele>161</ele>
        <time>2016-06-06T13:23:47.1Z</time>
      </trkpt>
      <trkpt lat="48.59681" lon="-3.14983">
        <ele>160</ele>
        <time>2016-06-06T13:23:50.1Z</time>
      </trkpt>
      <trkpt lat="48.59678" lon="-3.14982">
        <ele>160</ele>
        <time>2016-06-06T13:23:53.1Z</time>
      </trkpt>
      <trkpt lat="48.59675" lon="-3.14981">
        <ele>160</ele>
        <time>2016-06-06T13:23:55.1Z</time>
      </trkpt>
      <trkpt lat="48.59672" lon="-3.1498">
        <ele>159</ele>
        <time>2016-06-06T13:23:58.1Z</time>
      </trkpt>
      <trkpt lat="48.59669" lon="-3.1498">
        <ele>159</ele>
        <time>2016-06-06T13:24:00.1Z</time>
      </trkpt>
      <trkpt lat="48.59667" lon="-3.14979">
        <ele>159</ele>
        <time>2016-06-06T13:24:02.1Z</time>
      </trkpt>
      <trkpt lat="48.59666" lon="-3.1498">
        <ele>158</ele>
        <time>2016-06-06T13:24:05.1Z</time>
      </trkpt>
      <trkpt lat="48.59664" lon="-3.1498">
        <ele>158</ele>
        <time>2016-06-06T13:24:08.1Z</time>
      </trkpt>
      <trkpt lat="48.59661" lon="-3.14981">
        <ele>158</ele>
        <time>2016-06-06T13:24:10.1Z</time>
      </trkpt>
      <trkpt lat="48.59659" lon="-3.14981">
        <ele>158</ele>
        <time>2016-06-06T13:24:12.1Z</time>
      </trkpt>
      <trkpt lat="48.59658" lon="-3.14982">
        <ele>158</ele>
        <time>2016-06-06T13:24:15.1Z</time>
      </trkpt>
      <trkpt lat="48.59657" lon="-3.14984">
        <ele>158</ele>
        <time>2016-06-06T13:24:18.1Z</time>
      </trkpt>
      <trkpt lat="48.59655" lon="-3.14986">
        <ele>157</ele>
        <time>2016-06-06T13:24:20.1Z</time>
      </trkpt>
      <trkpt lat="48.59652" lon="-3.14986">
        <ele>158</ele>
        <time>2016-06-06T13:24:22.1Z</time>
      </trkpt>
      <trkpt lat="48.59648" lon="-3.14988">
        <ele>158</ele>
        <time>2016-06-06T13:24:25.1Z</time>
      </trkpt>
      <trkpt lat="48.59646" lon="-3.14988">
        <ele>158</ele>
        <time>2016-06-06T13:24:27.1Z</time>
      </trkpt>
      <trkpt lat="48.59644" lon="-3.1499">
        <ele>157</ele>
        <time>2016-06-06T13:24:29.1Z</time>
      </trkpt>
      <trkpt lat="48.59643" lon="-3.1499">
        <ele>157</ele>
        <time>2016-06-06T13:24:31.1Z</time>
      </trkpt>
      <trkpt lat="48.59639" lon="-3.1499">
        <ele>157</ele>
        <time>2016-06-06T13:24:34.1Z</time>
      </trkpt>
      <trkpt lat="48.59636" lon="-3.14988">
        <ele>157</ele>
        <time>2016-06-06T13:24:36.1Z</time>
      </trkpt>
      <trkpt lat="48.59632" lon="-3.14986">
        <ele>156</ele>
        <time>2016-06-06T13:24:39.1Z</time>
      </trkpt>
      <trkpt lat="48.59629" lon="-3.14984">
        <ele>156</ele>
        <time>2016-06-06T13:24:42.1Z</time>
      </trkpt>
      <trkpt lat="48.59627" lon="-3.14982">
        <ele>156</ele>
        <time>2016-06-06T13:24:45.1Z</time>
      </trkpt>
      <trkpt lat="48.59625" lon="-3.14981">
        <ele>156</ele>
        <time>2016-06-06T13:24:47.1Z</time>
      </trkpt>
      <trkpt lat="48.5962" lon="-3.14978">
        <ele>156</ele>
        <time>2016-06-06T13:24:50.1Z</time>
      </trkpt>
      <trkpt lat="48.59617" lon="-3.14975">
        <ele>155</ele>
        <time>2016-06-06T13:24:53.1Z</time>
      </trkpt>
      <trkpt lat="48.59614" lon="-3.14973">
        <ele>155</ele>
        <time>2016-06-06T13:24:56.1Z</time>
      </trkpt>
      <trkpt lat="48.59612" lon="-3.1497">
        <ele>155</ele>
        <time>2016-06-06T13:24:59.1Z</time>
      </trkpt>
      <trkpt lat="48.59611" lon="-3.14968">
        <ele>155</ele>
        <time>2016-06-06T13:25:01.1Z</time>
      </trkpt>
      <trkpt lat="48.5961" lon="-3.14966">
        <ele>155</ele>
        <time>2016-06-06T13:25:04.1Z</time>
      </trkpt>
      <trkpt lat="48.59608" lon="-3.14963">
        <ele>155</ele>
        <time>2016-06-06T13:25:07.1Z</time>
      </trkpt>
      <trkpt lat="48.59607" lon="-3.14963">
        <ele>155</ele>
        <time>2016-06-06T13:25:09.1Z</time>
      </trkpt>
      <trkpt lat="48.59606" lon="-3.14959">
        <ele>155</ele>
        <time>2016-06-06T13:25:12.1Z</time>
      </trkpt>
      <trkpt lat="48.59604" lon="-3.14956">
        <ele>154</ele>
        <time>2016-06-06T13:25:15.1Z</time>
      </trkpt>
      <trkpt lat="48.59602" lon="-3.14955">
        <ele>154</ele>
        <time>2016-06-06T13:25:18.1Z</time>
      </trkpt>
      <trkpt lat="48.59599" lon="-3.14953">
        <ele>154</ele>
        <time>2016-06-06T13:25:21.1Z</time>
      </trkpt>
      <trkpt lat="48.59597" lon="-3.14952">
        <ele>154</ele>
        <time>2016-06-06T13:25:24.1Z</time>
      </trkpt>
      <trkpt lat="48.59596" lon="-3.14951">
        <ele>153</ele>
        <time>2016-06-06T13:25:26.1Z</time>
      </trkpt>
      <trkpt lat="48.59593" lon="-3.14949">
        <ele>153</ele>
        <time>2016-06-06T13:25:29.1Z</time>
      </trkpt>
      <trkpt lat="48.59592" lon="-3.14947">
        <ele>153</ele>
        <time>2016-06-06T13:25:31.1Z</time>
      </trkpt>
      <trkpt lat="48.59591" lon="-3.14945">
        <ele>152</ele>
        <time>2016-06-06T13:25:33.1Z</time>
      </trkpt>
      <trkpt lat="48.5959" lon="-3.14945">
        <ele>152</ele>
        <time>2016-06-06T13:25:35.1Z</time>
      </trkpt>
      <trkpt lat="48.59589" lon="-3.14943">
        <ele>151</ele>
        <time>2016-06-06T13:25:38.1Z</time>
      </trkpt>
      <trkpt lat="48.59585" lon="-3.14939">
        <ele>151</ele>
        <time>2016-06-06T13:25:41.1Z</time>
      </trkpt>
      <trkpt lat="48.59582" lon="-3.14936">
        <ele>151</ele>
        <time>2016-06-06T13:25:44.1Z</time>
      </trkpt>
      <trkpt lat="48.5958" lon="-3.14934">
        <ele>151</ele>
        <time>2016-06-06T13:25:46.1Z</time>
      </trkpt>
      <trkpt lat="48.59578" lon="-3.14932">
        <ele>151</ele>
        <time>2016-06-06T13:25:49.1Z</time>
      </trkpt>
      <trkpt lat="48.59576" lon="-3.1493">
        <ele>150</ele>
        <time>2016-06-06T13:25:52.1Z</time>
      </trkpt>
      <trkpt lat="48.59574" lon="-3.14926">
        <ele>150</ele>
        <time>2016-06-06T13:25:54.1Z</time>
      </trkpt>
      <trkpt lat="48.5957" lon="-3.14922">
        <ele>149</ele>
        <time>2016-06-06T13:25:57.1Z</time>
      </trkpt>
      <trkpt lat="48.59567" lon="-3.14919">
        <ele>149</ele>
        <time>2016-06-06T13:26:00.1Z</time>
      </trkpt>
      <trkpt lat="48.59565" lon="-3.14918">
        <ele>148</ele>
        <time>2016-06-06T13:26:02.1Z</time>
      </trkpt>
      <trkpt lat="48.59562" lon="-3.14917">
        <ele>147</ele>
        <time>2016-06-06T13:26:05.1Z</time>
      </trkpt>
      <trkpt lat="48.5956" lon="-3.14915">
        <ele>147</ele>
        <time>2016-06-06T13:26:07.1Z</time>
      </trkpt>
      <trkpt lat="48.59556" lon="-3.14912">
        <ele>146</ele>
        <time>2016-06-06T13:26:10.1Z</time>
      </trkpt>
      <trkpt lat="48.59554" lon="-3.14911">
        <ele>146</ele>
        <time>2016-06-06T13:26:12.1Z</time>
      </trkpt>
      <trkpt lat="48.59552" lon="-3.1491">
        <ele>146</ele>
        <time>2016-06-06T13:26:14.1Z</time>
      </trkpt>
      <trkpt lat="48.59548" lon="-3.14906">
        <ele>146</ele>
        <time>2016-06-06T13:26:17.1Z</time>
      </trkpt>
      <trkpt lat="48.59545" lon="-3.14904">
        <ele>146</ele>
        <time>2016-06-06T13:26:20.1Z</time>
      </trkpt>
      <trkpt lat="48.59543" lon="-3.14903">
        <ele>145</ele>
        <time>2016-06-06T13:26:22.1Z</time>
      </trkpt>
      <trkpt lat="48.59541" lon="-3.14902">
        <ele>145</ele>
        <time>2016-06-06T13:26:24.1Z</time>
      </trkpt>
      <trkpt lat="48.59538" lon="-3.14899">
        <ele>144</ele>
        <time>2016-06-06T13:26:27.1Z</time>
      </trkpt>
      <trkpt lat="48.59535" lon="-3.14897">
        <ele>144</ele>
        <time>2016-06-06T13:26:30.1Z</time>
      </trkpt>
      <trkpt lat="48.59531" lon="-3.14895">
        <ele>144</ele>
        <time>2016-06-06T13:26:33.1Z</time>
      </trkpt>
      <trkpt lat="48.59527" lon="-3.14892">
        <ele>144</ele>
        <time>2016-06-06T13:26:36.1Z</time>
      </trkpt>
      <trkpt lat="48.59525" lon="-3.1489">
        <ele>143</ele>
        <time>2016-06-06T13:26:38.1Z</time>
      </trkpt>
      <trkpt lat="48.59522" lon="-3.14888">
        <ele>143</ele>
        <time>2016-06-06T13:26:41.1Z</time>
      </trkpt>
      <trkpt lat="48.59521" lon="-3.14887">
        <ele>143</ele>
        <time>2016-06-06T13:26:43.1Z</time>
      </trkpt>
      <trkpt lat="48.59518" lon="-3.14884">
        <ele>142</ele>
        <time>2016-06-06T13:26:46.1Z</time>
      </trkpt>
      <trkpt lat="48.59517" lon="-3.14883">
        <ele>142</ele>
        <time>2016-06-06T13:26:48.1Z</time>
      </trkpt>
      <trkpt lat="48.59514" lon="-3.14882">
        <ele>141</ele>
        <time>2016-06-06T13:26:51.1Z</time>
      </trkpt>
      <trkpt lat="48.59511" lon="-3.14882">
        <ele>141</ele>
        <time>2016-06-06T13:26:54.1Z</time>
      </trkpt>
      <trkpt lat="48.5951" lon="-3.14882">
        <ele>141</ele>
        <time>2016-06-06T13:26:56.1Z</time>
      </trkpt>
      <trkpt lat="48.59507" lon="-3.14883">
        <ele>141</ele>
        <time>2016-06-06T13:26:59.1Z</time>
      </trkpt>
      <trkpt lat="48.59504" lon="-3.14883">
        <ele>141</ele>
        <time>2016-06-06T13:27:02.1Z</time>
      </trkpt>
      <trkpt lat="48.59502" lon="-3.14884">
        <ele>140</ele>
        <time>2016-06-06T13:27:04.1Z</time>
      </trkpt>
      <trkpt lat="48.59499" lon="-3.14885">
        <ele>140</ele>
        <time>2016-06-06T13:27:07.1Z</time>
      </trkpt>
      <trkpt lat="48.59495" lon="-3.14887">
        <ele>139</ele>
        <time>2016-06-06T13:27:10.1Z</time>
      </trkpt>
      <trkpt lat="48.59492" lon="-3.14888">
        <ele>139</ele>
        <time>2016-06-06T13:27:12.1Z</time>
      </trkpt>
      <trkpt lat="48.5949" lon="-3.1489">
        <ele>139</ele>
        <time>2016-06-06T13:27:14.1Z</time>
      </trkpt>
      <trkpt lat="48.59486" lon="-3.14889">
        <ele>138</ele>
        <time>2016-06-06T13:27:17.1Z</time>
      </trkpt>
      <trkpt lat="48.59484" lon="-3.14891">
        <ele>138</ele>
        <time>2016-06-06T13:27:20.1Z</time>
      </trkpt>
      <trkpt lat="48.59482" lon="-3.14891">
        <ele>137</ele>
        <time>2016-06-06T13:27:22.1Z</time>
      </trkpt>
      <trkpt lat="48.5948" lon="-3.1489">
        <ele>137</ele>
        <time>2016-06-06T13:27:24.1Z</time>
      </trkpt>
      <trkpt lat="48.59477" lon="-3.14891">
        <ele>137</ele>
        <time>2016-06-06T13:27:26.1Z</time>
      </trkpt>
      <trkpt lat="48.59473" lon="-3.14892">
        <ele>137</ele>
        <time>2016-06-06T13:27:29.1Z</time>
      </trkpt>
      <trkpt lat="48.59471" lon="-3.14893">
        <ele>136</ele>
        <time>2016-06-06T13:27:32.1Z</time>
      </trkpt>
      <trkpt lat="48.59469" lon="-3.14892">
        <ele>136</ele>
        <time>2016-06-06T13:27:35.1Z</time>
      </trkpt>
      <trkpt lat="48.59467" lon="-3.14894">
        <ele>135</ele>
        <time>2016-06-06T13:27:38.1Z</time>
      </trkpt>
      <trkpt lat="48.59464" lon="-3.14895">
        <ele>135</ele>
        <time>2016-06-06T13:27:40.1Z</time>
      </trkpt>
      <trkpt lat="48.59462" lon="-3.14897">
        <ele>135</ele>
        <time>2016-06-06T13:27:43.1Z</time>
      </trkpt>
      <trkpt lat="48.59461" lon="-3.14899">
        <ele>134</ele>
        <time>2016-06-06T13:27:46.1Z</time>
      </trkpt>
      <trkpt lat="48.59458" lon="-3.14899">
        <ele>134</ele>
        <time>2016-06-06T13:27:49.1Z</time>
      </trkpt>
      <trkpt lat="48.59455" lon="-3.14899">
        <ele>133</ele>
        <time>2016-06-06T13:27:52.1Z</time>
      </trkpt>
      <trkpt lat="48.59454" lon="-3.14899">
        <ele>133</ele>
        <time>2016-06-06T13:27:54.1Z</time>
      </trkpt>
      <trkpt lat="48.59453" lon="-3.14902">
        <ele>133</ele>
        <time>2016-06-06T13:27:57.1Z</time>
      </trkpt>
      <trkpt lat="48.59451" lon="-3.14904">
        <ele>133</ele>
        <time>2016-06-06T13:27:59.1Z</time>
      </trkpt>
      <trkpt lat="48.59449" lon="-3.14905">
        <ele>132</ele>
        <time>2016-06-06T13:28:02.1Z</time>
      </trkpt>
      <trkpt lat="48.59448" lon="-3.14905">
        <ele>132</ele>
        <time>2016-06-06T13:28:05.1Z</time>
      </trkpt>
      <trkpt lat="48.59447" lon="-3.14905">
        <ele>131</ele>
        <time>2016-06-06T13:28:07.1Z</time>
      </trkpt>
      <trkpt lat="48.59444" lon="-3.14905">
        <ele>131</ele>
        <time>2016-06-06T13:28:10.1Z</time>
      </trkpt>
      <trkpt lat="48.59443" lon="-3.14905">
        <ele>130</ele>
        <time>2016-06-06T13:28:12.1Z</time>
      </trkpt>
      <trkpt lat="48.59441" lon="-3.14906">
        <ele>130</ele>
        <time>2016-06-06T13:28:14.1Z</time>
      </trkpt>
      <trkpt lat="48.59439" lon="-3.14904">
        <ele>129</ele>
        <time>2016-06-06T13:28:17.1Z</time>
      </trkpt>
      <trkpt lat="48.59438" lon="-3.14904">
        <ele>129</ele>
        <time>2016-06-06T13:28:19.1Z</time>
      </trkpt>
      <trkpt lat="48.59436" lon="-3.14903">
        <ele>129</ele>
        <time>2016-06-06T13:28:22.1Z</time>
      </trkpt>
      <trkpt lat="48.59433" lon="-3.14903">
        <ele>128</ele>
        <time>2016-06-06T13:28:25.1Z</time>
      </trkpt>
      <trkpt lat="48.59431" lon="-3.14902">
        <ele>128</ele>
        <time>2016-06-06T13:28:28.1Z</time>
      </trkpt>
      <trkpt lat="48.59428" lon="-3.14901">
        <ele>128</ele>
        <time>2016-06-06T13:28:30.1Z</time>
      </trkpt>
      <trkpt lat="48.59425" lon="-3.149">
        <ele>127</ele>
        <time>2016-06-06T13:28:32.1Z</time>
      </trkpt>
      <trkpt lat="48.59423" lon="-3.14899">
        <ele>127</ele>
        <time>2016-06-06T13:28:34.1Z</time>
      </trkpt>
      <trkpt lat="48.59421" lon="-3.14898">
        <ele>127</ele>
        <time>2016-06-06T13:28:36.1Z</time>
      </trkpt>
      <trkpt lat="48.59418" lon="-3.14899">
        <ele>127</ele>
        <time>2016-06-06T13:28:39.1Z</time>
      </trkpt>
      <trkpt lat="48.59415" lon="-3.14898">
        <ele>126</ele>
        <time>2016-06-06T13:28:42.1Z</time>
      </trkpt>
      <trkpt lat="48.59414" lon="-3.14898">
        <ele>127</ele>
        <time>2016-06-06T13:28:44.1Z</time>
      </trkpt>
      <trkpt lat="48.59412" lon="-3.14898">
        <ele>127</ele>
        <time>2016-06-06T13:28:47.1Z</time>
      </trkpt>
      <trkpt lat="48.5941" lon="-3.14897">
        <ele>127</ele>
        <time>2016-06-06T13:28:50.1Z</time>
      </trkpt>
      <trkpt lat="48.59409" lon="-3.14897">
        <ele>126</ele>
        <time>2016-06-06T13:28:52.1Z</time>
      </trkpt>
      <trkpt lat="48.59408" lon="-3.14896">
        <ele>126</ele>
        <time>2016-06-06T13:28:54.1Z</time>
      </trkpt>
      <trkpt lat="48.59407" lon="-3.14896">
        <ele>126</ele>
        <time>2016-06-06T13:28:57.1Z</time>
      </trkpt>
      <trkpt lat="48.59405" lon="-3.14897">
        <ele>126</ele>
        <time>2016-06-06T13:29:00.1Z</time>
      </trkpt>
      <trkpt lat="48.59404" lon="-3.14896">
        <ele>126</ele>
        <time>2016-06-06T13:29:02.1Z</time>
      </trkpt>
      <trkpt lat="48.59402" lon="-3.14896">
        <ele>126</ele>
        <time>2016-06-06T13:29:05.1Z</time>
      </trkpt>
      <trkpt lat="48.59401" lon="-3.14895">
        <ele>126</ele>
        <time>2016-06-06T13:29:07.1Z</time>
      </trkpt>
      <trkpt lat="48.59399" lon="-3.14895">
        <ele>126</ele>
        <time>2016-06-06T13:29:09.1Z</time>
      </trkpt>
      <trkpt lat="48.59397" lon="-3.14896">
        <ele>126</ele>
        <time>2016-06-06T13:29:11.1Z</time>
      </trkpt>
      <trkpt lat="48.59396" lon="-3.14896">
        <ele>126</ele>
        <time>2016-06-06T13:29:14.1Z</time>
      </trkpt>
      <trkpt lat="48.59396" lon="-3.14896">
        <ele>125</ele>
        <time>2016-06-06T13:29:17.1Z</time>
      </trkpt>
      <trkpt lat="48.59395" lon="-3.14896">
        <ele>126</ele>
        <time>2016-06-06T13:29:21.1Z</time>
      </trkpt>
      <trkpt lat="48.59394" lon="-3.14895">
        <ele>126</ele>
        <time>2016-06-06T13:29:24.1Z</time>
      </trkpt>
      <trkpt lat="48.59394" lon="-3.14894">
        <ele>125</ele>
        <time>2016-06-06T13:29:27.1Z</time>
      </trkpt>
      <trkpt lat="48.59395" lon="-3.14895">
        <ele>126</ele>
        <time>2016-06-06T13:29:30.1Z</time>
      </trkpt>
      <trkpt lat="48.59396" lon="-3.14896">
        <ele>126</ele>
        <time>2016-06-06T13:29:33.1Z</time>
      </trkpt>
      <trkpt lat="48.59396" lon="-3.14896">
        <ele>125</ele>
        <time>2016-06-06T13:29:36.1Z</time>
      </trkpt>
      <trkpt lat="48.59396" lon="-3.14897">
        <ele>125</ele>
        <time>2016-06-06T13:29:38.1Z</time>
      </trkpt>
      <trkpt lat="48.59396" lon="-3.14897">
        <ele>125</ele>
        <time>2016-06-06T13:29:41.1Z</time>
      </trkpt>
      <trkpt lat="48.59396" lon="-3.14897">
        <ele>125</ele>
        <time>2016-06-06T13:29:43.1Z</time>
      </trkpt>
      <trkpt lat="48.59396" lon="-3.14898">
        <ele>126</ele>
        <time>2016-06-06T13:29:46.1Z</time>
      </trkpt>
      <trkpt lat="48.59396" lon="-3.14899">
        <ele>126</ele>
        <time>2016-06-06T13:29:48.1Z</time>
      </trkpt>
      <trkpt lat="48.59398" lon="-3.14902">
        <ele>125</ele>
        <time>2016-06-06T13:29:51.1Z</time>
      </trkpt>
      <trkpt lat="48.59398" lon="-3.14902">
        <ele>125</ele>
        <time>2016-06-06T13:29:53.1Z</time>
      </trkpt>
      <trkpt lat="48.59398" lon="-3.14902">
        <ele>125</ele>
        <time>2016-06-06T13:29:55.1Z</time>
      </trkpt>
      <trkpt lat="48.59398" lon="-3.14903">
        <ele>125</ele>
        <time>2016-06-06T13:29:58.1Z</time>
      </trkpt>
      <trkpt lat="48.59399" lon="-3.14903">
        <ele>125</ele>
        <time>2016-06-06T13:30:01.1Z</time>
      </trkpt>
      <trkpt lat="48.59398" lon="-3.14903">
        <ele>125</ele>
        <time>2016-06-06T13:30:04.1Z</time>
      </trkpt>
      <trkpt lat="48.59397" lon="-3.14903">
        <ele>125</ele>
        <time>2016-06-06T13:30:06.1Z</time>
      </trkpt>
      <trkpt lat="48.59397" lon="-3.14903">
        <ele>125</ele>
        <time>2016-06-06T13:30:09.1Z</time>
      </trkpt>
      <trkpt lat="48.59397" lon="-3.14903">
        <ele>125</ele>
        <time>2016-06-06T13:30:11.1Z</time>
      </trkpt>
      <trkpt lat="48.59396" lon="-3.14903">
        <ele>125</ele>
        <time>2016-06-06T13:30:13.1Z</time>
      </trkpt>
      <trkpt lat="48.59396" lon="-3.14903">
        <ele>125</ele>
        <time>2016-06-06T13:30:16.1Z</time>
      </trkpt>
      <trkpt lat="48.59395" lon="-3.14903">
        <ele>126</ele>
        <time>2016-06-06T13:30:19.1Z</time>
      </trkpt>
      <trkpt lat="48.59395" lon="-3.14902">
        <ele>126</ele>
        <time>2016-06-06T13:30:22.1Z</time>
      </trkpt>
      <trkpt lat="48.59396" lon="-3.14902">
        <ele>125</ele>
        <time>2016-06-06T13:30:25.1Z</time>
      </trkpt>
      <trkpt lat="48.59396" lon="-3.14902">
        <ele>125</ele>
        <time>2016-06-06T13:30:27.1Z</time>
      </trkpt>
      <trkpt lat="48.59399" lon="-3.14902">
        <ele>125</ele>
        <time>2016-06-06T13:30:30.1Z</time>
      </trkpt>
      <trkpt lat="48.59402" lon="-3.14902">
        <ele>125</ele>
        <time>2016-06-06T13:30:33.1Z</time>
      </trkpt>
      <trkpt lat="48.59403" lon="-3.14902">
        <ele>126</ele>
        <time>2016-06-06T13:30:35.1Z</time>
      </trkpt>
      <trkpt lat="48.59403" lon="-3.14903">
        <ele>125</ele>
        <time>2016-06-06T13:30:38.1Z</time>
      </trkpt>
      <trkpt lat="48.59403" lon="-3.14903">
        <ele>126</ele>
        <time>2016-06-06T13:30:40.1Z</time>
      </trkpt>
      <trkpt lat="48.59402" lon="-3.14903">
        <ele>125</ele>
        <time>2016-06-06T13:30:42.1Z</time>
      </trkpt>
      <trkpt lat="48.59403" lon="-3.14904">
        <ele>125</ele>
        <time>2016-06-06T13:30:45.1Z</time>
      </trkpt>
      <trkpt lat="48.59403" lon="-3.14904">
        <ele>126</ele>
        <time>2016-06-06T13:30:48.1Z</time>
      </trkpt>
      <trkpt lat="48.59404" lon="-3.14904">
        <ele>126</ele>
        <time>2016-06-06T13:30:50.1Z</time>
      </trkpt>
      <trkpt lat="48.59405" lon="-3.14905">
        <ele>126</ele>
        <time>2016-06-06T13:30:53.1Z</time>
      </trkpt>
      <trkpt lat="48.59406" lon="-3.14906">
        <ele>126</ele>
        <time>2016-06-06T13:30:55.1Z</time>
      </trkpt>
      <trkpt lat="48.59406" lon="-3.14906">
        <ele>125</ele>
        <time>2016-06-06T13:30:57.1Z</time>
      </trkpt>
      <trkpt lat="48.59407" lon="-3.14906">
        <ele>126</ele>
        <time>2016-06-06T13:31:00.1Z</time>
      </trkpt>
      <trkpt lat="48.59407" lon="-3.14906">
        <ele>125</ele>
        <time>2016-06-06T13:31:02.1Z</time>
      </trkpt>
      <trkpt lat="48.59409" lon="-3.14907">
        <ele>126</ele>
        <time>2016-06-06T13:31:05.1Z</time>
      </trkpt>
      <trkpt lat="48.59409" lon="-3.14906">
        <ele>126</ele>
        <time>2016-06-06T13:31:07.1Z</time>
      </trkpt>
      <trkpt lat="48.59409" lon="-3.14906">
        <ele>126</ele>
        <time>2016-06-06T13:31:10.1Z</time>
      </trkpt>
      <trkpt lat="48.59408" lon="-3.14907">
        <ele>126</ele>
        <time>2016-06-06T13:31:13.1Z</time>
      </trkpt>
      <trkpt lat="48.59408" lon="-3.14906">
        <ele>126</ele>
        <time>2016-06-06T13:31:15.1Z</time>
      </trkpt>
      <trkpt lat="48.59408" lon="-3.14906">
        <ele>126</ele>
        <time>2016-06-06T13:31:17.1Z</time>
      </trkpt>
      <trkpt lat="48.59407" lon="-3.14907">
        <ele>125</ele>
        <time>2016-06-06T13:31:20.1Z</time>
      </trkpt>
      <trkpt lat="48.59405" lon="-3.14907">
        <ele>125</ele>
        <time>2016-06-06T13:31:22.1Z</time>
      </trkpt>
      <trkpt lat="48.59405" lon="-3.14906">
        <ele>126</ele>
        <time>2016-06-06T13:31:25.1Z</time>
      </trkpt>
      <trkpt lat="48.59406" lon="-3.14906">
        <ele>126</ele>
        <time>2016-06-06T13:31:28.1Z</time>
      </trkpt>
      <trkpt lat="48.59407" lon="-3.14906">
        <ele>126</ele>
        <time>2016-06-06T13:31:30.1Z</time>
      </trkpt>
      <trkpt lat="48.59407" lon="-3.14906">
        <ele>126</ele>
        <time>2016-06-06T13:31:33.1Z</time>
      </trkpt>
      <trkpt lat="48.59407" lon="-3.14907">
        <ele>125</ele>
        <time>2016-06-06T13:31:36.1Z</time>
      </trkpt>
      <trkpt lat="48.59406" lon="-3.14907">
        <ele>126</ele>
        <time>2016-06-06T13:31:38.1Z</time>
      </trkpt>
      <trkpt lat="48.59406" lon="-3.14907">
        <ele>126</ele>
        <time>2016-06-06T13:31:41.1Z</time>
      </trkpt>
      <trkpt lat="48.59406" lon="-3.14908">
        <ele>126</ele>
        <time>2016-06-06T13:31:43.1Z</time>
      </trkpt>
      <trkpt lat="48.59406" lon="-3.14908">
        <ele>126</ele>
        <time>2016-06-06T13:31:45.1Z</time>
      </trkpt>
      <trkpt lat="48.59406" lon="-3.14908">
        <ele>126</ele>
        <time>2016-06-06T13:31:47.1Z</time>
      </trkpt>
      <trkpt lat="48.59407" lon="-3.14909">
        <ele>125</ele>
        <time>2016-06-06T13:31:50.1Z</time>
      </trkpt>
      <trkpt lat="48.59407" lon="-3.14909">
        <ele>125</ele>
        <time>2016-06-06T13:31:52.1Z</time>
      </trkpt>
      <trkpt lat="48.59407" lon="-3.14909">
        <ele>125</ele>
        <time>2016-06-06T13:31:54.1Z</time>
      </trkpt>
      <trkpt lat="48.59405" lon="-3.14909">
        <ele>125</ele>
        <time>2016-06-06T13:31:57.1Z</time>
      </trkpt>
      <trkpt lat="48.59404" lon="-3.14908">
        <ele>125</ele>
        <time>2016-06-06T13:31:59.1Z</time>
      </trkpt>
      <trkpt lat="48.59404" lon="-3.14908">
        <ele>125</ele>
        <time>2016-06-06T13:32:02.1Z</time>
      </trkpt>
      <trkpt lat="48.59403" lon="-3.14908">
        <ele>125</ele>
        <time>2016-06-06T13:32:04.1Z</time>
      </trkpt>
      <trkpt lat="48.59401" lon="-3.14907">
        <ele>125</ele>
        <time>2016-06-06T13:32:07.1Z</time>
      </trkpt>
      <trkpt lat="48.594" lon="-3.14907">
        <ele>125</ele>
        <time>2016-06-06T13:32:10.1Z</time>
      </trkpt>
      <trkpt lat="48.59399" lon="-3.14906">
        <ele>125</ele>
        <time>2016-06-06T13:32:12.1Z</time>
      </trkpt>
      <trkpt lat="48.59397" lon="-3.14905">
        <ele>125</ele>
        <time>2016-06-06T13:32:15.1Z</time>
      </trkpt>
      <trkpt lat="48.59397" lon="-3.14905">
        <ele>125</ele>
        <time>2016-06-06T13:32:17.1Z</time>
      </trkpt>
      <trkpt lat="48.59396" lon="-3.14903">
        <ele>125</ele>
        <time>2016-06-06T13:32:20.1Z</time>
      </trkpt>
      <trkpt lat="48.59395" lon="-3.14901">
        <ele>125</ele>
        <time>2016-06-06T13:32:23.1Z</time>
      </trkpt>
      <trkpt lat="48.59394" lon="-3.149">
        <ele>125</ele>
        <time>2016-06-06T13:32:25.1Z</time>
      </trkpt>
      <trkpt lat="48.59392" lon="-3.14899">
        <ele>125</ele>
        <time>2016-06-06T13:32:27.1Z</time>
      </trkpt>
      <trkpt lat="48.5939" lon="-3.14897">
        <ele>125</ele>
        <time>2016-06-06T13:32:30.1Z</time>
      </trkpt>
      <trkpt lat="48.59389" lon="-3.14896">
        <ele>125</ele>
        <time>2016-06-06T13:32:33.1Z</time>
      </trkpt>
      <trkpt lat="48.59388" lon="-3.14894">
        <ele>125</ele>
        <time>2016-06-06T13:32:35.1Z</time>
      </trkpt>
      <trkpt lat="48.59386" lon="-3.14892">
        <ele>125</ele>
        <time>2016-06-06T13:32:37.1Z</time>
      </trkpt>
      <trkpt lat="48.59385" lon="-3.1489">
        <ele>125</ele>
        <time>2016-06-06T13:32:39.1Z</time>
      </trkpt>
      <trkpt lat="48.59381" lon="-3.14888">
        <ele>125</ele>
        <time>2016-06-06T13:32:42.1Z</time>
      </trkpt>
      <trkpt lat="48.59378" lon="-3.14885">
        <ele>126</ele>
        <time>2016-06-06T13:32:45.1Z</time>
      </trkpt>
      <trkpt lat="48.59375" lon="-3.14883">
        <ele>126</ele>
        <time>2016-06-06T13:32:47.1Z</time>
      </trkpt>
      <trkpt lat="48.59372" lon="-3.14881">
        <ele>127</ele>
        <time>2016-06-06T13:32:50.1Z</time>
      </trkpt>
      <trkpt lat="48.5937" lon="-3.1488">
        <ele>127</ele>
        <time>2016-06-06T13:32:52.1Z</time>
      </trkpt>
      <trkpt lat="48.59367" lon="-3.14879">
        <ele>126</ele>
        <time>2016-06-06T13:32:55.1Z</time>
      </trkpt>
      <trkpt lat="48.59365" lon="-3.14877">
        <ele>126</ele>
        <time>2016-06-06T13:32:58.1Z</time>
      </trkpt>
      <trkpt lat="48.59362" lon="-3.14874">
        <ele>126</ele>
        <time>2016-06-06T13:33:01.1Z</time>
      </trkpt>
      <trkpt lat="48.5936" lon="-3.14873">
        <ele>126</ele>
        <time>2016-06-06T13:33:03.1Z</time>
      </trkpt>
      <trkpt lat="48.59357" lon="-3.14872">
        <ele>126</ele>
        <time>2016-06-06T13:33:05.1Z</time>
      </trkpt>
      <trkpt lat="48.59354" lon="-3.1487">
        <ele>125</ele>
        <time>2016-06-06T13:33:08.1Z</time>
      </trkpt>
      <trkpt lat="48.59352" lon="-3.14869">
        <ele>125</ele>
        <time>2016-06-06T13:33:11.1Z</time>
      </trkpt>
      <trkpt lat="48.5935" lon="-3.14867">
        <ele>126</ele>
        <time>2016-06-06T13:33:13.1Z</time>
      </trkpt>
      <trkpt lat="48.59348" lon="-3.14865">
        <ele>126</ele>
        <time>2016-06-06T13:33:16.1Z</time>
      </trkpt>
      <trkpt lat="48.59345" lon="-3.14864">
        <ele>125</ele>
        <time>2016-06-06T13:33:19.1Z</time>
      </trkpt>
      <trkpt lat="48.59341" lon="-3.14862">
        <ele>125</ele>
        <time>2016-06-06T13:33:22.1Z</time>
      </trkpt>
      <trkpt lat="48.59337" lon="-3.14861">
        <ele>124</ele>
        <time>2016-06-06T13:33:25.1Z</time>
      </trkpt>
      <trkpt lat="48.59336" lon="-3.1486">
        <ele>124</ele>
        <time>2016-06-06T13:33:27.1Z</time>
      </trkpt>
      <trkpt lat="48.59336" lon="-3.14859">
        <ele>124</ele>
        <time>2016-06-06T13:33:29.1Z</time>
      </trkpt>
      <trkpt lat="48.59335" lon="-3.14858">
        <ele>124</ele>
        <time>2016-06-06T13:33:32.1Z</time>
      </trkpt>
      <trkpt lat="48.5933" lon="-3.14855">
        <ele>124</ele>
        <time>2016-06-06T13:33:35.1Z</time>
      </trkpt>
      <trkpt lat="48.59327" lon="-3.14854">
        <ele>124</ele>
        <time>2016-06-06T13:33:38.1Z</time>
      </trkpt>
      <trkpt lat="48.59324" lon="-3.1485">
        <ele>124</ele>
        <time>2016-06-06T13:33:41.1Z</time>
      </trkpt>
      <trkpt lat="48.59319" lon="-3.14848">
        <ele>124</ele>
        <time>2016-06-06T13:33:44.1Z</time>
      </trkpt>
      <trkpt lat="48.59316" lon="-3.14847">
        <ele>123</ele>
        <time>2016-06-06T13:33:46.1Z</time>
      </trkpt>
      <trkpt lat="48.59313" lon="-3.14845">
        <ele>123</ele>
        <time>2016-06-06T13:33:49.1Z</time>
      </trkpt>
      <trkpt lat="48.59309" lon="-3.14844">
        <ele>123</ele>
        <time>2016-06-06T13:33:52.1Z</time>
      </trkpt>
      <trkpt lat="48.59306" lon="-3.14843">
        <ele>123</ele>
        <time>2016-06-06T13:33:54.1Z</time>
      </trkpt>
      <trkpt lat="48.59303" lon="-3.14841">
        <ele>123</ele>
        <time>2016-06-06T13:33:57.1Z</time>
      </trkpt>
      <trkpt lat="48.593" lon="-3.1484">
        <ele>123</ele>
        <time>2016-06-06T13:34:00.1Z</time>
      </trkpt>
      <trkpt lat="48.59298" lon="-3.14839">
        <ele>123</ele>
        <time>2016-06-06T13:34:03.1Z</time>
      </trkpt>
      <trkpt lat="48.59294" lon="-3.14838">
        <ele>123</ele>
        <time>2016-06-06T13:34:06.1Z</time>
      </trkpt>
      <trkpt lat="48.59292" lon="-3.14837">
        <ele>123</ele>
        <time>2016-06-06T13:34:09.1Z</time>
      </trkpt>
      <trkpt lat="48.59288" lon="-3.14836">
        <ele>122</ele>
        <time>2016-06-06T13:34:12.1Z</time>
      </trkpt>
      <trkpt lat="48.59285" lon="-3.14835">
        <ele>122</ele>
        <time>2016-06-06T13:34:14.1Z</time>
      </trkpt>
      <trkpt lat="48.59282" lon="-3.14833">
        <ele>122</ele>
        <time>2016-06-06T13:34:17.1Z</time>
      </trkpt>
      <trkpt lat="48.5928" lon="-3.14833">
        <ele>123</ele>
        <time>2016-06-06T13:34:19.1Z</time>
      </trkpt>
      <trkpt lat="48.59277" lon="-3.14831">
        <ele>122</ele>
        <time>2016-06-06T13:34:22.1Z</time>
      </trkpt>
      <trkpt lat="48.59275" lon="-3.14831">
        <ele>122</ele>
        <time>2016-06-06T13:34:24.1Z</time>
      </trkpt>
      <trkpt lat="48.59273" lon="-3.1483">
        <ele>122</ele>
        <time>2016-06-06T13:34:26.1Z</time>
      </trkpt>
      <trkpt lat="48.59271" lon="-3.14829">
        <ele>122</ele>
        <time>2016-06-06T13:34:28.1Z</time>
      </trkpt>
      <trkpt lat="48.59268" lon="-3.14828">
        <ele>122</ele>
        <time>2016-06-06T13:34:31.1Z</time>
      </trkpt>
      <trkpt lat="48.59266" lon="-3.14827">
        <ele>122</ele>
        <time>2016-06-06T13:34:33.1Z</time>
      </trkpt>
      <trkpt lat="48.59262" lon="-3.14826">
        <ele>122</ele>
        <time>2016-06-06T13:34:36.1Z</time>
      </trkpt>
      <trkpt lat="48.5926" lon="-3.14826">
        <ele>122</ele>
        <time>2016-06-06T13:34:38.1Z</time>
      </trkpt>
      <trkpt lat="48.59258" lon="-3.14825">
        <ele>122</ele>
        <time>2016-06-06T13:34:40.1Z</time>
      </trkpt>
      <trkpt lat="48.59256" lon="-3.14825">
        <ele>122</ele>
        <time>2016-06-06T13:34:42.1Z</time>
      </trkpt>
      <trkpt lat="48.59252" lon="-3.14824">
        <ele>123</ele>
        <time>2016-06-06T13:34:45.1Z</time>
      </trkpt>
      <trkpt lat="48.5925" lon="-3.14824">
        <ele>123</ele>
        <time>2016-06-06T13:34:48.1Z</time>
      </trkpt>
      <trkpt lat="48.59248" lon="-3.14824">
        <ele>123</ele>
        <time>2016-06-06T13:34:50.1Z</time>
      </trkpt>
      <trkpt lat="48.59245" lon="-3.14824">
        <ele>123</ele>
        <time>2016-06-06T13:34:53.1Z</time>
      </trkpt>
      <trkpt lat="48.59241" lon="-3.14824">
        <ele>123</ele>
        <time>2016-06-06T13:34:56.1Z</time>
      </trkpt>
      <trkpt lat="48.59239" lon="-3.14823">
        <ele>123</ele>
        <time>2016-06-06T13:34:58.1Z</time>
      </trkpt>
      <trkpt lat="48.59235" lon="-3.14822">
        <ele>123</ele>
        <time>2016-06-06T13:35:01.1Z</time>
      </trkpt>
      <trkpt lat="48.59231" lon="-3.14821">
        <ele>122</ele>
        <time>2016-06-06T13:35:04.1Z</time>
      </trkpt>
      <trkpt lat="48.59228" lon="-3.14821">
        <ele>122</ele>
        <time>2016-06-06T13:35:06.1Z</time>
      </trkpt>
      <trkpt lat="48.59224" lon="-3.1482">
        <ele>122</ele>
        <time>2016-06-06T13:35:09.1Z</time>
      </trkpt>
      <trkpt lat="48.59221" lon="-3.1482">
        <ele>122</ele>
        <time>2016-06-06T13:35:11.1Z</time>
      </trkpt>
      <trkpt lat="48.59219" lon="-3.1482">
        <ele>123</ele>
        <time>2016-06-06T13:35:13.1Z</time>
      </trkpt>
      <trkpt lat="48.59216" lon="-3.14819">
        <ele>123</ele>
        <time>2016-06-06T13:35:16.1Z</time>
      </trkpt>
      <trkpt lat="48.59213" lon="-3.14819">
        <ele>123</ele>
        <time>2016-06-06T13:35:18.1Z</time>
      </trkpt>
      <trkpt lat="48.59209" lon="-3.14818">
        <ele>123</ele>
        <time>2016-06-06T13:35:21.1Z</time>
      </trkpt>
      <trkpt lat="48.59206" lon="-3.14818">
        <ele>123</ele>
        <time>2016-06-06T13:35:23.1Z</time>
      </trkpt>
      <trkpt lat="48.59204" lon="-3.14818">
        <ele>123</ele>
        <time>2016-06-06T13:35:26.1Z</time>
      </trkpt>
      <trkpt lat="48.59201" lon="-3.14818">
        <ele>123</ele>
        <time>2016-06-06T13:35:28.1Z</time>
      </trkpt>
      <trkpt lat="48.59199" lon="-3.14818">
        <ele>123</ele>
        <time>2016-06-06T13:35:30.1Z</time>
      </trkpt>
      <trkpt lat="48.59197" lon="-3.14817">
        <ele>123</ele>
        <time>2016-06-06T13:35:33.1Z</time>
      </trkpt>
      <trkpt lat="48.59194" lon="-3.14817">
        <ele>123</ele>
        <time>2016-06-06T13:35:35.1Z</time>
      </trkpt>
      <trkpt lat="48.59192" lon="-3.14818">
        <ele>123</ele>
        <time>2016-06-06T13:35:37.1Z</time>
      </trkpt>
      <trkpt lat="48.59189" lon="-3.14818">
        <ele>123</ele>
        <time>2016-06-06T13:35:40.1Z</time>
      </trkpt>
      <trkpt lat="48.59186" lon="-3.14818">
        <ele>123</ele>
        <time>2016-06-06T13:35:43.1Z</time>
      </trkpt>
      <trkpt lat="48.59184" lon="-3.14817">
        <ele>123</ele>
        <time>2016-06-06T13:35:45.1Z</time>
      </trkpt>
      <trkpt lat="48.59179" lon="-3.14817">
        <ele>123</ele>
        <time>2016-06-06T13:35:48.1Z</time>
      </trkpt>
      <trkpt lat="48.59176" lon="-3.14817">
        <ele>123</ele>
        <time>2016-06-06T13:35:50.1Z</time>
      </trkpt>
      <trkpt lat="48.59173" lon="-3.14818">
        <ele>123</ele>
        <time>2016-06-06T13:35:53.1Z</time>
      </trkpt>
      <trkpt lat="48.5917" lon="-3.14818">
        <ele>122</ele>
        <time>2016-06-06T13:35:56.1Z</time>
      </trkpt>
      <trkpt lat="48.59166" lon="-3.14817">
        <ele>123</ele>
        <time>2016-06-06T13:35:59.1Z</time>
      </trkpt>
      <trkpt lat="48.59164" lon="-3.14817">
        <ele>122</ele>
        <time>2016-06-06T13:36:02.1Z</time>
      </trkpt>
      <trkpt lat="48.59161" lon="-3.1482">
        <ele>123</ele>
        <time>2016-06-06T13:36:05.1Z</time>
      </trkpt>
      <trkpt lat="48.59159" lon="-3.1482">
        <ele>123</ele>
        <time>2016-06-06T13:36:07.1Z</time>
      </trkpt>
      <trkpt lat="48.59156" lon="-3.14821">
        <ele>123</ele>
        <time>2016-06-06T13:36:10.1Z</time>
      </trkpt>
      <trkpt lat="48.59154" lon="-3.14822">
        <ele>123</ele>
        <time>2016-06-06T13:36:12.1Z</time>
      </trkpt>
      <trkpt lat="48.5915" lon="-3.14822">
        <ele>123</ele>
        <time>2016-06-06T13:36:15.1Z</time>
      </trkpt>
      <trkpt lat="48.59147" lon="-3.14822">
        <ele>123</ele>
        <time>2016-06-06T13:36:17.1Z</time>
      </trkpt>
      <trkpt lat="48.59144" lon="-3.14821">
        <ele>123</ele>
        <time>2016-06-06T13:36:19.1Z</time>
      </trkpt>
      <trkpt lat="48.5914" lon="-3.14821">
        <ele>123</ele>
        <time>2016-06-06T13:36:22.1Z</time>
      </trkpt>
      <trkpt lat="48.59137" lon="-3.14822">
        <ele>123</ele>
        <time>2016-06-06T13:36:25.1Z</time>
      </trkpt>
      <trkpt lat="48.59135" lon="-3.14821">
        <ele>123</ele>
        <time>2016-06-06T13:36:27.1Z</time>
      </trkpt>
      <trkpt lat="48.59132" lon="-3.14821">
        <ele>123</ele>
        <time>2016-06-06T13:36:30.1Z</time>
      </trkpt>
      <trkpt lat="48.59129" lon="-3.1482">
        <ele>123</ele>
        <time>2016-06-06T13:36:32.1Z</time>
      </trkpt>
      <trkpt lat="48.59126" lon="-3.1482">
        <ele>123</ele>
        <time>2016-06-06T13:36:35.1Z</time>
      </trkpt>
      <trkpt lat="48.59124" lon="-3.1482">
        <ele>123</ele>
        <time>2016-06-06T13:36:37.1Z</time>
      </trkpt>
      <trkpt lat="48.59122" lon="-3.1482">
        <ele>123</ele>
        <time>2016-06-06T13:36:39.1Z</time>
      </trkpt>
      <trkpt lat="48.59119" lon="-3.1482">
        <ele>123</ele>
        <time>2016-06-06T13:36:42.1Z</time>
      </trkpt>
      <trkpt lat="48.59117" lon="-3.14821">
        <ele>123</ele>
        <time>2016-06-06T13:36:44.1Z</time>
      </trkpt>
      <trkpt lat="48.59114" lon="-3.14822">
        <ele>123</ele>
        <time>2016-06-06T13:36:46.1Z</time>
      </trkpt>
      <trkpt lat="48.59109" lon="-3.14821">
        <ele>123</ele>
        <time>2016-06-06T13:36:49.1Z</time>
      </trkpt>
      <trkpt lat="48.59106" lon="-3.1482">
        <ele>123</ele>
        <time>2016-06-06T13:36:51.1Z</time>
      </trkpt>
      <trkpt lat="48.59105" lon="-3.14819">
        <ele>123</ele>
        <time>2016-06-06T13:36:54.1Z</time>
      </trkpt>
      <trkpt lat="48.59104" lon="-3.14819">
        <ele>123</ele>
        <time>2016-06-06T13:36:56.1Z</time>
      </trkpt>
      <trkpt lat="48.59101" lon="-3.1482">
        <ele>123</ele>
        <time>2016-06-06T13:36:59.1Z</time>
      </trkpt>
      <trkpt lat="48.59099" lon="-3.14819">
        <ele>123</ele>
        <time>2016-06-06T13:37:01.1Z</time>
      </trkpt>
      <trkpt lat="48.59096" lon="-3.14818">
        <ele>123</ele>
        <time>2016-06-06T13:37:04.1Z</time>
      </trkpt>
      <trkpt lat="48.59094" lon="-3.14818">
        <ele>123</ele>
        <time>2016-06-06T13:37:06.1Z</time>
      </trkpt>
      <trkpt lat="48.59092" lon="-3.14817">
        <ele>123</ele>
        <time>2016-06-06T13:37:08.1Z</time>
      </trkpt>
      <trkpt lat="48.59088" lon="-3.14817">
        <ele>123</ele>
        <time>2016-06-06T13:37:11.1Z</time>
      </trkpt>
      <trkpt lat="48.59084" lon="-3.14816">
        <ele>123</ele>
        <time>2016-06-06T13:37:14.1Z</time>
      </trkpt>
      <trkpt lat="48.59082" lon="-3.14817">
        <ele>123</ele>
        <time>2016-06-06T13:37:17.1Z</time>
      </trkpt>
      <trkpt lat="48.59079" lon="-3.14818">
        <ele>123</ele>
        <time>2016-06-06T13:37:20.1Z</time>
      </trkpt>
      <trkpt lat="48.59077" lon="-3.1482">
        <ele>123</ele>
        <time>2016-06-06T13:37:23.1Z</time>
      </trkpt>
      <trkpt lat="48.59074" lon="-3.14819">
        <ele>123</ele>
        <time>2016-06-06T13:37:26.1Z</time>
      </trkpt>
      <trkpt lat="48.59074" lon="-3.1482">
        <ele>123</ele>
        <time>2016-06-06T13:37:28.1Z</time>
      </trkpt>
      <trkpt lat="48.59072" lon="-3.14821">
        <ele>124</ele>
        <time>2016-06-06T13:37:31.1Z</time>
      </trkpt>
      <trkpt lat="48.59071" lon="-3.14822">
        <ele>124</ele>
        <time>2016-06-06T13:37:34.1Z</time>
      </trkpt>
      <trkpt lat="48.59072" lon="-3.14822">
        <ele>124</ele>
        <time>2016-06-06T13:37:37.1Z</time>
      </trkpt>
      <trkpt lat="48.59072" lon="-3.14822">
        <ele>124</ele>
        <time>2016-06-06T13:37:39.1Z</time>
      </trkpt>
      <trkpt lat="48.59072" lon="-3.14822">
        <ele>124</ele>
        <time>2016-06-06T13:37:41.1Z</time>
      </trkpt>
      <trkpt lat="48.59071" lon="-3.14823">
        <ele>124</ele>
        <time>2016-06-06T13:37:44.1Z</time>
      </trkpt>
      <trkpt lat="48.59069" lon="-3.14824">
        <ele>124</ele>
        <time>2016-06-06T13:37:47.1Z</time>
      </trkpt>
      <trkpt lat="48.59069" lon="-3.14825">
        <ele>124</ele>
        <time>2016-06-06T13:37:50.1Z</time>
      </trkpt>
      <trkpt lat="48.59069" lon="-3.14825">
        <ele>124</ele>
        <time>2016-06-06T13:37:53.1Z</time>
      </trkpt>
      <trkpt lat="48.59069" lon="-3.14825">
        <ele>125</ele>
        <time>2016-06-06T13:37:55.1Z</time>
      </trkpt>
      <trkpt lat="48.59068" lon="-3.14825">
        <ele>125</ele>
        <time>2016-06-06T13:37:57.1Z</time>
      </trkpt>
      <trkpt lat="48.59066" lon="-3.14825">
        <ele>124</ele>
        <time>2016-06-06T13:38:00.1Z</time>
      </trkpt>
      <trkpt lat="48.59063" lon="-3.14825">
        <ele>124</ele>
        <time>2016-06-06T13:38:03.1Z</time>
      </trkpt>
      <trkpt lat="48.59061" lon="-3.14826">
        <ele>124</ele>
        <time>2016-06-06T13:38:05.1Z</time>
      </trkpt>
      <trkpt lat="48.59058" lon="-3.14827">
        <ele>124</ele>
        <time>2016-06-06T13:38:08.1Z</time>
      </trkpt>
      <trkpt lat="48.59055" lon="-3.14827">
        <ele>124</ele>
        <time>2016-06-06T13:38:11.1Z</time>
      </trkpt>
      <trkpt lat="48.59053" lon="-3.14828">
        <ele>124</ele>
        <time>2016-06-06T13:38:13.1Z</time>
      </trkpt>
      <trkpt lat="48.59052" lon="-3.14829">
        <ele>124</ele>
        <time>2016-06-06T13:38:15.1Z</time>
      </trkpt>
      <trkpt lat="48.5905" lon="-3.14831">
        <ele>124</ele>
        <time>2016-06-06T13:38:18.1Z</time>
      </trkpt>
      <trkpt lat="48.59047" lon="-3.14832">
        <ele>124</ele>
        <time>2016-06-06T13:38:21.1Z</time>
      </trkpt>
      <trkpt lat="48.59046" lon="-3.14833">
        <ele>124</ele>
        <time>2016-06-06T13:38:23.1Z</time>
      </trkpt>
      <trkpt lat="48.59043" lon="-3.14834">
        <ele>124</ele>
        <time>2016-06-06T13:38:26.1Z</time>
      </trkpt>
      <trkpt lat="48.5904" lon="-3.14836">
        <ele>124</ele>
        <time>2016-06-06T13:38:29.1Z</time>
      </trkpt>
      <trkpt lat="48.59037" lon="-3.14837">
        <ele>124</ele>
        <time>2016-06-06T13:38:32.1Z</time>
      </trkpt>
      <trkpt lat="48.59035" lon="-3.14838">
        <ele>124</ele>
        <time>2016-06-06T13:38:34.1Z</time>
      </trkpt>
      <trkpt lat="48.59033" lon="-3.14839">
        <ele>124</ele>
        <time>2016-06-06T13:38:37.1Z</time>
      </trkpt>
      <trkpt lat="48.59031" lon="-3.1484">
        <ele>124</ele>
        <time>2016-06-06T13:38:40.1Z</time>
      </trkpt>
      <trkpt lat="48.59029" lon="-3.14841">
        <ele>124</ele>
        <time>2016-06-06T13:38:43.1Z</time>
      </trkpt>
      <trkpt lat="48.59027" lon="-3.14843">
        <ele>124</ele>
        <time>2016-06-06T13:38:46.1Z</time>
      </trkpt>
      <trkpt lat="48.59026" lon="-3.14844">
        <ele>124</ele>
        <time>2016-06-06T13:38:48.1Z</time>
      </trkpt>
      <trkpt lat="48.59023" lon="-3.14845">
        <ele>124</ele>
        <time>2016-06-06T13:38:51.1Z</time>
      </trkpt>
      <trkpt lat="48.59021" lon="-3.14846">
        <ele>124</ele>
        <time>2016-06-06T13:38:53.1Z</time>
      </trkpt>
      <trkpt lat="48.5902" lon="-3.14847">
        <ele>124</ele>
        <time>2016-06-06T13:38:55.1Z</time>
      </trkpt>
      <trkpt lat="48.59018" lon="-3.14849">
        <ele>124</ele>
        <time>2016-06-06T13:38:58.1Z</time>
      </trkpt>
      <trkpt lat="48.59016" lon="-3.14851">
        <ele>125</ele>
        <time>2016-06-06T13:39:01.1Z</time>
      </trkpt>
      <trkpt lat="48.59014" lon="-3.14852">
        <ele>124</ele>
        <time>2016-06-06T13:39:03.1Z</time>
      </trkpt>
      <trkpt lat="48.59011" lon="-3.14854">
        <ele>124</ele>
        <time>2016-06-06T13:39:06.1Z</time>
      </trkpt>
      <trkpt lat="48.59009" lon="-3.14855">
        <ele>124</ele>
        <time>2016-06-06T13:39:08.1Z</time>
      </trkpt>
      <trkpt lat="48.59005" lon="-3.14857">
        <ele>125</ele>
        <time>2016-06-06T13:39:11.1Z</time>
      </trkpt>
      <trkpt lat="48.59003" lon="-3.1486">
        <ele>125</ele>
        <time>2016-06-06T13:39:13.1Z</time>
      </trkpt>
      <trkpt lat="48.59" lon="-3.14864">
        <ele>125</ele>
        <time>2016-06-06T13:39:16.1Z</time>
      </trkpt>
      <trkpt lat="48.58999" lon="-3.14869">
        <ele>125</ele>
        <time>2016-06-06T13:39:19.1Z</time>
      </trkpt>
      <trkpt lat="48.58998" lon="-3.14873">
        <ele>125</ele>
        <time>2016-06-06T13:39:21.1Z</time>
      </trkpt>
      <trkpt lat="48.58995" lon="-3.14878">
        <ele>125</ele>
        <time>2016-06-06T13:39:24.1Z</time>
      </trkpt>
      <trkpt lat="48.58994" lon="-3.14881">
        <ele>125</ele>
        <time>2016-06-06T13:39:27.1Z</time>
      </trkpt>
      <trkpt lat="48.58992" lon="-3.14881">
        <ele>125</ele>
        <time>2016-06-06T13:39:30.1Z</time>
      </trkpt>
      <trkpt lat="48.58992" lon="-3.14882">
        <ele>125</ele>
        <time>2016-06-06T13:39:32.1Z</time>
      </trkpt>
      <trkpt lat="48.58994" lon="-3.14882">
        <ele>125</ele>
        <time>2016-06-06T13:39:35.1Z</time>
      </trkpt>
      <trkpt lat="48.58994" lon="-3.14882">
        <ele>125</ele>
        <time>2016-06-06T13:39:37.1Z</time>
      </trkpt>
      <trkpt lat="48.58993" lon="-3.14883">
        <ele>126</ele>
        <time>2016-06-06T13:39:40.1Z</time>
      </trkpt>
      <trkpt lat="48.58994" lon="-3.14885">
        <ele>125</ele>
        <time>2016-06-06T13:39:42.1Z</time>
      </trkpt>
      <trkpt lat="48.58994" lon="-3.14886">
        <ele>125</ele>
        <time>2016-06-06T13:39:44.1Z</time>
      </trkpt>
      <trkpt lat="48.58994" lon="-3.14887">
        <ele>125</ele>
        <time>2016-06-06T13:39:47.1Z</time>
      </trkpt>
      <trkpt lat="48.58993" lon="-3.1489">
        <ele>125</ele>
        <time>2016-06-06T13:39:50.1Z</time>
      </trkpt>
      <trkpt lat="48.58993" lon="-3.14892">
        <ele>126</ele>
        <time>2016-06-06T13:39:52.1Z</time>
      </trkpt>
      <trkpt lat="48.58992" lon="-3.14897">
        <ele>126</ele>
        <time>2016-06-06T13:39:55.1Z</time>
      </trkpt>
      <trkpt lat="48.58992" lon="-3.149">
        <ele>126</ele>
        <time>2016-06-06T13:39:57.1Z</time>
      </trkpt>
      <trkpt lat="48.58991" lon="-3.14904">
        <ele>127</ele>
        <time>2016-06-06T13:39:59.1Z</time>
      </trkpt>
      <trkpt lat="48.58992" lon="-3.14909">
        <ele>127</ele>
        <time>2016-06-06T13:40:02.1Z</time>
      </trkpt>
      <trkpt lat="48.58991" lon="-3.14914">
        <ele>127</ele>
        <time>2016-06-06T13:40:05.1Z</time>
      </trkpt>
      <trkpt lat="48.5899" lon="-3.14919">
        <ele>127</ele>
        <time>2016-06-06T13:40:08.1Z</time>
      </trkpt>
      <trkpt lat="48.58989" lon="-3.14922">
        <ele>127</ele>
        <time>2016-06-06T13:40:10.1Z</time>
      </trkpt>
      <trkpt lat="48.58988" lon="-3.14928">
        <ele>127</ele>
        <time>2016-06-06T13:40:13.1Z</time>
      </trkpt>
      <trkpt lat="48.58988" lon="-3.14931">
        <ele>127</ele>
        <time>2016-06-06T13:40:15.1Z</time>
      </trkpt>
      <trkpt lat="48.58987" lon="-3.14936">
        <ele>127</ele>
        <time>2016-06-06T13:40:18.1Z</time>
      </trkpt>
      <trkpt lat="48.58986" lon="-3.14939">
        <ele>128</ele>
        <time>2016-06-06T13:40:20.1Z</time>
      </trkpt>
      <trkpt lat="48.58984" lon="-3.14942">
        <ele>128</ele>
        <time>2016-06-06T13:40:22.1Z</time>
      </trkpt>
      <trkpt lat="48.58984" lon="-3.14947">
        <ele>128</ele>
        <time>2016-06-06T13:40:25.1Z</time>
      </trkpt>
      <trkpt lat="48.58984" lon="-3.14951">
        <ele>128</ele>
        <time>2016-06-06T13:40:27.1Z</time>
      </trkpt>
      <trkpt lat="48.58983" lon="-3.14956">
        <ele>128</ele>
        <time>2016-06-06T13:40:30.1Z</time>
      </trkpt>
      <trkpt lat="48.58982" lon="-3.14959">
        <ele>128</ele>
        <time>2016-06-06T13:40:32.1Z</time>
      </trkpt>
      <trkpt lat="48.58982" lon="-3.14962">
        <ele>128</ele>
        <time>2016-06-06T13:40:34.1Z</time>
      </trkpt>
      <trkpt lat="48.58981" lon="-3.14966">
        <ele>129</ele>
        <time>2016-06-06T13:40:37.1Z</time>
      </trkpt>
      <trkpt lat="48.58981" lon="-3.14969">
        <ele>129</ele>
        <time>2016-06-06T13:40:39.1Z</time>
      </trkpt>
      <trkpt lat="48.5898" lon="-3.14972">
        <ele>129</ele>
        <time>2016-06-06T13:40:42.1Z</time>
      </trkpt>
      <trkpt lat="48.58979" lon="-3.14977">
        <ele>129</ele>
        <time>2016-06-06T13:40:45.1Z</time>
      </trkpt>
      <trkpt lat="48.58979" lon="-3.1498">
        <ele>129</ele>
        <time>2016-06-06T13:40:47.1Z</time>
      </trkpt>
      <trkpt lat="48.58979" lon="-3.14984">
        <ele>130</ele>
        <time>2016-06-06T13:40:50.1Z</time>
      </trkpt>
      <trkpt lat="48.58978" lon="-3.14989">
        <ele>130</ele>
        <time>2016-06-06T13:40:53.1Z</time>
      </trkpt>
      <trkpt lat="48.58978" lon="-3.14994">
        <ele>130</ele>
        <time>2016-06-06T13:40:56.1Z</time>
      </trkpt>
      <trkpt lat="48.58977" lon="-3.14997">
        <ele>131</ele>
        <time>2016-06-06T13:40:58.1Z</time>
      </trkpt>
      <trkpt lat="48.58977" lon="-3.15">
        <ele>131</ele>
        <time>2016-06-06T13:41:00.1Z</time>
      </trkpt>
      <trkpt lat="48.58977" lon="-3.15004">
        <ele>131</ele>
        <time>2016-06-06T13:41:03.1Z</time>
      </trkpt>
      <trkpt lat="48.58976" lon="-3.15009">
        <ele>131</ele>
        <time>2016-06-06T13:41:06.1Z</time>
      </trkpt>
      <trkpt lat="48.58976" lon="-3.15014">
        <ele>132</ele>
        <time>2016-06-06T13:41:09.1Z</time>
      </trkpt>
      <trkpt lat="48.58976" lon="-3.15019">
        <ele>132</ele>
        <time>2016-06-06T13:41:12.1Z</time>
      </trkpt>
      <trkpt lat="48.58975" lon="-3.15023">
        <ele>133</ele>
        <time>2016-06-06T13:41:15.1Z</time>
      </trkpt>
      <trkpt lat="48.58974" lon="-3.15025">
        <ele>133</ele>
        <time>2016-06-06T13:41:17.1Z</time>
      </trkpt>
      <trkpt lat="48.58973" lon="-3.15029">
        <ele>134</ele>
        <time>2016-06-06T13:41:20.1Z</time>
      </trkpt>
      <trkpt lat="48.58973" lon="-3.15033">
        <ele>134</ele>
        <time>2016-06-06T13:41:23.1Z</time>
      </trkpt>
      <trkpt lat="48.58973" lon="-3.15037">
        <ele>134</ele>
        <time>2016-06-06T13:41:26.1Z</time>
      </trkpt>
      <trkpt lat="48.58973" lon="-3.15041">
        <ele>134</ele>
        <time>2016-06-06T13:41:29.1Z</time>
      </trkpt>
      <trkpt lat="48.58972" lon="-3.15046">
        <ele>135</ele>
        <time>2016-06-06T13:41:32.1Z</time>
      </trkpt>
      <trkpt lat="48.58973" lon="-3.1505">
        <ele>135</ele>
        <time>2016-06-06T13:41:34.1Z</time>
      </trkpt>
      <trkpt lat="48.58973" lon="-3.15054">
        <ele>135</ele>
        <time>2016-06-06T13:41:37.1Z</time>
      </trkpt>
      <trkpt lat="48.58973" lon="-3.15059">
        <ele>135</ele>
        <time>2016-06-06T13:41:40.1Z</time>
      </trkpt>
      <trkpt lat="48.58973" lon="-3.15063">
        <ele>135</ele>
        <time>2016-06-06T13:41:42.1Z</time>
      </trkpt>
      <trkpt lat="48.58973" lon="-3.15068">
        <ele>136</ele>
        <time>2016-06-06T13:41:45.1Z</time>
      </trkpt>
      <trkpt lat="48.58973" lon="-3.15072">
        <ele>136</ele>
        <time>2016-06-06T13:41:48.1Z</time>
      </trkpt>
      <trkpt lat="48.58973" lon="-3.15077">
        <ele>136</ele>
        <time>2016-06-06T13:41:51.1Z</time>
      </trkpt>
      <trkpt lat="48.58974" lon="-3.1508">
        <ele>136</ele>
        <time>2016-06-06T13:41:53.1Z</time>
      </trkpt>
      <trkpt lat="48.58976" lon="-3.15085">
        <ele>137</ele>
        <time>2016-06-06T13:41:56.1Z</time>
      </trkpt>
      <trkpt lat="48.58978" lon="-3.15088">
        <ele>137</ele>
        <time>2016-06-06T13:41:58.1Z</time>
      </trkpt>
      <trkpt lat="48.58979" lon="-3.1509">
        <ele>137</ele>
        <time>2016-06-06T13:42:00.1Z</time>
      </trkpt>
      <trkpt lat="48.58981" lon="-3.15093">
        <ele>137</ele>
        <time>2016-06-06T13:42:03.1Z</time>
      </trkpt>
      <trkpt lat="48.58985" lon="-3.15097">
        <ele>137</ele>
        <time>2016-06-06T13:42:06.1Z</time>
      </trkpt>
      <trkpt lat="48.58987" lon="-3.15099">
        <ele>137</ele>
        <time>2016-06-06T13:42:09.1Z</time>
      </trkpt>
      <trkpt lat="48.5899" lon="-3.15102">
        <ele>138</ele>
        <time>2016-06-06T13:42:12.1Z</time>
      </trkpt>
      <trkpt lat="48.58992" lon="-3.15104">
        <ele>138</ele>
        <time>2016-06-06T13:42:14.1Z</time>
      </trkpt>
      <trkpt lat="48.58995" lon="-3.15106">
        <ele>139</ele>
        <time>2016-06-06T13:42:17.1Z</time>
      </trkpt>
      <trkpt lat="48.58997" lon="-3.15107">
        <ele>138</ele>
        <time>2016-06-06T13:42:19.1Z</time>
      </trkpt>
      <trkpt lat="48.58999" lon="-3.15109">
        <ele>139</ele>
        <time>2016-06-06T13:42:22.1Z</time>
      </trkpt>
      <trkpt lat="48.59002" lon="-3.15109">
        <ele>139</ele>
        <time>2016-06-06T13:42:25.1Z</time>
      </trkpt>
      <trkpt lat="48.59005" lon="-3.1511">
        <ele>139</ele>
        <time>2016-06-06T13:42:28.1Z</time>
      </trkpt>
      <trkpt lat="48.59005" lon="-3.15109">
        <ele>139</ele>
        <time>2016-06-06T13:42:31.1Z</time>
      </trkpt>
      <trkpt lat="48.59007" lon="-3.15109">
        <ele>139</ele>
        <time>2016-06-06T13:42:34.1Z</time>
      </trkpt>
      <trkpt lat="48.59008" lon="-3.15108">
        <ele>139</ele>
        <time>2016-06-06T13:42:37.1Z</time>
      </trkpt>
      <trkpt lat="48.59009" lon="-3.15108">
        <ele>139</ele>
        <time>2016-06-06T13:42:39.1Z</time>
      </trkpt>
      <trkpt lat="48.5901" lon="-3.15107">
        <ele>139</ele>
        <time>2016-06-06T13:42:41.1Z</time>
      </trkpt>
      <trkpt lat="48.59012" lon="-3.15107">
        <ele>140</ele>
        <time>2016-06-06T13:42:44.1Z</time>
      </trkpt>
      <trkpt lat="48.59014" lon="-3.15107">
        <ele>140</ele>
        <time>2016-06-06T13:42:46.1Z</time>
      </trkpt>
      <trkpt lat="48.59017" lon="-3.15108">
        <ele>140</ele>
        <time>2016-06-06T13:42:48.1Z</time>
      </trkpt>
      <trkpt lat="48.5902" lon="-3.15109">
        <ele>139</ele>
        <time>2016-06-06T13:42:51.1Z</time>
      </trkpt>
      <trkpt lat="48.59024" lon="-3.15109">
        <ele>140</ele>
        <time>2016-06-06T13:42:54.1Z</time>
      </trkpt>
      <trkpt lat="48.59029" lon="-3.1511">
        <ele>140</ele>
        <time>2016-06-06T13:42:57.1Z</time>
      </trkpt>
      <trkpt lat="48.59032" lon="-3.1511">
        <ele>140</ele>
        <time>2016-06-06T13:42:59.1Z</time>
      </trkpt>
      <trkpt lat="48.59036" lon="-3.1511">
        <ele>140</ele>
        <time>2016-06-06T13:43:02.1Z</time>
      </trkpt>
      <trkpt lat="48.5904" lon="-3.15111">
        <ele>140</ele>
        <time>2016-06-06T13:43:05.1Z</time>
      </trkpt>
      <trkpt lat="48.59044" lon="-3.15111">
        <ele>140</ele>
        <time>2016-06-06T13:43:08.1Z</time>
      </trkpt>
      <trkpt lat="48.59046" lon="-3.15109">
        <ele>141</ele>
        <time>2016-06-06T13:43:11.1Z</time>
      </trkpt>
      <trkpt lat="48.59049" lon="-3.15109">
        <ele>141</ele>
        <time>2016-06-06T13:43:14.1Z</time>
      </trkpt>
      <trkpt lat="48.59053" lon="-3.15109">
        <ele>142</ele>
        <time>2016-06-06T13:43:17.1Z</time>
      </trkpt>
      <trkpt lat="48.59055" lon="-3.15109">
        <ele>142</ele>
        <time>2016-06-06T13:43:19.1Z</time>
      </trkpt>
      <trkpt lat="48.59059" lon="-3.15109">
        <ele>142</ele>
        <time>2016-06-06T13:43:22.1Z</time>
      </trkpt>
      <trkpt lat="48.59061" lon="-3.15108">
        <ele>142</ele>
        <time>2016-06-06T13:43:24.1Z</time>
      </trkpt>
      <trkpt lat="48.59063" lon="-3.15107">
        <ele>142</ele>
        <time>2016-06-06T13:43:26.1Z</time>
      </trkpt>
      <trkpt lat="48.59064" lon="-3.15105">
        <ele>143</ele>
        <time>2016-06-06T13:43:29.1Z</time>
      </trkpt>
      <trkpt lat="48.59066" lon="-3.15105">
        <ele>143</ele>
        <time>2016-06-06T13:43:31.1Z</time>
      </trkpt>
      <trkpt lat="48.59069" lon="-3.15104">
        <ele>143</ele>
        <time>2016-06-06T13:43:34.1Z</time>
      </trkpt>
      <trkpt lat="48.59071" lon="-3.15104">
        <ele>143</ele>
        <time>2016-06-06T13:43:36.1Z</time>
      </trkpt>
      <trkpt lat="48.59075" lon="-3.15104">
        <ele>144</ele>
        <time>2016-06-06T13:43:39.1Z</time>
      </trkpt>
      <trkpt lat="48.59077" lon="-3.15103">
        <ele>144</ele>
        <time>2016-06-06T13:43:41.1Z</time>
      </trkpt>
      <trkpt lat="48.59078" lon="-3.15102">
        <ele>144</ele>
        <time>2016-06-06T13:43:43.1Z</time>
      </trkpt>
      <trkpt lat="48.59081" lon="-3.15102">
        <ele>144</ele>
        <time>2016-06-06T13:43:46.1Z</time>
      </trkpt>
      <trkpt lat="48.59084" lon="-3.15102">
        <ele>144</ele>
        <time>2016-06-06T13:43:49.1Z</time>
      </trkpt>
      <trkpt lat="48.59086" lon="-3.15101">
        <ele>144</ele>
        <time>2016-06-06T13:43:51.1Z</time>
      </trkpt>
      <trkpt lat="48.5909" lon="-3.151">
        <ele>144</ele>
        <time>2016-06-06T13:43:54.1Z</time>
      </trkpt>
      <trkpt lat="48.59093" lon="-3.151">
        <ele>145</ele>
        <time>2016-06-06T13:43:56.1Z</time>
      </trkpt>
      <trkpt lat="48.59096" lon="-3.151">
        <ele>145</ele>
        <time>2016-06-06T13:43:58.1Z</time>
      </trkpt>
      <trkpt lat="48.59099" lon="-3.151">
        <ele>145</ele>
        <time>2016-06-06T13:44:01.1Z</time>
      </trkpt>
      <trkpt lat="48.59103" lon="-3.15099">
        <ele>145</ele>
        <time>2016-06-06T13:44:04.1Z</time>
      </trkpt>
      <trkpt lat="48.59106" lon="-3.15099">
        <ele>145</ele>
        <time>2016-06-06T13:44:06.1Z</time>
      </trkpt>
      <trkpt lat="48.59109" lon="-3.15099">
        <ele>145</ele>
        <time>2016-06-06T13:44:09.1Z</time>
      </trkpt>
      <trkpt lat="48.59111" lon="-3.15099">
        <ele>146</ele>
        <time>2016-06-06T13:44:11.1Z</time>
      </trkpt>
      <trkpt lat="48.59115" lon="-3.15099">
        <ele>146</ele>
        <time>2016-06-06T13:44:14.1Z</time>
      </trkpt>
      <trkpt lat="48.59119" lon="-3.15098">
        <ele>146</ele>
        <time>2016-06-06T13:44:16.1Z</time>
      </trkpt>
      <trkpt lat="48.59122" lon="-3.15098">
        <ele>146</ele>
        <time>2016-06-06T13:44:19.1Z</time>
      </trkpt>
      <trkpt lat="48.59126" lon="-3.15097">
        <ele>146</ele>
        <time>2016-06-06T13:44:22.1Z</time>
      </trkpt>
      <trkpt lat="48.59128" lon="-3.15096">
        <ele>147</ele>
        <time>2016-06-06T13:44:24.1Z</time>
      </trkpt>
      <trkpt lat="48.59131" lon="-3.15096">
        <ele>147</ele>
        <time>2016-06-06T13:44:27.1Z</time>
      </trkpt>
      <trkpt lat="48.59136" lon="-3.15096">
        <ele>147</ele>
        <time>2016-06-06T13:44:30.1Z</time>
      </trkpt>
      <trkpt lat="48.59138" lon="-3.15095">
        <ele>147</ele>
        <time>2016-06-06T13:44:33.1Z</time>
      </trkpt>
      <trkpt lat="48.59141" lon="-3.15094">
        <ele>148</ele>
        <time>2016-06-06T13:44:36.1Z</time>
      </trkpt>
      <trkpt lat="48.59143" lon="-3.15093">
        <ele>148</ele>
        <time>2016-06-06T13:44:39.1Z</time>
      </trkpt>
      <trkpt lat="48.59145" lon="-3.15093">
        <ele>148</ele>
        <time>2016-06-06T13:44:42.1Z</time>
      </trkpt>
      <trkpt lat="48.59149" lon="-3.15093">
        <ele>148</ele>
        <time>2016-06-06T13:44:45.1Z</time>
      </trkpt>
      <trkpt lat="48.59151" lon="-3.15093">
        <ele>148</ele>
        <time>2016-06-06T13:44:47.1Z</time>
      </trkpt>
      <trkpt lat="48.59154" lon="-3.15094">
        <ele>148</ele>
        <time>2016-06-06T13:44:50.1Z</time>
      </trkpt>
      <trkpt lat="48.59157" lon="-3.15094">
        <ele>148</ele>
        <time>2016-06-06T13:44:52.1Z</time>
      </trkpt>
      <trkpt lat="48.5916" lon="-3.15095">
        <ele>149</ele>
        <time>2016-06-06T13:44:55.1Z</time>
      </trkpt>
      <trkpt lat="48.59161" lon="-3.15095">
        <ele>149</ele>
        <time>2016-06-06T13:44:57.1Z</time>
      </trkpt>
      <trkpt lat="48.59165" lon="-3.15097">
        <ele>149</ele>
        <time>2016-06-06T13:45:00.1Z</time>
      </trkpt>
      <trkpt lat="48.59167" lon="-3.15099">
        <ele>149</ele>
        <time>2016-06-06T13:45:02.1Z</time>
      </trkpt>
      <trkpt lat="48.59169" lon="-3.15101">
        <ele>149</ele>
        <time>2016-06-06T13:45:04.1Z</time>
      </trkpt>
      <trkpt lat="48.5917" lon="-3.15103">
        <ele>149</ele>
        <time>2016-06-06T13:45:06.1Z</time>
      </trkpt>
      <trkpt lat="48.59172" lon="-3.15106">
        <ele>150</ele>
        <time>2016-06-06T13:45:09.1Z</time>
      </trkpt>
      <trkpt lat="48.59174" lon="-3.15107">
        <ele>150</ele>
        <time>2016-06-06T13:45:11.1Z</time>
      </trkpt>
      <trkpt lat="48.59175" lon="-3.15109">
        <ele>150</ele>
        <time>2016-06-06T13:45:13.1Z</time>
      </trkpt>
      <trkpt lat="48.59176" lon="-3.15112">
        <ele>150</ele>
        <time>2016-06-06T13:45:15.1Z</time>
      </trkpt>
      <trkpt lat="48.59178" lon="-3.15116">
        <ele>150</ele>
        <time>2016-06-06T13:45:18.1Z</time>
      </trkpt>
      <trkpt lat="48.59179" lon="-3.15118">
        <ele>150</ele>
        <time>2016-06-06T13:45:20.1Z</time>
      </trkpt>
      <trkpt lat="48.59179" lon="-3.1512">
        <ele>151</ele>
        <time>2016-06-06T13:45:22.1Z</time>
      </trkpt>
      <trkpt lat="48.5918" lon="-3.15123">
        <ele>151</ele>
        <time>2016-06-06T13:45:24.1Z</time>
      </trkpt>
      <trkpt lat="48.59181" lon="-3.15127">
        <ele>151</ele>
        <time>2016-06-06T13:45:27.1Z</time>
      </trkpt>
      <trkpt lat="48.59182" lon="-3.15131">
        <ele>151</ele>
        <time>2016-06-06T13:45:30.1Z</time>
      </trkpt>
      <trkpt lat="48.59184" lon="-3.15134">
        <ele>152</ele>
        <time>2016-06-06T13:45:32.1Z</time>
      </trkpt>
      <trkpt lat="48.59186" lon="-3.15137">
        <ele>152</ele>
        <time>2016-06-06T13:45:35.1Z</time>
      </trkpt>
      <trkpt lat="48.59188" lon="-3.1514">
        <ele>152</ele>
        <time>2016-06-06T13:45:37.1Z</time>
      </trkpt>
      <trkpt lat="48.5919" lon="-3.15144">
        <ele>152</ele>
        <time>2016-06-06T13:45:40.1Z</time>
      </trkpt>
      <trkpt lat="48.59192" lon="-3.15147">
        <ele>152</ele>
        <time>2016-06-06T13:45:42.1Z</time>
      </trkpt>
      <trkpt lat="48.59193" lon="-3.1515">
        <ele>152</ele>
        <time>2016-06-06T13:45:44.1Z</time>
      </trkpt>
      <trkpt lat="48.59195" lon="-3.15155">
        <ele>153</ele>
        <time>2016-06-06T13:45:47.1Z</time>
      </trkpt>
      <trkpt lat="48.59196" lon="-3.15157">
        <ele>153</ele>
        <time>2016-06-06T13:45:49.1Z</time>
      </trkpt>
      <trkpt lat="48.59198" lon="-3.15161">
        <ele>153</ele>
        <time>2016-06-06T13:45:52.1Z</time>
      </trkpt>
      <trkpt lat="48.59199" lon="-3.15166">
        <ele>154</ele>
        <time>2016-06-06T13:45:55.1Z</time>
      </trkpt>
      <trkpt lat="48.592" lon="-3.15168">
        <ele>154</ele>
        <time>2016-06-06T13:45:57.1Z</time>
      </trkpt>
      <trkpt lat="48.59201" lon="-3.15173">
        <ele>154</ele>
        <time>2016-06-06T13:46:00.1Z</time>
      </trkpt>
      <trkpt lat="48.59202" lon="-3.15177">
        <ele>154</ele>
        <time>2016-06-06T13:46:03.1Z</time>
      </trkpt>
      <trkpt lat="48.59203" lon="-3.1518">
        <ele>154</ele>
        <time>2016-06-06T13:46:05.1Z</time>
      </trkpt>
      <trkpt lat="48.59204" lon="-3.15185">
        <ele>155</ele>
        <time>2016-06-06T13:46:08.1Z</time>
      </trkpt>
      <trkpt lat="48.59204" lon="-3.1519">
        <ele>155</ele>
        <time>2016-06-06T13:46:11.1Z</time>
      </trkpt>
      <trkpt lat="48.59204" lon="-3.15194">
        <ele>155</ele>
        <time>2016-06-06T13:46:13.1Z</time>
      </trkpt>
      <trkpt lat="48.59204" lon="-3.15197">
        <ele>156</ele>
        <time>2016-06-06T13:46:15.1Z</time>
      </trkpt>
      <trkpt lat="48.59204" lon="-3.15202">
        <ele>156</ele>
        <time>2016-06-06T13:46:18.1Z</time>
      </trkpt>
      <trkpt lat="48.59204" lon="-3.15205">
        <ele>156</ele>
        <time>2016-06-06T13:46:20.1Z</time>
      </trkpt>
      <trkpt lat="48.59203" lon="-3.15209">
        <ele>157</ele>
        <time>2016-06-06T13:46:23.1Z</time>
      </trkpt>
      <trkpt lat="48.59203" lon="-3.15213">
        <ele>157</ele>
        <time>2016-06-06T13:46:26.1Z</time>
      </trkpt>
      <trkpt lat="48.59202" lon="-3.15215">
        <ele>157</ele>
        <time>2016-06-06T13:46:28.1Z</time>
      </trkpt>
      <trkpt lat="48.59202" lon="-3.1522">
        <ele>157</ele>
        <time>2016-06-06T13:46:31.1Z</time>
      </trkpt>
      <trkpt lat="48.59201" lon="-3.15226">
        <ele>157</ele>
        <time>2016-06-06T13:46:35.1Z</time>
      </trkpt>
      <trkpt lat="48.592" lon="-3.15229">
        <ele>157</ele>
        <time>2016-06-06T13:46:37.1Z</time>
      </trkpt>
      <trkpt lat="48.592" lon="-3.15233">
        <ele>157</ele>
        <time>2016-06-06T13:46:40.1Z</time>
      </trkpt>
      <trkpt lat="48.592" lon="-3.15237">
        <ele>157</ele>
        <time>2016-06-06T13:46:43.1Z</time>
      </trkpt>
      <trkpt lat="48.59199" lon="-3.1524">
        <ele>157</ele>
        <time>2016-06-06T13:46:45.1Z</time>
      </trkpt>
      <trkpt lat="48.59198" lon="-3.15243">
        <ele>158</ele>
        <time>2016-06-06T13:46:47.1Z</time>
      </trkpt>
      <trkpt lat="48.59197" lon="-3.15248">
        <ele>158</ele>
        <time>2016-06-06T13:46:50.1Z</time>
      </trkpt>
      <trkpt lat="48.59197" lon="-3.15251">
        <ele>158</ele>
        <time>2016-06-06T13:46:52.1Z</time>
      </trkpt>
      <trkpt lat="48.59196" lon="-3.15256">
        <ele>158</ele>
        <time>2016-06-06T13:46:55.1Z</time>
      </trkpt>
      <trkpt lat="48.59195" lon="-3.15259">
        <ele>158</ele>
        <time>2016-06-06T13:46:58.1Z</time>
      </trkpt>
      <trkpt lat="48.59195" lon="-3.15264">
        <ele>158</ele>
        <time>2016-06-06T13:47:01.1Z</time>
      </trkpt>
      <trkpt lat="48.59194" lon="-3.15265">
        <ele>158</ele>
        <time>2016-06-06T13:47:03.1Z</time>
      </trkpt>
      <trkpt lat="48.59193" lon="-3.15267">
        <ele>158</ele>
        <time>2016-06-06T13:47:06.1Z</time>
      </trkpt>
      <trkpt lat="48.59193" lon="-3.15268">
        <ele>158</ele>
        <time>2016-06-06T13:47:08.1Z</time>
      </trkpt>
      <trkpt lat="48.59192" lon="-3.15269">
        <ele>158</ele>
        <time>2016-06-06T13:47:11.1Z</time>
      </trkpt>
      <trkpt lat="48.59191" lon="-3.15273">
        <ele>158</ele>
        <time>2016-06-06T13:47:14.1Z</time>
      </trkpt>
      <trkpt lat="48.5919" lon="-3.15276">
        <ele>158</ele>
        <time>2016-06-06T13:47:17.1Z</time>
      </trkpt>
      <trkpt lat="48.5919" lon="-3.15279">
        <ele>158</ele>
        <time>2016-06-06T13:47:19.1Z</time>
      </trkpt>
      <trkpt lat="48.59189" lon="-3.15283">
        <ele>159</ele>
        <time>2016-06-06T13:47:22.1Z</time>
      </trkpt>
      <trkpt lat="48.59188" lon="-3.15286">
        <ele>158</ele>
        <time>2016-06-06T13:47:25.1Z</time>
      </trkpt>
      <trkpt lat="48.59188" lon="-3.15288">
        <ele>158</ele>
        <time>2016-06-06T13:47:27.1Z</time>
      </trkpt>
      <trkpt lat="48.59187" lon="-3.15292">
        <ele>158</ele>
        <time>2016-06-06T13:47:30.1Z</time>
      </trkpt>
      <trkpt lat="48.59186" lon="-3.15296">
        <ele>158</ele>
        <time>2016-06-06T13:47:32.1Z</time>
      </trkpt>
      <trkpt lat="48.59185" lon="-3.153">
        <ele>158</ele>
        <time>2016-06-06T13:47:35.1Z</time>
      </trkpt>
      <trkpt lat="48.59185" lon="-3.15304">
        <ele>158</ele>
        <time>2016-06-06T13:47:38.1Z</time>
      </trkpt>
      <trkpt lat="48.59184" lon="-3.15307">
        <ele>158</ele>
        <time>2016-06-06T13:47:40.1Z</time>
      </trkpt>
      <trkpt lat="48.59182" lon="-3.15311">
        <ele>159</ele>
        <time>2016-06-06T13:47:43.1Z</time>
      </trkpt>
      <trkpt lat="48.59182" lon="-3.15313">
        <ele>159</ele>
        <time>2016-06-06T13:47:45.1Z</time>
      </trkpt>
      <trkpt lat="48.5918" lon="-3.15317">
        <ele>159</ele>
        <time>2016-06-06T13:47:47.1Z</time>
      </trkpt>
      <trkpt lat="48.59179" lon="-3.15321">
        <ele>159</ele>
        <time>2016-06-06T13:47:50.1Z</time>
      </trkpt>
      <trkpt lat="48.59179" lon="-3.15326">
        <ele>159</ele>
        <time>2016-06-06T13:47:53.1Z</time>
      </trkpt>
      <trkpt lat="48.59178" lon="-3.15331">
        <ele>159</ele>
        <time>2016-06-06T13:47:56.1Z</time>
      </trkpt>
      <trkpt lat="48.59178" lon="-3.15334">
        <ele>159</ele>
        <time>2016-06-06T13:47:58.1Z</time>
      </trkpt>
      <trkpt lat="48.59177" lon="-3.15337">
        <ele>159</ele>
        <time>2016-06-06T13:48:00.1Z</time>
      </trkpt>
      <trkpt lat="48.59177" lon="-3.15341">
        <ele>160</ele>
        <time>2016-06-06T13:48:02.1Z</time>
      </trkpt>
      <trkpt lat="48.59176" lon="-3.15346">
        <ele>160</ele>
        <time>2016-06-06T13:48:05.1Z</time>
      </trkpt>
      <trkpt lat="48.59175" lon="-3.1535">
        <ele>160</ele>
        <time>2016-06-06T13:48:07.1Z</time>
      </trkpt>
      <trkpt lat="48.59174" lon="-3.15352">
        <ele>160</ele>
        <time>2016-06-06T13:48:09.1Z</time>
      </trkpt>
      <trkpt lat="48.59173" lon="-3.15355">
        <ele>159</ele>
        <time>2016-06-06T13:48:11.1Z</time>
      </trkpt>
      <trkpt lat="48.59172" lon="-3.1536">
        <ele>160</ele>
        <time>2016-06-06T13:48:14.1Z</time>
      </trkpt>
      <trkpt lat="48.59172" lon="-3.15366">
        <ele>160</ele>
        <time>2016-06-06T13:48:17.1Z</time>
      </trkpt>
      <trkpt lat="48.59171" lon="-3.1537">
        <ele>160</ele>
        <time>2016-06-06T13:48:20.1Z</time>
      </trkpt>
      <trkpt lat="48.5917" lon="-3.15374">
        <ele>160</ele>
        <time>2016-06-06T13:48:23.1Z</time>
      </trkpt>
      <trkpt lat="48.59169" lon="-3.15377">
        <ele>160</ele>
        <time>2016-06-06T13:48:25.1Z</time>
      </trkpt>
      <trkpt lat="48.59169" lon="-3.15381">
        <ele>160</ele>
        <time>2016-06-06T13:48:27.1Z</time>
      </trkpt>
      <trkpt lat="48.59168" lon="-3.15383">
        <ele>160</ele>
        <time>2016-06-06T13:48:29.1Z</time>
      </trkpt>
      <trkpt lat="48.59167" lon="-3.15388">
        <ele>160</ele>
        <time>2016-06-06T13:48:32.1Z</time>
      </trkpt>
      <trkpt lat="48.59166" lon="-3.15392">
        <ele>160</ele>
        <time>2016-06-06T13:48:35.1Z</time>
      </trkpt>
      <trkpt lat="48.59165" lon="-3.15395">
        <ele>161</ele>
        <time>2016-06-06T13:48:37.1Z</time>
      </trkpt>
      <trkpt lat="48.59164" lon="-3.154">
        <ele>161</ele>
        <time>2016-06-06T13:48:40.1Z</time>
      </trkpt>
      <trkpt lat="48.59163" lon="-3.15402">
        <ele>161</ele>
        <time>2016-06-06T13:48:43.1Z</time>
      </trkpt>
      <trkpt lat="48.59162" lon="-3.15402">
        <ele>161</ele>
        <time>2016-06-06T13:48:45.1Z</time>
      </trkpt>
      <trkpt lat="48.59161" lon="-3.15402">
        <ele>161</ele>
        <time>2016-06-06T13:48:47.1Z</time>
      </trkpt>
      <trkpt lat="48.59161" lon="-3.15402">
        <ele>161</ele>
        <time>2016-06-06T13:48:50.1Z</time>
      </trkpt>
      <trkpt lat="48.59161" lon="-3.15402">
        <ele>161</ele>
        <time>2016-06-06T13:48:52.1Z</time>
      </trkpt>
      <trkpt lat="48.59161" lon="-3.15402">
        <ele>161</ele>
        <time>2016-06-06T13:48:56.1Z</time>
      </trkpt>
      <trkpt lat="48.59162" lon="-3.15402">
        <ele>161</ele>
        <time>2016-06-06T13:48:59.1Z</time>
      </trkpt>
      <trkpt lat="48.59162" lon="-3.15402">
        <ele>161</ele>
        <time>2016-06-06T13:49:02.1Z</time>
      </trkpt>
      <trkpt lat="48.59162" lon="-3.15402">
        <ele>161</ele>
        <time>2016-06-06T13:49:05.1Z</time>
      </trkpt>
      <trkpt lat="48.59161" lon="-3.15403">
        <ele>161</ele>
        <time>2016-06-06T13:49:08.1Z</time>
      </trkpt>
      <trkpt lat="48.5916" lon="-3.15406">
        <ele>161</ele>
        <time>2016-06-06T13:49:11.1Z</time>
      </trkpt>
      <trkpt lat="48.5916" lon="-3.15408">
        <ele>161</ele>
        <time>2016-06-06T13:49:14.1Z</time>
      </trkpt>
      <trkpt lat="48.59161" lon="-3.15408">
        <ele>161</ele>
        <time>2016-06-06T13:49:17.1Z</time>
      </trkpt>
      <trkpt lat="48.59162" lon="-3.15408">
        <ele>162</ele>
        <time>2016-06-06T13:49:20.1Z</time>
      </trkpt>
      <trkpt lat="48.59163" lon="-3.15409">
        <ele>162</ele>
        <time>2016-06-06T13:49:22.1Z</time>
      </trkpt>
      <trkpt lat="48.59163" lon="-3.15409">
        <ele>162</ele>
        <time>2016-06-06T13:49:25.1Z</time>
      </trkpt>
      <trkpt lat="48.59164" lon="-3.1541">
        <ele>161</ele>
        <time>2016-06-06T13:49:27.1Z</time>
      </trkpt>
      <trkpt lat="48.59166" lon="-3.1541">
        <ele>161</ele>
        <time>2016-06-06T13:49:29.1Z</time>
      </trkpt>
      <trkpt lat="48.59167" lon="-3.1541">
        <ele>161</ele>
        <time>2016-06-06T13:49:32.1Z</time>
      </trkpt>
      <trkpt lat="48.59167" lon="-3.15411">
        <ele>161</ele>
        <time>2016-06-06T13:49:35.1Z</time>
      </trkpt>
      <trkpt lat="48.59167" lon="-3.15411">
        <ele>161</ele>
        <time>2016-06-06T13:49:37.1Z</time>
      </trkpt>
      <trkpt lat="48.59168" lon="-3.15411">
        <ele>161</ele>
        <time>2016-06-06T13:49:39.1Z</time>
      </trkpt>
      <trkpt lat="48.59169" lon="-3.15411">
        <ele>161</ele>
        <time>2016-06-06T13:49:42.1Z</time>
      </trkpt>
      <trkpt lat="48.59169" lon="-3.15412">
        <ele>161</ele>
        <time>2016-06-06T13:49:45.1Z</time>
      </trkpt>
      <trkpt lat="48.59169" lon="-3.15412">
        <ele>161</ele>
        <time>2016-06-06T13:49:47.1Z</time>
      </trkpt>
      <trkpt lat="48.5917" lon="-3.15412">
        <ele>161</ele>
        <time>2016-06-06T13:49:49.1Z</time>
      </trkpt>
      <trkpt lat="48.59169" lon="-3.15413">
        <ele>161</ele>
        <time>2016-06-06T13:49:52.1Z</time>
      </trkpt>
      <trkpt lat="48.59169" lon="-3.15413">
        <ele>161</ele>
        <time>2016-06-06T13:49:54.1Z</time>
      </trkpt>
      <trkpt lat="48.5917" lon="-3.15413">
        <ele>161</ele>
        <time>2016-06-06T13:49:56.1Z</time>
      </trkpt>
      <trkpt lat="48.5917" lon="-3.15413">
        <ele>162</ele>
        <time>2016-06-06T13:49:59.1Z</time>
      </trkpt>
      <trkpt lat="48.5917" lon="-3.15414">
        <ele>162</ele>
        <time>2016-06-06T13:50:01.1Z</time>
      </trkpt>
      <trkpt lat="48.5917" lon="-3.15413">
        <ele>162</ele>
        <time>2016-06-06T13:50:03.1Z</time>
      </trkpt>
      <trkpt lat="48.59169" lon="-3.15414">
        <ele>162</ele>
        <time>2016-06-06T13:50:06.1Z</time>
      </trkpt>
      <trkpt lat="48.59169" lon="-3.15414">
        <ele>162</ele>
        <time>2016-06-06T13:50:09.1Z</time>
      </trkpt>
      <trkpt lat="48.59168" lon="-3.15413">
        <ele>162</ele>
        <time>2016-06-06T13:50:12.1Z</time>
      </trkpt>
      <trkpt lat="48.59168" lon="-3.15414">
        <ele>162</ele>
        <time>2016-06-06T13:50:14.1Z</time>
      </trkpt>
      <trkpt lat="48.59167" lon="-3.15413">
        <ele>162</ele>
        <time>2016-06-06T13:50:17.1Z</time>
      </trkpt>
      <trkpt lat="48.59167" lon="-3.15413">
        <ele>162</ele>
        <time>2016-06-06T13:50:19.1Z</time>
      </trkpt>
      <trkpt lat="48.59167" lon="-3.15413">
        <ele>161</ele>
        <time>2016-06-06T13:50:23.1Z</time>
      </trkpt>
      <trkpt lat="48.59169" lon="-3.15412">
        <ele>161</ele>
        <time>2016-06-06T13:50:25.1Z</time>
      </trkpt>
      <trkpt lat="48.59168" lon="-3.15412">
        <ele>161</ele>
        <time>2016-06-06T13:50:27.1Z</time>
      </trkpt>
      <trkpt lat="48.59168" lon="-3.15411">
        <ele>161</ele>
        <time>2016-06-06T13:50:30.1Z</time>
      </trkpt>
      <trkpt lat="48.59167" lon="-3.15411">
        <ele>161</ele>
        <time>2016-06-06T13:50:33.1Z</time>
      </trkpt>
      <trkpt lat="48.59166" lon="-3.15411">
        <ele>161</ele>
        <time>2016-06-06T13:50:36.1Z</time>
      </trkpt>
      <trkpt lat="48.59165" lon="-3.15411">
        <ele>161</ele>
        <time>2016-06-06T13:50:38.1Z</time>
      </trkpt>
      <trkpt lat="48.59165" lon="-3.1541">
        <ele>162</ele>
        <time>2016-06-06T13:50:40.1Z</time>
      </trkpt>
      <trkpt lat="48.59164" lon="-3.1541">
        <ele>162</ele>
        <time>2016-06-06T13:50:43.1Z</time>
      </trkpt>
      <trkpt lat="48.59162" lon="-3.15411">
        <ele>161</ele>
        <time>2016-06-06T13:50:45.1Z</time>
      </trkpt>
      <trkpt lat="48.59161" lon="-3.15411">
        <ele>161</ele>
        <time>2016-06-06T13:50:48.1Z</time>
      </trkpt>
      <trkpt lat="48.59161" lon="-3.15411">
        <ele>161</ele>
        <time>2016-06-06T13:50:50.1Z</time>
      </trkpt>
      <trkpt lat="48.5916" lon="-3.1541">
        <ele>162</ele>
        <time>2016-06-06T13:50:53.1Z</time>
      </trkpt>
      <trkpt lat="48.59159" lon="-3.15411">
        <ele>162</ele>
        <time>2016-06-06T13:50:55.1Z</time>
      </trkpt>
      <trkpt lat="48.59158" lon="-3.1541">
        <ele>162</ele>
        <time>2016-06-06T13:50:58.1Z</time>
      </trkpt>
      <trkpt lat="48.59156" lon="-3.15411">
        <ele>162</ele>
        <time>2016-06-06T13:51:00.1Z</time>
      </trkpt>
      <trkpt lat="48.59155" lon="-3.15411">
        <ele>162</ele>
        <time>2016-06-06T13:51:03.1Z</time>
      </trkpt>
      <trkpt lat="48.59153" lon="-3.15411">
        <ele>162</ele>
        <time>2016-06-06T13:51:05.1Z</time>
      </trkpt>
      <trkpt lat="48.59153" lon="-3.1541">
        <ele>162</ele>
        <time>2016-06-06T13:51:07.1Z</time>
      </trkpt>
      <trkpt lat="48.59153" lon="-3.1541">
        <ele>161</ele>
        <time>2016-06-06T13:51:10.1Z</time>
      </trkpt>
      <trkpt lat="48.59153" lon="-3.15409">
        <ele>162</ele>
        <time>2016-06-06T13:51:12.1Z</time>
      </trkpt>
      <trkpt lat="48.59152" lon="-3.15409">
        <ele>161</ele>
        <time>2016-06-06T13:51:15.1Z</time>
      </trkpt>
      <trkpt lat="48.59152" lon="-3.15409">
        <ele>161</ele>
        <time>2016-06-06T13:51:17.1Z</time>
      </trkpt>
      <trkpt lat="48.59153" lon="-3.1541">
        <ele>161</ele>
        <time>2016-06-06T13:51:20.1Z</time>
      </trkpt>
      <trkpt lat="48.59155" lon="-3.1541">
        <ele>161</ele>
        <time>2016-06-06T13:51:22.1Z</time>
      </trkpt>
      <trkpt lat="48.59155" lon="-3.15411">
        <ele>161</ele>
        <time>2016-06-06T13:51:24.1Z</time>
      </trkpt>
      <trkpt lat="48.59155" lon="-3.1541">
        <ele>161</ele>
        <time>2016-06-06T13:51:27.1Z</time>
      </trkpt>
      <trkpt lat="48.59155" lon="-3.1541">
        <ele>161</ele>
        <time>2016-06-06T13:51:29.1Z</time>
      </trkpt>
      <trkpt lat="48.59155" lon="-3.1541">
        <ele>161</ele>
        <time>2016-06-06T13:51:31.1Z</time>
      </trkpt>
      <trkpt lat="48.59156" lon="-3.1541">
        <ele>162</ele>
        <time>2016-06-06T13:51:33.1Z</time>
      </trkpt>
      <trkpt lat="48.59156" lon="-3.1541">
        <ele>162</ele>
        <time>2016-06-06T13:51:36.1Z</time>
      </trkpt>
      <trkpt lat="48.59157" lon="-3.15411">
        <ele>162</ele>
        <time>2016-06-06T13:51:40.1Z</time>
      </trkpt>
      <trkpt lat="48.59158" lon="-3.15411">
        <ele>161</ele>
        <time>2016-06-06T13:51:43.1Z</time>
      </trkpt>
      <trkpt lat="48.59158" lon="-3.15411">
        <ele>161</ele>
        <time>2016-06-06T13:51:45.1Z</time>
      </trkpt>
      <trkpt lat="48.59157" lon="-3.15411">
        <ele>161</ele>
        <time>2016-06-06T13:51:47.1Z</time>
      </trkpt>
      <trkpt lat="48.59157" lon="-3.15411">
        <ele>161</ele>
        <time>2016-06-06T13:51:49.1Z</time>
      </trkpt>
      <trkpt lat="48.59158" lon="-3.15411">
        <ele>161</ele>
        <time>2016-06-06T13:51:52.1Z</time>
      </trkpt>
      <trkpt lat="48.59159" lon="-3.1541">
        <ele>161</ele>
        <time>2016-06-06T13:51:54.1Z</time>
      </trkpt>
      <trkpt lat="48.59158" lon="-3.15408">
        <ele>161</ele>
        <time>2016-06-06T13:51:57.1Z</time>
      </trkpt>
      <trkpt lat="48.59158" lon="-3.15409">
        <ele>161</ele>
        <time>2016-06-06T13:51:59.1Z</time>
      </trkpt>
      <trkpt lat="48.59158" lon="-3.15409">
        <ele>161</ele>
        <time>2016-06-06T13:52:02.1Z</time>
      </trkpt>
      <trkpt lat="48.59158" lon="-3.1541">
        <ele>161</ele>
        <time>2016-06-06T13:52:06.1Z</time>
      </trkpt>
      <trkpt lat="48.59158" lon="-3.1541">
        <ele>161</ele>
        <time>2016-06-06T13:52:08.1Z</time>
      </trkpt>
      <trkpt lat="48.59157" lon="-3.1541">
        <ele>161</ele>
        <time>2016-06-06T13:52:11.1Z</time>
      </trkpt>
      <trkpt lat="48.59158" lon="-3.1541">
        <ele>161</ele>
        <time>2016-06-06T13:52:13.1Z</time>
      </trkpt>
      <trkpt lat="48.59159" lon="-3.1541">
        <ele>161</ele>
        <time>2016-06-06T13:52:16.1Z</time>
      </trkpt>
      <trkpt lat="48.5916" lon="-3.1541">
        <ele>161</ele>
        <time>2016-06-06T13:52:18.1Z</time>
      </trkpt>
      <trkpt lat="48.59161" lon="-3.1541">
        <ele>161</ele>
        <time>2016-06-06T13:52:20.1Z</time>
      </trkpt>
      <trkpt lat="48.59163" lon="-3.1541">
        <ele>161</ele>
        <time>2016-06-06T13:52:22.1Z</time>
      </trkpt>
      <trkpt lat="48.59164" lon="-3.1541">
        <ele>161</ele>
        <time>2016-06-06T13:52:24.1Z</time>
      </trkpt>
      <trkpt lat="48.59165" lon="-3.1541">
        <ele>161</ele>
        <time>2016-06-06T13:52:26.1Z</time>
      </trkpt>
      <trkpt lat="48.59167" lon="-3.1541">
        <ele>161</ele>
        <time>2016-06-06T13:52:29.1Z</time>
      </trkpt>
      <trkpt lat="48.59167" lon="-3.1541">
        <ele>161</ele>
        <time>2016-06-06T13:52:32.1Z</time>
      </trkpt>
      <trkpt lat="48.59167" lon="-3.1541">
        <ele>161</ele>
        <time>2016-06-06T13:52:35.1Z</time>
      </trkpt>
      <trkpt lat="48.59166" lon="-3.15412">
        <ele>161</ele>
        <time>2016-06-06T13:52:38.1Z</time>
      </trkpt>
      <trkpt lat="48.59165" lon="-3.15415">
        <ele>161</ele>
        <time>2016-06-06T13:52:40.1Z</time>
      </trkpt>
      <trkpt lat="48.59163" lon="-3.15418">
        <ele>161</ele>
        <time>2016-06-06T13:52:43.1Z</time>
      </trkpt>
      <trkpt lat="48.59163" lon="-3.15422">
        <ele>161</ele>
        <time>2016-06-06T13:52:45.1Z</time>
      </trkpt>
      <trkpt lat="48.59161" lon="-3.15425">
        <ele>162</ele>
        <time>2016-06-06T13:52:48.1Z</time>
      </trkpt>
      <trkpt lat="48.59158" lon="-3.15429">
        <ele>162</ele>
        <time>2016-06-06T13:52:51.1Z</time>
      </trkpt>
      <trkpt lat="48.59157" lon="-3.15432">
        <ele>162</ele>
        <time>2016-06-06T13:52:54.1Z</time>
      </trkpt>
      <trkpt lat="48.59156" lon="-3.15435">
        <ele>162</ele>
        <time>2016-06-06T13:52:56.1Z</time>
      </trkpt>
      <trkpt lat="48.59155" lon="-3.15438">
        <ele>163</ele>
        <time>2016-06-06T13:52:59.1Z</time>
      </trkpt>
      <trkpt lat="48.59154" lon="-3.15443">
        <ele>163</ele>
        <time>2016-06-06T13:53:01.1Z</time>
      </trkpt>
      <trkpt lat="48.59152" lon="-3.15446">
        <ele>163</ele>
        <time>2016-06-06T13:53:04.1Z</time>
      </trkpt>
      <trkpt lat="48.59151" lon="-3.1545">
        <ele>163</ele>
        <time>2016-06-06T13:53:06.1Z</time>
      </trkpt>
      <trkpt lat="48.59149" lon="-3.15454">
        <ele>164</ele>
        <time>2016-06-06T13:53:10.1Z</time>
      </trkpt>
      <trkpt lat="48.59148" lon="-3.15458">
        <ele>164</ele>
        <time>2016-06-06T13:53:12.1Z</time>
      </trkpt>
      <trkpt lat="48.59146" lon="-3.15462">
        <ele>164</ele>
        <time>2016-06-06T13:53:15.1Z</time>
      </trkpt>
      <trkpt lat="48.59145" lon="-3.15464">
        <ele>164</ele>
        <time>2016-06-06T13:53:18.1Z</time>
      </trkpt>
      <trkpt lat="48.59144" lon="-3.15467">
        <ele>164</ele>
        <time>2016-06-06T13:53:20.1Z</time>
      </trkpt>
      <trkpt lat="48.59143" lon="-3.15471">
        <ele>164</ele>
        <time>2016-06-06T13:53:22.1Z</time>
      </trkpt>
      <trkpt lat="48.59142" lon="-3.15473">
        <ele>164</ele>
        <time>2016-06-06T13:53:24.1Z</time>
      </trkpt>
      <trkpt lat="48.5914" lon="-3.15477">
        <ele>165</ele>
        <time>2016-06-06T13:53:27.1Z</time>
      </trkpt>
      <trkpt lat="48.59138" lon="-3.1548">
        <ele>165</ele>
        <time>2016-06-06T13:53:30.1Z</time>
      </trkpt>
      <trkpt lat="48.59137" lon="-3.15484">
        <ele>166</ele>
        <time>2016-06-06T13:53:33.1Z</time>
      </trkpt>
      <trkpt lat="48.59136" lon="-3.15487">
        <ele>166</ele>
        <time>2016-06-06T13:53:35.1Z</time>
      </trkpt>
      <trkpt lat="48.59135" lon="-3.1549">
        <ele>166</ele>
        <time>2016-06-06T13:53:38.1Z</time>
      </trkpt>
      <trkpt lat="48.59133" lon="-3.15493">
        <ele>166</ele>
        <time>2016-06-06T13:53:40.1Z</time>
      </trkpt>
      <trkpt lat="48.59132" lon="-3.15496">
        <ele>166</ele>
        <time>2016-06-06T13:53:42.1Z</time>
      </trkpt>
      <trkpt lat="48.5913" lon="-3.15499">
        <ele>167</ele>
        <time>2016-06-06T13:53:44.1Z</time>
      </trkpt>
      <trkpt lat="48.59129" lon="-3.15502">
        <ele>167</ele>
        <time>2016-06-06T13:53:46.1Z</time>
      </trkpt>
      <trkpt lat="48.59128" lon="-3.15504">
        <ele>167</ele>
        <time>2016-06-06T13:53:49.1Z</time>
      </trkpt>
      <trkpt lat="48.59127" lon="-3.15508">
        <ele>167</ele>
        <time>2016-06-06T13:53:51.1Z</time>
      </trkpt>
      <trkpt lat="48.59125" lon="-3.15511">
        <ele>167</ele>
        <time>2016-06-06T13:53:54.1Z</time>
      </trkpt>
      <trkpt lat="48.59125" lon="-3.15516">
        <ele>168</ele>
        <time>2016-06-06T13:53:57.1Z</time>
      </trkpt>
      <trkpt lat="48.59124" lon="-3.15521">
        <ele>168</ele>
        <time>2016-06-06T13:54:00.1Z</time>
      </trkpt>
      <trkpt lat="48.59123" lon="-3.15526">
        <ele>168</ele>
        <time>2016-06-06T13:54:03.1Z</time>
      </trkpt>
      <trkpt lat="48.59122" lon="-3.15531">
        <ele>168</ele>
        <time>2016-06-06T13:54:05.1Z</time>
      </trkpt>
      <trkpt lat="48.59121" lon="-3.15534">
        <ele>168</ele>
        <time>2016-06-06T13:54:07.1Z</time>
      </trkpt>
      <trkpt lat="48.5912" lon="-3.15537">
        <ele>168</ele>
        <time>2016-06-06T13:54:10.1Z</time>
      </trkpt>
      <trkpt lat="48.59119" lon="-3.15542">
        <ele>169</ele>
        <time>2016-06-06T13:54:12.1Z</time>
      </trkpt>
      <trkpt lat="48.59119" lon="-3.15544">
        <ele>169</ele>
        <time>2016-06-06T13:54:15.1Z</time>
      </trkpt>
      <trkpt lat="48.59118" lon="-3.15549">
        <ele>169</ele>
        <time>2016-06-06T13:54:17.1Z</time>
      </trkpt>
      <trkpt lat="48.59117" lon="-3.15554">
        <ele>169</ele>
        <time>2016-06-06T13:54:21.1Z</time>
      </trkpt>
      <trkpt lat="48.59116" lon="-3.15558">
        <ele>169</ele>
        <time>2016-06-06T13:54:24.1Z</time>
      </trkpt>
      <trkpt lat="48.59116" lon="-3.15563">
        <ele>169</ele>
        <time>2016-06-06T13:54:26.1Z</time>
      </trkpt>
      <trkpt lat="48.59115" lon="-3.15567">
        <ele>169</ele>
        <time>2016-06-06T13:54:29.1Z</time>
      </trkpt>
      <trkpt lat="48.59114" lon="-3.15571">
        <ele>170</ele>
        <time>2016-06-06T13:54:32.1Z</time>
      </trkpt>
      <trkpt lat="48.59114" lon="-3.15576">
        <ele>170</ele>
        <time>2016-06-06T13:54:35.1Z</time>
      </trkpt>
      <trkpt lat="48.59113" lon="-3.15582">
        <ele>170</ele>
        <time>2016-06-06T13:54:37.1Z</time>
      </trkpt>
      <trkpt lat="48.59112" lon="-3.15587">
        <ele>170</ele>
        <time>2016-06-06T13:54:41.1Z</time>
      </trkpt>
      <trkpt lat="48.59111" lon="-3.15593">
        <ele>170</ele>
        <time>2016-06-06T13:54:43.1Z</time>
      </trkpt>
      <trkpt lat="48.5911" lon="-3.15596">
        <ele>170</ele>
        <time>2016-06-06T13:54:45.1Z</time>
      </trkpt>
      <trkpt lat="48.5911" lon="-3.15599">
        <ele>170</ele>
        <time>2016-06-06T13:54:48.1Z</time>
      </trkpt>
      <trkpt lat="48.59108" lon="-3.15603">
        <ele>170</ele>
        <time>2016-06-06T13:54:50.1Z</time>
      </trkpt>
      <trkpt lat="48.59107" lon="-3.15605">
        <ele>170</ele>
        <time>2016-06-06T13:54:52.1Z</time>
      </trkpt>
      <trkpt lat="48.59106" lon="-3.1561">
        <ele>170</ele>
        <time>2016-06-06T13:54:56.1Z</time>
      </trkpt>
      <trkpt lat="48.59106" lon="-3.15612">
        <ele>170</ele>
        <time>2016-06-06T13:54:58.1Z</time>
      </trkpt>
      <trkpt lat="48.59106" lon="-3.15613">
        <ele>170</ele>
        <time>2016-06-06T13:55:01.1Z</time>
      </trkpt>
      <trkpt lat="48.59106" lon="-3.15614">
        <ele>170</ele>
        <time>2016-06-06T13:55:03.1Z</time>
      </trkpt>
      <trkpt lat="48.59106" lon="-3.15615">
        <ele>170</ele>
        <time>2016-06-06T13:55:06.1Z</time>
      </trkpt>
      <trkpt lat="48.59106" lon="-3.15615">
        <ele>170</ele>
        <time>2016-06-06T13:55:09.1Z</time>
      </trkpt>
      <trkpt lat="48.59106" lon="-3.15616">
        <ele>170</ele>
        <time>2016-06-06T13:55:11.1Z</time>
      </trkpt>
      <trkpt lat="48.59106" lon="-3.15617">
        <ele>170</ele>
        <time>2016-06-06T13:55:15.1Z</time>
      </trkpt>
      <trkpt lat="48.59106" lon="-3.15618">
        <ele>169</ele>
        <time>2016-06-06T13:55:18.1Z</time>
      </trkpt>
      <trkpt lat="48.59106" lon="-3.15618">
        <ele>169</ele>
        <time>2016-06-06T13:55:20.1Z</time>
      </trkpt>
      <trkpt lat="48.59105" lon="-3.15618">
        <ele>170</ele>
        <time>2016-06-06T13:55:23.1Z</time>
      </trkpt>
      <trkpt lat="48.59105" lon="-3.1562">
        <ele>170</ele>
        <time>2016-06-06T13:55:25.1Z</time>
      </trkpt>
      <trkpt lat="48.59105" lon="-3.1562">
        <ele>170</ele>
        <time>2016-06-06T13:55:30.1Z</time>
      </trkpt>
      <trkpt lat="48.59105" lon="-3.1562">
        <ele>169</ele>
        <time>2016-06-06T13:55:32.1Z</time>
      </trkpt>
      <trkpt lat="48.59105" lon="-3.1562">
        <ele>169</ele>
        <time>2016-06-06T13:55:36.1Z</time>
      </trkpt>
      <trkpt lat="48.59105" lon="-3.15621">
        <ele>170</ele>
        <time>2016-06-06T13:55:38.1Z</time>
      </trkpt>
      <trkpt lat="48.59105" lon="-3.15621">
        <ele>170</ele>
        <time>2016-06-06T13:55:40.1Z</time>
      </trkpt>
      <trkpt lat="48.59105" lon="-3.15621">
        <ele>170</ele>
        <time>2016-06-06T13:55:44.1Z</time>
      </trkpt>
      <trkpt lat="48.59106" lon="-3.15621">
        <ele>170</ele>
        <time>2016-06-06T13:55:46.1Z</time>
      </trkpt>
      <trkpt lat="48.59106" lon="-3.15621">
        <ele>170</ele>
        <time>2016-06-06T13:55:48.1Z</time>
      </trkpt>
      <trkpt lat="48.59106" lon="-3.15621">
        <ele>170</ele>
        <time>2016-06-06T13:55:51.1Z</time>
      </trkpt>
      <trkpt lat="48.59106" lon="-3.15621">
        <ele>170</ele>
        <time>2016-06-06T13:55:54.1Z</time>
      </trkpt>
      <trkpt lat="48.59106" lon="-3.15621">
        <ele>170</ele>
        <time>2016-06-06T13:55:56.1Z</time>
      </trkpt>
      <trkpt lat="48.59106" lon="-3.1562">
        <ele>170</ele>
        <time>2016-06-06T13:56:00.1Z</time>
      </trkpt>
      <trkpt lat="48.59106" lon="-3.1562">
        <ele>169</ele>
        <time>2016-06-06T13:56:02.1Z</time>
      </trkpt>
      <trkpt lat="48.59106" lon="-3.1562">
        <ele>169</ele>
        <time>2016-06-06T13:56:06.1Z</time>
      </trkpt>
      <trkpt lat="48.59106" lon="-3.1562">
        <ele>169</ele>
        <time>2016-06-06T13:56:08.1Z</time>
      </trkpt>
      <trkpt lat="48.59106" lon="-3.1562">
        <ele>170</ele>
        <time>2016-06-06T13:56:11.1Z</time>
      </trkpt>
      <trkpt lat="48.59106" lon="-3.1562">
        <ele>170</ele>
        <time>2016-06-06T13:56:14.1Z</time>
      </trkpt>
      <trkpt lat="48.59106" lon="-3.1562">
        <ele>170</ele>
        <time>2016-06-06T13:56:17.1Z</time>
      </trkpt>
      <trkpt lat="48.59106" lon="-3.15621">
        <ele>170</ele>
        <time>2016-06-06T13:56:19.1Z</time>
      </trkpt>
      <trkpt lat="48.59106" lon="-3.15622">
        <ele>170</ele>
        <time>2016-06-06T13:56:23.1Z</time>
      </trkpt>
      <trkpt lat="48.59107" lon="-3.15622">
        <ele>170</ele>
        <time>2016-06-06T13:56:25.1Z</time>
      </trkpt>
      <trkpt lat="48.59107" lon="-3.15622">
        <ele>170</ele>
        <time>2016-06-06T13:56:28.1Z</time>
      </trkpt>
      <trkpt lat="48.59106" lon="-3.15622">
        <ele>170</ele>
        <time>2016-06-06T13:56:30.1Z</time>
      </trkpt>
      <trkpt lat="48.59105" lon="-3.15622">
        <ele>169</ele>
        <time>2016-06-06T13:56:32.1Z</time>
      </trkpt>
      <trkpt lat="48.59103" lon="-3.15622">
        <ele>169</ele>
        <time>2016-06-06T13:56:34.1Z</time>
      </trkpt>
      <trkpt lat="48.59103" lon="-3.15622">
        <ele>169</ele>
        <time>2016-06-06T13:56:37.1Z</time>
      </trkpt>
      <trkpt lat="48.59102" lon="-3.15621">
        <ele>169</ele>
        <time>2016-06-06T13:56:39.1Z</time>
      </trkpt>
      <trkpt lat="48.59101" lon="-3.15621">
        <ele>169</ele>
        <time>2016-06-06T13:56:41.1Z</time>
      </trkpt>
      <trkpt lat="48.59099" lon="-3.15622">
        <ele>169</ele>
        <time>2016-06-06T13:56:43.1Z</time>
      </trkpt>
      <trkpt lat="48.59098" lon="-3.15623">
        <ele>169</ele>
        <time>2016-06-06T13:56:45.1Z</time>
      </trkpt>
      <trkpt lat="48.59098" lon="-3.15622">
        <ele>169</ele>
        <time>2016-06-06T13:56:49.1Z</time>
      </trkpt>
      <trkpt lat="48.59098" lon="-3.15622">
        <ele>169</ele>
        <time>2016-06-06T13:56:52.1Z</time>
      </trkpt>
      <trkpt lat="48.59098" lon="-3.15622">
        <ele>169</ele>
        <time>2016-06-06T13:56:56.1Z</time>
      </trkpt>
      <trkpt lat="48.59098" lon="-3.15622">
        <ele>169</ele>
        <time>2016-06-06T13:57:00.1Z</time>
      </trkpt>
      <trkpt lat="48.59098" lon="-3.15622">
        <ele>169</ele>
        <time>2016-06-06T13:57:04.1Z</time>
      </trkpt>
      <trkpt lat="48.59098" lon="-3.15621">
        <ele>169</ele>
        <time>2016-06-06T13:57:06.1Z</time>
      </trkpt>
      <trkpt lat="48.59097" lon="-3.15621">
        <ele>169</ele>
        <time>2016-06-06T13:57:10.1Z</time>
      </trkpt>
      <trkpt lat="48.59098" lon="-3.1562">
        <ele>169</ele>
        <time>2016-06-06T13:57:13.1Z</time>
      </trkpt>
      <trkpt lat="48.59097" lon="-3.15621">
        <ele>169</ele>
        <time>2016-06-06T13:57:16.1Z</time>
      </trkpt>
      <trkpt lat="48.59096" lon="-3.1562">
        <ele>169</ele>
        <time>2016-06-06T13:57:19.1Z</time>
      </trkpt>
      <trkpt lat="48.59094" lon="-3.15618">
        <ele>169</ele>
        <time>2016-06-06T13:57:21.1Z</time>
      </trkpt>
      <trkpt lat="48.59093" lon="-3.15617">
        <ele>169</ele>
        <time>2016-06-06T13:57:23.1Z</time>
      </trkpt>
      <trkpt lat="48.59091" lon="-3.15617">
        <ele>169</ele>
        <time>2016-06-06T13:57:25.1Z</time>
      </trkpt>
      <trkpt lat="48.59089" lon="-3.15616">
        <ele>169</ele>
        <time>2016-06-06T13:57:28.1Z</time>
      </trkpt>
      <trkpt lat="48.59087" lon="-3.15615">
        <ele>168</ele>
        <time>2016-06-06T13:57:30.1Z</time>
      </trkpt>
      <trkpt lat="48.59085" lon="-3.15614">
        <ele>168</ele>
        <time>2016-06-06T13:57:33.1Z</time>
      </trkpt>
      <trkpt lat="48.59083" lon="-3.15613">
        <ele>168</ele>
        <time>2016-06-06T13:57:35.1Z</time>
      </trkpt>
      <trkpt lat="48.5908" lon="-3.15612">
        <ele>168</ele>
        <time>2016-06-06T13:57:37.1Z</time>
      </trkpt>
      <trkpt lat="48.59079" lon="-3.15611">
        <ele>168</ele>
        <time>2016-06-06T13:57:39.1Z</time>
      </trkpt>
      <trkpt lat="48.59077" lon="-3.1561">
        <ele>168</ele>
        <time>2016-06-06T13:57:41.1Z</time>
      </trkpt>
      <trkpt lat="48.59075" lon="-3.15609">
        <ele>168</ele>
        <time>2016-06-06T13:57:43.1Z</time>
      </trkpt>
      <trkpt lat="48.59072" lon="-3.15607">
        <ele>167</ele>
        <time>2016-06-06T13:57:46.1Z</time>
      </trkpt>
      <trkpt lat="48.5907" lon="-3.15606">
        <ele>167</ele>
        <time>2016-06-06T13:57:48.1Z</time>
      </trkpt>
      <trkpt lat="48.59068" lon="-3.15605">
        <ele>167</ele>
        <time>2016-06-06T13:57:50.1Z</time>
      </trkpt>
      <trkpt lat="48.59064" lon="-3.15604">
        <ele>167</ele>
        <time>2016-06-06T13:57:53.1Z</time>
      </trkpt>
      <trkpt lat="48.59061" lon="-3.15602">
        <ele>167</ele>
        <time>2016-06-06T13:57:56.1Z</time>
      </trkpt>
      <trkpt lat="48.59058" lon="-3.15601">
        <ele>167</ele>
        <time>2016-06-06T13:57:59.1Z</time>
      </trkpt>
      <trkpt lat="48.59056" lon="-3.15599">
        <ele>167</ele>
        <time>2016-06-06T13:58:01.1Z</time>
      </trkpt>
      <trkpt lat="48.59053" lon="-3.15598">
        <ele>167</ele>
        <time>2016-06-06T13:58:04.1Z</time>
      </trkpt>
      <trkpt lat="48.5905" lon="-3.15597">
        <ele>167</ele>
        <time>2016-06-06T13:58:07.1Z</time>
      </trkpt>
      <trkpt lat="48.59047" lon="-3.15595">
        <ele>167</ele>
        <time>2016-06-06T13:58:10.1Z</time>
      </trkpt>
      <trkpt lat="48.59045" lon="-3.15594">
        <ele>167</ele>
        <time>2016-06-06T13:58:12.1Z</time>
      </trkpt>
      <trkpt lat="48.59042" lon="-3.15593">
        <ele>167</ele>
        <time>2016-06-06T13:58:15.1Z</time>
      </trkpt>
      <trkpt lat="48.5904" lon="-3.15592">
        <ele>166</ele>
        <time>2016-06-06T13:58:17.1Z</time>
      </trkpt>
      <trkpt lat="48.59037" lon="-3.1559">
        <ele>166</ele>
        <time>2016-06-06T13:58:20.1Z</time>
      </trkpt>
      <trkpt lat="48.59034" lon="-3.15589">
        <ele>166</ele>
        <time>2016-06-06T13:58:23.1Z</time>
      </trkpt>
      <trkpt lat="48.59032" lon="-3.15588">
        <ele>166</ele>
        <time>2016-06-06T13:58:25.1Z</time>
      </trkpt>
      <trkpt lat="48.59028" lon="-3.15587">
        <ele>166</ele>
        <time>2016-06-06T13:58:28.1Z</time>
      </trkpt>
      <trkpt lat="48.59026" lon="-3.15586">
        <ele>166</ele>
        <time>2016-06-06T13:58:31.1Z</time>
      </trkpt>
      <trkpt lat="48.59023" lon="-3.15585">
        <ele>166</ele>
        <time>2016-06-06T13:58:33.1Z</time>
      </trkpt>
      <trkpt lat="48.59021" lon="-3.15583">
        <ele>166</ele>
        <time>2016-06-06T13:58:35.1Z</time>
      </trkpt>
      <trkpt lat="48.59018" lon="-3.15581">
        <ele>165</ele>
        <time>2016-06-06T13:58:38.1Z</time>
      </trkpt>
      <trkpt lat="48.59017" lon="-3.1558">
        <ele>165</ele>
        <time>2016-06-06T13:58:40.1Z</time>
      </trkpt>
      <trkpt lat="48.59014" lon="-3.15578">
        <ele>165</ele>
        <time>2016-06-06T13:58:43.1Z</time>
      </trkpt>
      <trkpt lat="48.5901" lon="-3.15577">
        <ele>165</ele>
        <time>2016-06-06T13:58:46.1Z</time>
      </trkpt>
      <trkpt lat="48.59008" lon="-3.15575">
        <ele>165</ele>
        <time>2016-06-06T13:58:49.1Z</time>
      </trkpt>
      <trkpt lat="48.59006" lon="-3.15574">
        <ele>165</ele>
        <time>2016-06-06T13:58:51.1Z</time>
      </trkpt>
      <trkpt lat="48.59003" lon="-3.15572">
        <ele>164</ele>
        <time>2016-06-06T13:58:55.1Z</time>
      </trkpt>
      <trkpt lat="48.59" lon="-3.1557">
        <ele>164</ele>
        <time>2016-06-06T13:58:57.1Z</time>
      </trkpt>
      <trkpt lat="48.58998" lon="-3.15568">
        <ele>164</ele>
        <time>2016-06-06T13:58:59.1Z</time>
      </trkpt>
      <trkpt lat="48.58996" lon="-3.15567">
        <ele>164</ele>
        <time>2016-06-06T13:59:01.1Z</time>
      </trkpt>
      <trkpt lat="48.58992" lon="-3.15565">
        <ele>164</ele>
        <time>2016-06-06T13:59:04.1Z</time>
      </trkpt>
      <trkpt lat="48.58989" lon="-3.15563">
        <ele>164</ele>
        <time>2016-06-06T13:59:07.1Z</time>
      </trkpt>
      <trkpt lat="48.58987" lon="-3.15562">
        <ele>164</ele>
        <time>2016-06-06T13:59:09.1Z</time>
      </trkpt>
      <trkpt lat="48.58983" lon="-3.1556">
        <ele>164</ele>
        <time>2016-06-06T13:59:12.1Z</time>
      </trkpt>
      <trkpt lat="48.58979" lon="-3.15559">
        <ele>164</ele>
        <time>2016-06-06T13:59:15.1Z</time>
      </trkpt>
      <trkpt lat="48.58976" lon="-3.15557">
        <ele>164</ele>
        <time>2016-06-06T13:59:18.1Z</time>
      </trkpt>
      <trkpt lat="48.58972" lon="-3.15555">
        <ele>164</ele>
        <time>2016-06-06T13:59:20.1Z</time>
      </trkpt>
      <trkpt lat="48.58969" lon="-3.15556">
        <ele>164</ele>
        <time>2016-06-06T13:59:23.1Z</time>
      </trkpt>
      <trkpt lat="48.58965" lon="-3.15555">
        <ele>164</ele>
        <time>2016-06-06T13:59:26.1Z</time>
      </trkpt>
      <trkpt lat="48.58961" lon="-3.15554">
        <ele>164</ele>
        <time>2016-06-06T13:59:28.1Z</time>
      </trkpt>
      <trkpt lat="48.58957" lon="-3.15555">
        <ele>164</ele>
        <time>2016-06-06T13:59:31.1Z</time>
      </trkpt>
      <trkpt lat="48.58953" lon="-3.15556">
        <ele>164</ele>
        <time>2016-06-06T13:59:34.1Z</time>
      </trkpt>
      <trkpt lat="48.5895" lon="-3.15557">
        <ele>164</ele>
        <time>2016-06-06T13:59:36.1Z</time>
      </trkpt>
      <trkpt lat="48.58947" lon="-3.15559">
        <ele>164</ele>
        <time>2016-06-06T13:59:39.1Z</time>
      </trkpt>
      <trkpt lat="48.58944" lon="-3.15561">
        <ele>164</ele>
        <time>2016-06-06T13:59:42.1Z</time>
      </trkpt>
      <trkpt lat="48.58942" lon="-3.15564">
        <ele>164</ele>
        <time>2016-06-06T13:59:45.1Z</time>
      </trkpt>
      <trkpt lat="48.58938" lon="-3.15564">
        <ele>164</ele>
        <time>2016-06-06T13:59:48.1Z</time>
      </trkpt>
      <trkpt lat="48.58934" lon="-3.15566">
        <ele>164</ele>
        <time>2016-06-06T13:59:51.1Z</time>
      </trkpt>
      <trkpt lat="48.58932" lon="-3.15567">
        <ele>164</ele>
        <time>2016-06-06T13:59:53.1Z</time>
      </trkpt>
      <trkpt lat="48.58929" lon="-3.15567">
        <ele>164</ele>
        <time>2016-06-06T13:59:56.1Z</time>
      </trkpt>
      <trkpt lat="48.58925" lon="-3.15567">
        <ele>164</ele>
        <time>2016-06-06T13:59:58.1Z</time>
      </trkpt>
      <trkpt lat="48.58922" lon="-3.15567">
        <ele>164</ele>
        <time>2016-06-06T14:00:00.1Z</time>
      </trkpt>
      <trkpt lat="48.58918" lon="-3.15567">
        <ele>164</ele>
        <time>2016-06-06T14:00:03.1Z</time>
      </trkpt>
      <trkpt lat="48.58916" lon="-3.15567">
        <ele>164</ele>
        <time>2016-06-06T14:00:05.1Z</time>
      </trkpt>
      <trkpt lat="48.58914" lon="-3.15567">
        <ele>164</ele>
        <time>2016-06-06T14:00:07.1Z</time>
      </trkpt>
      <trkpt lat="48.5891" lon="-3.15566">
        <ele>164</ele>
        <time>2016-06-06T14:00:10.1Z</time>
      </trkpt>
      <trkpt lat="48.58908" lon="-3.15567">
        <ele>163</ele>
        <time>2016-06-06T14:00:12.1Z</time>
      </trkpt>
      <trkpt lat="48.58905" lon="-3.15566">
        <ele>163</ele>
        <time>2016-06-06T14:00:15.1Z</time>
      </trkpt>
      <trkpt lat="48.58902" lon="-3.15565">
        <ele>163</ele>
        <time>2016-06-06T14:00:18.1Z</time>
      </trkpt>
      <trkpt lat="48.58899" lon="-3.15565">
        <ele>163</ele>
        <time>2016-06-06T14:00:21.1Z</time>
      </trkpt>
      <trkpt lat="48.58897" lon="-3.15565">
        <ele>163</ele>
        <time>2016-06-06T14:00:23.1Z</time>
      </trkpt>
      <trkpt lat="48.58894" lon="-3.15565">
        <ele>163</ele>
        <time>2016-06-06T14:00:26.1Z</time>
      </trkpt>
      <trkpt lat="48.58892" lon="-3.15566">
        <ele>164</ele>
        <time>2016-06-06T14:00:28.1Z</time>
      </trkpt>
      <trkpt lat="48.58891" lon="-3.15568">
        <ele>164</ele>
        <time>2016-06-06T14:00:31.1Z</time>
      </trkpt>
      <trkpt lat="48.5889" lon="-3.1557">
        <ele>164</ele>
        <time>2016-06-06T14:00:33.1Z</time>
      </trkpt>
      <trkpt lat="48.58889" lon="-3.15572">
        <ele>164</ele>
        <time>2016-06-06T14:00:35.1Z</time>
      </trkpt>
      <trkpt lat="48.58888" lon="-3.15575">
        <ele>164</ele>
        <time>2016-06-06T14:00:38.1Z</time>
      </trkpt>
      <trkpt lat="48.58887" lon="-3.15577">
        <ele>164</ele>
        <time>2016-06-06T14:00:40.1Z</time>
      </trkpt>
      <trkpt lat="48.58886" lon="-3.15579">
        <ele>164</ele>
        <time>2016-06-06T14:00:42.1Z</time>
      </trkpt>
      <trkpt lat="48.58885" lon="-3.1558">
        <ele>164</ele>
        <time>2016-06-06T14:00:44.1Z</time>
      </trkpt>
      <trkpt lat="48.58884" lon="-3.15583">
        <ele>164</ele>
        <time>2016-06-06T14:00:47.1Z</time>
      </trkpt>
      <trkpt lat="48.58883" lon="-3.15586">
        <ele>164</ele>
        <time>2016-06-06T14:00:49.1Z</time>
      </trkpt>
      <trkpt lat="48.58883" lon="-3.15588">
        <ele>164</ele>
        <time>2016-06-06T14:00:51.1Z</time>
      </trkpt>
      <trkpt lat="48.58881" lon="-3.15591">
        <ele>164</ele>
        <time>2016-06-06T14:00:53.1Z</time>
      </trkpt>
      <trkpt lat="48.5888" lon="-3.15595">
        <ele>164</ele>
        <time>2016-06-06T14:00:56.1Z</time>
      </trkpt>
      <trkpt lat="48.58879" lon="-3.15597">
        <ele>164</ele>
        <time>2016-06-06T14:00:58.1Z</time>
      </trkpt>
      <trkpt lat="48.58878" lon="-3.15602">
        <ele>165</ele>
        <time>2016-06-06T14:01:01.1Z</time>
      </trkpt>
      <trkpt lat="48.58877" lon="-3.15604">
        <ele>165</ele>
        <time>2016-06-06T14:01:03.1Z</time>
      </trkpt>
      <trkpt lat="48.58876" lon="-3.15606">
        <ele>165</ele>
        <time>2016-06-06T14:01:05.1Z</time>
      </trkpt>
      <trkpt lat="48.58876" lon="-3.15609">
        <ele>165</ele>
        <time>2016-06-06T14:01:08.1Z</time>
      </trkpt>
      <trkpt lat="48.58875" lon="-3.15612">
        <ele>165</ele>
        <time>2016-06-06T14:01:10.1Z</time>
      </trkpt>
      <trkpt lat="48.58874" lon="-3.15615">
        <ele>165</ele>
        <time>2016-06-06T14:01:13.1Z</time>
      </trkpt>
      <trkpt lat="48.58873" lon="-3.15618">
        <ele>165</ele>
        <time>2016-06-06T14:01:15.1Z</time>
      </trkpt>
      <trkpt lat="48.58872" lon="-3.15621">
        <ele>166</ele>
        <time>2016-06-06T14:01:17.1Z</time>
      </trkpt>
      <trkpt lat="48.5887" lon="-3.15624">
        <ele>166</ele>
        <time>2016-06-06T14:01:19.1Z</time>
      </trkpt>
      <trkpt lat="48.5887" lon="-3.15627">
        <ele>166</ele>
        <time>2016-06-06T14:01:21.1Z</time>
      </trkpt>
      <trkpt lat="48.58869" lon="-3.15631">
        <ele>166</ele>
        <time>2016-06-06T14:01:23.1Z</time>
      </trkpt>
      <trkpt lat="48.58868" lon="-3.15635">
        <ele>167</ele>
        <time>2016-06-06T14:01:26.1Z</time>
      </trkpt>
      <trkpt lat="48.58867" lon="-3.15638">
        <ele>167</ele>
        <time>2016-06-06T14:01:28.1Z</time>
      </trkpt>
      <trkpt lat="48.58866" lon="-3.15641">
        <ele>167</ele>
        <time>2016-06-06T14:01:30.1Z</time>
      </trkpt>
      <trkpt lat="48.58865" lon="-3.15645">
        <ele>167</ele>
        <time>2016-06-06T14:01:33.1Z</time>
      </trkpt>
      <trkpt lat="48.58865" lon="-3.15647">
        <ele>167</ele>
        <time>2016-06-06T14:01:35.1Z</time>
      </trkpt>
      <trkpt lat="48.58863" lon="-3.15652">
        <ele>167</ele>
        <time>2016-06-06T14:01:38.1Z</time>
      </trkpt>
      <trkpt lat="48.58862" lon="-3.15656">
        <ele>167</ele>
        <time>2016-06-06T14:01:40.1Z</time>
      </trkpt>
      <trkpt lat="48.58861" lon="-3.15659">
        <ele>167</ele>
        <time>2016-06-06T14:01:42.1Z</time>
      </trkpt>
      <trkpt lat="48.5886" lon="-3.15665">
        <ele>167</ele>
        <time>2016-06-06T14:01:45.1Z</time>
      </trkpt>
      <trkpt lat="48.58858" lon="-3.15668">
        <ele>167</ele>
        <time>2016-06-06T14:01:47.1Z</time>
      </trkpt>
      <trkpt lat="48.58858" lon="-3.15672">
        <ele>168</ele>
        <time>2016-06-06T14:01:49.1Z</time>
      </trkpt>
      <trkpt lat="48.58856" lon="-3.15676">
        <ele>167</ele>
        <time>2016-06-06T14:01:52.1Z</time>
      </trkpt>
      <trkpt lat="48.58855" lon="-3.15679">
        <ele>168</ele>
        <time>2016-06-06T14:01:54.1Z</time>
      </trkpt>
      <trkpt lat="48.58854" lon="-3.15683">
        <ele>168</ele>
        <time>2016-06-06T14:01:56.1Z</time>
      </trkpt>
      <trkpt lat="48.58852" lon="-3.15686">
        <ele>168</ele>
        <time>2016-06-06T14:01:59.1Z</time>
      </trkpt>
      <trkpt lat="48.58852" lon="-3.1569">
        <ele>168</ele>
        <time>2016-06-06T14:02:01.1Z</time>
      </trkpt>
      <trkpt lat="48.58851" lon="-3.15693">
        <ele>168</ele>
        <time>2016-06-06T14:02:03.1Z</time>
      </trkpt>
      <trkpt lat="48.5885" lon="-3.15697">
        <ele>168</ele>
        <time>2016-06-06T14:02:05.1Z</time>
      </trkpt>
      <trkpt lat="48.58848" lon="-3.157">
        <ele>169</ele>
        <time>2016-06-06T14:02:07.1Z</time>
      </trkpt>
      <trkpt lat="48.58847" lon="-3.15704">
        <ele>169</ele>
        <time>2016-06-06T14:02:09.1Z</time>
      </trkpt>
      <trkpt lat="48.58846" lon="-3.15708">
        <ele>170</ele>
        <time>2016-06-06T14:02:12.1Z</time>
      </trkpt>
      <trkpt lat="48.58844" lon="-3.1571">
        <ele>170</ele>
        <time>2016-06-06T14:02:14.1Z</time>
      </trkpt>
      <trkpt lat="48.58843" lon="-3.15712">
        <ele>170</ele>
        <time>2016-06-06T14:02:16.1Z</time>
      </trkpt>
      <trkpt lat="48.58841" lon="-3.15717">
        <ele>171</ele>
        <time>2016-06-06T14:02:19.1Z</time>
      </trkpt>
      <trkpt lat="48.5884" lon="-3.1572">
        <ele>171</ele>
        <time>2016-06-06T14:02:21.1Z</time>
      </trkpt>
      <trkpt lat="48.58839" lon="-3.15724">
        <ele>171</ele>
        <time>2016-06-06T14:02:23.1Z</time>
      </trkpt>
      <trkpt lat="48.58838" lon="-3.15728">
        <ele>171</ele>
        <time>2016-06-06T14:02:26.1Z</time>
      </trkpt>
      <trkpt lat="48.58837" lon="-3.15732">
        <ele>171</ele>
        <time>2016-06-06T14:02:28.1Z</time>
      </trkpt>
      <trkpt lat="48.58836" lon="-3.15736">
        <ele>171</ele>
        <time>2016-06-06T14:02:31.1Z</time>
      </trkpt>
      <trkpt lat="48.58836" lon="-3.15739">
        <ele>172</ele>
        <time>2016-06-06T14:02:33.1Z</time>
      </trkpt>
      <trkpt lat="48.58834" lon="-3.15743">
        <ele>172</ele>
        <time>2016-06-06T14:02:36.1Z</time>
      </trkpt>
      <trkpt lat="48.58833" lon="-3.15746">
        <ele>172</ele>
        <time>2016-06-06T14:02:38.1Z</time>
      </trkpt>
      <trkpt lat="48.58833" lon="-3.15749">
        <ele>172</ele>
        <time>2016-06-06T14:02:40.1Z</time>
      </trkpt>
      <trkpt lat="48.58832" lon="-3.15752">
        <ele>172</ele>
        <time>2016-06-06T14:02:42.1Z</time>
      </trkpt>
      <trkpt lat="48.5883" lon="-3.15756">
        <ele>172</ele>
        <time>2016-06-06T14:02:45.1Z</time>
      </trkpt>
      <trkpt lat="48.5883" lon="-3.15759">
        <ele>173</ele>
        <time>2016-06-06T14:02:47.1Z</time>
      </trkpt>
      <trkpt lat="48.58828" lon="-3.15762">
        <ele>173</ele>
        <time>2016-06-06T14:02:49.1Z</time>
      </trkpt>
      <trkpt lat="48.58828" lon="-3.15765">
        <ele>173</ele>
        <time>2016-06-06T14:02:51.1Z</time>
      </trkpt>
      <trkpt lat="48.58827" lon="-3.15768">
        <ele>173</ele>
        <time>2016-06-06T14:02:54.1Z</time>
      </trkpt>
      <trkpt lat="48.58826" lon="-3.15773">
        <ele>174</ele>
        <time>2016-06-06T14:02:57.1Z</time>
      </trkpt>
      <trkpt lat="48.58826" lon="-3.15776">
        <ele>174</ele>
        <time>2016-06-06T14:02:59.1Z</time>
      </trkpt>
      <trkpt lat="48.58824" lon="-3.1578">
        <ele>174</ele>
        <time>2016-06-06T14:03:02.1Z</time>
      </trkpt>
      <trkpt lat="48.58823" lon="-3.15784">
        <ele>173</ele>
        <time>2016-06-06T14:03:04.1Z</time>
      </trkpt>
      <trkpt lat="48.58822" lon="-3.15788">
        <ele>173</ele>
        <time>2016-06-06T14:03:07.1Z</time>
      </trkpt>
      <trkpt lat="48.5882" lon="-3.15793">
        <ele>173</ele>
        <time>2016-06-06T14:03:10.1Z</time>
      </trkpt>
      <trkpt lat="48.58818" lon="-3.15796">
        <ele>173</ele>
        <time>2016-06-06T14:03:12.1Z</time>
      </trkpt>
      <trkpt lat="48.58816" lon="-3.15801">
        <ele>174</ele>
        <time>2016-06-06T14:03:15.1Z</time>
      </trkpt>
      <trkpt lat="48.58815" lon="-3.15804">
        <ele>174</ele>
        <time>2016-06-06T14:03:18.1Z</time>
      </trkpt>
      <trkpt lat="48.58814" lon="-3.15809">
        <ele>174</ele>
        <time>2016-06-06T14:03:21.1Z</time>
      </trkpt>
      <trkpt lat="48.58813" lon="-3.15814">
        <ele>174</ele>
        <time>2016-06-06T14:03:24.1Z</time>
      </trkpt>
      <trkpt lat="48.58813" lon="-3.15817">
        <ele>174</ele>
        <time>2016-06-06T14:03:26.1Z</time>
      </trkpt>
      <trkpt lat="48.58813" lon="-3.1582">
        <ele>174</ele>
        <time>2016-06-06T14:03:28.1Z</time>
      </trkpt>
      <trkpt lat="48.58811" lon="-3.15824">
        <ele>175</ele>
        <time>2016-06-06T14:03:31.1Z</time>
      </trkpt>
      <trkpt lat="48.58811" lon="-3.1583">
        <ele>175</ele>
        <time>2016-06-06T14:03:34.1Z</time>
      </trkpt>
      <trkpt lat="48.5881" lon="-3.15833">
        <ele>175</ele>
        <time>2016-06-06T14:03:36.1Z</time>
      </trkpt>
      <trkpt lat="48.58809" lon="-3.15839">
        <ele>175</ele>
        <time>2016-06-06T14:03:39.1Z</time>
      </trkpt>
      <trkpt lat="48.58809" lon="-3.15844">
        <ele>176</ele>
        <time>2016-06-06T14:03:42.1Z</time>
      </trkpt>
      <trkpt lat="48.58809" lon="-3.15847">
        <ele>176</ele>
        <time>2016-06-06T14:03:44.1Z</time>
      </trkpt>
      <trkpt lat="48.58808" lon="-3.1585">
        <ele>176</ele>
        <time>2016-06-06T14:03:46.1Z</time>
      </trkpt>
      <trkpt lat="48.58807" lon="-3.15855">
        <ele>176</ele>
        <time>2016-06-06T14:03:49.1Z</time>
      </trkpt>
      <trkpt lat="48.58807" lon="-3.15859">
        <ele>176</ele>
        <time>2016-06-06T14:03:52.1Z</time>
      </trkpt>
      <trkpt lat="48.58807" lon="-3.15864">
        <ele>177</ele>
        <time>2016-06-06T14:03:55.1Z</time>
      </trkpt>
      <trkpt lat="48.58806" lon="-3.15869">
        <ele>178</ele>
        <time>2016-06-06T14:03:58.1Z</time>
      </trkpt>
      <trkpt lat="48.58806" lon="-3.15873">
        <ele>178</ele>
        <time>2016-06-06T14:04:00.1Z</time>
      </trkpt>
      <trkpt lat="48.58806" lon="-3.15876">
        <ele>178</ele>
        <time>2016-06-06T14:04:02.1Z</time>
      </trkpt>
      <trkpt lat="48.58806" lon="-3.15879">
        <ele>178</ele>
        <time>2016-06-06T14:04:04.1Z</time>
      </trkpt>
      <trkpt lat="48.58805" lon="-3.15884">
        <ele>178</ele>
        <time>2016-06-06T14:04:07.1Z</time>
      </trkpt>
      <trkpt lat="48.58804" lon="-3.15891">
        <ele>178</ele>
        <time>2016-06-06T14:04:10.1Z</time>
      </trkpt>
      <trkpt lat="48.58804" lon="-3.15896">
        <ele>178</ele>
        <time>2016-06-06T14:04:12.1Z</time>
      </trkpt>
      <trkpt lat="48.58805" lon="-3.159">
        <ele>178</ele>
        <time>2016-06-06T14:04:14.1Z</time>
      </trkpt>
      <trkpt lat="48.58804" lon="-3.15907">
        <ele>178</ele>
        <time>2016-06-06T14:04:17.1Z</time>
      </trkpt>
      <trkpt lat="48.58805" lon="-3.15911">
        <ele>179</ele>
        <time>2016-06-06T14:04:20.1Z</time>
      </trkpt>
      <trkpt lat="48.58805" lon="-3.15916">
        <ele>179</ele>
        <time>2016-06-06T14:04:23.1Z</time>
      </trkpt>
      <trkpt lat="48.58806" lon="-3.15919">
        <ele>180</ele>
        <time>2016-06-06T14:04:25.1Z</time>
      </trkpt>
      <trkpt lat="48.58806" lon="-3.15923">
        <ele>180</ele>
        <time>2016-06-06T14:04:27.1Z</time>
      </trkpt>
      <trkpt lat="48.58807" lon="-3.15927">
        <ele>180</ele>
        <time>2016-06-06T14:04:30.1Z</time>
      </trkpt>
      <trkpt lat="48.58807" lon="-3.15931">
        <ele>180</ele>
        <time>2016-06-06T14:04:32.1Z</time>
      </trkpt>
      <trkpt lat="48.58808" lon="-3.15935">
        <ele>180</ele>
        <time>2016-06-06T14:04:35.1Z</time>
      </trkpt>
      <trkpt lat="48.58808" lon="-3.15939">
        <ele>180</ele>
        <time>2016-06-06T14:04:38.1Z</time>
      </trkpt>
      <trkpt lat="48.58808" lon="-3.15942">
        <ele>181</ele>
        <time>2016-06-06T14:04:40.1Z</time>
      </trkpt>
      <trkpt lat="48.58809" lon="-3.15947">
        <ele>181</ele>
        <time>2016-06-06T14:04:43.1Z</time>
      </trkpt>
      <trkpt lat="48.58809" lon="-3.1595">
        <ele>181</ele>
        <time>2016-06-06T14:04:45.1Z</time>
      </trkpt>
      <trkpt lat="48.58809" lon="-3.15955">
        <ele>182</ele>
        <time>2016-06-06T14:04:48.1Z</time>
      </trkpt>
      <trkpt lat="48.5881" lon="-3.15959">
        <ele>182</ele>
        <time>2016-06-06T14:04:51.1Z</time>
      </trkpt>
      <trkpt lat="48.5881" lon="-3.15964">
        <ele>182</ele>
        <time>2016-06-06T14:04:54.1Z</time>
      </trkpt>
      <trkpt lat="48.58811" lon="-3.15967">
        <ele>182</ele>
        <time>2016-06-06T14:04:56.1Z</time>
      </trkpt>
      <trkpt lat="48.58812" lon="-3.1597">
        <ele>182</ele>
        <time>2016-06-06T14:04:58.1Z</time>
      </trkpt>
      <trkpt lat="48.58813" lon="-3.15975">
        <ele>182</ele>
        <time>2016-06-06T14:05:01.1Z</time>
      </trkpt>
      <trkpt lat="48.58814" lon="-3.15977">
        <ele>182</ele>
        <time>2016-06-06T14:05:03.1Z</time>
      </trkpt>
      <trkpt lat="48.58814" lon="-3.1598">
        <ele>183</ele>
        <time>2016-06-06T14:05:05.1Z</time>
      </trkpt>
      <trkpt lat="48.58815" lon="-3.15986">
        <ele>183</ele>
        <time>2016-06-06T14:05:08.1Z</time>
      </trkpt>
      <trkpt lat="48.58817" lon="-3.15991">
        <ele>183</ele>
        <time>2016-06-06T14:05:11.1Z</time>
      </trkpt>
      <trkpt lat="48.58817" lon="-3.15997">
        <ele>184</ele>
        <time>2016-06-06T14:05:14.1Z</time>
      </trkpt>
      <trkpt lat="48.58818" lon="-3.15999">
        <ele>184</ele>
        <time>2016-06-06T14:05:16.1Z</time>
      </trkpt>
      <trkpt lat="48.58818" lon="-3.16004">
        <ele>184</ele>
        <time>2016-06-06T14:05:19.1Z</time>
      </trkpt>
      <trkpt lat="48.58818" lon="-3.16009">
        <ele>184</ele>
        <time>2016-06-06T14:05:22.1Z</time>
      </trkpt>
      <trkpt lat="48.58818" lon="-3.16015">
        <ele>184</ele>
        <time>2016-06-06T14:05:25.1Z</time>
      </trkpt>
      <trkpt lat="48.58817" lon="-3.1602">
        <ele>184</ele>
        <time>2016-06-06T14:05:28.1Z</time>
      </trkpt>
      <trkpt lat="48.58817" lon="-3.16025">
        <ele>184</ele>
        <time>2016-06-06T14:05:31.1Z</time>
      </trkpt>
      <trkpt lat="48.58816" lon="-3.16028">
        <ele>184</ele>
        <time>2016-06-06T14:05:33.1Z</time>
      </trkpt>
      <trkpt lat="48.58816" lon="-3.16033">
        <ele>184</ele>
        <time>2016-06-06T14:05:36.1Z</time>
      </trkpt>
      <trkpt lat="48.58815" lon="-3.16038">
        <ele>184</ele>
        <time>2016-06-06T14:05:39.1Z</time>
      </trkpt>
      <trkpt lat="48.58814" lon="-3.16043">
        <ele>183</ele>
        <time>2016-06-06T14:05:42.1Z</time>
      </trkpt>
      <trkpt lat="48.58813" lon="-3.16047">
        <ele>183</ele>
        <time>2016-06-06T14:05:45.1Z</time>
      </trkpt>
      <trkpt lat="48.58812" lon="-3.1605">
        <ele>183</ele>
        <time>2016-06-06T14:05:47.1Z</time>
      </trkpt>
      <trkpt lat="48.58812" lon="-3.16054">
        <ele>183</ele>
        <time>2016-06-06T14:05:50.1Z</time>
      </trkpt>
      <trkpt lat="48.5881" lon="-3.16056">
        <ele>183</ele>
        <time>2016-06-06T14:05:52.1Z</time>
      </trkpt>
      <trkpt lat="48.58807" lon="-3.16059">
        <ele>182</ele>
        <time>2016-06-06T14:05:54.1Z</time>
      </trkpt>
      <trkpt lat="48.58805" lon="-3.1606">
        <ele>182</ele>
        <time>2016-06-06T14:05:56.1Z</time>
      </trkpt>
      <trkpt lat="48.58802" lon="-3.16062">
        <ele>182</ele>
        <time>2016-06-06T14:05:59.1Z</time>
      </trkpt>
      <trkpt lat="48.588" lon="-3.16064">
        <ele>182</ele>
        <time>2016-06-06T14:06:01.1Z</time>
      </trkpt>
      <trkpt lat="48.58799" lon="-3.16066">
        <ele>182</ele>
        <time>2016-06-06T14:06:03.1Z</time>
      </trkpt>
      <trkpt lat="48.58797" lon="-3.16068">
        <ele>181</ele>
        <time>2016-06-06T14:06:06.1Z</time>
      </trkpt>
      <trkpt lat="48.58794" lon="-3.16071">
        <ele>181</ele>
        <time>2016-06-06T14:06:09.1Z</time>
      </trkpt>
      <trkpt lat="48.58792" lon="-3.16073">
        <ele>181</ele>
        <time>2016-06-06T14:06:11.1Z</time>
      </trkpt>
      <trkpt lat="48.58791" lon="-3.16074">
        <ele>181</ele>
        <time>2016-06-06T14:06:13.1Z</time>
      </trkpt>
      <trkpt lat="48.58788" lon="-3.16076">
        <ele>181</ele>
        <time>2016-06-06T14:06:16.1Z</time>
      </trkpt>
      <trkpt lat="48.58786" lon="-3.16077">
        <ele>181</ele>
        <time>2016-06-06T14:06:18.1Z</time>
      </trkpt>
      <trkpt lat="48.58784" lon="-3.16078">
        <ele>181</ele>
        <time>2016-06-06T14:06:20.1Z</time>
      </trkpt>
      <trkpt lat="48.58782" lon="-3.16079">
        <ele>180</ele>
        <time>2016-06-06T14:06:23.1Z</time>
      </trkpt>
      <trkpt lat="48.5878" lon="-3.1608">
        <ele>180</ele>
        <time>2016-06-06T14:06:25.1Z</time>
      </trkpt>
      <trkpt lat="48.58778" lon="-3.16082">
        <ele>179</ele>
        <time>2016-06-06T14:06:27.1Z</time>
      </trkpt>
      <trkpt lat="48.58777" lon="-3.16083">
        <ele>179</ele>
        <time>2016-06-06T14:06:29.1Z</time>
      </trkpt>
      <trkpt lat="48.58775" lon="-3.16084">
        <ele>180</ele>
        <time>2016-06-06T14:06:31.1Z</time>
      </trkpt>
      <trkpt lat="48.58773" lon="-3.16086">
        <ele>179</ele>
        <time>2016-06-06T14:06:34.1Z</time>
      </trkpt>
      <trkpt lat="48.58771" lon="-3.16087">
        <ele>179</ele>
        <time>2016-06-06T14:06:36.1Z</time>
      </trkpt>
      <trkpt lat="48.58769" lon="-3.1609">
        <ele>179</ele>
        <time>2016-06-06T14:06:39.1Z</time>
      </trkpt>
      <trkpt lat="48.58767" lon="-3.16092">
        <ele>179</ele>
        <time>2016-06-06T14:06:41.1Z</time>
      </trkpt>
      <trkpt lat="48.58765" lon="-3.16093">
        <ele>178</ele>
        <time>2016-06-06T14:06:43.1Z</time>
      </trkpt>
      <trkpt lat="48.58762" lon="-3.16095">
        <ele>179</ele>
        <time>2016-06-06T14:06:46.1Z</time>
      </trkpt>
      <trkpt lat="48.5876" lon="-3.16096">
        <ele>178</ele>
        <time>2016-06-06T14:06:48.1Z</time>
      </trkpt>
      <trkpt lat="48.58757" lon="-3.16098">
        <ele>179</ele>
        <time>2016-06-06T14:06:50.1Z</time>
      </trkpt>
      <trkpt lat="48.58755" lon="-3.16099">
        <ele>179</ele>
        <time>2016-06-06T14:06:52.1Z</time>
      </trkpt>
      <trkpt lat="48.58752" lon="-3.16101">
        <ele>179</ele>
        <time>2016-06-06T14:06:55.1Z</time>
      </trkpt>
      <trkpt lat="48.58749" lon="-3.16102">
        <ele>179</ele>
        <time>2016-06-06T14:06:57.1Z</time>
      </trkpt>
      <trkpt lat="48.58747" lon="-3.16104">
        <ele>179</ele>
        <time>2016-06-06T14:06:59.1Z</time>
      </trkpt>
      <trkpt lat="48.58745" lon="-3.16106">
        <ele>179</ele>
        <time>2016-06-06T14:07:01.1Z</time>
      </trkpt>
      <trkpt lat="48.58743" lon="-3.16107">
        <ele>179</ele>
        <time>2016-06-06T14:07:03.1Z</time>
      </trkpt>
      <trkpt lat="48.58739" lon="-3.16109">
        <ele>180</ele>
        <time>2016-06-06T14:07:06.1Z</time>
      </trkpt>
      <trkpt lat="48.58736" lon="-3.1611">
        <ele>180</ele>
        <time>2016-06-06T14:07:09.1Z</time>
      </trkpt>
      <trkpt lat="48.58735" lon="-3.16111">
        <ele>180</ele>
        <time>2016-06-06T14:07:11.1Z</time>
      </trkpt>
      <trkpt lat="48.58732" lon="-3.16114">
        <ele>181</ele>
        <time>2016-06-06T14:07:14.1Z</time>
      </trkpt>
      <trkpt lat="48.5873" lon="-3.16117">
        <ele>181</ele>
        <time>2016-06-06T14:07:17.1Z</time>
      </trkpt>
      <trkpt lat="48.58727" lon="-3.16118">
        <ele>181</ele>
        <time>2016-06-06T14:07:19.1Z</time>
      </trkpt>
      <trkpt lat="48.58724" lon="-3.1612">
        <ele>181</ele>
        <time>2016-06-06T14:07:22.1Z</time>
      </trkpt>
      <trkpt lat="48.58721" lon="-3.16122">
        <ele>181</ele>
        <time>2016-06-06T14:07:24.1Z</time>
      </trkpt>
      <trkpt lat="48.58717" lon="-3.16125">
        <ele>182</ele>
        <time>2016-06-06T14:07:27.1Z</time>
      </trkpt>
      <trkpt lat="48.58715" lon="-3.16127">
        <ele>182</ele>
        <time>2016-06-06T14:07:30.1Z</time>
      </trkpt>
      <trkpt lat="48.58712" lon="-3.16128">
        <ele>182</ele>
        <time>2016-06-06T14:07:33.1Z</time>
      </trkpt>
      <trkpt lat="48.58711" lon="-3.1613">
        <ele>182</ele>
        <time>2016-06-06T14:07:35.1Z</time>
      </trkpt>
      <trkpt lat="48.58709" lon="-3.16132">
        <ele>182</ele>
        <time>2016-06-06T14:07:37.1Z</time>
      </trkpt>
      <trkpt lat="48.58705" lon="-3.16136">
        <ele>182</ele>
        <time>2016-06-06T14:07:40.1Z</time>
      </trkpt>
      <trkpt lat="48.58704" lon="-3.16138">
        <ele>183</ele>
        <time>2016-06-06T14:07:42.1Z</time>
      </trkpt>
      <trkpt lat="48.58703" lon="-3.16139">
        <ele>183</ele>
        <time>2016-06-06T14:07:44.1Z</time>
      </trkpt>
      <trkpt lat="48.58702" lon="-3.16141">
        <ele>183</ele>
        <time>2016-06-06T14:07:47.1Z</time>
      </trkpt>
      <trkpt lat="48.58699" lon="-3.16145">
        <ele>183</ele>
        <time>2016-06-06T14:07:50.1Z</time>
      </trkpt>
      <trkpt lat="48.58696" lon="-3.1615">
        <ele>184</ele>
        <time>2016-06-06T14:07:53.1Z</time>
      </trkpt>
      <trkpt lat="48.58694" lon="-3.16152">
        <ele>184</ele>
        <time>2016-06-06T14:07:55.1Z</time>
      </trkpt>
      <trkpt lat="48.58691" lon="-3.16155">
        <ele>184</ele>
        <time>2016-06-06T14:07:58.1Z</time>
      </trkpt>
      <trkpt lat="48.58689" lon="-3.16159">
        <ele>184</ele>
        <time>2016-06-06T14:08:01.1Z</time>
      </trkpt>
      <trkpt lat="48.58687" lon="-3.16164">
        <ele>183</ele>
        <time>2016-06-06T14:08:04.1Z</time>
      </trkpt>
      <trkpt lat="48.58685" lon="-3.16168">
        <ele>183</ele>
        <time>2016-06-06T14:08:07.1Z</time>
      </trkpt>
      <trkpt lat="48.58683" lon="-3.16171">
        <ele>183</ele>
        <time>2016-06-06T14:08:10.1Z</time>
      </trkpt>
      <trkpt lat="48.58682" lon="-3.16174">
        <ele>182</ele>
        <time>2016-06-06T14:08:12.1Z</time>
      </trkpt>
      <trkpt lat="48.58679" lon="-3.16177">
        <ele>182</ele>
        <time>2016-06-06T14:08:15.1Z</time>
      </trkpt>
      <trkpt lat="48.58677" lon="-3.1618">
        <ele>181</ele>
        <time>2016-06-06T14:08:18.1Z</time>
      </trkpt>
      <trkpt lat="48.58675" lon="-3.16182">
        <ele>181</ele>
        <time>2016-06-06T14:08:20.1Z</time>
      </trkpt>
      <trkpt lat="48.58672" lon="-3.16184">
        <ele>181</ele>
        <time>2016-06-06T14:08:23.1Z</time>
      </trkpt>
      <trkpt lat="48.58671" lon="-3.16186">
        <ele>180</ele>
        <time>2016-06-06T14:08:26.1Z</time>
      </trkpt>
      <trkpt lat="48.58669" lon="-3.16189">
        <ele>180</ele>
        <time>2016-06-06T14:08:29.1Z</time>
      </trkpt>
      <trkpt lat="48.58667" lon="-3.16191">
        <ele>180</ele>
        <time>2016-06-06T14:08:31.1Z</time>
      </trkpt>
      <trkpt lat="48.58664" lon="-3.16195">
        <ele>179</ele>
        <time>2016-06-06T14:08:34.1Z</time>
      </trkpt>
      <trkpt lat="48.58661" lon="-3.16199">
        <ele>179</ele>
        <time>2016-06-06T14:08:37.1Z</time>
      </trkpt>
      <trkpt lat="48.58659" lon="-3.16202">
        <ele>178</ele>
        <time>2016-06-06T14:08:39.1Z</time>
      </trkpt>
      <trkpt lat="48.58656" lon="-3.16207">
        <ele>178</ele>
        <time>2016-06-06T14:08:42.1Z</time>
      </trkpt>
      <trkpt lat="48.58653" lon="-3.16211">
        <ele>177</ele>
        <time>2016-06-06T14:08:45.1Z</time>
      </trkpt>
      <trkpt lat="48.58651" lon="-3.16213">
        <ele>177</ele>
        <time>2016-06-06T14:08:47.1Z</time>
      </trkpt>
      <trkpt lat="48.5865" lon="-3.16215">
        <ele>177</ele>
        <time>2016-06-06T14:08:50.1Z</time>
      </trkpt>
      <trkpt lat="48.58649" lon="-3.16217">
        <ele>176</ele>
        <time>2016-06-06T14:08:52.1Z</time>
      </trkpt>
      <trkpt lat="48.58648" lon="-3.16219">
        <ele>176</ele>
        <time>2016-06-06T14:08:54.1Z</time>
      </trkpt>
      <trkpt lat="48.58645" lon="-3.16222">
        <ele>176</ele>
        <time>2016-06-06T14:08:57.1Z</time>
      </trkpt>
      <trkpt lat="48.58643" lon="-3.16225">
        <ele>175</ele>
        <time>2016-06-06T14:08:59.1Z</time>
      </trkpt>
      <trkpt lat="48.58641" lon="-3.16228">
        <ele>175</ele>
        <time>2016-06-06T14:09:01.1Z</time>
      </trkpt>
      <trkpt lat="48.58639" lon="-3.16232">
        <ele>175</ele>
        <time>2016-06-06T14:09:04.1Z</time>
      </trkpt>
      <trkpt lat="48.58637" lon="-3.16238">
        <ele>174</ele>
        <time>2016-06-06T14:09:07.1Z</time>
      </trkpt>
      <trkpt lat="48.58636" lon="-3.16241">
        <ele>174</ele>
        <time>2016-06-06T14:09:09.1Z</time>
      </trkpt>
      <trkpt lat="48.58634" lon="-3.16246">
        <ele>174</ele>
        <time>2016-06-06T14:09:12.1Z</time>
      </trkpt>
      <trkpt lat="48.58632" lon="-3.16251">
        <ele>174</ele>
        <time>2016-06-06T14:09:15.1Z</time>
      </trkpt>
      <trkpt lat="48.58632" lon="-3.16253">
        <ele>174</ele>
        <time>2016-06-06T14:09:17.1Z</time>
      </trkpt>
      <trkpt lat="48.58631" lon="-3.16256">
        <ele>174</ele>
        <time>2016-06-06T14:09:20.1Z</time>
      </trkpt>
      <trkpt lat="48.58631" lon="-3.16259">
        <ele>174</ele>
        <time>2016-06-06T14:09:22.1Z</time>
      </trkpt>
      <trkpt lat="48.58631" lon="-3.16261">
        <ele>174</ele>
        <time>2016-06-06T14:09:25.1Z</time>
      </trkpt>
      <trkpt lat="48.5863" lon="-3.16262">
        <ele>174</ele>
        <time>2016-06-06T14:09:28.1Z</time>
      </trkpt>
      <trkpt lat="48.58629" lon="-3.16262">
        <ele>174</ele>
        <time>2016-06-06T14:09:30.1Z</time>
      </trkpt>
      <trkpt lat="48.58629" lon="-3.16262">
        <ele>174</ele>
        <time>2016-06-06T14:09:33.1Z</time>
      </trkpt>
      <trkpt lat="48.58629" lon="-3.16263">
        <ele>174</ele>
        <time>2016-06-06T14:09:36.1Z</time>
      </trkpt>
      <trkpt lat="48.58629" lon="-3.16263">
        <ele>174</ele>
        <time>2016-06-06T14:09:38.1Z</time>
      </trkpt>
      <trkpt lat="48.58629" lon="-3.16263">
        <ele>174</ele>
        <time>2016-06-06T14:09:41.1Z</time>
      </trkpt>
      <trkpt lat="48.58629" lon="-3.16264">
        <ele>174</ele>
        <time>2016-06-06T14:09:43.1Z</time>
      </trkpt>
      <trkpt lat="48.58629" lon="-3.16264">
        <ele>173</ele>
        <time>2016-06-06T14:09:46.1Z</time>
      </trkpt>
      <trkpt lat="48.58628" lon="-3.16264">
        <ele>173</ele>
        <time>2016-06-06T14:09:49.1Z</time>
      </trkpt>
      <trkpt lat="48.58628" lon="-3.16265">
        <ele>174</ele>
        <time>2016-06-06T14:09:52.1Z</time>
      </trkpt>
      <trkpt lat="48.58628" lon="-3.16265">
        <ele>174</ele>
        <time>2016-06-06T14:09:55.1Z</time>
      </trkpt>
      <trkpt lat="48.58627" lon="-3.16265">
        <ele>174</ele>
        <time>2016-06-06T14:09:58.1Z</time>
      </trkpt>
      <trkpt lat="48.58627" lon="-3.16265">
        <ele>174</ele>
        <time>2016-06-06T14:10:00.1Z</time>
      </trkpt>
      <trkpt lat="48.58627" lon="-3.16267">
        <ele>174</ele>
        <time>2016-06-06T14:10:03.1Z</time>
      </trkpt>
      <trkpt lat="48.58626" lon="-3.16269">
        <ele>174</ele>
        <time>2016-06-06T14:10:06.1Z</time>
      </trkpt>
      <trkpt lat="48.58626" lon="-3.16271">
        <ele>174</ele>
        <time>2016-06-06T14:10:09.1Z</time>
      </trkpt>
      <trkpt lat="48.58626" lon="-3.16272">
        <ele>174</ele>
        <time>2016-06-06T14:10:11.1Z</time>
      </trkpt>
      <trkpt lat="48.58625" lon="-3.16273">
        <ele>174</ele>
        <time>2016-06-06T14:10:14.1Z</time>
      </trkpt>
      <trkpt lat="48.58625" lon="-3.16274">
        <ele>174</ele>
        <time>2016-06-06T14:10:17.1Z</time>
      </trkpt>
      <trkpt lat="48.58626" lon="-3.16274">
        <ele>174</ele>
        <time>2016-06-06T14:10:20.1Z</time>
      </trkpt>
      <trkpt lat="48.58625" lon="-3.16274">
        <ele>174</ele>
        <time>2016-06-06T14:10:23.1Z</time>
      </trkpt>
      <trkpt lat="48.58624" lon="-3.16274">
        <ele>174</ele>
        <time>2016-06-06T14:10:25.1Z</time>
      </trkpt>
      <trkpt lat="48.58624" lon="-3.16273">
        <ele>174</ele>
        <time>2016-06-06T14:10:27.1Z</time>
      </trkpt>
      <trkpt lat="48.58625" lon="-3.16273">
        <ele>173</ele>
        <time>2016-06-06T14:10:29.1Z</time>
      </trkpt>
      <trkpt lat="48.58626" lon="-3.16272">
        <ele>174</ele>
        <time>2016-06-06T14:10:31.1Z</time>
      </trkpt>
      <trkpt lat="48.58627" lon="-3.16272">
        <ele>174</ele>
        <time>2016-06-06T14:10:34.1Z</time>
      </trkpt>
      <trkpt lat="48.58627" lon="-3.16272">
        <ele>173</ele>
        <time>2016-06-06T14:10:36.1Z</time>
      </trkpt>
      <trkpt lat="48.58627" lon="-3.16272">
        <ele>174</ele>
        <time>2016-06-06T14:10:40.1Z</time>
      </trkpt>
      <trkpt lat="48.58627" lon="-3.16272">
        <ele>174</ele>
        <time>2016-06-06T14:10:42.1Z</time>
      </trkpt>
      <trkpt lat="48.58627" lon="-3.16272">
        <ele>174</ele>
        <time>2016-06-06T14:10:45.1Z</time>
      </trkpt>
      <trkpt lat="48.58627" lon="-3.16272">
        <ele>174</ele>
        <time>2016-06-06T14:10:47.1Z</time>
      </trkpt>
      <trkpt lat="48.58626" lon="-3.16273">
        <ele>174</ele>
        <time>2016-06-06T14:10:50.1Z</time>
      </trkpt>
      <trkpt lat="48.58626" lon="-3.16273">
        <ele>174</ele>
        <time>2016-06-06T14:10:53.1Z</time>
      </trkpt>
      <trkpt lat="48.58626" lon="-3.16274">
        <ele>174</ele>
        <time>2016-06-06T14:10:55.1Z</time>
      </trkpt>
      <trkpt lat="48.58627" lon="-3.16275">
        <ele>174</ele>
        <time>2016-06-06T14:10:57.1Z</time>
      </trkpt>
      <trkpt lat="48.58627" lon="-3.16278">
        <ele>174</ele>
        <time>2016-06-06T14:11:00.1Z</time>
      </trkpt>
      <trkpt lat="48.58626" lon="-3.16281">
        <ele>174</ele>
        <time>2016-06-06T14:11:03.1Z</time>
      </trkpt>
      <trkpt lat="48.58625" lon="-3.16285">
        <ele>174</ele>
        <time>2016-06-06T14:11:06.1Z</time>
      </trkpt>
      <trkpt lat="48.58624" lon="-3.16289">
        <ele>174</ele>
        <time>2016-06-06T14:11:09.1Z</time>
      </trkpt>
      <trkpt lat="48.58623" lon="-3.16292">
        <ele>174</ele>
        <time>2016-06-06T14:11:11.1Z</time>
      </trkpt>
      <trkpt lat="48.58622" lon="-3.16295">
        <ele>174</ele>
        <time>2016-06-06T14:11:13.1Z</time>
      </trkpt>
      <trkpt lat="48.58621" lon="-3.16299">
        <ele>174</ele>
        <time>2016-06-06T14:11:16.1Z</time>
      </trkpt>
      <trkpt lat="48.5862" lon="-3.16303">
        <ele>174</ele>
        <time>2016-06-06T14:11:19.1Z</time>
      </trkpt>
      <trkpt lat="48.58619" lon="-3.16306">
        <ele>174</ele>
        <time>2016-06-06T14:11:22.1Z</time>
      </trkpt>
      <trkpt lat="48.58617" lon="-3.1631">
        <ele>174</ele>
        <time>2016-06-06T14:11:25.1Z</time>
      </trkpt>
      <trkpt lat="48.58616" lon="-3.16313">
        <ele>174</ele>
        <time>2016-06-06T14:11:27.1Z</time>
      </trkpt>
      <trkpt lat="48.58614" lon="-3.16316">
        <ele>174</ele>
        <time>2016-06-06T14:11:30.1Z</time>
      </trkpt>
      <trkpt lat="48.58612" lon="-3.16318">
        <ele>174</ele>
        <time>2016-06-06T14:11:32.1Z</time>
      </trkpt>
      <trkpt lat="48.58611" lon="-3.16321">
        <ele>174</ele>
        <time>2016-06-06T14:11:35.1Z</time>
      </trkpt>
      <trkpt lat="48.5861" lon="-3.16323">
        <ele>174</ele>
        <time>2016-06-06T14:11:37.1Z</time>
      </trkpt>
      <trkpt lat="48.58609" lon="-3.16325">
        <ele>174</ele>
        <time>2016-06-06T14:11:39.1Z</time>
      </trkpt>
      <trkpt lat="48.58608" lon="-3.16329">
        <ele>174</ele>
        <time>2016-06-06T14:11:42.1Z</time>
      </trkpt>
      <trkpt lat="48.58607" lon="-3.16331">
        <ele>174</ele>
        <time>2016-06-06T14:11:44.1Z</time>
      </trkpt>
      <trkpt lat="48.58606" lon="-3.16334">
        <ele>174</ele>
        <time>2016-06-06T14:11:47.1Z</time>
      </trkpt>
      <trkpt lat="48.58605" lon="-3.16337">
        <ele>174</ele>
        <time>2016-06-06T14:11:50.1Z</time>
      </trkpt>
      <trkpt lat="48.58604" lon="-3.16341">
        <ele>174</ele>
        <time>2016-06-06T14:11:53.1Z</time>
      </trkpt>
      <trkpt lat="48.58604" lon="-3.16343">
        <ele>174</ele>
        <time>2016-06-06T14:11:55.1Z</time>
      </trkpt>
      <trkpt lat="48.58603" lon="-3.16347">
        <ele>174</ele>
        <time>2016-06-06T14:11:58.1Z</time>
      </trkpt>
      <trkpt lat="48.58602" lon="-3.16349">
        <ele>174</ele>
        <time>2016-06-06T14:12:00.1Z</time>
      </trkpt>
      <trkpt lat="48.58602" lon="-3.16352">
        <ele>174</ele>
        <time>2016-06-06T14:12:03.1Z</time>
      </trkpt>
      <trkpt lat="48.58601" lon="-3.16355">
        <ele>174</ele>
        <time>2016-06-06T14:12:06.1Z</time>
      </trkpt>
      <trkpt lat="48.586" lon="-3.16359">
        <ele>174</ele>
        <time>2016-06-06T14:12:09.1Z</time>
      </trkpt>
      <trkpt lat="48.58599" lon="-3.16362">
        <ele>174</ele>
        <time>2016-06-06T14:12:11.1Z</time>
      </trkpt>
      <trkpt lat="48.58599" lon="-3.16365">
        <ele>173</ele>
        <time>2016-06-06T14:12:14.1Z</time>
      </trkpt>
      <trkpt lat="48.58598" lon="-3.16369">
        <ele>174</ele>
        <time>2016-06-06T14:12:17.1Z</time>
      </trkpt>
      <trkpt lat="48.58598" lon="-3.16372">
        <ele>174</ele>
        <time>2016-06-06T14:12:19.1Z</time>
      </trkpt>
      <trkpt lat="48.58597" lon="-3.16374">
        <ele>174</ele>
        <time>2016-06-06T14:12:21.1Z</time>
      </trkpt>
      <trkpt lat="48.58596" lon="-3.16379">
        <ele>173</ele>
        <time>2016-06-06T14:12:24.1Z</time>
      </trkpt>
      <trkpt lat="48.58595" lon="-3.16383">
        <ele>173</ele>
        <time>2016-06-06T14:12:27.1Z</time>
      </trkpt>
      <trkpt lat="48.58595" lon="-3.16386">
        <ele>173</ele>
        <time>2016-06-06T14:12:29.1Z</time>
      </trkpt>
      <trkpt lat="48.58593" lon="-3.1639">
        <ele>173</ele>
        <time>2016-06-06T14:12:32.1Z</time>
      </trkpt>
      <trkpt lat="48.58592" lon="-3.16394">
        <ele>173</ele>
        <time>2016-06-06T14:12:35.1Z</time>
      </trkpt>
      <trkpt lat="48.58592" lon="-3.16396">
        <ele>173</ele>
        <time>2016-06-06T14:12:37.1Z</time>
      </trkpt>
      <trkpt lat="48.5859" lon="-3.16401">
        <ele>173</ele>
        <time>2016-06-06T14:12:40.1Z</time>
      </trkpt>
      <trkpt lat="48.5859" lon="-3.16404">
        <ele>173</ele>
        <time>2016-06-06T14:12:43.1Z</time>
      </trkpt>
      <trkpt lat="48.5859" lon="-3.16404">
        <ele>173</ele>
        <time>2016-06-06T14:12:45.1Z</time>
      </trkpt>
      <trkpt lat="48.58589" lon="-3.16407">
        <ele>173</ele>
        <time>2016-06-06T14:12:48.1Z</time>
      </trkpt>
      <trkpt lat="48.58588" lon="-3.1641">
        <ele>173</ele>
        <time>2016-06-06T14:12:51.1Z</time>
      </trkpt>
      <trkpt lat="48.58587" lon="-3.16412">
        <ele>173</ele>
        <time>2016-06-06T14:12:54.1Z</time>
      </trkpt>
      <trkpt lat="48.58586" lon="-3.16414">
        <ele>173</ele>
        <time>2016-06-06T14:12:57.1Z</time>
      </trkpt>
      <trkpt lat="48.58586" lon="-3.16415">
        <ele>173</ele>
        <time>2016-06-06T14:13:00.1Z</time>
      </trkpt>
      <trkpt lat="48.58585" lon="-3.16416">
        <ele>172</ele>
        <time>2016-06-06T14:13:03.1Z</time>
      </trkpt>
      <trkpt lat="48.58585" lon="-3.16419">
        <ele>172</ele>
        <time>2016-06-06T14:13:05.1Z</time>
      </trkpt>
      <trkpt lat="48.58585" lon="-3.16421">
        <ele>172</ele>
        <time>2016-06-06T14:13:07.1Z</time>
      </trkpt>
      <trkpt lat="48.58584" lon="-3.16423">
        <ele>171</ele>
        <time>2016-06-06T14:13:09.1Z</time>
      </trkpt>
      <trkpt lat="48.58583" lon="-3.16426">
        <ele>172</ele>
        <time>2016-06-06T14:13:12.1Z</time>
      </trkpt>
      <trkpt lat="48.58582" lon="-3.16429">
        <ele>172</ele>
        <time>2016-06-06T14:13:15.1Z</time>
      </trkpt>
      <trkpt lat="48.58581" lon="-3.16433">
        <ele>171</ele>
        <time>2016-06-06T14:13:18.1Z</time>
      </trkpt>
      <trkpt lat="48.5858" lon="-3.16435">
        <ele>171</ele>
        <time>2016-06-06T14:13:20.1Z</time>
      </trkpt>
      <trkpt lat="48.58578" lon="-3.16439">
        <ele>171</ele>
        <time>2016-06-06T14:13:23.1Z</time>
      </trkpt>
      <trkpt lat="48.58577" lon="-3.16441">
        <ele>171</ele>
        <time>2016-06-06T14:13:26.1Z</time>
      </trkpt>
      <trkpt lat="48.58576" lon="-3.16445">
        <ele>171</ele>
        <time>2016-06-06T14:13:29.1Z</time>
      </trkpt>
      <trkpt lat="48.58575" lon="-3.16447">
        <ele>170</ele>
        <time>2016-06-06T14:13:31.1Z</time>
      </trkpt>
      <trkpt lat="48.58574" lon="-3.16449">
        <ele>170</ele>
        <time>2016-06-06T14:13:34.1Z</time>
      </trkpt>
      <trkpt lat="48.58573" lon="-3.16451">
        <ele>170</ele>
        <time>2016-06-06T14:13:36.1Z</time>
      </trkpt>
      <trkpt lat="48.58572" lon="-3.16452">
        <ele>170</ele>
        <time>2016-06-06T14:13:38.1Z</time>
      </trkpt>
      <trkpt lat="48.58571" lon="-3.16453">
        <ele>170</ele>
        <time>2016-06-06T14:13:41.1Z</time>
      </trkpt>
      <trkpt lat="48.58571" lon="-3.16453">
        <ele>169</ele>
        <time>2016-06-06T14:13:44.1Z</time>
      </trkpt>
      <trkpt lat="48.58571" lon="-3.16453">
        <ele>169</ele>
        <time>2016-06-06T14:13:47.1Z</time>
      </trkpt>
      <trkpt lat="48.58571" lon="-3.16452">
        <ele>169</ele>
        <time>2016-06-06T14:13:50.1Z</time>
      </trkpt>
      <trkpt lat="48.58571" lon="-3.16452">
        <ele>170</ele>
        <time>2016-06-06T14:13:53.1Z</time>
      </trkpt>
      <trkpt lat="48.58572" lon="-3.16454">
        <ele>170</ele>
        <time>2016-06-06T14:13:56.1Z</time>
      </trkpt>
      <trkpt lat="48.58571" lon="-3.16456">
        <ele>170</ele>
        <time>2016-06-06T14:13:58.1Z</time>
      </trkpt>
      <trkpt lat="48.58571" lon="-3.16458">
        <ele>170</ele>
        <time>2016-06-06T14:14:00.1Z</time>
      </trkpt>
      <trkpt lat="48.5857" lon="-3.16459">
        <ele>170</ele>
        <time>2016-06-06T14:14:03.1Z</time>
      </trkpt>
      <trkpt lat="48.5857" lon="-3.16461">
        <ele>169</ele>
        <time>2016-06-06T14:14:05.1Z</time>
      </trkpt>
      <trkpt lat="48.58569" lon="-3.16463">
        <ele>169</ele>
        <time>2016-06-06T14:14:07.1Z</time>
      </trkpt>
      <trkpt lat="48.58569" lon="-3.16466">
        <ele>169</ele>
        <time>2016-06-06T14:14:10.1Z</time>
      </trkpt>
      <trkpt lat="48.58568" lon="-3.16468">
        <ele>169</ele>
        <time>2016-06-06T14:14:12.1Z</time>
      </trkpt>
      <trkpt lat="48.58567" lon="-3.16472">
        <ele>168</ele>
        <time>2016-06-06T14:14:15.1Z</time>
      </trkpt>
      <trkpt lat="48.58566" lon="-3.16475">
        <ele>168</ele>
        <time>2016-06-06T14:14:18.1Z</time>
      </trkpt>
      <trkpt lat="48.58565" lon="-3.16477">
        <ele>168</ele>
        <time>2016-06-06T14:14:20.1Z</time>
      </trkpt>
      <trkpt lat="48.58564" lon="-3.16481">
        <ele>168</ele>
        <time>2016-06-06T14:14:23.1Z</time>
      </trkpt>
      <trkpt lat="48.58563" lon="-3.16484">
        <ele>167</ele>
        <time>2016-06-06T14:14:25.1Z</time>
      </trkpt>
      <trkpt lat="48.58562" lon="-3.16488">
        <ele>167</ele>
        <time>2016-06-06T14:14:28.1Z</time>
      </trkpt>
      <trkpt lat="48.58561" lon="-3.16491">
        <ele>167</ele>
        <time>2016-06-06T14:14:30.1Z</time>
      </trkpt>
      <trkpt lat="48.5856" lon="-3.16495">
        <ele>167</ele>
        <time>2016-06-06T14:14:33.1Z</time>
      </trkpt>
      <trkpt lat="48.58559" lon="-3.16498">
        <ele>167</ele>
        <time>2016-06-06T14:14:35.1Z</time>
      </trkpt>
      <trkpt lat="48.58559" lon="-3.16502">
        <ele>166</ele>
        <time>2016-06-06T14:14:37.1Z</time>
      </trkpt>
      <trkpt lat="48.58559" lon="-3.16506">
        <ele>166</ele>
        <time>2016-06-06T14:14:40.1Z</time>
      </trkpt>
      <trkpt lat="48.58558" lon="-3.16508">
        <ele>166</ele>
        <time>2016-06-06T14:14:42.1Z</time>
      </trkpt>
      <trkpt lat="48.58557" lon="-3.16513">
        <ele>166</ele>
        <time>2016-06-06T14:14:45.1Z</time>
      </trkpt>
      <trkpt lat="48.58557" lon="-3.16518">
        <ele>166</ele>
        <time>2016-06-06T14:14:48.1Z</time>
      </trkpt>
      <trkpt lat="48.58557" lon="-3.16521">
        <ele>166</ele>
        <time>2016-06-06T14:14:50.1Z</time>
      </trkpt>
      <trkpt lat="48.58556" lon="-3.16526">
        <ele>166</ele>
        <time>2016-06-06T14:14:53.1Z</time>
      </trkpt>
      <trkpt lat="48.58556" lon="-3.16532">
        <ele>166</ele>
        <time>2016-06-06T14:14:56.1Z</time>
      </trkpt>
      <trkpt lat="48.58555" lon="-3.16537">
        <ele>165</ele>
        <time>2016-06-06T14:14:59.1Z</time>
      </trkpt>
      <trkpt lat="48.58556" lon="-3.1654">
        <ele>166</ele>
        <time>2016-06-06T14:15:01.1Z</time>
      </trkpt>
      <trkpt lat="48.58556" lon="-3.16543">
        <ele>165</ele>
        <time>2016-06-06T14:15:03.1Z</time>
      </trkpt>
      <trkpt lat="48.58556" lon="-3.16547">
        <ele>166</ele>
        <time>2016-06-06T14:15:06.1Z</time>
      </trkpt>
      <trkpt lat="48.58556" lon="-3.16551">
        <ele>165</ele>
        <time>2016-06-06T14:15:08.1Z</time>
      </trkpt>
      <trkpt lat="48.58556" lon="-3.16556">
        <ele>165</ele>
        <time>2016-06-06T14:15:11.1Z</time>
      </trkpt>
      <trkpt lat="48.58555" lon="-3.16561">
        <ele>165</ele>
        <time>2016-06-06T14:15:14.1Z</time>
      </trkpt>
      <trkpt lat="48.58555" lon="-3.16564">
        <ele>165</ele>
        <time>2016-06-06T14:15:16.1Z</time>
      </trkpt>
      <trkpt lat="48.58555" lon="-3.16568">
        <ele>165</ele>
        <time>2016-06-06T14:15:19.1Z</time>
      </trkpt>
      <trkpt lat="48.58556" lon="-3.16572">
        <ele>165</ele>
        <time>2016-06-06T14:15:22.1Z</time>
      </trkpt>
      <trkpt lat="48.58556" lon="-3.16575">
        <ele>165</ele>
        <time>2016-06-06T14:15:24.1Z</time>
      </trkpt>
      <trkpt lat="48.58556" lon="-3.1658">
        <ele>165</ele>
        <time>2016-06-06T14:15:27.1Z</time>
      </trkpt>
      <trkpt lat="48.58557" lon="-3.16584">
        <ele>165</ele>
        <time>2016-06-06T14:15:30.1Z</time>
      </trkpt>
      <trkpt lat="48.58556" lon="-3.16588">
        <ele>165</ele>
        <time>2016-06-06T14:15:33.1Z</time>
      </trkpt>
      <trkpt lat="48.58556" lon="-3.16592">
        <ele>165</ele>
        <time>2016-06-06T14:15:36.1Z</time>
      </trkpt>
      <trkpt lat="48.58557" lon="-3.16594">
        <ele>165</ele>
        <time>2016-06-06T14:15:38.1Z</time>
      </trkpt>
      <trkpt lat="48.58556" lon="-3.16597">
        <ele>165</ele>
        <time>2016-06-06T14:15:40.1Z</time>
      </trkpt>
      <trkpt lat="48.58556" lon="-3.16601">
        <ele>165</ele>
        <time>2016-06-06T14:15:43.1Z</time>
      </trkpt>
      <trkpt lat="48.58556" lon="-3.16604">
        <ele>165</ele>
        <time>2016-06-06T14:15:45.1Z</time>
      </trkpt>
      <trkpt lat="48.58556" lon="-3.16608">
        <ele>165</ele>
        <time>2016-06-06T14:15:48.1Z</time>
      </trkpt>
      <trkpt lat="48.58556" lon="-3.16611">
        <ele>165</ele>
        <time>2016-06-06T14:15:50.1Z</time>
      </trkpt>
      <trkpt lat="48.58556" lon="-3.16613">
        <ele>165</ele>
        <time>2016-06-06T14:15:52.1Z</time>
      </trkpt>
      <trkpt lat="48.58554" lon="-3.16619">
        <ele>164</ele>
        <time>2016-06-06T14:15:55.1Z</time>
      </trkpt>
      <trkpt lat="48.58554" lon="-3.16624">
        <ele>164</ele>
        <time>2016-06-06T14:15:58.1Z</time>
      </trkpt>
      <trkpt lat="48.58553" lon="-3.16628">
        <ele>165</ele>
        <time>2016-06-06T14:16:01.1Z</time>
      </trkpt>
      <trkpt lat="48.58552" lon="-3.16633">
        <ele>165</ele>
        <time>2016-06-06T14:16:04.1Z</time>
      </trkpt>
      <trkpt lat="48.58551" lon="-3.16635">
        <ele>165</ele>
        <time>2016-06-06T14:16:06.1Z</time>
      </trkpt>
      <trkpt lat="48.5855" lon="-3.16639">
        <ele>165</ele>
        <time>2016-06-06T14:16:09.1Z</time>
      </trkpt>
      <trkpt lat="48.58548" lon="-3.16644">
        <ele>165</ele>
        <time>2016-06-06T14:16:12.1Z</time>
      </trkpt>
      <trkpt lat="48.58548" lon="-3.16646">
        <ele>166</ele>
        <time>2016-06-06T14:16:14.1Z</time>
      </trkpt>
      <trkpt lat="48.58547" lon="-3.1665">
        <ele>166</ele>
        <time>2016-06-06T14:16:17.1Z</time>
      </trkpt>
      <trkpt lat="48.58545" lon="-3.16653">
        <ele>166</ele>
        <time>2016-06-06T14:16:20.1Z</time>
      </trkpt>
      <trkpt lat="48.58543" lon="-3.16655">
        <ele>166</ele>
        <time>2016-06-06T14:16:22.1Z</time>
      </trkpt>
      <trkpt lat="48.58542" lon="-3.16658">
        <ele>166</ele>
        <time>2016-06-06T14:16:25.1Z</time>
      </trkpt>
      <trkpt lat="48.58541" lon="-3.16659">
        <ele>166</ele>
        <time>2016-06-06T14:16:27.1Z</time>
      </trkpt>
      <trkpt lat="48.58539" lon="-3.16661">
        <ele>167</ele>
        <time>2016-06-06T14:16:30.1Z</time>
      </trkpt>
      <trkpt lat="48.58537" lon="-3.16663">
        <ele>167</ele>
        <time>2016-06-06T14:16:33.1Z</time>
      </trkpt>
      <trkpt lat="48.58535" lon="-3.16665">
        <ele>167</ele>
        <time>2016-06-06T14:16:36.1Z</time>
      </trkpt>
      <trkpt lat="48.58534" lon="-3.16666">
        <ele>167</ele>
        <time>2016-06-06T14:16:38.1Z</time>
      </trkpt>
      <trkpt lat="48.58532" lon="-3.16668">
        <ele>167</ele>
        <time>2016-06-06T14:16:40.1Z</time>
      </trkpt>
      <trkpt lat="48.5853" lon="-3.16669">
        <ele>167</ele>
        <time>2016-06-06T14:16:42.1Z</time>
      </trkpt>
      <trkpt lat="48.58529" lon="-3.1667">
        <ele>168</ele>
        <time>2016-06-06T14:16:44.1Z</time>
      </trkpt>
      <trkpt lat="48.58527" lon="-3.16672">
        <ele>168</ele>
        <time>2016-06-06T14:16:47.1Z</time>
      </trkpt>
      <trkpt lat="48.58525" lon="-3.16674">
        <ele>168</ele>
        <time>2016-06-06T14:16:49.1Z</time>
      </trkpt>
      <trkpt lat="48.58523" lon="-3.16676">
        <ele>169</ele>
        <time>2016-06-06T14:16:51.1Z</time>
      </trkpt>
      <trkpt lat="48.58522" lon="-3.16679">
        <ele>169</ele>
        <time>2016-06-06T14:16:53.1Z</time>
      </trkpt>
      <trkpt lat="48.58519" lon="-3.16681">
        <ele>169</ele>
        <time>2016-06-06T14:16:56.1Z</time>
      </trkpt>
      <trkpt lat="48.58517" lon="-3.16683">
        <ele>169</ele>
        <time>2016-06-06T14:16:58.1Z</time>
      </trkpt>
      <trkpt lat="48.58515" lon="-3.16685">
        <ele>169</ele>
        <time>2016-06-06T14:17:01.1Z</time>
      </trkpt>
      <trkpt lat="48.58512" lon="-3.16687">
        <ele>169</ele>
        <time>2016-06-06T14:17:04.1Z</time>
      </trkpt>
      <trkpt lat="48.5851" lon="-3.16689">
        <ele>170</ele>
        <time>2016-06-06T14:17:06.1Z</time>
      </trkpt>
      <trkpt lat="48.58508" lon="-3.1669">
        <ele>170</ele>
        <time>2016-06-06T14:17:08.1Z</time>
      </trkpt>
      <trkpt lat="48.58506" lon="-3.16691">
        <ele>170</ele>
        <time>2016-06-06T14:17:11.1Z</time>
      </trkpt>
      <trkpt lat="48.58504" lon="-3.16692">
        <ele>171</ele>
        <time>2016-06-06T14:17:13.1Z</time>
      </trkpt>
      <trkpt lat="48.58502" lon="-3.16694">
        <ele>171</ele>
        <time>2016-06-06T14:17:15.1Z</time>
      </trkpt>
      <trkpt lat="48.585" lon="-3.16696">
        <ele>171</ele>
        <time>2016-06-06T14:17:18.1Z</time>
      </trkpt>
      <trkpt lat="48.58498" lon="-3.16698">
        <ele>171</ele>
        <time>2016-06-06T14:17:21.1Z</time>
      </trkpt>
      <trkpt lat="48.58496" lon="-3.167">
        <ele>171</ele>
        <time>2016-06-06T14:17:24.1Z</time>
      </trkpt>
      <trkpt lat="48.58495" lon="-3.16702">
        <ele>171</ele>
        <time>2016-06-06T14:17:26.1Z</time>
      </trkpt>
      <trkpt lat="48.58493" lon="-3.16704">
        <ele>172</ele>
        <time>2016-06-06T14:17:29.1Z</time>
      </trkpt>
      <trkpt lat="48.5849" lon="-3.16706">
        <ele>172</ele>
        <time>2016-06-06T14:17:32.1Z</time>
      </trkpt>
      <trkpt lat="48.58489" lon="-3.16708">
        <ele>172</ele>
        <time>2016-06-06T14:17:34.1Z</time>
      </trkpt>
      <trkpt lat="48.58486" lon="-3.16711">
        <ele>172</ele>
        <time>2016-06-06T14:17:37.1Z</time>
      </trkpt>
      <trkpt lat="48.58485" lon="-3.16712">
        <ele>173</ele>
        <time>2016-06-06T14:17:39.1Z</time>
      </trkpt>
      <trkpt lat="48.58483" lon="-3.16714">
        <ele>173</ele>
        <time>2016-06-06T14:17:41.1Z</time>
      </trkpt>
      <trkpt lat="48.58481" lon="-3.16716">
        <ele>173</ele>
        <time>2016-06-06T14:17:44.1Z</time>
      </trkpt>
      <trkpt lat="48.5848" lon="-3.16719">
        <ele>173</ele>
        <time>2016-06-06T14:17:47.1Z</time>
      </trkpt>
      <trkpt lat="48.58478" lon="-3.16721">
        <ele>173</ele>
        <time>2016-06-06T14:17:49.1Z</time>
      </trkpt>
      <trkpt lat="48.58477" lon="-3.16724">
        <ele>173</ele>
        <time>2016-06-06T14:17:51.1Z</time>
      </trkpt>
      <trkpt lat="48.58476" lon="-3.16726">
        <ele>174</ele>
        <time>2016-06-06T14:17:53.1Z</time>
      </trkpt>
      <trkpt lat="48.58473" lon="-3.16729">
        <ele>174</ele>
        <time>2016-06-06T14:17:56.1Z</time>
      </trkpt>
      <trkpt lat="48.58472" lon="-3.1673">
        <ele>174</ele>
        <time>2016-06-06T14:17:58.1Z</time>
      </trkpt>
      <trkpt lat="48.58471" lon="-3.16734">
        <ele>174</ele>
        <time>2016-06-06T14:18:01.1Z</time>
      </trkpt>
      <trkpt lat="48.5847" lon="-3.16736">
        <ele>175</ele>
        <time>2016-06-06T14:18:03.1Z</time>
      </trkpt>
      <trkpt lat="48.58469" lon="-3.16738">
        <ele>175</ele>
        <time>2016-06-06T14:18:05.1Z</time>
      </trkpt>
      <trkpt lat="48.58468" lon="-3.16742">
        <ele>175</ele>
        <time>2016-06-06T14:18:08.1Z</time>
      </trkpt>
      <trkpt lat="48.58467" lon="-3.16744">
        <ele>175</ele>
        <time>2016-06-06T14:18:10.1Z</time>
      </trkpt>
      <trkpt lat="48.58465" lon="-3.16748">
        <ele>175</ele>
        <time>2016-06-06T14:18:13.1Z</time>
      </trkpt>
      <trkpt lat="48.58464" lon="-3.16751">
        <ele>176</ele>
        <time>2016-06-06T14:18:15.1Z</time>
      </trkpt>
      <trkpt lat="48.58463" lon="-3.16753">
        <ele>176</ele>
        <time>2016-06-06T14:18:17.1Z</time>
      </trkpt>
      <trkpt lat="48.58463" lon="-3.16756">
        <ele>176</ele>
        <time>2016-06-06T14:18:19.1Z</time>
      </trkpt>
      <trkpt lat="48.58461" lon="-3.1676">
        <ele>176</ele>
        <time>2016-06-06T14:18:22.1Z</time>
      </trkpt>
      <trkpt lat="48.58461" lon="-3.16763">
        <ele>176</ele>
        <time>2016-06-06T14:18:24.1Z</time>
      </trkpt>
      <trkpt lat="48.5846" lon="-3.16765">
        <ele>176</ele>
        <time>2016-06-06T14:18:26.1Z</time>
      </trkpt>
      <trkpt lat="48.58459" lon="-3.1677">
        <ele>176</ele>
        <time>2016-06-06T14:18:29.1Z</time>
      </trkpt>
      <trkpt lat="48.58458" lon="-3.16772">
        <ele>176</ele>
        <time>2016-06-06T14:18:31.1Z</time>
      </trkpt>
      <trkpt lat="48.58457" lon="-3.16777">
        <ele>176</ele>
        <time>2016-06-06T14:18:34.1Z</time>
      </trkpt>
      <trkpt lat="48.58456" lon="-3.16782">
        <ele>176</ele>
        <time>2016-06-06T14:18:37.1Z</time>
      </trkpt>
      <trkpt lat="48.58455" lon="-3.16785">
        <ele>177</ele>
        <time>2016-06-06T14:18:39.1Z</time>
      </trkpt>
      <trkpt lat="48.58455" lon="-3.1679">
        <ele>177</ele>
        <time>2016-06-06T14:18:42.1Z</time>
      </trkpt>
      <trkpt lat="48.58456" lon="-3.16792">
        <ele>177</ele>
        <time>2016-06-06T14:18:44.1Z</time>
      </trkpt>
      <trkpt lat="48.58457" lon="-3.16795">
        <ele>177</ele>
        <time>2016-06-06T14:18:46.1Z</time>
      </trkpt>
      <trkpt lat="48.58459" lon="-3.16798">
        <ele>176</ele>
        <time>2016-06-06T14:18:49.1Z</time>
      </trkpt>
      <trkpt lat="48.58461" lon="-3.16799">
        <ele>176</ele>
        <time>2016-06-06T14:18:51.1Z</time>
      </trkpt>
      <trkpt lat="48.58462" lon="-3.16801">
        <ele>176</ele>
        <time>2016-06-06T14:18:53.1Z</time>
      </trkpt>
      <trkpt lat="48.58464" lon="-3.16802">
        <ele>177</ele>
        <time>2016-06-06T14:18:55.1Z</time>
      </trkpt>
      <trkpt lat="48.58467" lon="-3.16804">
        <ele>177</ele>
        <time>2016-06-06T14:18:58.1Z</time>
      </trkpt>
      <trkpt lat="48.58469" lon="-3.16805">
        <ele>177</ele>
        <time>2016-06-06T14:19:00.1Z</time>
      </trkpt>
      <trkpt lat="48.58471" lon="-3.16807">
        <ele>177</ele>
        <time>2016-06-06T14:19:02.1Z</time>
      </trkpt>
      <trkpt lat="48.58473" lon="-3.16808">
        <ele>176</ele>
        <time>2016-06-06T14:19:04.1Z</time>
      </trkpt>
      <trkpt lat="48.58476" lon="-3.16809">
        <ele>177</ele>
        <time>2016-06-06T14:19:07.1Z</time>
      </trkpt>
      <trkpt lat="48.58478" lon="-3.16811">
        <ele>177</ele>
        <time>2016-06-06T14:19:09.1Z</time>
      </trkpt>
      <trkpt lat="48.5848" lon="-3.16812">
        <ele>177</ele>
        <time>2016-06-06T14:19:11.1Z</time>
      </trkpt>
      <trkpt lat="48.58482" lon="-3.16814">
        <ele>177</ele>
        <time>2016-06-06T14:19:13.1Z</time>
      </trkpt>
      <trkpt lat="48.58485" lon="-3.16815">
        <ele>177</ele>
        <time>2016-06-06T14:19:16.1Z</time>
      </trkpt>
      <trkpt lat="48.58487" lon="-3.16817">
        <ele>177</ele>
        <time>2016-06-06T14:19:18.1Z</time>
      </trkpt>
      <trkpt lat="48.5849" lon="-3.16818">
        <ele>177</ele>
        <time>2016-06-06T14:19:21.1Z</time>
      </trkpt>
      <trkpt lat="48.58493" lon="-3.1682">
        <ele>177</ele>
        <time>2016-06-06T14:19:24.1Z</time>
      </trkpt>
      <trkpt lat="48.58495" lon="-3.16821">
        <ele>177</ele>
        <time>2016-06-06T14:19:26.1Z</time>
      </trkpt>
      <trkpt lat="48.58498" lon="-3.16822">
        <ele>177</ele>
        <time>2016-06-06T14:19:28.1Z</time>
      </trkpt>
      <trkpt lat="48.58501" lon="-3.16824">
        <ele>177</ele>
        <time>2016-06-06T14:19:31.1Z</time>
      </trkpt>
      <trkpt lat="48.58503" lon="-3.16825">
        <ele>177</ele>
        <time>2016-06-06T14:19:33.1Z</time>
      </trkpt>
      <trkpt lat="48.58505" lon="-3.16826">
        <ele>177</ele>
        <time>2016-06-06T14:19:36.1Z</time>
      </trkpt>
      <trkpt lat="48.58508" lon="-3.16827">
        <ele>177</ele>
        <time>2016-06-06T14:19:39.1Z</time>
      </trkpt>
      <trkpt lat="48.5851" lon="-3.16828">
        <ele>177</ele>
        <time>2016-06-06T14:19:41.1Z</time>
      </trkpt>
      <trkpt lat="48.58513" lon="-3.16829">
        <ele>177</ele>
        <time>2016-06-06T14:19:44.1Z</time>
      </trkpt>
      <trkpt lat="48.58515" lon="-3.1683">
        <ele>176</ele>
        <time>2016-06-06T14:19:46.1Z</time>
      </trkpt>
      <trkpt lat="48.58518" lon="-3.16831">
        <ele>176</ele>
        <time>2016-06-06T14:19:48.1Z</time>
      </trkpt>
      <trkpt lat="48.5852" lon="-3.16832">
        <ele>177</ele>
        <time>2016-06-06T14:19:50.1Z</time>
      </trkpt>
      <trkpt lat="48.58523" lon="-3.16832">
        <ele>177</ele>
        <time>2016-06-06T14:19:53.1Z</time>
      </trkpt>
      <trkpt lat="48.58525" lon="-3.16833">
        <ele>177</ele>
        <time>2016-06-06T14:19:55.1Z</time>
      </trkpt>
      <trkpt lat="48.58527" lon="-3.16834">
        <ele>177</ele>
        <time>2016-06-06T14:19:57.1Z</time>
      </trkpt>
      <trkpt lat="48.58529" lon="-3.16834">
        <ele>177</ele>
        <time>2016-06-06T14:19:59.1Z</time>
      </trkpt>
      <trkpt lat="48.58532" lon="-3.16835">
        <ele>177</ele>
        <time>2016-06-06T14:20:02.1Z</time>
      </trkpt>
      <trkpt lat="48.58535" lon="-3.16835">
        <ele>177</ele>
        <time>2016-06-06T14:20:04.1Z</time>
      </trkpt>
      <trkpt lat="48.58536" lon="-3.16836">
        <ele>177</ele>
        <time>2016-06-06T14:20:06.1Z</time>
      </trkpt>
      <trkpt lat="48.58538" lon="-3.16837">
        <ele>177</ele>
        <time>2016-06-06T14:20:08.1Z</time>
      </trkpt>
      <trkpt lat="48.58541" lon="-3.16837">
        <ele>177</ele>
        <time>2016-06-06T14:20:11.1Z</time>
      </trkpt>
      <trkpt lat="48.58544" lon="-3.16839">
        <ele>177</ele>
        <time>2016-06-06T14:20:14.1Z</time>
      </trkpt>
      <trkpt lat="48.58547" lon="-3.1684">
        <ele>178</ele>
        <time>2016-06-06T14:20:17.1Z</time>
      </trkpt>
      <trkpt lat="48.58549" lon="-3.16841">
        <ele>178</ele>
        <time>2016-06-06T14:20:19.1Z</time>
      </trkpt>
      <trkpt lat="48.58553" lon="-3.16842">
        <ele>178</ele>
        <time>2016-06-06T14:20:22.1Z</time>
      </trkpt>
      <trkpt lat="48.58555" lon="-3.16843">
        <ele>178</ele>
        <time>2016-06-06T14:20:24.1Z</time>
      </trkpt>
      <trkpt lat="48.58556" lon="-3.16845">
        <ele>178</ele>
        <time>2016-06-06T14:20:26.1Z</time>
      </trkpt>
      <trkpt lat="48.5856" lon="-3.16848">
        <ele>178</ele>
        <time>2016-06-06T14:20:29.1Z</time>
      </trkpt>
      <trkpt lat="48.58562" lon="-3.16849">
        <ele>178</ele>
        <time>2016-06-06T14:20:31.1Z</time>
      </trkpt>
      <trkpt lat="48.58565" lon="-3.16851">
        <ele>179</ele>
        <time>2016-06-06T14:20:34.1Z</time>
      </trkpt>
      <trkpt lat="48.58568" lon="-3.16853">
        <ele>179</ele>
        <time>2016-06-06T14:20:37.1Z</time>
      </trkpt>
      <trkpt lat="48.58569" lon="-3.16854">
        <ele>179</ele>
        <time>2016-06-06T14:20:39.1Z</time>
      </trkpt>
      <trkpt lat="48.58573" lon="-3.16857">
        <ele>180</ele>
        <time>2016-06-06T14:20:42.1Z</time>
      </trkpt>
      <trkpt lat="48.58575" lon="-3.16858">
        <ele>180</ele>
        <time>2016-06-06T14:20:44.1Z</time>
      </trkpt>
      <trkpt lat="48.58579" lon="-3.1686">
        <ele>179</ele>
        <time>2016-06-06T14:20:47.1Z</time>
      </trkpt>
      <trkpt lat="48.58582" lon="-3.16862">
        <ele>179</ele>
        <time>2016-06-06T14:20:50.1Z</time>
      </trkpt>
      <trkpt lat="48.58585" lon="-3.16864">
        <ele>180</ele>
        <time>2016-06-06T14:20:53.1Z</time>
      </trkpt>
      <trkpt lat="48.58587" lon="-3.16865">
        <ele>180</ele>
        <time>2016-06-06T14:20:55.1Z</time>
      </trkpt>
      <trkpt lat="48.58589" lon="-3.16866">
        <ele>180</ele>
        <time>2016-06-06T14:20:57.1Z</time>
      </trkpt>
      <trkpt lat="48.58591" lon="-3.16868">
        <ele>180</ele>
        <time>2016-06-06T14:21:00.1Z</time>
      </trkpt>
      <trkpt lat="48.58593" lon="-3.1687">
        <ele>180</ele>
        <time>2016-06-06T14:21:02.1Z</time>
      </trkpt>
      <trkpt lat="48.58596" lon="-3.16872">
        <ele>180</ele>
        <time>2016-06-06T14:21:05.1Z</time>
      </trkpt>
      <trkpt lat="48.58599" lon="-3.16874">
        <ele>180</ele>
        <time>2016-06-06T14:21:08.1Z</time>
      </trkpt>
      <trkpt lat="48.58601" lon="-3.16876">
        <ele>180</ele>
        <time>2016-06-06T14:21:10.1Z</time>
      </trkpt>
      <trkpt lat="48.58604" lon="-3.16877">
        <ele>180</ele>
        <time>2016-06-06T14:21:12.1Z</time>
      </trkpt>
      <trkpt lat="48.58607" lon="-3.1688">
        <ele>180</ele>
        <time>2016-06-06T14:21:15.1Z</time>
      </trkpt>
      <trkpt lat="48.5861" lon="-3.16882">
        <ele>181</ele>
        <time>2016-06-06T14:21:18.1Z</time>
      </trkpt>
      <trkpt lat="48.58613" lon="-3.16884">
        <ele>181</ele>
        <time>2016-06-06T14:21:21.1Z</time>
      </trkpt>
      <trkpt lat="48.58617" lon="-3.16886">
        <ele>181</ele>
        <time>2016-06-06T14:21:24.1Z</time>
      </trkpt>
      <trkpt lat="48.58619" lon="-3.16888">
        <ele>181</ele>
        <time>2016-06-06T14:21:26.1Z</time>
      </trkpt>
      <trkpt lat="48.58622" lon="-3.16891">
        <ele>181</ele>
        <time>2016-06-06T14:21:29.1Z</time>
      </trkpt>
      <trkpt lat="48.58624" lon="-3.16893">
        <ele>181</ele>
        <time>2016-06-06T14:21:31.1Z</time>
      </trkpt>
      <trkpt lat="48.58628" lon="-3.16895">
        <ele>181</ele>
        <time>2016-06-06T14:21:34.1Z</time>
      </trkpt>
      <trkpt lat="48.58631" lon="-3.16898">
        <ele>181</ele>
        <time>2016-06-06T14:21:37.1Z</time>
      </trkpt>
      <trkpt lat="48.58634" lon="-3.169">
        <ele>182</ele>
        <time>2016-06-06T14:21:39.1Z</time>
      </trkpt>
      <trkpt lat="48.58637" lon="-3.16902">
        <ele>182</ele>
        <time>2016-06-06T14:21:42.1Z</time>
      </trkpt>
      <trkpt lat="48.58639" lon="-3.16903">
        <ele>182</ele>
        <time>2016-06-06T14:21:44.1Z</time>
      </trkpt>
      <trkpt lat="48.58641" lon="-3.16905">
        <ele>182</ele>
        <time>2016-06-06T14:21:46.1Z</time>
      </trkpt>
      <trkpt lat="48.58644" lon="-3.16907">
        <ele>182</ele>
        <time>2016-06-06T14:21:49.1Z</time>
      </trkpt>
      <trkpt lat="48.58647" lon="-3.16908">
        <ele>182</ele>
        <time>2016-06-06T14:21:51.1Z</time>
      </trkpt>
      <trkpt lat="48.58649" lon="-3.1691">
        <ele>182</ele>
        <time>2016-06-06T14:21:53.1Z</time>
      </trkpt>
      <trkpt lat="48.58652" lon="-3.16911">
        <ele>182</ele>
        <time>2016-06-06T14:21:56.1Z</time>
      </trkpt>
      <trkpt lat="48.58656" lon="-3.16913">
        <ele>183</ele>
        <time>2016-06-06T14:21:59.1Z</time>
      </trkpt>
      <trkpt lat="48.58658" lon="-3.16914">
        <ele>183</ele>
        <time>2016-06-06T14:22:01.1Z</time>
      </trkpt>
      <trkpt lat="48.5866" lon="-3.16915">
        <ele>183</ele>
        <time>2016-06-06T14:22:03.1Z</time>
      </trkpt>
      <trkpt lat="48.58662" lon="-3.16916">
        <ele>184</ele>
        <time>2016-06-06T14:22:05.1Z</time>
      </trkpt>
      <trkpt lat="48.58665" lon="-3.16918">
        <ele>184</ele>
        <time>2016-06-06T14:22:08.1Z</time>
      </trkpt>
      <trkpt lat="48.58669" lon="-3.1692">
        <ele>184</ele>
        <time>2016-06-06T14:22:11.1Z</time>
      </trkpt>
      <trkpt lat="48.58671" lon="-3.16921">
        <ele>184</ele>
        <time>2016-06-06T14:22:13.1Z</time>
      </trkpt>
      <trkpt lat="48.58673" lon="-3.16922">
        <ele>184</ele>
        <time>2016-06-06T14:22:15.1Z</time>
      </trkpt>
      <trkpt lat="48.58675" lon="-3.16923">
        <ele>184</ele>
        <time>2016-06-06T14:22:17.1Z</time>
      </trkpt>
      <trkpt lat="48.58679" lon="-3.16926">
        <ele>184</ele>
        <time>2016-06-06T14:22:20.1Z</time>
      </trkpt>
      <trkpt lat="48.58681" lon="-3.16927">
        <ele>184</ele>
        <time>2016-06-06T14:22:22.1Z</time>
      </trkpt>
      <trkpt lat="48.58684" lon="-3.16929">
        <ele>184</ele>
        <time>2016-06-06T14:22:25.1Z</time>
      </trkpt>
      <trkpt lat="48.58686" lon="-3.1693">
        <ele>184</ele>
        <time>2016-06-06T14:22:27.1Z</time>
      </trkpt>
      <trkpt lat="48.5869" lon="-3.16932">
        <ele>185</ele>
        <time>2016-06-06T14:22:30.1Z</time>
      </trkpt>
      <trkpt lat="48.58693" lon="-3.16934">
        <ele>185</ele>
        <time>2016-06-06T14:22:33.1Z</time>
      </trkpt>
      <trkpt lat="48.58696" lon="-3.16936">
        <ele>185</ele>
        <time>2016-06-06T14:22:36.1Z</time>
      </trkpt>
      <trkpt lat="48.587" lon="-3.16938">
        <ele>185</ele>
        <time>2016-06-06T14:22:39.1Z</time>
      </trkpt>
      <trkpt lat="48.58702" lon="-3.16939">
        <ele>185</ele>
        <time>2016-06-06T14:22:41.1Z</time>
      </trkpt>
      <trkpt lat="48.58704" lon="-3.16941">
        <ele>185</ele>
        <time>2016-06-06T14:22:43.1Z</time>
      </trkpt>
      <trkpt lat="48.58707" lon="-3.16943">
        <ele>185</ele>
        <time>2016-06-06T14:22:46.1Z</time>
      </trkpt>
      <trkpt lat="48.5871" lon="-3.16945">
        <ele>186</ele>
        <time>2016-06-06T14:22:49.1Z</time>
      </trkpt>
      <trkpt lat="48.58714" lon="-3.16948">
        <ele>186</ele>
        <time>2016-06-06T14:22:52.1Z</time>
      </trkpt>
      <trkpt lat="48.58716" lon="-3.16949">
        <ele>186</ele>
        <time>2016-06-06T14:22:54.1Z</time>
      </trkpt>
      <trkpt lat="48.5872" lon="-3.16951">
        <ele>185</ele>
        <time>2016-06-06T14:22:57.1Z</time>
      </trkpt>
      <trkpt lat="48.58722" lon="-3.16952">
        <ele>185</ele>
        <time>2016-06-06T14:22:59.1Z</time>
      </trkpt>
      <trkpt lat="48.58725" lon="-3.16954">
        <ele>186</ele>
        <time>2016-06-06T14:23:02.1Z</time>
      </trkpt>
      <trkpt lat="48.58725" lon="-3.16955">
        <ele>186</ele>
        <time>2016-06-06T14:23:04.1Z</time>
      </trkpt>
      <trkpt lat="48.58728" lon="-3.16956">
        <ele>186</ele>
        <time>2016-06-06T14:23:07.1Z</time>
      </trkpt>
      <trkpt lat="48.58731" lon="-3.16957">
        <ele>186</ele>
        <time>2016-06-06T14:23:10.1Z</time>
      </trkpt>
      <trkpt lat="48.58735" lon="-3.16958">
        <ele>186</ele>
        <time>2016-06-06T14:23:13.1Z</time>
      </trkpt>
      <trkpt lat="48.58737" lon="-3.16959">
        <ele>186</ele>
        <time>2016-06-06T14:23:15.1Z</time>
      </trkpt>
      <trkpt lat="48.58739" lon="-3.1696">
        <ele>185</ele>
        <time>2016-06-06T14:23:17.1Z</time>
      </trkpt>
      <trkpt lat="48.58742" lon="-3.16961">
        <ele>186</ele>
        <time>2016-06-06T14:23:20.1Z</time>
      </trkpt>
      <trkpt lat="48.58744" lon="-3.16963">
        <ele>186</ele>
        <time>2016-06-06T14:23:23.1Z</time>
      </trkpt>
      <trkpt lat="48.58746" lon="-3.16964">
        <ele>186</ele>
        <time>2016-06-06T14:23:25.1Z</time>
      </trkpt>
      <trkpt lat="48.58749" lon="-3.16964">
        <ele>186</ele>
        <time>2016-06-06T14:23:27.1Z</time>
      </trkpt>
      <trkpt lat="48.58752" lon="-3.16966">
        <ele>186</ele>
        <time>2016-06-06T14:23:30.1Z</time>
      </trkpt>
      <trkpt lat="48.58755" lon="-3.16966">
        <ele>186</ele>
        <time>2016-06-06T14:23:32.1Z</time>
      </trkpt>
      <trkpt lat="48.58758" lon="-3.16966">
        <ele>186</ele>
        <time>2016-06-06T14:23:34.1Z</time>
      </trkpt>
      <trkpt lat="48.5876" lon="-3.16967">
        <ele>185</ele>
        <time>2016-06-06T14:23:36.1Z</time>
      </trkpt>
      <trkpt lat="48.58763" lon="-3.16967">
        <ele>185</ele>
        <time>2016-06-06T14:23:38.1Z</time>
      </trkpt>
      <trkpt lat="48.58767" lon="-3.16967">
        <ele>185</ele>
        <time>2016-06-06T14:23:41.1Z</time>
      </trkpt>
      <trkpt lat="48.58771" lon="-3.16967">
        <ele>186</ele>
        <time>2016-06-06T14:23:44.1Z</time>
      </trkpt>
      <trkpt lat="48.58774" lon="-3.16968">
        <ele>186</ele>
        <time>2016-06-06T14:23:47.1Z</time>
      </trkpt>
      <trkpt lat="48.58777" lon="-3.16968">
        <ele>186</ele>
        <time>2016-06-06T14:23:50.1Z</time>
      </trkpt>
      <trkpt lat="48.5878" lon="-3.16968">
        <ele>186</ele>
        <time>2016-06-06T14:23:52.1Z</time>
      </trkpt>
      <trkpt lat="48.58782" lon="-3.16967">
        <ele>185</ele>
        <time>2016-06-06T14:23:54.1Z</time>
      </trkpt>
      <trkpt lat="48.58785" lon="-3.16966">
        <ele>185</ele>
        <time>2016-06-06T14:23:57.1Z</time>
      </trkpt>
      <trkpt lat="48.58786" lon="-3.16966">
        <ele>186</ele>
        <time>2016-06-06T14:24:00.1Z</time>
      </trkpt>
      <trkpt lat="48.58786" lon="-3.16965">
        <ele>186</ele>
        <time>2016-06-06T14:24:02.1Z</time>
      </trkpt>
      <trkpt lat="48.58787" lon="-3.16965">
        <ele>186</ele>
        <time>2016-06-06T14:24:05.1Z</time>
      </trkpt>
      <trkpt lat="48.58787" lon="-3.16965">
        <ele>186</ele>
        <time>2016-06-06T14:24:08.1Z</time>
      </trkpt>
      <trkpt lat="48.58788" lon="-3.16965">
        <ele>186</ele>
        <time>2016-06-06T14:24:10.1Z</time>
      </trkpt>
      <trkpt lat="48.58788" lon="-3.16965">
        <ele>186</ele>
        <time>2016-06-06T14:24:12.1Z</time>
      </trkpt>
      <trkpt lat="48.5879" lon="-3.16964">
        <ele>186</ele>
        <time>2016-06-06T14:24:15.1Z</time>
      </trkpt>
      <trkpt lat="48.58791" lon="-3.16964">
        <ele>185</ele>
        <time>2016-06-06T14:24:18.1Z</time>
      </trkpt>
      <trkpt lat="48.58792" lon="-3.16964">
        <ele>185</ele>
        <time>2016-06-06T14:24:21.1Z</time>
      </trkpt>
      <trkpt lat="48.58792" lon="-3.16965">
        <ele>186</ele>
        <time>2016-06-06T14:24:23.1Z</time>
      </trkpt>
      <trkpt lat="48.58792" lon="-3.16965">
        <ele>186</ele>
        <time>2016-06-06T14:24:26.1Z</time>
      </trkpt>
      <trkpt lat="48.58793" lon="-3.16964">
        <ele>186</ele>
        <time>2016-06-06T14:24:28.1Z</time>
      </trkpt>
      <trkpt lat="48.58793" lon="-3.16965">
        <ele>186</ele>
        <time>2016-06-06T14:24:30.1Z</time>
      </trkpt>
      <trkpt lat="48.58792" lon="-3.16965">
        <ele>186</ele>
        <time>2016-06-06T14:24:33.1Z</time>
      </trkpt>
      <trkpt lat="48.58792" lon="-3.16965">
        <ele>186</ele>
        <time>2016-06-06T14:24:36.1Z</time>
      </trkpt>
      <trkpt lat="48.58792" lon="-3.16964">
        <ele>186</ele>
        <time>2016-06-06T14:24:38.1Z</time>
      </trkpt>
      <trkpt lat="48.58792" lon="-3.16964">
        <ele>186</ele>
        <time>2016-06-06T14:24:40.1Z</time>
      </trkpt>
      <trkpt lat="48.58792" lon="-3.16964">
        <ele>186</ele>
        <time>2016-06-06T14:24:43.1Z</time>
      </trkpt>
      <trkpt lat="48.58792" lon="-3.16965">
        <ele>186</ele>
        <time>2016-06-06T14:24:46.1Z</time>
      </trkpt>
      <trkpt lat="48.58792" lon="-3.16965">
        <ele>186</ele>
        <time>2016-06-06T14:24:48.1Z</time>
      </trkpt>
      <trkpt lat="48.58792" lon="-3.16966">
        <ele>186</ele>
        <time>2016-06-06T14:24:50.1Z</time>
      </trkpt>
      <trkpt lat="48.58792" lon="-3.16966">
        <ele>185</ele>
        <time>2016-06-06T14:24:54.1Z</time>
      </trkpt>
      <trkpt lat="48.58792" lon="-3.16966">
        <ele>185</ele>
        <time>2016-06-06T14:24:57.1Z</time>
      </trkpt>
      <trkpt lat="48.58792" lon="-3.16966">
        <ele>185</ele>
        <time>2016-06-06T14:24:59.1Z</time>
      </trkpt>
      <trkpt lat="48.58793" lon="-3.16967">
        <ele>186</ele>
        <time>2016-06-06T14:25:02.1Z</time>
      </trkpt>
      <trkpt lat="48.58794" lon="-3.16967">
        <ele>186</ele>
        <time>2016-06-06T14:25:05.1Z</time>
      </trkpt>
      <trkpt lat="48.58793" lon="-3.16967">
        <ele>186</ele>
        <time>2016-06-06T14:25:07.1Z</time>
      </trkpt>
      <trkpt lat="48.58793" lon="-3.16968">
        <ele>186</ele>
        <time>2016-06-06T14:25:11.1Z</time>
      </trkpt>
      <trkpt lat="48.58793" lon="-3.16968">
        <ele>185</ele>
        <time>2016-06-06T14:25:16.1Z</time>
      </trkpt>
      <trkpt lat="48.58793" lon="-3.16968">
        <ele>185</ele>
        <time>2016-06-06T14:25:18.1Z</time>
      </trkpt>
      <trkpt lat="48.58793" lon="-3.16968">
        <ele>185</ele>
        <time>2016-06-06T14:25:20.1Z</time>
      </trkpt>
      <trkpt lat="48.58793" lon="-3.16968">
        <ele>186</ele>
        <time>2016-06-06T14:25:23.1Z</time>
      </trkpt>
      <trkpt lat="48.58793" lon="-3.16968">
        <ele>186</ele>
        <time>2016-06-06T14:25:26.1Z</time>
      </trkpt>
      <trkpt lat="48.58793" lon="-3.16968">
        <ele>186</ele>
        <time>2016-06-06T14:25:29.1Z</time>
      </trkpt>
      <trkpt lat="48.58793" lon="-3.16969">
        <ele>186</ele>
        <time>2016-06-06T14:25:31.1Z</time>
      </trkpt>
      <trkpt lat="48.58793" lon="-3.16969">
        <ele>186</ele>
        <time>2016-06-06T14:25:36.1Z</time>
      </trkpt>
      <trkpt lat="48.58793" lon="-3.16969">
        <ele>186</ele>
        <time>2016-06-06T14:25:40.1Z</time>
      </trkpt>
      <trkpt lat="48.58793" lon="-3.16969">
        <ele>186</ele>
        <time>2016-06-06T14:25:43.1Z</time>
      </trkpt>
      <trkpt lat="48.58793" lon="-3.16968">
        <ele>186</ele>
        <time>2016-06-06T14:25:45.1Z</time>
      </trkpt>
      <trkpt lat="48.58792" lon="-3.16968">
        <ele>186</ele>
        <time>2016-06-06T14:25:47.1Z</time>
      </trkpt>
      <trkpt lat="48.58792" lon="-3.16968">
        <ele>186</ele>
        <time>2016-06-06T14:25:50.1Z</time>
      </trkpt>
      <trkpt lat="48.58792" lon="-3.16967">
        <ele>186</ele>
        <time>2016-06-06T14:25:54.1Z</time>
      </trkpt>
      <trkpt lat="48.58792" lon="-3.16967">
        <ele>185</ele>
        <time>2016-06-06T14:25:57.1Z</time>
      </trkpt>
      <trkpt lat="48.58792" lon="-3.16967">
        <ele>185</ele>
        <time>2016-06-06T14:25:59.1Z</time>
      </trkpt>
      <trkpt lat="48.58792" lon="-3.16967">
        <ele>185</ele>
        <time>2016-06-06T14:26:02.1Z</time>
      </trkpt>
      <trkpt lat="48.58792" lon="-3.16967">
        <ele>185</ele>
        <time>2016-06-06T14:26:05.1Z</time>
      </trkpt>
      <trkpt lat="48.58792" lon="-3.16967">
        <ele>186</ele>
        <time>2016-06-06T14:26:08.1Z</time>
      </trkpt>
      <trkpt lat="48.58793" lon="-3.16967">
        <ele>186</ele>
        <time>2016-06-06T14:26:11.1Z</time>
      </trkpt>
      <trkpt lat="48.58793" lon="-3.16967">
        <ele>186</ele>
        <time>2016-06-06T14:26:14.1Z</time>
      </trkpt>
      <trkpt lat="48.58793" lon="-3.16968">
        <ele>186</ele>
        <time>2016-06-06T14:26:17.1Z</time>
      </trkpt>
      <trkpt lat="48.58793" lon="-3.16968">
        <ele>186</ele>
        <time>2016-06-06T14:26:19.1Z</time>
      </trkpt>
      <trkpt lat="48.58793" lon="-3.16968">
        <ele>186</ele>
        <time>2016-06-06T14:26:21.1Z</time>
      </trkpt>
      <trkpt lat="48.58793" lon="-3.16969">
        <ele>185</ele>
        <time>2016-06-06T14:26:24.1Z</time>
      </trkpt>
      <trkpt lat="48.58794" lon="-3.16969">
        <ele>185</ele>
        <time>2016-06-06T14:26:28.1Z</time>
      </trkpt>
      <trkpt lat="48.58794" lon="-3.1697">
        <ele>185</ele>
        <time>2016-06-06T14:26:31.1Z</time>
      </trkpt>
      <trkpt lat="48.58794" lon="-3.1697">
        <ele>185</ele>
        <time>2016-06-06T14:26:33.1Z</time>
      </trkpt>
      <trkpt lat="48.58794" lon="-3.1697">
        <ele>185</ele>
        <time>2016-06-06T14:26:35.1Z</time>
      </trkpt>
      <trkpt lat="48.58794" lon="-3.1697">
        <ele>185</ele>
        <time>2016-06-06T14:26:38.1Z</time>
      </trkpt>
      <trkpt lat="48.58795" lon="-3.1697">
        <ele>186</ele>
        <time>2016-06-06T14:26:41.1Z</time>
      </trkpt>
      <trkpt lat="48.58794" lon="-3.1697">
        <ele>186</ele>
        <time>2016-06-06T14:26:44.1Z</time>
      </trkpt>
      <trkpt lat="48.58794" lon="-3.1697">
        <ele>186</ele>
        <time>2016-06-06T14:26:46.1Z</time>
      </trkpt>
      <trkpt lat="48.58795" lon="-3.1697">
        <ele>186</ele>
        <time>2016-06-06T14:26:48.1Z</time>
      </trkpt>
      <trkpt lat="48.58796" lon="-3.1697">
        <ele>186</ele>
        <time>2016-06-06T14:26:51.1Z</time>
      </trkpt>
      <trkpt lat="48.58797" lon="-3.16969">
        <ele>186</ele>
        <time>2016-06-06T14:26:53.1Z</time>
      </trkpt>
      <trkpt lat="48.588" lon="-3.16969">
        <ele>186</ele>
        <time>2016-06-06T14:26:56.1Z</time>
      </trkpt>
      <trkpt lat="48.58802" lon="-3.1697">
        <ele>186</ele>
        <time>2016-06-06T14:26:58.1Z</time>
      </trkpt>
      <trkpt lat="48.58804" lon="-3.1697">
        <ele>186</ele>
        <time>2016-06-06T14:27:00.1Z</time>
      </trkpt>
      <trkpt lat="48.58806" lon="-3.16971">
        <ele>186</ele>
        <time>2016-06-06T14:27:02.1Z</time>
      </trkpt>
      <trkpt lat="48.58808" lon="-3.16971">
        <ele>187</ele>
        <time>2016-06-06T14:27:04.1Z</time>
      </trkpt>
      <trkpt lat="48.5881" lon="-3.16972">
        <ele>187</ele>
        <time>2016-06-06T14:27:06.1Z</time>
      </trkpt>
      <trkpt lat="48.58813" lon="-3.16973">
        <ele>187</ele>
        <time>2016-06-06T14:27:09.1Z</time>
      </trkpt>
      <trkpt lat="48.58816" lon="-3.16974">
        <ele>187</ele>
        <time>2016-06-06T14:27:12.1Z</time>
      </trkpt>
      <trkpt lat="48.58818" lon="-3.16975">
        <ele>187</ele>
        <time>2016-06-06T14:27:14.1Z</time>
      </trkpt>
      <trkpt lat="48.5882" lon="-3.16975">
        <ele>186</ele>
        <time>2016-06-06T14:27:17.1Z</time>
      </trkpt>
      <trkpt lat="48.58823" lon="-3.16976">
        <ele>186</ele>
        <time>2016-06-06T14:27:20.1Z</time>
      </trkpt>
      <trkpt lat="48.58825" lon="-3.16977">
        <ele>187</ele>
        <time>2016-06-06T14:27:22.1Z</time>
      </trkpt>
      <trkpt lat="48.58828" lon="-3.16978">
        <ele>187</ele>
        <time>2016-06-06T14:27:25.1Z</time>
      </trkpt>
      <trkpt lat="48.58831" lon="-3.16979">
        <ele>187</ele>
        <time>2016-06-06T14:27:27.1Z</time>
      </trkpt>
      <trkpt lat="48.58834" lon="-3.1698">
        <ele>187</ele>
        <time>2016-06-06T14:27:30.1Z</time>
      </trkpt>
      <trkpt lat="48.58836" lon="-3.16981">
        <ele>187</ele>
        <time>2016-06-06T14:27:32.1Z</time>
      </trkpt>
      <trkpt lat="48.58838" lon="-3.16982">
        <ele>187</ele>
        <time>2016-06-06T14:27:34.1Z</time>
      </trkpt>
      <trkpt lat="48.58841" lon="-3.16984">
        <ele>187</ele>
        <time>2016-06-06T14:27:37.1Z</time>
      </trkpt>
      <trkpt lat="48.58844" lon="-3.16985">
        <ele>187</ele>
        <time>2016-06-06T14:27:39.1Z</time>
      </trkpt>
      <trkpt lat="48.58846" lon="-3.16986">
        <ele>187</ele>
        <time>2016-06-06T14:27:41.1Z</time>
      </trkpt>
      <trkpt lat="48.58848" lon="-3.16987">
        <ele>188</ele>
        <time>2016-06-06T14:27:43.1Z</time>
      </trkpt>
      <trkpt lat="48.58851" lon="-3.16989">
        <ele>188</ele>
        <time>2016-06-06T14:27:46.1Z</time>
      </trkpt>
      <trkpt lat="48.58854" lon="-3.16991">
        <ele>188</ele>
        <time>2016-06-06T14:27:49.1Z</time>
      </trkpt>
      <trkpt lat="48.58857" lon="-3.16993">
        <ele>188</ele>
        <time>2016-06-06T14:27:52.1Z</time>
      </trkpt>
      <trkpt lat="48.58859" lon="-3.16994">
        <ele>188</ele>
        <time>2016-06-06T14:27:54.1Z</time>
      </trkpt>
      <trkpt lat="48.58862" lon="-3.16997">
        <ele>188</ele>
        <time>2016-06-06T14:27:57.1Z</time>
      </trkpt>
      <trkpt lat="48.58865" lon="-3.16998">
        <ele>188</ele>
        <time>2016-06-06T14:28:00.1Z</time>
      </trkpt>
      <trkpt lat="48.58867" lon="-3.16999">
        <ele>189</ele>
        <time>2016-06-06T14:28:02.1Z</time>
      </trkpt>
      <trkpt lat="48.58871" lon="-3.17">
        <ele>189</ele>
        <time>2016-06-06T14:28:05.1Z</time>
      </trkpt>
      <trkpt lat="48.58874" lon="-3.17001">
        <ele>189</ele>
        <time>2016-06-06T14:28:07.1Z</time>
      </trkpt>
      <trkpt lat="48.58876" lon="-3.17002">
        <ele>189</ele>
        <time>2016-06-06T14:28:09.1Z</time>
      </trkpt>
      <trkpt lat="48.58878" lon="-3.17005">
        <ele>189</ele>
        <time>2016-06-06T14:28:12.1Z</time>
      </trkpt>
      <trkpt lat="48.58881" lon="-3.17007">
        <ele>189</ele>
        <time>2016-06-06T14:28:15.1Z</time>
      </trkpt>
      <trkpt lat="48.58883" lon="-3.1701">
        <ele>190</ele>
        <time>2016-06-06T14:28:18.1Z</time>
      </trkpt>
      <trkpt lat="48.58886" lon="-3.17013">
        <ele>190</ele>
        <time>2016-06-06T14:28:21.1Z</time>
      </trkpt>
      <trkpt lat="48.58889" lon="-3.17014">
        <ele>190</ele>
        <time>2016-06-06T14:28:23.1Z</time>
      </trkpt>
      <trkpt lat="48.58892" lon="-3.17017">
        <ele>190</ele>
        <time>2016-06-06T14:28:26.1Z</time>
      </trkpt>
      <trkpt lat="48.58893" lon="-3.17018">
        <ele>190</ele>
        <time>2016-06-06T14:28:28.1Z</time>
      </trkpt>
      <trkpt lat="48.58896" lon="-3.1702">
        <ele>190</ele>
        <time>2016-06-06T14:28:31.1Z</time>
      </trkpt>
      <trkpt lat="48.58899" lon="-3.17021">
        <ele>191</ele>
        <time>2016-06-06T14:28:34.1Z</time>
      </trkpt>
      <trkpt lat="48.58901" lon="-3.17023">
        <ele>190</ele>
        <time>2016-06-06T14:28:36.1Z</time>
      </trkpt>
      <trkpt lat="48.58903" lon="-3.17023">
        <ele>190</ele>
        <time>2016-06-06T14:28:38.1Z</time>
      </trkpt>
      <trkpt lat="48.58905" lon="-3.17025">
        <ele>191</ele>
        <time>2016-06-06T14:28:41.1Z</time>
      </trkpt>
      <trkpt lat="48.58908" lon="-3.17027">
        <ele>191</ele>
        <time>2016-06-06T14:28:44.1Z</time>
      </trkpt>
      <trkpt lat="48.5891" lon="-3.17029">
        <ele>191</ele>
        <time>2016-06-06T14:28:46.1Z</time>
      </trkpt>
      <trkpt lat="48.58911" lon="-3.17031">
        <ele>191</ele>
        <time>2016-06-06T14:28:48.1Z</time>
      </trkpt>
      <trkpt lat="48.58914" lon="-3.17035">
        <ele>191</ele>
        <time>2016-06-06T14:28:51.1Z</time>
      </trkpt>
      <trkpt lat="48.58916" lon="-3.17037">
        <ele>191</ele>
        <time>2016-06-06T14:28:53.1Z</time>
      </trkpt>
      <trkpt lat="48.58918" lon="-3.17039">
        <ele>191</ele>
        <time>2016-06-06T14:28:56.1Z</time>
      </trkpt>
      <trkpt lat="48.58921" lon="-3.17042">
        <ele>192</ele>
        <time>2016-06-06T14:28:59.1Z</time>
      </trkpt>
      <trkpt lat="48.58923" lon="-3.17044">
        <ele>192</ele>
        <time>2016-06-06T14:29:01.1Z</time>
      </trkpt>
      <trkpt lat="48.58925" lon="-3.17046">
        <ele>192</ele>
        <time>2016-06-06T14:29:03.1Z</time>
      </trkpt>
      <trkpt lat="48.58928" lon="-3.17049">
        <ele>192</ele>
        <time>2016-06-06T14:29:06.1Z</time>
      </trkpt>
      <trkpt lat="48.5893" lon="-3.17051">
        <ele>192</ele>
        <time>2016-06-06T14:29:08.1Z</time>
      </trkpt>
      <trkpt lat="48.58934" lon="-3.17054">
        <ele>192</ele>
        <time>2016-06-06T14:29:11.1Z</time>
      </trkpt>
      <trkpt lat="48.58936" lon="-3.17056">
        <ele>192</ele>
        <time>2016-06-06T14:29:14.1Z</time>
      </trkpt>
      <trkpt lat="48.58938" lon="-3.17058">
        <ele>192</ele>
        <time>2016-06-06T14:29:16.1Z</time>
      </trkpt>
      <trkpt lat="48.58939" lon="-3.17059">
        <ele>193</ele>
        <time>2016-06-06T14:29:18.1Z</time>
      </trkpt>
      <trkpt lat="48.58942" lon="-3.17062">
        <ele>193</ele>
        <time>2016-06-06T14:29:21.1Z</time>
      </trkpt>
      <trkpt lat="48.58945" lon="-3.17064">
        <ele>194</ele>
        <time>2016-06-06T14:29:24.1Z</time>
      </trkpt>
      <trkpt lat="48.58947" lon="-3.17066">
        <ele>194</ele>
        <time>2016-06-06T14:29:26.1Z</time>
      </trkpt>
      <trkpt lat="48.58949" lon="-3.1707">
        <ele>194</ele>
        <time>2016-06-06T14:29:29.1Z</time>
      </trkpt>
      <trkpt lat="48.58952" lon="-3.17071">
        <ele>194</ele>
        <time>2016-06-06T14:29:31.1Z</time>
      </trkpt>
      <trkpt lat="48.58955" lon="-3.17073">
        <ele>194</ele>
        <time>2016-06-06T14:29:34.1Z</time>
      </trkpt>
      <trkpt lat="48.58958" lon="-3.17073">
        <ele>194</ele>
        <time>2016-06-06T14:29:36.1Z</time>
      </trkpt>
      <trkpt lat="48.5896" lon="-3.17075">
        <ele>194</ele>
        <time>2016-06-06T14:29:38.1Z</time>
      </trkpt>
      <trkpt lat="48.58963" lon="-3.17077">
        <ele>194</ele>
        <time>2016-06-06T14:29:40.1Z</time>
      </trkpt>
      <trkpt lat="48.58966" lon="-3.17079">
        <ele>194</ele>
        <time>2016-06-06T14:29:43.1Z</time>
      </trkpt>
      <trkpt lat="48.5897" lon="-3.17081">
        <ele>194</ele>
        <time>2016-06-06T14:29:46.1Z</time>
      </trkpt>
      <trkpt lat="48.58973" lon="-3.17083">
        <ele>195</ele>
        <time>2016-06-06T14:29:49.1Z</time>
      </trkpt>
      <trkpt lat="48.58976" lon="-3.17085">
        <ele>195</ele>
        <time>2016-06-06T14:29:51.1Z</time>
      </trkpt>
      <trkpt lat="48.5898" lon="-3.17087">
        <ele>195</ele>
        <time>2016-06-06T14:29:54.1Z</time>
      </trkpt>
      <trkpt lat="48.58983" lon="-3.17089">
        <ele>195</ele>
        <time>2016-06-06T14:29:57.1Z</time>
      </trkpt>
      <trkpt lat="48.58985" lon="-3.1709">
        <ele>195</ele>
        <time>2016-06-06T14:29:59.1Z</time>
      </trkpt>
      <trkpt lat="48.58989" lon="-3.17092">
        <ele>195</ele>
        <time>2016-06-06T14:30:02.1Z</time>
      </trkpt>
      <trkpt lat="48.58991" lon="-3.17094">
        <ele>195</ele>
        <time>2016-06-06T14:30:04.1Z</time>
      </trkpt>
      <trkpt lat="48.58994" lon="-3.17097">
        <ele>195</ele>
        <time>2016-06-06T14:30:07.1Z</time>
      </trkpt>
      <trkpt lat="48.58996" lon="-3.17099">
        <ele>195</ele>
        <time>2016-06-06T14:30:09.1Z</time>
      </trkpt>
      <trkpt lat="48.58998" lon="-3.17101">
        <ele>195</ele>
        <time>2016-06-06T14:30:11.1Z</time>
      </trkpt>
      <trkpt lat="48.59001" lon="-3.17104">
        <ele>196</ele>
        <time>2016-06-06T14:30:14.1Z</time>
      </trkpt>
      <trkpt lat="48.59004" lon="-3.17108">
        <ele>196</ele>
        <time>2016-06-06T14:30:17.1Z</time>
      </trkpt>
      <trkpt lat="48.59006" lon="-3.1711">
        <ele>196</ele>
        <time>2016-06-06T14:30:19.1Z</time>
      </trkpt>
      <trkpt lat="48.59009" lon="-3.17113">
        <ele>196</ele>
        <time>2016-06-06T14:30:22.1Z</time>
      </trkpt>
      <trkpt lat="48.59011" lon="-3.17115">
        <ele>196</ele>
        <time>2016-06-06T14:30:24.1Z</time>
      </trkpt>
      <trkpt lat="48.59013" lon="-3.17118">
        <ele>197</ele>
        <time>2016-06-06T14:30:26.1Z</time>
      </trkpt>
      <trkpt lat="48.59015" lon="-3.1712">
        <ele>197</ele>
        <time>2016-06-06T14:30:28.1Z</time>
      </trkpt>
      <trkpt lat="48.59017" lon="-3.17122">
        <ele>196</ele>
        <time>2016-06-06T14:30:30.1Z</time>
      </trkpt>
      <trkpt lat="48.59019" lon="-3.17124">
        <ele>196</ele>
        <time>2016-06-06T14:30:32.1Z</time>
      </trkpt>
      <trkpt lat="48.59022" lon="-3.17126">
        <ele>196</ele>
        <time>2016-06-06T14:30:35.1Z</time>
      </trkpt>
      <trkpt lat="48.59025" lon="-3.1713">
        <ele>196</ele>
        <time>2016-06-06T14:30:38.1Z</time>
      </trkpt>
      <trkpt lat="48.59029" lon="-3.17133">
        <ele>197</ele>
        <time>2016-06-06T14:30:41.1Z</time>
      </trkpt>
      <trkpt lat="48.59031" lon="-3.17135">
        <ele>197</ele>
        <time>2016-06-06T14:30:43.1Z</time>
      </trkpt>
      <trkpt lat="48.59034" lon="-3.17138">
        <ele>197</ele>
        <time>2016-06-06T14:30:46.1Z</time>
      </trkpt>
      <trkpt lat="48.59036" lon="-3.1714">
        <ele>197</ele>
        <time>2016-06-06T14:30:48.1Z</time>
      </trkpt>
      <trkpt lat="48.59039" lon="-3.17143">
        <ele>197</ele>
        <time>2016-06-06T14:30:51.1Z</time>
      </trkpt>
      <trkpt lat="48.59041" lon="-3.17145">
        <ele>197</ele>
        <time>2016-06-06T14:30:53.1Z</time>
      </trkpt>
      <trkpt lat="48.59044" lon="-3.17148">
        <ele>198</ele>
        <time>2016-06-06T14:30:56.1Z</time>
      </trkpt>
      <trkpt lat="48.59046" lon="-3.1715">
        <ele>198</ele>
        <time>2016-06-06T14:30:58.1Z</time>
      </trkpt>
      <trkpt lat="48.59048" lon="-3.17152">
        <ele>198</ele>
        <time>2016-06-06T14:31:00.1Z</time>
      </trkpt>
      <trkpt lat="48.59051" lon="-3.17155">
        <ele>198</ele>
        <time>2016-06-06T14:31:03.1Z</time>
      </trkpt>
      <trkpt lat="48.59053" lon="-3.17157">
        <ele>198</ele>
        <time>2016-06-06T14:31:05.1Z</time>
      </trkpt>
      <trkpt lat="48.59055" lon="-3.1716">
        <ele>198</ele>
        <time>2016-06-06T14:31:08.1Z</time>
      </trkpt>
      <trkpt lat="48.59056" lon="-3.17162">
        <ele>198</ele>
        <time>2016-06-06T14:31:10.1Z</time>
      </trkpt>
      <trkpt lat="48.59057" lon="-3.17164">
        <ele>198</ele>
        <time>2016-06-06T14:31:12.1Z</time>
      </trkpt>
      <trkpt lat="48.59058" lon="-3.17165">
        <ele>198</ele>
        <time>2016-06-06T14:31:14.1Z</time>
      </trkpt>
      <trkpt lat="48.59058" lon="-3.17168">
        <ele>198</ele>
        <time>2016-06-06T14:31:16.1Z</time>
      </trkpt>
      <trkpt lat="48.59057" lon="-3.17168">
        <ele>198</ele>
        <time>2016-06-06T14:31:19.1Z</time>
      </trkpt>
      <trkpt lat="48.59056" lon="-3.17168">
        <ele>198</ele>
        <time>2016-06-06T14:31:23.1Z</time>
      </trkpt>
      <trkpt lat="48.59056" lon="-3.17167">
        <ele>198</ele>
        <time>2016-06-06T14:31:27.1Z</time>
      </trkpt>
      <trkpt lat="48.59057" lon="-3.17168">
        <ele>198</ele>
        <time>2016-06-06T14:31:30.1Z</time>
      </trkpt>
      <trkpt lat="48.59058" lon="-3.1717">
        <ele>198</ele>
        <time>2016-06-06T14:31:32.1Z</time>
      </trkpt>
      <trkpt lat="48.59059" lon="-3.17171">
        <ele>198</ele>
        <time>2016-06-06T14:31:35.1Z</time>
      </trkpt>
      <trkpt lat="48.5906" lon="-3.17173">
        <ele>198</ele>
        <time>2016-06-06T14:31:38.1Z</time>
      </trkpt>
      <trkpt lat="48.5906" lon="-3.17176">
        <ele>197</ele>
        <time>2016-06-06T14:31:41.1Z</time>
      </trkpt>
      <trkpt lat="48.59061" lon="-3.17178">
        <ele>198</ele>
        <time>2016-06-06T14:31:43.1Z</time>
      </trkpt>
      <trkpt lat="48.59061" lon="-3.1718">
        <ele>198</ele>
        <time>2016-06-06T14:31:45.1Z</time>
      </trkpt>
      <trkpt lat="48.59061" lon="-3.17182">
        <ele>198</ele>
        <time>2016-06-06T14:31:47.1Z</time>
      </trkpt>
      <trkpt lat="48.59061" lon="-3.17185">
        <ele>199</ele>
        <time>2016-06-06T14:31:49.1Z</time>
      </trkpt>
      <trkpt lat="48.59061" lon="-3.17188">
        <ele>198</ele>
        <time>2016-06-06T14:31:52.1Z</time>
      </trkpt>
      <trkpt lat="48.5906" lon="-3.1719">
        <ele>198</ele>
        <time>2016-06-06T14:31:54.1Z</time>
      </trkpt>
      <trkpt lat="48.5906" lon="-3.17193">
        <ele>198</ele>
        <time>2016-06-06T14:31:57.1Z</time>
      </trkpt>
      <trkpt lat="48.59058" lon="-3.17196">
        <ele>198</ele>
        <time>2016-06-06T14:32:00.1Z</time>
      </trkpt>
      <trkpt lat="48.59057" lon="-3.17198">
        <ele>198</ele>
        <time>2016-06-06T14:32:03.1Z</time>
      </trkpt>
      <trkpt lat="48.59056" lon="-3.17201">
        <ele>198</ele>
        <time>2016-06-06T14:32:05.1Z</time>
      </trkpt>
      <trkpt lat="48.59055" lon="-3.17204">
        <ele>198</ele>
        <time>2016-06-06T14:32:08.1Z</time>
      </trkpt>
      <trkpt lat="48.59053" lon="-3.17208">
        <ele>198</ele>
        <time>2016-06-06T14:32:11.1Z</time>
      </trkpt>
      <trkpt lat="48.59052" lon="-3.17212">
        <ele>198</ele>
        <time>2016-06-06T14:32:14.1Z</time>
      </trkpt>
      <trkpt lat="48.59051" lon="-3.17214">
        <ele>198</ele>
        <time>2016-06-06T14:32:16.1Z</time>
      </trkpt>
      <trkpt lat="48.5905" lon="-3.17217">
        <ele>198</ele>
        <time>2016-06-06T14:32:18.1Z</time>
      </trkpt>
      <trkpt lat="48.59048" lon="-3.17221">
        <ele>198</ele>
        <time>2016-06-06T14:32:21.1Z</time>
      </trkpt>
      <trkpt lat="48.59047" lon="-3.17224">
        <ele>197</ele>
        <time>2016-06-06T14:32:23.1Z</time>
      </trkpt>
      <trkpt lat="48.59045" lon="-3.17228">
        <ele>197</ele>
        <time>2016-06-06T14:32:26.1Z</time>
      </trkpt>
      <trkpt lat="48.59044" lon="-3.17232">
        <ele>197</ele>
        <time>2016-06-06T14:32:29.1Z</time>
      </trkpt>
      <trkpt lat="48.59042" lon="-3.17235">
        <ele>197</ele>
        <time>2016-06-06T14:32:31.1Z</time>
      </trkpt>
      <trkpt lat="48.5904" lon="-3.17239">
        <ele>197</ele>
        <time>2016-06-06T14:32:34.1Z</time>
      </trkpt>
      <trkpt lat="48.59038" lon="-3.17242">
        <ele>197</ele>
        <time>2016-06-06T14:32:37.1Z</time>
      </trkpt>
      <trkpt lat="48.59037" lon="-3.17245">
        <ele>197</ele>
        <time>2016-06-06T14:32:39.1Z</time>
      </trkpt>
      <trkpt lat="48.59034" lon="-3.17249">
        <ele>197</ele>
        <time>2016-06-06T14:32:42.1Z</time>
      </trkpt>
      <trkpt lat="48.59032" lon="-3.17251">
        <ele>197</ele>
        <time>2016-06-06T14:32:44.1Z</time>
      </trkpt>
      <trkpt lat="48.5903" lon="-3.17255">
        <ele>197</ele>
        <time>2016-06-06T14:32:47.1Z</time>
      </trkpt>
      <trkpt lat="48.59029" lon="-3.17258">
        <ele>197</ele>
        <time>2016-06-06T14:32:49.1Z</time>
      </trkpt>
      <trkpt lat="48.59026" lon="-3.17261">
        <ele>197</ele>
        <time>2016-06-06T14:32:52.1Z</time>
      </trkpt>
      <trkpt lat="48.59025" lon="-3.17264">
        <ele>197</ele>
        <time>2016-06-06T14:32:54.1Z</time>
      </trkpt>
      <trkpt lat="48.59023" lon="-3.17267">
        <ele>197</ele>
        <time>2016-06-06T14:32:56.1Z</time>
      </trkpt>
      <trkpt lat="48.59021" lon="-3.17269">
        <ele>197</ele>
        <time>2016-06-06T14:32:58.1Z</time>
      </trkpt>
      <trkpt lat="48.59019" lon="-3.17272">
        <ele>197</ele>
        <time>2016-06-06T14:33:01.1Z</time>
      </trkpt>
      <trkpt lat="48.59017" lon="-3.17275">
        <ele>196</ele>
        <time>2016-06-06T14:33:03.1Z</time>
      </trkpt>
      <trkpt lat="48.59015" lon="-3.17279">
        <ele>197</ele>
        <time>2016-06-06T14:33:06.1Z</time>
      </trkpt>
      <trkpt lat="48.59013" lon="-3.17283">
        <ele>197</ele>
        <time>2016-06-06T14:33:09.1Z</time>
      </trkpt>
      <trkpt lat="48.59011" lon="-3.17287">
        <ele>196</ele>
        <time>2016-06-06T14:33:12.1Z</time>
      </trkpt>
      <trkpt lat="48.59009" lon="-3.17292">
        <ele>196</ele>
        <time>2016-06-06T14:33:15.1Z</time>
      </trkpt>
      <trkpt lat="48.59007" lon="-3.17296">
        <ele>196</ele>
        <time>2016-06-06T14:33:18.1Z</time>
      </trkpt>
      <trkpt lat="48.59005" lon="-3.173">
        <ele>196</ele>
        <time>2016-06-06T14:33:21.1Z</time>
      </trkpt>
      <trkpt lat="48.59004" lon="-3.17303">
        <ele>196</ele>
        <time>2016-06-06T14:33:23.1Z</time>
      </trkpt>
      <trkpt lat="48.59001" lon="-3.17306">
        <ele>196</ele>
        <time>2016-06-06T14:33:26.1Z</time>
      </trkpt>
      <trkpt lat="48.58999" lon="-3.17311">
        <ele>195</ele>
        <time>2016-06-06T14:33:29.1Z</time>
      </trkpt>
      <trkpt lat="48.58997" lon="-3.17313">
        <ele>195</ele>
        <time>2016-06-06T14:33:31.1Z</time>
      </trkpt>
      <trkpt lat="48.58995" lon="-3.17317">
        <ele>195</ele>
        <time>2016-06-06T14:33:34.1Z</time>
      </trkpt>
      <trkpt lat="48.58994" lon="-3.17319">
        <ele>195</ele>
        <time>2016-06-06T14:33:36.1Z</time>
      </trkpt>
      <trkpt lat="48.58992" lon="-3.17321">
        <ele>195</ele>
        <time>2016-06-06T14:33:38.1Z</time>
      </trkpt>
      <trkpt lat="48.58989" lon="-3.17325">
        <ele>195</ele>
        <time>2016-06-06T14:33:41.1Z</time>
      </trkpt>
      <trkpt lat="48.58988" lon="-3.17327">
        <ele>195</ele>
        <time>2016-06-06T14:33:43.1Z</time>
      </trkpt>
      <trkpt lat="48.58986" lon="-3.17331">
        <ele>195</ele>
        <time>2016-06-06T14:33:46.1Z</time>
      </trkpt>
      <trkpt lat="48.58984" lon="-3.17333">
        <ele>195</ele>
        <time>2016-06-06T14:33:48.1Z</time>
      </trkpt>
      <trkpt lat="48.58983" lon="-3.17335">
        <ele>195</ele>
        <time>2016-06-06T14:33:50.1Z</time>
      </trkpt>
      <trkpt lat="48.5898" lon="-3.17338">
        <ele>196</ele>
        <time>2016-06-06T14:33:53.1Z</time>
      </trkpt>
      <trkpt lat="48.58979" lon="-3.17342">
        <ele>195</ele>
        <time>2016-06-06T14:33:56.1Z</time>
      </trkpt>
      <trkpt lat="48.58977" lon="-3.17344">
        <ele>195</ele>
        <time>2016-06-06T14:33:58.1Z</time>
      </trkpt>
      <trkpt lat="48.58976" lon="-3.17347">
        <ele>196</ele>
        <time>2016-06-06T14:34:00.1Z</time>
      </trkpt>
      <trkpt lat="48.58973" lon="-3.17351">
        <ele>196</ele>
        <time>2016-06-06T14:34:03.1Z</time>
      </trkpt>
      <trkpt lat="48.58972" lon="-3.17353">
        <ele>196</ele>
        <time>2016-06-06T14:34:05.1Z</time>
      </trkpt>
      <trkpt lat="48.5897" lon="-3.17356">
        <ele>196</ele>
        <time>2016-06-06T14:34:08.1Z</time>
      </trkpt>
      <trkpt lat="48.58967" lon="-3.1736">
        <ele>196</ele>
        <time>2016-06-06T14:34:11.1Z</time>
      </trkpt>
      <trkpt lat="48.58965" lon="-3.17363">
        <ele>197</ele>
        <time>2016-06-06T14:34:14.1Z</time>
      </trkpt>
      <trkpt lat="48.58962" lon="-3.17367">
        <ele>197</ele>
        <time>2016-06-06T14:34:17.1Z</time>
      </trkpt>
      <trkpt lat="48.5896" lon="-3.1737">
        <ele>197</ele>
        <time>2016-06-06T14:34:20.1Z</time>
      </trkpt>
      <trkpt lat="48.58958" lon="-3.17372">
        <ele>196</ele>
        <time>2016-06-06T14:34:22.1Z</time>
      </trkpt>
      <trkpt lat="48.58955" lon="-3.17376">
        <ele>196</ele>
        <time>2016-06-06T14:34:25.1Z</time>
      </trkpt>
      <trkpt lat="48.58954" lon="-3.17378">
        <ele>196</ele>
        <time>2016-06-06T14:34:27.1Z</time>
      </trkpt>
      <trkpt lat="48.58952" lon="-3.17381">
        <ele>197</ele>
        <time>2016-06-06T14:34:29.1Z</time>
      </trkpt>
      <trkpt lat="48.5895" lon="-3.17384">
        <ele>197</ele>
        <time>2016-06-06T14:34:32.1Z</time>
      </trkpt>
      <trkpt lat="48.58947" lon="-3.17388">
        <ele>197</ele>
        <time>2016-06-06T14:34:35.1Z</time>
      </trkpt>
      <trkpt lat="48.58946" lon="-3.1739">
        <ele>197</ele>
        <time>2016-06-06T14:34:37.1Z</time>
      </trkpt>
      <trkpt lat="48.58944" lon="-3.17394">
        <ele>197</ele>
        <time>2016-06-06T14:34:40.1Z</time>
      </trkpt>
      <trkpt lat="48.58941" lon="-3.17398">
        <ele>197</ele>
        <time>2016-06-06T14:34:43.1Z</time>
      </trkpt>
      <trkpt lat="48.5894" lon="-3.17401">
        <ele>197</ele>
        <time>2016-06-06T14:34:45.1Z</time>
      </trkpt>
      <trkpt lat="48.58938" lon="-3.17404">
        <ele>197</ele>
        <time>2016-06-06T14:34:48.1Z</time>
      </trkpt>
      <trkpt lat="48.58936" lon="-3.17408">
        <ele>197</ele>
        <time>2016-06-06T14:34:51.1Z</time>
      </trkpt>
      <trkpt lat="48.58935" lon="-3.1741">
        <ele>197</ele>
        <time>2016-06-06T14:34:53.1Z</time>
      </trkpt>
      <trkpt lat="48.58934" lon="-3.17414">
        <ele>197</ele>
        <time>2016-06-06T14:34:55.1Z</time>
      </trkpt>
      <trkpt lat="48.58932" lon="-3.17419">
        <ele>197</ele>
        <time>2016-06-06T14:34:58.1Z</time>
      </trkpt>
      <trkpt lat="48.58932" lon="-3.17422">
        <ele>197</ele>
        <time>2016-06-06T14:35:00.1Z</time>
      </trkpt>
      <trkpt lat="48.58931" lon="-3.17425">
        <ele>197</ele>
        <time>2016-06-06T14:35:02.1Z</time>
      </trkpt>
      <trkpt lat="48.58929" lon="-3.17429">
        <ele>197</ele>
        <time>2016-06-06T14:35:04.1Z</time>
      </trkpt>
      <trkpt lat="48.58928" lon="-3.17432">
        <ele>198</ele>
        <time>2016-06-06T14:35:06.1Z</time>
      </trkpt>
      <trkpt lat="48.58927" lon="-3.17435">
        <ele>198</ele>
        <time>2016-06-06T14:35:08.1Z</time>
      </trkpt>
      <trkpt lat="48.58926" lon="-3.17439">
        <ele>198</ele>
        <time>2016-06-06T14:35:10.1Z</time>
      </trkpt>
      <trkpt lat="48.58924" lon="-3.17444">
        <ele>198</ele>
        <time>2016-06-06T14:35:13.1Z</time>
      </trkpt>
      <trkpt lat="48.58923" lon="-3.17447">
        <ele>198</ele>
        <time>2016-06-06T14:35:15.1Z</time>
      </trkpt>
      <trkpt lat="48.58921" lon="-3.1745">
        <ele>198</ele>
        <time>2016-06-06T14:35:17.1Z</time>
      </trkpt>
      <trkpt lat="48.5892" lon="-3.17453">
        <ele>198</ele>
        <time>2016-06-06T14:35:19.1Z</time>
      </trkpt>
      <trkpt lat="48.58919" lon="-3.17456">
        <ele>198</ele>
        <time>2016-06-06T14:35:21.1Z</time>
      </trkpt>
      <trkpt lat="48.58918" lon="-3.17459">
        <ele>198</ele>
        <time>2016-06-06T14:35:23.1Z</time>
      </trkpt>
      <trkpt lat="48.58915" lon="-3.17463">
        <ele>198</ele>
        <time>2016-06-06T14:35:26.1Z</time>
      </trkpt>
      <trkpt lat="48.58914" lon="-3.17465">
        <ele>198</ele>
        <time>2016-06-06T14:35:28.1Z</time>
      </trkpt>
      <trkpt lat="48.58912" lon="-3.17467">
        <ele>198</ele>
        <time>2016-06-06T14:35:30.1Z</time>
      </trkpt>
      <trkpt lat="48.58909" lon="-3.1747">
        <ele>198</ele>
        <time>2016-06-06T14:35:33.1Z</time>
      </trkpt>
      <trkpt lat="48.58907" lon="-3.17471">
        <ele>199</ele>
        <time>2016-06-06T14:35:35.1Z</time>
      </trkpt>
      <trkpt lat="48.58905" lon="-3.17472">
        <ele>199</ele>
        <time>2016-06-06T14:35:37.1Z</time>
      </trkpt>
      <trkpt lat="48.58903" lon="-3.17473">
        <ele>198</ele>
        <time>2016-06-06T14:35:39.1Z</time>
      </trkpt>
      <trkpt lat="48.589" lon="-3.17474">
        <ele>198</ele>
        <time>2016-06-06T14:35:42.1Z</time>
      </trkpt>
      <trkpt lat="48.58897" lon="-3.17475">
        <ele>199</ele>
        <time>2016-06-06T14:35:45.1Z</time>
      </trkpt>
      <trkpt lat="48.58894" lon="-3.17475">
        <ele>199</ele>
        <time>2016-06-06T14:35:47.1Z</time>
      </trkpt>
      <trkpt lat="48.58891" lon="-3.17475">
        <ele>199</ele>
        <time>2016-06-06T14:35:50.1Z</time>
      </trkpt>
      <trkpt lat="48.58887" lon="-3.17474">
        <ele>198</ele>
        <time>2016-06-06T14:35:53.1Z</time>
      </trkpt>
      <trkpt lat="48.58884" lon="-3.17475">
        <ele>198</ele>
        <time>2016-06-06T14:35:56.1Z</time>
      </trkpt>
      <trkpt lat="48.58881" lon="-3.17475">
        <ele>199</ele>
        <time>2016-06-06T14:35:58.1Z</time>
      </trkpt>
      <trkpt lat="48.58878" lon="-3.17476">
        <ele>198</ele>
        <time>2016-06-06T14:36:01.1Z</time>
      </trkpt>
      <trkpt lat="48.58874" lon="-3.17477">
        <ele>198</ele>
        <time>2016-06-06T14:36:04.1Z</time>
      </trkpt>
      <trkpt lat="48.58871" lon="-3.17477">
        <ele>198</ele>
        <time>2016-06-06T14:36:06.1Z</time>
      </trkpt>
      <trkpt lat="48.58869" lon="-3.17478">
        <ele>198</ele>
        <time>2016-06-06T14:36:08.1Z</time>
      </trkpt>
      <trkpt lat="48.58865" lon="-3.17478">
        <ele>198</ele>
        <time>2016-06-06T14:36:11.1Z</time>
      </trkpt>
      <trkpt lat="48.58863" lon="-3.17478">
        <ele>198</ele>
        <time>2016-06-06T14:36:13.1Z</time>
      </trkpt>
      <trkpt lat="48.5886" lon="-3.17479">
        <ele>198</ele>
        <time>2016-06-06T14:36:16.1Z</time>
      </trkpt>
      <trkpt lat="48.58856" lon="-3.1748">
        <ele>199</ele>
        <time>2016-06-06T14:36:19.1Z</time>
      </trkpt>
      <trkpt lat="48.58854" lon="-3.17481">
        <ele>198</ele>
        <time>2016-06-06T14:36:21.1Z</time>
      </trkpt>
      <trkpt lat="48.58849" lon="-3.17481">
        <ele>199</ele>
        <time>2016-06-06T14:36:24.1Z</time>
      </trkpt>
      <trkpt lat="48.58846" lon="-3.17482">
        <ele>199</ele>
        <time>2016-06-06T14:36:27.1Z</time>
      </trkpt>
      <trkpt lat="48.58842" lon="-3.17482">
        <ele>199</ele>
        <time>2016-06-06T14:36:30.1Z</time>
      </trkpt>
      <trkpt lat="48.58839" lon="-3.17482">
        <ele>199</ele>
        <time>2016-06-06T14:36:32.1Z</time>
      </trkpt>
      <trkpt lat="48.58836" lon="-3.17483">
        <ele>199</ele>
        <time>2016-06-06T14:36:35.1Z</time>
      </trkpt>
      <trkpt lat="48.58833" lon="-3.17483">
        <ele>199</ele>
        <time>2016-06-06T14:36:37.1Z</time>
      </trkpt>
      <trkpt lat="48.58832" lon="-3.17484">
        <ele>199</ele>
        <time>2016-06-06T14:36:40.1Z</time>
      </trkpt>
      <trkpt lat="48.58831" lon="-3.17484">
        <ele>199</ele>
        <time>2016-06-06T14:36:42.1Z</time>
      </trkpt>
      <trkpt lat="48.58831" lon="-3.17484">
        <ele>199</ele>
        <time>2016-06-06T14:36:44.1Z</time>
      </trkpt>
      <trkpt lat="48.5883" lon="-3.17484">
        <ele>199</ele>
        <time>2016-06-06T14:36:47.1Z</time>
      </trkpt>
      <trkpt lat="48.5883" lon="-3.17484">
        <ele>199</ele>
        <time>2016-06-06T14:36:49.1Z</time>
      </trkpt>
      <trkpt lat="48.5883" lon="-3.17485">
        <ele>199</ele>
        <time>2016-06-06T14:36:51.1Z</time>
      </trkpt>
      <trkpt lat="48.5883" lon="-3.17487">
        <ele>199</ele>
        <time>2016-06-06T14:36:53.1Z</time>
      </trkpt>
      <trkpt lat="48.58828" lon="-3.17491">
        <ele>199</ele>
        <time>2016-06-06T14:36:56.1Z</time>
      </trkpt>
      <trkpt lat="48.58827" lon="-3.17494">
        <ele>199</ele>
        <time>2016-06-06T14:36:58.1Z</time>
      </trkpt>
      <trkpt lat="48.58826" lon="-3.17496">
        <ele>199</ele>
        <time>2016-06-06T14:37:00.1Z</time>
      </trkpt>
      <trkpt lat="48.58826" lon="-3.17499">
        <ele>199</ele>
        <time>2016-06-06T14:37:02.1Z</time>
      </trkpt>
      <trkpt lat="48.58826" lon="-3.17501">
        <ele>199</ele>
        <time>2016-06-06T14:37:04.1Z</time>
      </trkpt>
      <trkpt lat="48.58826" lon="-3.17506">
        <ele>199</ele>
        <time>2016-06-06T14:37:07.1Z</time>
      </trkpt>
      <trkpt lat="48.58825" lon="-3.1751">
        <ele>200</ele>
        <time>2016-06-06T14:37:10.1Z</time>
      </trkpt>
      <trkpt lat="48.58825" lon="-3.17513">
        <ele>200</ele>
        <time>2016-06-06T14:37:12.1Z</time>
      </trkpt>
      <trkpt lat="48.58825" lon="-3.17516">
        <ele>200</ele>
        <time>2016-06-06T14:37:14.1Z</time>
      </trkpt>
      <trkpt lat="48.58824" lon="-3.17521">
        <ele>200</ele>
        <time>2016-06-06T14:37:17.1Z</time>
      </trkpt>
      <trkpt lat="48.58824" lon="-3.17524">
        <ele>201</ele>
        <time>2016-06-06T14:37:19.1Z</time>
      </trkpt>
      <trkpt lat="48.58824" lon="-3.17529">
        <ele>201</ele>
        <time>2016-06-06T14:37:22.1Z</time>
      </trkpt>
      <trkpt lat="48.58823" lon="-3.17533">
        <ele>201</ele>
        <time>2016-06-06T14:37:25.1Z</time>
      </trkpt>
      <trkpt lat="48.58823" lon="-3.17538">
        <ele>201</ele>
        <time>2016-06-06T14:37:28.1Z</time>
      </trkpt>
      <trkpt lat="48.58823" lon="-3.17541">
        <ele>201</ele>
        <time>2016-06-06T14:37:30.1Z</time>
      </trkpt>
      <trkpt lat="48.58823" lon="-3.17546">
        <ele>202</ele>
        <time>2016-06-06T14:37:33.1Z</time>
      </trkpt>
      <trkpt lat="48.58822" lon="-3.17551">
        <ele>202</ele>
        <time>2016-06-06T14:37:36.1Z</time>
      </trkpt>
      <trkpt lat="48.58821" lon="-3.17553">
        <ele>202</ele>
        <time>2016-06-06T14:37:38.1Z</time>
      </trkpt>
      <trkpt lat="48.58822" lon="-3.17557">
        <ele>202</ele>
        <time>2016-06-06T14:37:41.1Z</time>
      </trkpt>
      <trkpt lat="48.58821" lon="-3.1756">
        <ele>202</ele>
        <time>2016-06-06T14:37:43.1Z</time>
      </trkpt>
      <trkpt lat="48.58821" lon="-3.17564">
        <ele>202</ele>
        <time>2016-06-06T14:37:46.1Z</time>
      </trkpt>
      <trkpt lat="48.5882" lon="-3.17566">
        <ele>202</ele>
        <time>2016-06-06T14:37:48.1Z</time>
      </trkpt>
      <trkpt lat="48.58821" lon="-3.17569">
        <ele>202</ele>
        <time>2016-06-06T14:37:51.1Z</time>
      </trkpt>
      <trkpt lat="48.58821" lon="-3.17572">
        <ele>202</ele>
        <time>2016-06-06T14:37:53.1Z</time>
      </trkpt>
      <trkpt lat="48.5882" lon="-3.17577">
        <ele>202</ele>
        <time>2016-06-06T14:37:56.1Z</time>
      </trkpt>
      <trkpt lat="48.5882" lon="-3.17583">
        <ele>202</ele>
        <time>2016-06-06T14:37:59.1Z</time>
      </trkpt>
      <trkpt lat="48.5882" lon="-3.17586">
        <ele>202</ele>
        <time>2016-06-06T14:38:01.1Z</time>
      </trkpt>
      <trkpt lat="48.5882" lon="-3.1759">
        <ele>203</ele>
        <time>2016-06-06T14:38:04.1Z</time>
      </trkpt>
      <trkpt lat="48.58819" lon="-3.17596">
        <ele>202</ele>
        <time>2016-06-06T14:38:07.1Z</time>
      </trkpt>
      <trkpt lat="48.58818" lon="-3.17599">
        <ele>202</ele>
        <time>2016-06-06T14:38:09.1Z</time>
      </trkpt>
      <trkpt lat="48.58818" lon="-3.17603">
        <ele>202</ele>
        <time>2016-06-06T14:38:11.1Z</time>
      </trkpt>
      <trkpt lat="48.58818" lon="-3.17606">
        <ele>202</ele>
        <time>2016-06-06T14:38:13.1Z</time>
      </trkpt>
      <trkpt lat="48.58816" lon="-3.17611">
        <ele>202</ele>
        <time>2016-06-06T14:38:16.1Z</time>
      </trkpt>
      <trkpt lat="48.58815" lon="-3.17613">
        <ele>202</ele>
        <time>2016-06-06T14:38:18.1Z</time>
      </trkpt>
      <trkpt lat="48.58814" lon="-3.17618">
        <ele>202</ele>
        <time>2016-06-06T14:38:21.1Z</time>
      </trkpt>
      <trkpt lat="48.58813" lon="-3.1762">
        <ele>202</ele>
        <time>2016-06-06T14:38:23.1Z</time>
      </trkpt>
      <trkpt lat="48.58811" lon="-3.17623">
        <ele>201</ele>
        <time>2016-06-06T14:38:25.1Z</time>
      </trkpt>
      <trkpt lat="48.58808" lon="-3.17629">
        <ele>201</ele>
        <time>2016-06-06T14:38:28.1Z</time>
      </trkpt>
      <trkpt lat="48.58807" lon="-3.17632">
        <ele>201</ele>
        <time>2016-06-06T14:38:30.1Z</time>
      </trkpt>
      <trkpt lat="48.58806" lon="-3.17634">
        <ele>201</ele>
        <time>2016-06-06T14:38:32.1Z</time>
      </trkpt>
      <trkpt lat="48.58804" lon="-3.1764">
        <ele>201</ele>
        <time>2016-06-06T14:38:35.1Z</time>
      </trkpt>
      <trkpt lat="48.58802" lon="-3.17644">
        <ele>201</ele>
        <time>2016-06-06T14:38:38.1Z</time>
      </trkpt>
      <trkpt lat="48.58801" lon="-3.17648">
        <ele>201</ele>
        <time>2016-06-06T14:38:40.1Z</time>
      </trkpt>
      <trkpt lat="48.58799" lon="-3.17651">
        <ele>200</ele>
        <time>2016-06-06T14:38:43.1Z</time>
      </trkpt>
      <trkpt lat="48.58798" lon="-3.17653">
        <ele>200</ele>
        <time>2016-06-06T14:38:45.1Z</time>
      </trkpt>
      <trkpt lat="48.58795" lon="-3.17658">
        <ele>200</ele>
        <time>2016-06-06T14:38:48.1Z</time>
      </trkpt>
      <trkpt lat="48.58794" lon="-3.17661">
        <ele>200</ele>
        <time>2016-06-06T14:38:50.1Z</time>
      </trkpt>
      <trkpt lat="48.58792" lon="-3.17665">
        <ele>201</ele>
        <time>2016-06-06T14:38:52.1Z</time>
      </trkpt>
      <trkpt lat="48.58789" lon="-3.17671">
        <ele>201</ele>
        <time>2016-06-06T14:38:55.1Z</time>
      </trkpt>
      <trkpt lat="48.58787" lon="-3.17676">
        <ele>201</ele>
        <time>2016-06-06T14:38:58.1Z</time>
      </trkpt>
      <trkpt lat="48.58784" lon="-3.17682">
        <ele>201</ele>
        <time>2016-06-06T14:39:01.1Z</time>
      </trkpt>
      <trkpt lat="48.58783" lon="-3.17686">
        <ele>201</ele>
        <time>2016-06-06T14:39:03.1Z</time>
      </trkpt>
      <trkpt lat="48.58781" lon="-3.17691">
        <ele>201</ele>
        <time>2016-06-06T14:39:06.1Z</time>
      </trkpt>
      <trkpt lat="48.5878" lon="-3.17695">
        <ele>200</ele>
        <time>2016-06-06T14:39:08.1Z</time>
      </trkpt>
      <trkpt lat="48.58778" lon="-3.177">
        <ele>200</ele>
        <time>2016-06-06T14:39:11.1Z</time>
      </trkpt>
      <trkpt lat="48.58776" lon="-3.17705">
        <ele>200</ele>
        <time>2016-06-06T14:39:14.1Z</time>
      </trkpt>
      <trkpt lat="48.58775" lon="-3.1771">
        <ele>200</ele>
        <time>2016-06-06T14:39:17.1Z</time>
      </trkpt>
      <trkpt lat="48.58774" lon="-3.17716">
        <ele>200</ele>
        <time>2016-06-06T14:39:20.1Z</time>
      </trkpt>
      <trkpt lat="48.58773" lon="-3.17721">
        <ele>200</ele>
        <time>2016-06-06T14:39:23.1Z</time>
      </trkpt>
      <trkpt lat="48.58773" lon="-3.17725">
        <ele>200</ele>
        <time>2016-06-06T14:39:25.1Z</time>
      </trkpt>
      <trkpt lat="48.58772" lon="-3.1773">
        <ele>200</ele>
        <time>2016-06-06T14:39:28.1Z</time>
      </trkpt>
      <trkpt lat="48.58772" lon="-3.17736">
        <ele>200</ele>
        <time>2016-06-06T14:39:31.1Z</time>
      </trkpt>
      <trkpt lat="48.58771" lon="-3.1774">
        <ele>201</ele>
        <time>2016-06-06T14:39:33.1Z</time>
      </trkpt>
      <trkpt lat="48.58771" lon="-3.17744">
        <ele>201</ele>
        <time>2016-06-06T14:39:35.1Z</time>
      </trkpt>
      <trkpt lat="48.5877" lon="-3.17749">
        <ele>201</ele>
        <time>2016-06-06T14:39:38.1Z</time>
      </trkpt>
      <trkpt lat="48.5877" lon="-3.17754">
        <ele>201</ele>
        <time>2016-06-06T14:39:41.1Z</time>
      </trkpt>
      <trkpt lat="48.5877" lon="-3.17757">
        <ele>201</ele>
        <time>2016-06-06T14:39:43.1Z</time>
      </trkpt>
      <trkpt lat="48.58768" lon="-3.17762">
        <ele>200</ele>
        <time>2016-06-06T14:39:46.1Z</time>
      </trkpt>
      <trkpt lat="48.58768" lon="-3.17765">
        <ele>200</ele>
        <time>2016-06-06T14:39:48.1Z</time>
      </trkpt>
      <trkpt lat="48.58768" lon="-3.17769">
        <ele>200</ele>
        <time>2016-06-06T14:39:50.1Z</time>
      </trkpt>
      <trkpt lat="48.58767" lon="-3.17774">
        <ele>200</ele>
        <time>2016-06-06T14:39:53.1Z</time>
      </trkpt>
      <trkpt lat="48.58766" lon="-3.17779">
        <ele>201</ele>
        <time>2016-06-06T14:39:56.1Z</time>
      </trkpt>
      <trkpt lat="48.58766" lon="-3.17784">
        <ele>201</ele>
        <time>2016-06-06T14:39:59.1Z</time>
      </trkpt>
      <trkpt lat="48.58765" lon="-3.17788">
        <ele>201</ele>
        <time>2016-06-06T14:40:01.1Z</time>
      </trkpt>
      <trkpt lat="48.58765" lon="-3.17793">
        <ele>201</ele>
        <time>2016-06-06T14:40:04.1Z</time>
      </trkpt>
      <trkpt lat="48.58764" lon="-3.17796">
        <ele>201</ele>
        <time>2016-06-06T14:40:06.1Z</time>
      </trkpt>
      <trkpt lat="48.58764" lon="-3.17799">
        <ele>201</ele>
        <time>2016-06-06T14:40:08.1Z</time>
      </trkpt>
      <trkpt lat="48.58763" lon="-3.17806">
        <ele>201</ele>
        <time>2016-06-06T14:40:11.1Z</time>
      </trkpt>
      <trkpt lat="48.58762" lon="-3.17812">
        <ele>201</ele>
        <time>2016-06-06T14:40:14.1Z</time>
      </trkpt>
      <trkpt lat="48.58762" lon="-3.17816">
        <ele>201</ele>
        <time>2016-06-06T14:40:16.1Z</time>
      </trkpt>
      <trkpt lat="48.58761" lon="-3.17823">
        <ele>200</ele>
        <time>2016-06-06T14:40:19.1Z</time>
      </trkpt>
      <trkpt lat="48.5876" lon="-3.17827">
        <ele>200</ele>
        <time>2016-06-06T14:40:21.1Z</time>
      </trkpt>
      <trkpt lat="48.58759" lon="-3.17833">
        <ele>200</ele>
        <time>2016-06-06T14:40:24.1Z</time>
      </trkpt>
      <trkpt lat="48.58758" lon="-3.17837">
        <ele>201</ele>
        <time>2016-06-06T14:40:27.1Z</time>
      </trkpt>
      <trkpt lat="48.58757" lon="-3.1784">
        <ele>201</ele>
        <time>2016-06-06T14:40:29.1Z</time>
      </trkpt>
      <trkpt lat="48.58756" lon="-3.17843">
        <ele>201</ele>
        <time>2016-06-06T14:40:31.1Z</time>
      </trkpt>
      <trkpt lat="48.58755" lon="-3.17847">
        <ele>201</ele>
        <time>2016-06-06T14:40:33.1Z</time>
      </trkpt>
      <trkpt lat="48.58754" lon="-3.1785">
        <ele>201</ele>
        <time>2016-06-06T14:40:35.1Z</time>
      </trkpt>
      <trkpt lat="48.58753" lon="-3.17854">
        <ele>201</ele>
        <time>2016-06-06T14:40:37.1Z</time>
      </trkpt>
      <trkpt lat="48.58752" lon="-3.17859">
        <ele>202</ele>
        <time>2016-06-06T14:40:40.1Z</time>
      </trkpt>
      <trkpt lat="48.58751" lon="-3.17863">
        <ele>201</ele>
        <time>2016-06-06T14:40:42.1Z</time>
      </trkpt>
      <trkpt lat="48.58749" lon="-3.17866">
        <ele>201</ele>
        <time>2016-06-06T14:40:44.1Z</time>
      </trkpt>
      <trkpt lat="48.58748" lon="-3.1787">
        <ele>201</ele>
        <time>2016-06-06T14:40:46.1Z</time>
      </trkpt>
      <trkpt lat="48.58746" lon="-3.17875">
        <ele>201</ele>
        <time>2016-06-06T14:40:49.1Z</time>
      </trkpt>
      <trkpt lat="48.58745" lon="-3.17881">
        <ele>201</ele>
        <time>2016-06-06T14:40:52.1Z</time>
      </trkpt>
      <trkpt lat="48.58742" lon="-3.17887">
        <ele>201</ele>
        <time>2016-06-06T14:40:55.1Z</time>
      </trkpt>
      <trkpt lat="48.5874" lon="-3.17891">
        <ele>201</ele>
        <time>2016-06-06T14:40:57.1Z</time>
      </trkpt>
      <trkpt lat="48.58739" lon="-3.17894">
        <ele>201</ele>
        <time>2016-06-06T14:40:59.1Z</time>
      </trkpt>
      <trkpt lat="48.58738" lon="-3.17898">
        <ele>201</ele>
        <time>2016-06-06T14:41:02.1Z</time>
      </trkpt>
      <trkpt lat="48.58736" lon="-3.179">
        <ele>202</ele>
        <time>2016-06-06T14:41:04.1Z</time>
      </trkpt>
      <trkpt lat="48.58735" lon="-3.17904">
        <ele>202</ele>
        <time>2016-06-06T14:41:07.1Z</time>
      </trkpt>
      <trkpt lat="48.58734" lon="-3.17906">
        <ele>202</ele>
        <time>2016-06-06T14:41:10.1Z</time>
      </trkpt>
      <trkpt lat="48.58733" lon="-3.1791">
        <ele>202</ele>
        <time>2016-06-06T14:41:13.1Z</time>
      </trkpt>
      <trkpt lat="48.58733" lon="-3.17912">
        <ele>202</ele>
        <time>2016-06-06T14:41:16.1Z</time>
      </trkpt>
      <trkpt lat="48.58732" lon="-3.17915">
        <ele>202</ele>
        <time>2016-06-06T14:41:19.1Z</time>
      </trkpt>
      <trkpt lat="48.58732" lon="-3.17918">
        <ele>202</ele>
        <time>2016-06-06T14:41:21.1Z</time>
      </trkpt>
      <trkpt lat="48.58731" lon="-3.17921">
        <ele>202</ele>
        <time>2016-06-06T14:41:23.1Z</time>
      </trkpt>
      <trkpt lat="48.5873" lon="-3.17924">
        <ele>201</ele>
        <time>2016-06-06T14:41:25.1Z</time>
      </trkpt>
      <trkpt lat="48.58729" lon="-3.17929">
        <ele>202</ele>
        <time>2016-06-06T14:41:28.1Z</time>
      </trkpt>
      <trkpt lat="48.58728" lon="-3.17933">
        <ele>202</ele>
        <time>2016-06-06T14:41:30.1Z</time>
      </trkpt>
      <trkpt lat="48.58727" lon="-3.17936">
        <ele>202</ele>
        <time>2016-06-06T14:41:32.1Z</time>
      </trkpt>
      <trkpt lat="48.58726" lon="-3.17941">
        <ele>202</ele>
        <time>2016-06-06T14:41:35.1Z</time>
      </trkpt>
      <trkpt lat="48.58725" lon="-3.17945">
        <ele>202</ele>
        <time>2016-06-06T14:41:37.1Z</time>
      </trkpt>
      <trkpt lat="48.58723" lon="-3.17951">
        <ele>202</ele>
        <time>2016-06-06T14:41:40.1Z</time>
      </trkpt>
      <trkpt lat="48.58723" lon="-3.17954">
        <ele>202</ele>
        <time>2016-06-06T14:41:42.1Z</time>
      </trkpt>
      <trkpt lat="48.58722" lon="-3.17958">
        <ele>202</ele>
        <time>2016-06-06T14:41:45.1Z</time>
      </trkpt>
      <trkpt lat="48.58722" lon="-3.1796">
        <ele>202</ele>
        <time>2016-06-06T14:41:47.1Z</time>
      </trkpt>
      <trkpt lat="48.58722" lon="-3.17963">
        <ele>202</ele>
        <time>2016-06-06T14:41:50.1Z</time>
      </trkpt>
      <trkpt lat="48.58721" lon="-3.17966">
        <ele>202</ele>
        <time>2016-06-06T14:41:52.1Z</time>
      </trkpt>
      <trkpt lat="48.58719" lon="-3.17972">
        <ele>202</ele>
        <time>2016-06-06T14:41:55.1Z</time>
      </trkpt>
      <trkpt lat="48.58718" lon="-3.17978">
        <ele>202</ele>
        <time>2016-06-06T14:41:58.1Z</time>
      </trkpt>
      <trkpt lat="48.58718" lon="-3.17981">
        <ele>202</ele>
        <time>2016-06-06T14:42:00.1Z</time>
      </trkpt>
      <trkpt lat="48.58717" lon="-3.17984">
        <ele>202</ele>
        <time>2016-06-06T14:42:02.1Z</time>
      </trkpt>
      <trkpt lat="48.58716" lon="-3.17987">
        <ele>202</ele>
        <time>2016-06-06T14:42:04.1Z</time>
      </trkpt>
      <trkpt lat="48.58715" lon="-3.17992">
        <ele>202</ele>
        <time>2016-06-06T14:42:07.1Z</time>
      </trkpt>
      <trkpt lat="48.58713" lon="-3.17995">
        <ele>202</ele>
        <time>2016-06-06T14:42:09.1Z</time>
      </trkpt>
      <trkpt lat="48.58712" lon="-3.17998">
        <ele>202</ele>
        <time>2016-06-06T14:42:11.1Z</time>
      </trkpt>
      <trkpt lat="48.58709" lon="-3.18003">
        <ele>202</ele>
        <time>2016-06-06T14:42:14.1Z</time>
      </trkpt>
      <trkpt lat="48.58706" lon="-3.18008">
        <ele>203</ele>
        <time>2016-06-06T14:42:17.1Z</time>
      </trkpt>
      <trkpt lat="48.58703" lon="-3.18012">
        <ele>203</ele>
        <time>2016-06-06T14:42:20.1Z</time>
      </trkpt>
      <trkpt lat="48.58701" lon="-3.18013">
        <ele>203</ele>
        <time>2016-06-06T14:42:22.1Z</time>
      </trkpt>
      <trkpt lat="48.58698" lon="-3.18015">
        <ele>204</ele>
        <time>2016-06-06T14:42:25.1Z</time>
      </trkpt>
      <trkpt lat="48.58694" lon="-3.18017">
        <ele>203</ele>
        <time>2016-06-06T14:42:28.1Z</time>
      </trkpt>
      <trkpt lat="48.58693" lon="-3.18018">
        <ele>203</ele>
        <time>2016-06-06T14:42:30.1Z</time>
      </trkpt>
      <trkpt lat="48.58689" lon="-3.18019">
        <ele>203</ele>
        <time>2016-06-06T14:42:33.1Z</time>
      </trkpt>
      <trkpt lat="48.58686" lon="-3.18021">
        <ele>203</ele>
        <time>2016-06-06T14:42:36.1Z</time>
      </trkpt>
      <trkpt lat="48.58684" lon="-3.18022">
        <ele>203</ele>
        <time>2016-06-06T14:42:38.1Z</time>
      </trkpt>
      <trkpt lat="48.5868" lon="-3.18023">
        <ele>203</ele>
        <time>2016-06-06T14:42:41.1Z</time>
      </trkpt>
      <trkpt lat="48.58678" lon="-3.18024">
        <ele>203</ele>
        <time>2016-06-06T14:42:43.1Z</time>
      </trkpt>
      <trkpt lat="48.58676" lon="-3.18027">
        <ele>203</ele>
        <time>2016-06-06T14:42:45.1Z</time>
      </trkpt>
      <trkpt lat="48.58673" lon="-3.18031">
        <ele>204</ele>
        <time>2016-06-06T14:42:48.1Z</time>
      </trkpt>
      <trkpt lat="48.58671" lon="-3.18034">
        <ele>204</ele>
        <time>2016-06-06T14:42:51.1Z</time>
      </trkpt>
      <trkpt lat="48.5867" lon="-3.18036">
        <ele>203</ele>
        <time>2016-06-06T14:42:53.1Z</time>
      </trkpt>
      <trkpt lat="48.58669" lon="-3.18038">
        <ele>203</ele>
        <time>2016-06-06T14:42:55.1Z</time>
      </trkpt>
      <trkpt lat="48.58668" lon="-3.18041">
        <ele>203</ele>
        <time>2016-06-06T14:42:57.1Z</time>
      </trkpt>
      <trkpt lat="48.58665" lon="-3.18045">
        <ele>203</ele>
        <time>2016-06-06T14:43:00.1Z</time>
      </trkpt>
      <trkpt lat="48.58663" lon="-3.18048">
        <ele>203</ele>
        <time>2016-06-06T14:43:03.1Z</time>
      </trkpt>
      <trkpt lat="48.58662" lon="-3.18051">
        <ele>203</ele>
        <time>2016-06-06T14:43:05.1Z</time>
      </trkpt>
      <trkpt lat="48.58661" lon="-3.18054">
        <ele>204</ele>
        <time>2016-06-06T14:43:08.1Z</time>
      </trkpt>
      <trkpt lat="48.5866" lon="-3.18057">
        <ele>204</ele>
        <time>2016-06-06T14:43:10.1Z</time>
      </trkpt>
      <trkpt lat="48.58659" lon="-3.18058">
        <ele>204</ele>
        <time>2016-06-06T14:43:12.1Z</time>
      </trkpt>
      <trkpt lat="48.58657" lon="-3.18063">
        <ele>204</ele>
        <time>2016-06-06T14:43:15.1Z</time>
      </trkpt>
      <trkpt lat="48.58656" lon="-3.18066">
        <ele>204</ele>
        <time>2016-06-06T14:43:17.1Z</time>
      </trkpt>
      <trkpt lat="48.58654" lon="-3.1807">
        <ele>204</ele>
        <time>2016-06-06T14:43:20.1Z</time>
      </trkpt>
      <trkpt lat="48.58653" lon="-3.18075">
        <ele>204</ele>
        <time>2016-06-06T14:43:23.1Z</time>
      </trkpt>
      <trkpt lat="48.58652" lon="-3.18078">
        <ele>204</ele>
        <time>2016-06-06T14:43:25.1Z</time>
      </trkpt>
      <trkpt lat="48.5865" lon="-3.18083">
        <ele>204</ele>
        <time>2016-06-06T14:43:28.1Z</time>
      </trkpt>
      <trkpt lat="48.58648" lon="-3.18088">
        <ele>204</ele>
        <time>2016-06-06T14:43:31.1Z</time>
      </trkpt>
      <trkpt lat="48.58646" lon="-3.18093">
        <ele>204</ele>
        <time>2016-06-06T14:43:34.1Z</time>
      </trkpt>
      <trkpt lat="48.58644" lon="-3.18098">
        <ele>205</ele>
        <time>2016-06-06T14:43:37.1Z</time>
      </trkpt>
      <trkpt lat="48.58643" lon="-3.18101">
        <ele>204</ele>
        <time>2016-06-06T14:43:39.1Z</time>
      </trkpt>
      <trkpt lat="48.58641" lon="-3.18105">
        <ele>204</ele>
        <time>2016-06-06T14:43:42.1Z</time>
      </trkpt>
      <trkpt lat="48.5864" lon="-3.18108">
        <ele>204</ele>
        <time>2016-06-06T14:43:44.1Z</time>
      </trkpt>
      <trkpt lat="48.58638" lon="-3.18112">
        <ele>204</ele>
        <time>2016-06-06T14:43:47.1Z</time>
      </trkpt>
      <trkpt lat="48.58637" lon="-3.18115">
        <ele>204</ele>
        <time>2016-06-06T14:43:49.1Z</time>
      </trkpt>
      <trkpt lat="48.58636" lon="-3.18119">
        <ele>205</ele>
        <time>2016-06-06T14:43:51.1Z</time>
      </trkpt>
      <trkpt lat="48.58635" lon="-3.18122">
        <ele>205</ele>
        <time>2016-06-06T14:43:53.1Z</time>
      </trkpt>
      <trkpt lat="48.58632" lon="-3.18127">
        <ele>205</ele>
        <time>2016-06-06T14:43:56.1Z</time>
      </trkpt>
      <trkpt lat="48.58631" lon="-3.1813">
        <ele>205</ele>
        <time>2016-06-06T14:43:58.1Z</time>
      </trkpt>
      <trkpt lat="48.58629" lon="-3.18135">
        <ele>205</ele>
        <time>2016-06-06T14:44:01.1Z</time>
      </trkpt>
      <trkpt lat="48.58627" lon="-3.1814">
        <ele>205</ele>
        <time>2016-06-06T14:44:04.1Z</time>
      </trkpt>
      <trkpt lat="48.58626" lon="-3.18144">
        <ele>205</ele>
        <time>2016-06-06T14:44:06.1Z</time>
      </trkpt>
      <trkpt lat="48.58625" lon="-3.18147">
        <ele>205</ele>
        <time>2016-06-06T14:44:08.1Z</time>
      </trkpt>
      <trkpt lat="48.58622" lon="-3.18151">
        <ele>205</ele>
        <time>2016-06-06T14:44:11.1Z</time>
      </trkpt>
      <trkpt lat="48.5862" lon="-3.18154">
        <ele>205</ele>
        <time>2016-06-06T14:44:13.1Z</time>
      </trkpt>
      <trkpt lat="48.58619" lon="-3.18156">
        <ele>205</ele>
        <time>2016-06-06T14:44:15.1Z</time>
      </trkpt>
      <trkpt lat="48.58617" lon="-3.18158">
        <ele>205</ele>
        <time>2016-06-06T14:44:17.1Z</time>
      </trkpt>
      <trkpt lat="48.58615" lon="-3.18162">
        <ele>205</ele>
        <time>2016-06-06T14:44:20.1Z</time>
      </trkpt>
      <trkpt lat="48.58614" lon="-3.18165">
        <ele>205</ele>
        <time>2016-06-06T14:44:22.1Z</time>
      </trkpt>
      <trkpt lat="48.58613" lon="-3.18168">
        <ele>205</ele>
        <time>2016-06-06T14:44:25.1Z</time>
      </trkpt>
      <trkpt lat="48.58611" lon="-3.18172">
        <ele>206</ele>
        <time>2016-06-06T14:44:28.1Z</time>
      </trkpt>
      <trkpt lat="48.5861" lon="-3.18176">
        <ele>206</ele>
        <time>2016-06-06T14:44:31.1Z</time>
      </trkpt>
      <trkpt lat="48.5861" lon="-3.18178">
        <ele>206</ele>
        <time>2016-06-06T14:44:33.1Z</time>
      </trkpt>
      <trkpt lat="48.58608" lon="-3.18181">
        <ele>206</ele>
        <time>2016-06-06T14:44:36.1Z</time>
      </trkpt>
      <trkpt lat="48.58607" lon="-3.18184">
        <ele>206</ele>
        <time>2016-06-06T14:44:39.1Z</time>
      </trkpt>
      <trkpt lat="48.58606" lon="-3.18186">
        <ele>207</ele>
        <time>2016-06-06T14:44:41.1Z</time>
      </trkpt>
      <trkpt lat="48.58606" lon="-3.18188">
        <ele>206</ele>
        <time>2016-06-06T14:44:44.1Z</time>
      </trkpt>
      <trkpt lat="48.58606" lon="-3.18189">
        <ele>206</ele>
        <time>2016-06-06T14:44:46.1Z</time>
      </trkpt>
      <trkpt lat="48.58605" lon="-3.1819">
        <ele>206</ele>
        <time>2016-06-06T14:44:48.1Z</time>
      </trkpt>
      <trkpt lat="48.58604" lon="-3.18191">
        <ele>206</ele>
        <time>2016-06-06T14:44:50.1Z</time>
      </trkpt>
      <trkpt lat="48.58603" lon="-3.18193">
        <ele>206</ele>
        <time>2016-06-06T14:44:53.1Z</time>
      </trkpt>
      <trkpt lat="48.58603" lon="-3.18194">
        <ele>206</ele>
        <time>2016-06-06T14:44:55.1Z</time>
      </trkpt>
      <trkpt lat="48.58602" lon="-3.18195">
        <ele>206</ele>
        <time>2016-06-06T14:44:58.1Z</time>
      </trkpt>
      <trkpt lat="48.58602" lon="-3.18195">
        <ele>206</ele>
        <time>2016-06-06T14:45:00.1Z</time>
      </trkpt>
      <trkpt lat="48.58602" lon="-3.18195">
        <ele>206</ele>
        <time>2016-06-06T14:45:03.1Z</time>
      </trkpt>
      <trkpt lat="48.58603" lon="-3.18195">
        <ele>206</ele>
        <time>2016-06-06T14:45:05.1Z</time>
      </trkpt>
      <trkpt lat="48.58603" lon="-3.18195">
        <ele>206</ele>
        <time>2016-06-06T14:45:09.1Z</time>
      </trkpt>
      <trkpt lat="48.58603" lon="-3.18194">
        <ele>206</ele>
        <time>2016-06-06T14:45:12.1Z</time>
      </trkpt>
      <trkpt lat="48.58603" lon="-3.18194">
        <ele>205</ele>
        <time>2016-06-06T14:45:14.1Z</time>
      </trkpt>
      <trkpt lat="48.58603" lon="-3.18193">
        <ele>206</ele>
        <time>2016-06-06T14:45:17.1Z</time>
      </trkpt>
      <trkpt lat="48.58603" lon="-3.18193">
        <ele>206</ele>
        <time>2016-06-06T14:45:19.1Z</time>
      </trkpt>
      <trkpt lat="48.58604" lon="-3.18192">
        <ele>206</ele>
        <time>2016-06-06T14:45:22.1Z</time>
      </trkpt>
      <trkpt lat="48.58604" lon="-3.18192">
        <ele>206</ele>
        <time>2016-06-06T14:45:25.1Z</time>
      </trkpt>
      <trkpt lat="48.58604" lon="-3.18192">
        <ele>206</ele>
        <time>2016-06-06T14:45:27.1Z</time>
      </trkpt>
      <trkpt lat="48.58604" lon="-3.18191">
        <ele>206</ele>
        <time>2016-06-06T14:45:30.1Z</time>
      </trkpt>
      <trkpt lat="48.58604" lon="-3.18191">
        <ele>206</ele>
        <time>2016-06-06T14:45:33.1Z</time>
      </trkpt>
      <trkpt lat="48.58604" lon="-3.18191">
        <ele>206</ele>
        <time>2016-06-06T14:45:36.1Z</time>
      </trkpt>
      <trkpt lat="48.58605" lon="-3.18191">
        <ele>206</ele>
        <time>2016-06-06T14:45:39.1Z</time>
      </trkpt>
      <trkpt lat="48.58604" lon="-3.18191">
        <ele>206</ele>
        <time>2016-06-06T14:45:43.1Z</time>
      </trkpt>
      <trkpt lat="48.58604" lon="-3.18191">
        <ele>206</ele>
        <time>2016-06-06T14:45:46.1Z</time>
      </trkpt>
      <trkpt lat="48.58604" lon="-3.18191">
        <ele>206</ele>
        <time>2016-06-06T14:45:49.1Z</time>
      </trkpt>
      <trkpt lat="48.58604" lon="-3.1819">
        <ele>206</ele>
        <time>2016-06-06T14:45:51.1Z</time>
      </trkpt>
      <trkpt lat="48.58604" lon="-3.1819">
        <ele>206</ele>
        <time>2016-06-06T14:45:54.1Z</time>
      </trkpt>
      <trkpt lat="48.58605" lon="-3.18189">
        <ele>206</ele>
        <time>2016-06-06T14:45:57.1Z</time>
      </trkpt>
      <trkpt lat="48.58605" lon="-3.18188">
        <ele>206</ele>
        <time>2016-06-06T14:46:00.1Z</time>
      </trkpt>
      <trkpt lat="48.58605" lon="-3.18188">
        <ele>206</ele>
        <time>2016-06-06T14:46:02.1Z</time>
      </trkpt>
      <trkpt lat="48.58605" lon="-3.18189">
        <ele>206</ele>
        <time>2016-06-06T14:46:05.1Z</time>
      </trkpt>
      <trkpt lat="48.58604" lon="-3.1819">
        <ele>206</ele>
        <time>2016-06-06T14:46:07.1Z</time>
      </trkpt>
      <trkpt lat="48.58604" lon="-3.18191">
        <ele>206</ele>
        <time>2016-06-06T14:46:10.1Z</time>
      </trkpt>
      <trkpt lat="48.58604" lon="-3.18191">
        <ele>206</ele>
        <time>2016-06-06T14:46:12.1Z</time>
      </trkpt>
      <trkpt lat="48.58604" lon="-3.18191">
        <ele>206</ele>
        <time>2016-06-06T14:46:15.1Z</time>
      </trkpt>
      <trkpt lat="48.58604" lon="-3.18191">
        <ele>206</ele>
        <time>2016-06-06T14:46:17.1Z</time>
      </trkpt>
      <trkpt lat="48.58604" lon="-3.18192">
        <ele>206</ele>
        <time>2016-06-06T14:46:20.1Z</time>
      </trkpt>
      <trkpt lat="48.58604" lon="-3.18192">
        <ele>205</ele>
        <time>2016-06-06T14:46:22.1Z</time>
      </trkpt>
      <trkpt lat="48.58604" lon="-3.18192">
        <ele>205</ele>
        <time>2016-06-06T14:46:25.1Z</time>
      </trkpt>
      <trkpt lat="48.58605" lon="-3.18193">
        <ele>205</ele>
        <time>2016-06-06T14:46:27.1Z</time>
      </trkpt>
      <trkpt lat="48.58605" lon="-3.18194">
        <ele>206</ele>
        <time>2016-06-06T14:46:29.1Z</time>
      </trkpt>
      <trkpt lat="48.58605" lon="-3.18192">
        <ele>206</ele>
        <time>2016-06-06T14:46:32.1Z</time>
      </trkpt>
      <trkpt lat="48.58605" lon="-3.18192">
        <ele>206</ele>
        <time>2016-06-06T14:46:34.1Z</time>
      </trkpt>
      <trkpt lat="48.58605" lon="-3.18192">
        <ele>206</ele>
        <time>2016-06-06T14:46:38.1Z</time>
      </trkpt>
      <trkpt lat="48.58605" lon="-3.18192">
        <ele>206</ele>
        <time>2016-06-06T14:46:41.1Z</time>
      </trkpt>
      <trkpt lat="48.58605" lon="-3.18192">
        <ele>206</ele>
        <time>2016-06-06T14:46:43.1Z</time>
      </trkpt>
      <trkpt lat="48.58605" lon="-3.18192">
        <ele>206</ele>
        <time>2016-06-06T14:46:46.1Z</time>
      </trkpt>
      <trkpt lat="48.58605" lon="-3.18191">
        <ele>206</ele>
        <time>2016-06-06T14:46:48.1Z</time>
      </trkpt>
      <trkpt lat="48.58604" lon="-3.18188">
        <ele>206</ele>
        <time>2016-06-06T14:46:51.1Z</time>
      </trkpt>
      <trkpt lat="48.58604" lon="-3.18188">
        <ele>206</ele>
        <time>2016-06-06T14:46:53.1Z</time>
      </trkpt>
      <trkpt lat="48.58604" lon="-3.18188">
        <ele>206</ele>
        <time>2016-06-06T14:46:56.1Z</time>
      </trkpt>
      <trkpt lat="48.58605" lon="-3.18188">
        <ele>206</ele>
        <time>2016-06-06T14:46:59.1Z</time>
      </trkpt>
      <trkpt lat="48.58605" lon="-3.18187">
        <ele>206</ele>
        <time>2016-06-06T14:47:02.1Z</time>
      </trkpt>
      <trkpt lat="48.58606" lon="-3.18187">
        <ele>206</ele>
        <time>2016-06-06T14:47:06.1Z</time>
      </trkpt>
      <trkpt lat="48.58605" lon="-3.18187">
        <ele>206</ele>
        <time>2016-06-06T14:47:08.1Z</time>
      </trkpt>
      <trkpt lat="48.58605" lon="-3.18187">
        <ele>206</ele>
        <time>2016-06-06T14:47:11.1Z</time>
      </trkpt>
      <trkpt lat="48.58606" lon="-3.18188">
        <ele>206</ele>
        <time>2016-06-06T14:47:13.1Z</time>
      </trkpt>
      <trkpt lat="48.58606" lon="-3.18189">
        <ele>206</ele>
        <time>2016-06-06T14:47:16.1Z</time>
      </trkpt>
      <trkpt lat="48.58606" lon="-3.18189">
        <ele>206</ele>
        <time>2016-06-06T14:47:18.1Z</time>
      </trkpt>
      <trkpt lat="48.58606" lon="-3.1819">
        <ele>206</ele>
        <time>2016-06-06T14:47:20.1Z</time>
      </trkpt>
      <trkpt lat="48.58606" lon="-3.1819">
        <ele>206</ele>
        <time>2016-06-06T14:47:23.1Z</time>
      </trkpt>
      <trkpt lat="48.58606" lon="-3.18191">
        <ele>206</ele>
        <time>2016-06-06T14:47:26.1Z</time>
      </trkpt>
      <trkpt lat="48.58606" lon="-3.18191">
        <ele>206</ele>
        <time>2016-06-06T14:47:29.1Z</time>
      </trkpt>
      <trkpt lat="48.58606" lon="-3.18192">
        <ele>206</ele>
        <time>2016-06-06T14:47:31.1Z</time>
      </trkpt>
      <trkpt lat="48.58606" lon="-3.18192">
        <ele>206</ele>
        <time>2016-06-06T14:47:33.1Z</time>
      </trkpt>
      <trkpt lat="48.58607" lon="-3.18192">
        <ele>206</ele>
        <time>2016-06-06T14:47:36.1Z</time>
      </trkpt>
      <trkpt lat="48.58606" lon="-3.18192">
        <ele>206</ele>
        <time>2016-06-06T14:47:39.1Z</time>
      </trkpt>
      <trkpt lat="48.58607" lon="-3.18193">
        <ele>206</ele>
        <time>2016-06-06T14:47:42.1Z</time>
      </trkpt>
      <trkpt lat="48.58607" lon="-3.18193">
        <ele>206</ele>
        <time>2016-06-06T14:47:44.1Z</time>
      </trkpt>
      <trkpt lat="48.58608" lon="-3.18194">
        <ele>206</ele>
        <time>2016-06-06T14:47:46.1Z</time>
      </trkpt>
      <trkpt lat="48.5861" lon="-3.18196">
        <ele>206</ele>
        <time>2016-06-06T14:47:49.1Z</time>
      </trkpt>
      <trkpt lat="48.58612" lon="-3.18198">
        <ele>206</ele>
        <time>2016-06-06T14:47:52.1Z</time>
      </trkpt>
      <trkpt lat="48.58614" lon="-3.18201">
        <ele>206</ele>
        <time>2016-06-06T14:47:55.1Z</time>
      </trkpt>
      <trkpt lat="48.58615" lon="-3.18202">
        <ele>206</ele>
        <time>2016-06-06T14:47:57.1Z</time>
      </trkpt>
      <trkpt lat="48.58617" lon="-3.18205">
        <ele>206</ele>
        <time>2016-06-06T14:48:00.1Z</time>
      </trkpt>
      <trkpt lat="48.5862" lon="-3.18207">
        <ele>206</ele>
        <time>2016-06-06T14:48:03.1Z</time>
      </trkpt>
      <trkpt lat="48.58621" lon="-3.18209">
        <ele>206</ele>
        <time>2016-06-06T14:48:05.1Z</time>
      </trkpt>
      <trkpt lat="48.58623" lon="-3.1821">
        <ele>206</ele>
        <time>2016-06-06T14:48:07.1Z</time>
      </trkpt>
      <trkpt lat="48.58624" lon="-3.18212">
        <ele>206</ele>
        <time>2016-06-06T14:48:09.1Z</time>
      </trkpt>
      <trkpt lat="48.58626" lon="-3.18214">
        <ele>206</ele>
        <time>2016-06-06T14:48:12.1Z</time>
      </trkpt>
      <trkpt lat="48.58628" lon="-3.18217">
        <ele>206</ele>
        <time>2016-06-06T14:48:15.1Z</time>
      </trkpt>
      <trkpt lat="48.5863" lon="-3.18219">
        <ele>206</ele>
        <time>2016-06-06T14:48:17.1Z</time>
      </trkpt>
      <trkpt lat="48.58632" lon="-3.18222">
        <ele>206</ele>
        <time>2016-06-06T14:48:20.1Z</time>
      </trkpt>
      <trkpt lat="48.58634" lon="-3.18226">
        <ele>206</ele>
        <time>2016-06-06T14:48:23.1Z</time>
      </trkpt>
      <trkpt lat="48.58636" lon="-3.18228">
        <ele>206</ele>
        <time>2016-06-06T14:48:25.1Z</time>
      </trkpt>
      <trkpt lat="48.58638" lon="-3.18232">
        <ele>206</ele>
        <time>2016-06-06T14:48:28.1Z</time>
      </trkpt>
      <trkpt lat="48.58639" lon="-3.18233">
        <ele>206</ele>
        <time>2016-06-06T14:48:31.1Z</time>
      </trkpt>
      <trkpt lat="48.5864" lon="-3.18235">
        <ele>206</ele>
        <time>2016-06-06T14:48:34.1Z</time>
      </trkpt>
      <trkpt lat="48.58641" lon="-3.18238">
        <ele>205</ele>
        <time>2016-06-06T14:48:36.1Z</time>
      </trkpt>
      <trkpt lat="48.58643" lon="-3.18243">
        <ele>205</ele>
        <time>2016-06-06T14:48:39.1Z</time>
      </trkpt>
      <trkpt lat="48.58645" lon="-3.18247">
        <ele>206</ele>
        <time>2016-06-06T14:48:42.1Z</time>
      </trkpt>
      <trkpt lat="48.58646" lon="-3.18249">
        <ele>206</ele>
        <time>2016-06-06T14:48:44.1Z</time>
      </trkpt>
      <trkpt lat="48.58647" lon="-3.18252">
        <ele>206</ele>
        <time>2016-06-06T14:48:47.1Z</time>
      </trkpt>
      <trkpt lat="48.58648" lon="-3.18257">
        <ele>206</ele>
        <time>2016-06-06T14:48:50.1Z</time>
      </trkpt>
      <trkpt lat="48.58648" lon="-3.1826">
        <ele>206</ele>
        <time>2016-06-06T14:48:52.1Z</time>
      </trkpt>
      <trkpt lat="48.58648" lon="-3.18266">
        <ele>206</ele>
        <time>2016-06-06T14:48:55.1Z</time>
      </trkpt>
      <trkpt lat="48.58648" lon="-3.18269">
        <ele>206</ele>
        <time>2016-06-06T14:48:58.1Z</time>
      </trkpt>
      <trkpt lat="48.58647" lon="-3.18273">
        <ele>207</ele>
        <time>2016-06-06T14:49:00.1Z</time>
      </trkpt>
      <trkpt lat="48.58647" lon="-3.18277">
        <ele>207</ele>
        <time>2016-06-06T14:49:02.1Z</time>
      </trkpt>
      <trkpt lat="48.58646" lon="-3.18282">
        <ele>206</ele>
        <time>2016-06-06T14:49:05.1Z</time>
      </trkpt>
      <trkpt lat="48.58645" lon="-3.18284">
        <ele>207</ele>
        <time>2016-06-06T14:49:07.1Z</time>
      </trkpt>
      <trkpt lat="48.58644" lon="-3.18287">
        <ele>206</ele>
        <time>2016-06-06T14:49:09.1Z</time>
      </trkpt>
      <trkpt lat="48.58643" lon="-3.18292">
        <ele>206</ele>
        <time>2016-06-06T14:49:12.1Z</time>
      </trkpt>
      <trkpt lat="48.58642" lon="-3.18295">
        <ele>206</ele>
        <time>2016-06-06T14:49:14.1Z</time>
      </trkpt>
      <trkpt lat="48.58641" lon="-3.183">
        <ele>206</ele>
        <time>2016-06-06T14:49:17.1Z</time>
      </trkpt>
      <trkpt lat="48.58639" lon="-3.18304">
        <ele>207</ele>
        <time>2016-06-06T14:49:20.1Z</time>
      </trkpt>
      <trkpt lat="48.58637" lon="-3.18309">
        <ele>207</ele>
        <time>2016-06-06T14:49:23.1Z</time>
      </trkpt>
      <trkpt lat="48.58635" lon="-3.18313">
        <ele>207</ele>
        <time>2016-06-06T14:49:26.1Z</time>
      </trkpt>
      <trkpt lat="48.58633" lon="-3.18319">
        <ele>207</ele>
        <time>2016-06-06T14:49:29.1Z</time>
      </trkpt>
      <trkpt lat="48.58631" lon="-3.18321">
        <ele>207</ele>
        <time>2016-06-06T14:49:31.1Z</time>
      </trkpt>
      <trkpt lat="48.5863" lon="-3.18325">
        <ele>207</ele>
        <time>2016-06-06T14:49:33.1Z</time>
      </trkpt>
      <trkpt lat="48.58629" lon="-3.18328">
        <ele>207</ele>
        <time>2016-06-06T14:49:35.1Z</time>
      </trkpt>
      <trkpt lat="48.58627" lon="-3.18333">
        <ele>207</ele>
        <time>2016-06-06T14:49:38.1Z</time>
      </trkpt>
      <trkpt lat="48.58625" lon="-3.18337">
        <ele>206</ele>
        <time>2016-06-06T14:49:41.1Z</time>
      </trkpt>
      <trkpt lat="48.58622" lon="-3.18341">
        <ele>206</ele>
        <time>2016-06-06T14:49:44.1Z</time>
      </trkpt>
      <trkpt lat="48.58621" lon="-3.18344">
        <ele>206</ele>
        <time>2016-06-06T14:49:46.1Z</time>
      </trkpt>
      <trkpt lat="48.58618" lon="-3.18348">
        <ele>207</ele>
        <time>2016-06-06T14:49:49.1Z</time>
      </trkpt>
      <trkpt lat="48.58617" lon="-3.18351">
        <ele>207</ele>
        <time>2016-06-06T14:49:51.1Z</time>
      </trkpt>
      <trkpt lat="48.58615" lon="-3.18355">
        <ele>207</ele>
        <time>2016-06-06T14:49:54.1Z</time>
      </trkpt>
      <trkpt lat="48.58613" lon="-3.18359">
        <ele>207</ele>
        <time>2016-06-06T14:49:57.1Z</time>
      </trkpt>
      <trkpt lat="48.5861" lon="-3.18364">
        <ele>207</ele>
        <time>2016-06-06T14:50:00.1Z</time>
      </trkpt>
      <trkpt lat="48.58609" lon="-3.18367">
        <ele>207</ele>
        <time>2016-06-06T14:50:02.1Z</time>
      </trkpt>
      <trkpt lat="48.58606" lon="-3.18371">
        <ele>207</ele>
        <time>2016-06-06T14:50:05.1Z</time>
      </trkpt>
      <trkpt lat="48.58604" lon="-3.18375">
        <ele>207</ele>
        <time>2016-06-06T14:50:08.1Z</time>
      </trkpt>
      <trkpt lat="48.58601" lon="-3.18379">
        <ele>207</ele>
        <time>2016-06-06T14:50:11.1Z</time>
      </trkpt>
      <trkpt lat="48.58599" lon="-3.18383">
        <ele>208</ele>
        <time>2016-06-06T14:50:14.1Z</time>
      </trkpt>
      <trkpt lat="48.58598" lon="-3.18386">
        <ele>207</ele>
        <time>2016-06-06T14:50:16.1Z</time>
      </trkpt>
      <trkpt lat="48.58596" lon="-3.18389">
        <ele>207</ele>
        <time>2016-06-06T14:50:18.1Z</time>
      </trkpt>
      <trkpt lat="48.58595" lon="-3.18391">
        <ele>207</ele>
        <time>2016-06-06T14:50:20.1Z</time>
      </trkpt>
      <trkpt lat="48.58593" lon="-3.18395">
        <ele>207</ele>
        <time>2016-06-06T14:50:23.1Z</time>
      </trkpt>
      <trkpt lat="48.58591" lon="-3.18399">
        <ele>207</ele>
        <time>2016-06-06T14:50:26.1Z</time>
      </trkpt>
      <trkpt lat="48.58589" lon="-3.18403">
        <ele>207</ele>
        <time>2016-06-06T14:50:29.1Z</time>
      </trkpt>
      <trkpt lat="48.58588" lon="-3.18405">
        <ele>207</ele>
        <time>2016-06-06T14:50:31.1Z</time>
      </trkpt>
      <trkpt lat="48.58586" lon="-3.18408">
        <ele>207</ele>
        <time>2016-06-06T14:50:33.1Z</time>
      </trkpt>
      <trkpt lat="48.58584" lon="-3.18411">
        <ele>207</ele>
        <time>2016-06-06T14:50:35.1Z</time>
      </trkpt>
      <trkpt lat="48.58583" lon="-3.18414">
        <ele>207</ele>
        <time>2016-06-06T14:50:37.1Z</time>
      </trkpt>
      <trkpt lat="48.58582" lon="-3.18416">
        <ele>207</ele>
        <time>2016-06-06T14:50:39.1Z</time>
      </trkpt>
      <trkpt lat="48.5858" lon="-3.18419">
        <ele>207</ele>
        <time>2016-06-06T14:50:41.1Z</time>
      </trkpt>
      <trkpt lat="48.58577" lon="-3.18422">
        <ele>208</ele>
        <time>2016-06-06T14:50:44.1Z</time>
      </trkpt>
      <trkpt lat="48.58574" lon="-3.18426">
        <ele>208</ele>
        <time>2016-06-06T14:50:47.1Z</time>
      </trkpt>
      <trkpt lat="48.58572" lon="-3.18429">
        <ele>208</ele>
        <time>2016-06-06T14:50:49.1Z</time>
      </trkpt>
      <trkpt lat="48.5857" lon="-3.18432">
        <ele>208</ele>
        <time>2016-06-06T14:50:51.1Z</time>
      </trkpt>
      <trkpt lat="48.58569" lon="-3.18435">
        <ele>208</ele>
        <time>2016-06-06T14:50:53.1Z</time>
      </trkpt>
      <trkpt lat="48.58566" lon="-3.18439">
        <ele>208</ele>
        <time>2016-06-06T14:50:56.1Z</time>
      </trkpt>
      <trkpt lat="48.58563" lon="-3.18443">
        <ele>208</ele>
        <time>2016-06-06T14:50:59.1Z</time>
      </trkpt>
      <trkpt lat="48.58561" lon="-3.18446">
        <ele>208</ele>
        <time>2016-06-06T14:51:01.1Z</time>
      </trkpt>
      <trkpt lat="48.58559" lon="-3.18449">
        <ele>208</ele>
        <time>2016-06-06T14:51:03.1Z</time>
      </trkpt>
      <trkpt lat="48.58557" lon="-3.18452">
        <ele>208</ele>
        <time>2016-06-06T14:51:05.1Z</time>
      </trkpt>
      <trkpt lat="48.58554" lon="-3.18456">
        <ele>209</ele>
        <time>2016-06-06T14:51:08.1Z</time>
      </trkpt>
      <trkpt lat="48.58552" lon="-3.18458">
        <ele>209</ele>
        <time>2016-06-06T14:51:10.1Z</time>
      </trkpt>
      <trkpt lat="48.58551" lon="-3.1846">
        <ele>209</ele>
        <time>2016-06-06T14:51:12.1Z</time>
      </trkpt>
      <trkpt lat="48.58548" lon="-3.18464">
        <ele>209</ele>
        <time>2016-06-06T14:51:15.1Z</time>
      </trkpt>
      <trkpt lat="48.58546" lon="-3.18467">
        <ele>208</ele>
        <time>2016-06-06T14:51:17.1Z</time>
      </trkpt>
      <trkpt lat="48.58544" lon="-3.18471">
        <ele>208</ele>
        <time>2016-06-06T14:51:20.1Z</time>
      </trkpt>
      <trkpt lat="48.58542" lon="-3.18474">
        <ele>208</ele>
        <time>2016-06-06T14:51:22.1Z</time>
      </trkpt>
      <trkpt lat="48.5854" lon="-3.18477">
        <ele>208</ele>
        <time>2016-06-06T14:51:24.1Z</time>
      </trkpt>
      <trkpt lat="48.58538" lon="-3.18481">
        <ele>209</ele>
        <time>2016-06-06T14:51:27.1Z</time>
      </trkpt>
      <trkpt lat="48.58535" lon="-3.18486">
        <ele>209</ele>
        <time>2016-06-06T14:51:30.1Z</time>
      </trkpt>
      <trkpt lat="48.58534" lon="-3.18488">
        <ele>209</ele>
        <time>2016-06-06T14:51:32.1Z</time>
      </trkpt>
      <trkpt lat="48.58531" lon="-3.18494">
        <ele>209</ele>
        <time>2016-06-06T14:51:35.1Z</time>
      </trkpt>
      <trkpt lat="48.5853" lon="-3.18497">
        <ele>209</ele>
        <time>2016-06-06T14:51:37.1Z</time>
      </trkpt>
      <trkpt lat="48.58527" lon="-3.18501">
        <ele>209</ele>
        <time>2016-06-06T14:51:40.1Z</time>
      </trkpt>
      <trkpt lat="48.58526" lon="-3.18504">
        <ele>209</ele>
        <time>2016-06-06T14:51:42.1Z</time>
      </trkpt>
      <trkpt lat="48.58524" lon="-3.18509">
        <ele>209</ele>
        <time>2016-06-06T14:51:45.1Z</time>
      </trkpt>
      <trkpt lat="48.58523" lon="-3.18512">
        <ele>209</ele>
        <time>2016-06-06T14:51:47.1Z</time>
      </trkpt>
      <trkpt lat="48.58522" lon="-3.18516">
        <ele>209</ele>
        <time>2016-06-06T14:51:50.1Z</time>
      </trkpt>
      <trkpt lat="48.5852" lon="-3.18519">
        <ele>209</ele>
        <time>2016-06-06T14:51:52.1Z</time>
      </trkpt>
      <trkpt lat="48.58518" lon="-3.18524">
        <ele>209</ele>
        <time>2016-06-06T14:51:55.1Z</time>
      </trkpt>
      <trkpt lat="48.58516" lon="-3.18529">
        <ele>209</ele>
        <time>2016-06-06T14:51:58.1Z</time>
      </trkpt>
      <trkpt lat="48.58515" lon="-3.18532">
        <ele>209</ele>
        <time>2016-06-06T14:52:00.1Z</time>
      </trkpt>
      <trkpt lat="48.58512" lon="-3.18538">
        <ele>209</ele>
        <time>2016-06-06T14:52:03.1Z</time>
      </trkpt>
      <trkpt lat="48.58511" lon="-3.18541">
        <ele>209</ele>
        <time>2016-06-06T14:52:05.1Z</time>
      </trkpt>
      <trkpt lat="48.58509" lon="-3.18547">
        <ele>209</ele>
        <time>2016-06-06T14:52:08.1Z</time>
      </trkpt>
      <trkpt lat="48.58508" lon="-3.18551">
        <ele>209</ele>
        <time>2016-06-06T14:52:11.1Z</time>
      </trkpt>
      <trkpt lat="48.58506" lon="-3.18556">
        <ele>209</ele>
        <time>2016-06-06T14:52:14.1Z</time>
      </trkpt>
      <trkpt lat="48.58506" lon="-3.18559">
        <ele>209</ele>
        <time>2016-06-06T14:52:16.1Z</time>
      </trkpt>
      <trkpt lat="48.58504" lon="-3.18562">
        <ele>209</ele>
        <time>2016-06-06T14:52:18.1Z</time>
      </trkpt>
      <trkpt lat="48.58504" lon="-3.18565">
        <ele>209</ele>
        <time>2016-06-06T14:52:20.1Z</time>
      </trkpt>
      <trkpt lat="48.58503" lon="-3.18568">
        <ele>209</ele>
        <time>2016-06-06T14:52:22.1Z</time>
      </trkpt>
      <trkpt lat="48.58502" lon="-3.18571">
        <ele>209</ele>
        <time>2016-06-06T14:52:24.1Z</time>
      </trkpt>
      <trkpt lat="48.585" lon="-3.18577">
        <ele>209</ele>
        <time>2016-06-06T14:52:27.1Z</time>
      </trkpt>
      <trkpt lat="48.58499" lon="-3.18582">
        <ele>210</ele>
        <time>2016-06-06T14:52:30.1Z</time>
      </trkpt>
      <trkpt lat="48.58498" lon="-3.18586">
        <ele>209</ele>
        <time>2016-06-06T14:52:33.1Z</time>
      </trkpt>
      <trkpt lat="48.58497" lon="-3.18588">
        <ele>209</ele>
        <time>2016-06-06T14:52:35.1Z</time>
      </trkpt>
      <trkpt lat="48.58497" lon="-3.18591">
        <ele>209</ele>
        <time>2016-06-06T14:52:37.1Z</time>
      </trkpt>
      <trkpt lat="48.58496" lon="-3.18596">
        <ele>210</ele>
        <time>2016-06-06T14:52:40.1Z</time>
      </trkpt>
      <trkpt lat="48.58495" lon="-3.186">
        <ele>210</ele>
        <time>2016-06-06T14:52:42.1Z</time>
      </trkpt>
      <trkpt lat="48.58495" lon="-3.18604">
        <ele>209</ele>
        <time>2016-06-06T14:52:45.1Z</time>
      </trkpt>
      <trkpt lat="48.58494" lon="-3.18607">
        <ele>209</ele>
        <time>2016-06-06T14:52:47.1Z</time>
      </trkpt>
      <trkpt lat="48.58494" lon="-3.18611">
        <ele>209</ele>
        <time>2016-06-06T14:52:50.1Z</time>
      </trkpt>
      <trkpt lat="48.58493" lon="-3.18614">
        <ele>209</ele>
        <time>2016-06-06T14:52:52.1Z</time>
      </trkpt>
      <trkpt lat="48.58492" lon="-3.18619">
        <ele>209</ele>
        <time>2016-06-06T14:52:55.1Z</time>
      </trkpt>
      <trkpt lat="48.58491" lon="-3.18623">
        <ele>209</ele>
        <time>2016-06-06T14:52:57.1Z</time>
      </trkpt>
      <trkpt lat="48.5849" lon="-3.18626">
        <ele>210</ele>
        <time>2016-06-06T14:52:59.1Z</time>
      </trkpt>
      <trkpt lat="48.58489" lon="-3.1863">
        <ele>210</ele>
        <time>2016-06-06T14:53:01.1Z</time>
      </trkpt>
      <trkpt lat="48.58487" lon="-3.18633">
        <ele>210</ele>
        <time>2016-06-06T14:53:04.1Z</time>
      </trkpt>
      <trkpt lat="48.58486" lon="-3.18636">
        <ele>209</ele>
        <time>2016-06-06T14:53:07.1Z</time>
      </trkpt>
      <trkpt lat="48.58485" lon="-3.1864">
        <ele>209</ele>
        <time>2016-06-06T14:53:09.1Z</time>
      </trkpt>
      <trkpt lat="48.58484" lon="-3.18643">
        <ele>210</ele>
        <time>2016-06-06T14:53:11.1Z</time>
      </trkpt>
      <trkpt lat="48.58483" lon="-3.18647">
        <ele>210</ele>
        <time>2016-06-06T14:53:13.1Z</time>
      </trkpt>
      <trkpt lat="48.58483" lon="-3.1865">
        <ele>210</ele>
        <time>2016-06-06T14:53:15.1Z</time>
      </trkpt>
      <trkpt lat="48.58482" lon="-3.18653">
        <ele>210</ele>
        <time>2016-06-06T14:53:17.1Z</time>
      </trkpt>
      <trkpt lat="48.58481" lon="-3.18658">
        <ele>210</ele>
        <time>2016-06-06T14:53:19.1Z</time>
      </trkpt>
      <trkpt lat="48.58479" lon="-3.18661">
        <ele>210</ele>
        <time>2016-06-06T14:53:22.1Z</time>
      </trkpt>
      <trkpt lat="48.58477" lon="-3.18664">
        <ele>210</ele>
        <time>2016-06-06T14:53:24.1Z</time>
      </trkpt>
      <trkpt lat="48.58475" lon="-3.18665">
        <ele>210</ele>
        <time>2016-06-06T14:53:26.1Z</time>
      </trkpt>
      <trkpt lat="48.58471" lon="-3.18666">
        <ele>210</ele>
        <time>2016-06-06T14:53:29.1Z</time>
      </trkpt>
      <trkpt lat="48.58468" lon="-3.18666">
        <ele>210</ele>
        <time>2016-06-06T14:53:32.1Z</time>
      </trkpt>
      <trkpt lat="48.58466" lon="-3.18666">
        <ele>210</ele>
        <time>2016-06-06T14:53:34.1Z</time>
      </trkpt>
      <trkpt lat="48.58463" lon="-3.18664">
        <ele>210</ele>
        <time>2016-06-06T14:53:37.1Z</time>
      </trkpt>
      <trkpt lat="48.5846" lon="-3.18662">
        <ele>210</ele>
        <time>2016-06-06T14:53:40.1Z</time>
      </trkpt>
      <trkpt lat="48.58458" lon="-3.18661">
        <ele>210</ele>
        <time>2016-06-06T14:53:42.1Z</time>
      </trkpt>
      <trkpt lat="48.58455" lon="-3.1866">
        <ele>210</ele>
        <time>2016-06-06T14:53:45.1Z</time>
      </trkpt>
      <trkpt lat="48.58453" lon="-3.18659">
        <ele>210</ele>
        <time>2016-06-06T14:53:47.1Z</time>
      </trkpt>
      <trkpt lat="48.58451" lon="-3.18658">
        <ele>209</ele>
        <time>2016-06-06T14:53:49.1Z</time>
      </trkpt>
      <trkpt lat="48.58448" lon="-3.18657">
        <ele>210</ele>
        <time>2016-06-06T14:53:52.1Z</time>
      </trkpt>
      <trkpt lat="48.58445" lon="-3.18654">
        <ele>210</ele>
        <time>2016-06-06T14:53:55.1Z</time>
      </trkpt>
      <trkpt lat="48.58442" lon="-3.18653">
        <ele>210</ele>
        <time>2016-06-06T14:53:57.1Z</time>
      </trkpt>
      <trkpt lat="48.58441" lon="-3.18651">
        <ele>210</ele>
        <time>2016-06-06T14:53:59.1Z</time>
      </trkpt>
      <trkpt lat="48.58438" lon="-3.18649">
        <ele>210</ele>
        <time>2016-06-06T14:54:02.1Z</time>
      </trkpt>
      <trkpt lat="48.58436" lon="-3.18647">
        <ele>210</ele>
        <time>2016-06-06T14:54:04.1Z</time>
      </trkpt>
      <trkpt lat="48.58434" lon="-3.18644">
        <ele>210</ele>
        <time>2016-06-06T14:54:07.1Z</time>
      </trkpt>
      <trkpt lat="48.58431" lon="-3.18642">
        <ele>210</ele>
        <time>2016-06-06T14:54:10.1Z</time>
      </trkpt>
      <trkpt lat="48.58429" lon="-3.1864">
        <ele>210</ele>
        <time>2016-06-06T14:54:12.1Z</time>
      </trkpt>
      <trkpt lat="48.58426" lon="-3.18638">
        <ele>210</ele>
        <time>2016-06-06T14:54:14.1Z</time>
      </trkpt>
      <trkpt lat="48.58422" lon="-3.18636">
        <ele>210</ele>
        <time>2016-06-06T14:54:17.1Z</time>
      </trkpt>
      <trkpt lat="48.58418" lon="-3.18632">
        <ele>210</ele>
        <time>2016-06-06T14:54:20.1Z</time>
      </trkpt>
      <trkpt lat="48.58416" lon="-3.18631">
        <ele>209</ele>
        <time>2016-06-06T14:54:22.1Z</time>
      </trkpt>
      <trkpt lat="48.58412" lon="-3.18629">
        <ele>209</ele>
        <time>2016-06-06T14:54:25.1Z</time>
      </trkpt>
      <trkpt lat="48.5841" lon="-3.18626">
        <ele>209</ele>
        <time>2016-06-06T14:54:27.1Z</time>
      </trkpt>
      <trkpt lat="48.58408" lon="-3.18623">
        <ele>209</ele>
        <time>2016-06-06T14:54:29.1Z</time>
      </trkpt>
      <trkpt lat="48.58404" lon="-3.1862">
        <ele>209</ele>
        <time>2016-06-06T14:54:32.1Z</time>
      </trkpt>
      <trkpt lat="48.58401" lon="-3.18617">
        <ele>209</ele>
        <time>2016-06-06T14:54:35.1Z</time>
      </trkpt>
      <trkpt lat="48.58399" lon="-3.18615">
        <ele>209</ele>
        <time>2016-06-06T14:54:37.1Z</time>
      </trkpt>
      <trkpt lat="48.58395" lon="-3.18612">
        <ele>209</ele>
        <time>2016-06-06T14:54:40.1Z</time>
      </trkpt>
      <trkpt lat="48.58393" lon="-3.1861">
        <ele>209</ele>
        <time>2016-06-06T14:54:42.1Z</time>
      </trkpt>
      <trkpt lat="48.58391" lon="-3.18608">
        <ele>209</ele>
        <time>2016-06-06T14:54:44.1Z</time>
      </trkpt>
      <trkpt lat="48.58387" lon="-3.18605">
        <ele>209</ele>
        <time>2016-06-06T14:54:47.1Z</time>
      </trkpt>
      <trkpt lat="48.58384" lon="-3.18602">
        <ele>209</ele>
        <time>2016-06-06T14:54:50.1Z</time>
      </trkpt>
      <trkpt lat="48.5838" lon="-3.18599">
        <ele>209</ele>
        <time>2016-06-06T14:54:53.1Z</time>
      </trkpt>
      <trkpt lat="48.58378" lon="-3.18598">
        <ele>209</ele>
        <time>2016-06-06T14:54:55.1Z</time>
      </trkpt>
      <trkpt lat="48.58375" lon="-3.18596">
        <ele>209</ele>
        <time>2016-06-06T14:54:58.1Z</time>
      </trkpt>
      <trkpt lat="48.58372" lon="-3.18594">
        <ele>209</ele>
        <time>2016-06-06T14:55:01.1Z</time>
      </trkpt>
      <trkpt lat="48.5837" lon="-3.18593">
        <ele>209</ele>
        <time>2016-06-06T14:55:03.1Z</time>
      </trkpt>
      <trkpt lat="48.58367" lon="-3.1859">
        <ele>209</ele>
        <time>2016-06-06T14:55:06.1Z</time>
      </trkpt>
      <trkpt lat="48.58363" lon="-3.18587">
        <ele>209</ele>
        <time>2016-06-06T14:55:09.1Z</time>
      </trkpt>
      <trkpt lat="48.58361" lon="-3.18585">
        <ele>209</ele>
        <time>2016-06-06T14:55:11.1Z</time>
      </trkpt>
      <trkpt lat="48.58358" lon="-3.18583">
        <ele>209</ele>
        <time>2016-06-06T14:55:14.1Z</time>
      </trkpt>
      <trkpt lat="48.58355" lon="-3.18581">
        <ele>209</ele>
        <time>2016-06-06T14:55:16.1Z</time>
      </trkpt>
      <trkpt lat="48.58353" lon="-3.18579">
        <ele>209</ele>
        <time>2016-06-06T14:55:18.1Z</time>
      </trkpt>
      <trkpt lat="48.5835" lon="-3.18576">
        <ele>209</ele>
        <time>2016-06-06T14:55:21.1Z</time>
      </trkpt>
      <trkpt lat="48.58348" lon="-3.18575">
        <ele>209</ele>
        <time>2016-06-06T14:55:23.1Z</time>
      </trkpt>
      <trkpt lat="48.58345" lon="-3.18572">
        <ele>209</ele>
        <time>2016-06-06T14:55:26.1Z</time>
      </trkpt>
      <trkpt lat="48.58342" lon="-3.1857">
        <ele>209</ele>
        <time>2016-06-06T14:55:28.1Z</time>
      </trkpt>
      <trkpt lat="48.58339" lon="-3.18567">
        <ele>209</ele>
        <time>2016-06-06T14:55:31.1Z</time>
      </trkpt>
      <trkpt lat="48.58335" lon="-3.18565">
        <ele>208</ele>
        <time>2016-06-06T14:55:34.1Z</time>
      </trkpt>
      <trkpt lat="48.58332" lon="-3.18561">
        <ele>208</ele>
        <time>2016-06-06T14:55:37.1Z</time>
      </trkpt>
      <trkpt lat="48.58329" lon="-3.18558">
        <ele>208</ele>
        <time>2016-06-06T14:55:40.1Z</time>
      </trkpt>
      <trkpt lat="48.58326" lon="-3.18555">
        <ele>208</ele>
        <time>2016-06-06T14:55:43.1Z</time>
      </trkpt>
      <trkpt lat="48.58324" lon="-3.18554">
        <ele>209</ele>
        <time>2016-06-06T14:55:45.1Z</time>
      </trkpt>
      <trkpt lat="48.58321" lon="-3.18552">
        <ele>209</ele>
        <time>2016-06-06T14:55:48.1Z</time>
      </trkpt>
      <trkpt lat="48.58318" lon="-3.18549">
        <ele>209</ele>
        <time>2016-06-06T14:55:51.1Z</time>
      </trkpt>
      <trkpt lat="48.58315" lon="-3.18546">
        <ele>209</ele>
        <time>2016-06-06T14:55:54.1Z</time>
      </trkpt>
      <trkpt lat="48.58311" lon="-3.18543">
        <ele>209</ele>
        <time>2016-06-06T14:55:57.1Z</time>
      </trkpt>
      <trkpt lat="48.58307" lon="-3.1854">
        <ele>209</ele>
        <time>2016-06-06T14:56:00.1Z</time>
      </trkpt>
      <trkpt lat="48.58303" lon="-3.18538">
        <ele>209</ele>
        <time>2016-06-06T14:56:03.1Z</time>
      </trkpt>
      <trkpt lat="48.58301" lon="-3.18537">
        <ele>209</ele>
        <time>2016-06-06T14:56:05.1Z</time>
      </trkpt>
      <trkpt lat="48.58297" lon="-3.18535">
        <ele>209</ele>
        <time>2016-06-06T14:56:08.1Z</time>
      </trkpt>
      <trkpt lat="48.58295" lon="-3.18533">
        <ele>209</ele>
        <time>2016-06-06T14:56:10.1Z</time>
      </trkpt>
      <trkpt lat="48.58292" lon="-3.18531">
        <ele>209</ele>
        <time>2016-06-06T14:56:13.1Z</time>
      </trkpt>
      <trkpt lat="48.58289" lon="-3.18529">
        <ele>209</ele>
        <time>2016-06-06T14:56:16.1Z</time>
      </trkpt>
      <trkpt lat="48.58287" lon="-3.18528">
        <ele>209</ele>
        <time>2016-06-06T14:56:18.1Z</time>
      </trkpt>
      <trkpt lat="48.58284" lon="-3.18526">
        <ele>209</ele>
        <time>2016-06-06T14:56:21.1Z</time>
      </trkpt>
      <trkpt lat="48.58282" lon="-3.18525">
        <ele>209</ele>
        <time>2016-06-06T14:56:23.1Z</time>
      </trkpt>
      <trkpt lat="48.58279" lon="-3.18522">
        <ele>209</ele>
        <time>2016-06-06T14:56:26.1Z</time>
      </trkpt>
      <trkpt lat="48.58276" lon="-3.1852">
        <ele>209</ele>
        <time>2016-06-06T14:56:28.1Z</time>
      </trkpt>
      <trkpt lat="48.58273" lon="-3.18519">
        <ele>209</ele>
        <time>2016-06-06T14:56:31.1Z</time>
      </trkpt>
      <trkpt lat="48.5827" lon="-3.18518">
        <ele>209</ele>
        <time>2016-06-06T14:56:33.1Z</time>
      </trkpt>
      <trkpt lat="48.58266" lon="-3.18517">
        <ele>210</ele>
        <time>2016-06-06T14:56:36.1Z</time>
      </trkpt>
      <trkpt lat="48.58264" lon="-3.18517">
        <ele>210</ele>
        <time>2016-06-06T14:56:38.1Z</time>
      </trkpt>
      <trkpt lat="48.58261" lon="-3.18516">
        <ele>210</ele>
        <time>2016-06-06T14:56:40.1Z</time>
      </trkpt>
      <trkpt lat="48.58259" lon="-3.18516">
        <ele>209</ele>
        <time>2016-06-06T14:56:42.1Z</time>
      </trkpt>
      <trkpt lat="48.58255" lon="-3.18515">
        <ele>209</ele>
        <time>2016-06-06T14:56:45.1Z</time>
      </trkpt>
      <trkpt lat="48.58252" lon="-3.18515">
        <ele>209</ele>
        <time>2016-06-06T14:56:47.1Z</time>
      </trkpt>
      <trkpt lat="48.58248" lon="-3.18514">
        <ele>209</ele>
        <time>2016-06-06T14:56:50.1Z</time>
      </trkpt>
      <trkpt lat="48.58244" lon="-3.18514">
        <ele>209</ele>
        <time>2016-06-06T14:56:53.1Z</time>
      </trkpt>
      <trkpt lat="48.58242" lon="-3.18513">
        <ele>208</ele>
        <time>2016-06-06T14:56:55.1Z</time>
      </trkpt>
      <trkpt lat="48.58239" lon="-3.18513">
        <ele>208</ele>
        <time>2016-06-06T14:56:57.1Z</time>
      </trkpt>
      <trkpt lat="48.58236" lon="-3.18512">
        <ele>208</ele>
        <time>2016-06-06T14:56:59.1Z</time>
      </trkpt>
      <trkpt lat="48.58232" lon="-3.18512">
        <ele>208</ele>
        <time>2016-06-06T14:57:02.1Z</time>
      </trkpt>
      <trkpt lat="48.5823" lon="-3.18512">
        <ele>209</ele>
        <time>2016-06-06T14:57:04.1Z</time>
      </trkpt>
      <trkpt lat="48.58226" lon="-3.1851">
        <ele>208</ele>
        <time>2016-06-06T14:57:07.1Z</time>
      </trkpt>
      <trkpt lat="48.58223" lon="-3.18509">
        <ele>208</ele>
        <time>2016-06-06T14:57:09.1Z</time>
      </trkpt>
      <trkpt lat="48.5822" lon="-3.18507">
        <ele>208</ele>
        <time>2016-06-06T14:57:12.1Z</time>
      </trkpt>
      <trkpt lat="48.58217" lon="-3.18507">
        <ele>208</ele>
        <time>2016-06-06T14:57:14.1Z</time>
      </trkpt>
      <trkpt lat="48.58213" lon="-3.18506">
        <ele>208</ele>
        <time>2016-06-06T14:57:17.1Z</time>
      </trkpt>
      <trkpt lat="48.5821" lon="-3.18506">
        <ele>208</ele>
        <time>2016-06-06T14:57:19.1Z</time>
      </trkpt>
      <trkpt lat="48.58208" lon="-3.18506">
        <ele>208</ele>
        <time>2016-06-06T14:57:21.1Z</time>
      </trkpt>
      <trkpt lat="48.58205" lon="-3.18505">
        <ele>208</ele>
        <time>2016-06-06T14:57:23.1Z</time>
      </trkpt>
      <trkpt lat="48.582" lon="-3.18505">
        <ele>208</ele>
        <time>2016-06-06T14:57:26.1Z</time>
      </trkpt>
      <trkpt lat="48.58197" lon="-3.18504">
        <ele>208</ele>
        <time>2016-06-06T14:57:28.1Z</time>
      </trkpt>
      <trkpt lat="48.58194" lon="-3.18504">
        <ele>208</ele>
        <time>2016-06-06T14:57:30.1Z</time>
      </trkpt>
      <trkpt lat="48.58191" lon="-3.18504">
        <ele>208</ele>
        <time>2016-06-06T14:57:33.1Z</time>
      </trkpt>
      <trkpt lat="48.58188" lon="-3.18505">
        <ele>208</ele>
        <time>2016-06-06T14:57:35.1Z</time>
      </trkpt>
      <trkpt lat="48.58186" lon="-3.18505">
        <ele>208</ele>
        <time>2016-06-06T14:57:37.1Z</time>
      </trkpt>
      <trkpt lat="48.58182" lon="-3.18504">
        <ele>208</ele>
        <time>2016-06-06T14:57:40.1Z</time>
      </trkpt>
      <trkpt lat="48.58179" lon="-3.18505">
        <ele>208</ele>
        <time>2016-06-06T14:57:42.1Z</time>
      </trkpt>
      <trkpt lat="48.58176" lon="-3.18505">
        <ele>208</ele>
        <time>2016-06-06T14:57:45.1Z</time>
      </trkpt>
      <trkpt lat="48.58174" lon="-3.18506">
        <ele>208</ele>
        <time>2016-06-06T14:57:47.1Z</time>
      </trkpt>
      <trkpt lat="48.58171" lon="-3.18506">
        <ele>207</ele>
        <time>2016-06-06T14:57:49.1Z</time>
      </trkpt>
      <trkpt lat="48.58167" lon="-3.18505">
        <ele>207</ele>
        <time>2016-06-06T14:57:52.1Z</time>
      </trkpt>
      <trkpt lat="48.58164" lon="-3.18503">
        <ele>207</ele>
        <time>2016-06-06T14:57:55.1Z</time>
      </trkpt>
      <trkpt lat="48.58161" lon="-3.18502">
        <ele>208</ele>
        <time>2016-06-06T14:57:57.1Z</time>
      </trkpt>
      <trkpt lat="48.58157" lon="-3.18501">
        <ele>208</ele>
        <time>2016-06-06T14:58:00.1Z</time>
      </trkpt>
      <trkpt lat="48.58154" lon="-3.18501">
        <ele>207</ele>
        <time>2016-06-06T14:58:03.1Z</time>
      </trkpt>
      <trkpt lat="48.58151" lon="-3.18501">
        <ele>207</ele>
        <time>2016-06-06T14:58:06.1Z</time>
      </trkpt>
      <trkpt lat="48.58149" lon="-3.185">
        <ele>207</ele>
        <time>2016-06-06T14:58:08.1Z</time>
      </trkpt>
      <trkpt lat="48.58145" lon="-3.185">
        <ele>207</ele>
        <time>2016-06-06T14:58:11.1Z</time>
      </trkpt>
      <trkpt lat="48.58144" lon="-3.18498">
        <ele>207</ele>
        <time>2016-06-06T14:58:13.1Z</time>
      </trkpt>
      <trkpt lat="48.5814" lon="-3.18498">
        <ele>207</ele>
        <time>2016-06-06T14:58:16.1Z</time>
      </trkpt>
      <trkpt lat="48.58138" lon="-3.18497">
        <ele>207</ele>
        <time>2016-06-06T14:58:18.1Z</time>
      </trkpt>
      <trkpt lat="48.58135" lon="-3.18496">
        <ele>207</ele>
        <time>2016-06-06T14:58:20.1Z</time>
      </trkpt>
      <trkpt lat="48.58133" lon="-3.18496">
        <ele>207</ele>
        <time>2016-06-06T14:58:22.1Z</time>
      </trkpt>
      <trkpt lat="48.58129" lon="-3.18495">
        <ele>207</ele>
        <time>2016-06-06T14:58:25.1Z</time>
      </trkpt>
      <trkpt lat="48.58126" lon="-3.18494">
        <ele>207</ele>
        <time>2016-06-06T14:58:27.1Z</time>
      </trkpt>
      <trkpt lat="48.58122" lon="-3.18493">
        <ele>207</ele>
        <time>2016-06-06T14:58:30.1Z</time>
      </trkpt>
      <trkpt lat="48.58119" lon="-3.18493">
        <ele>206</ele>
        <time>2016-06-06T14:58:32.1Z</time>
      </trkpt>
      <trkpt lat="48.58117" lon="-3.18492">
        <ele>206</ele>
        <time>2016-06-06T14:58:34.1Z</time>
      </trkpt>
      <trkpt lat="48.58114" lon="-3.18491">
        <ele>206</ele>
        <time>2016-06-06T14:58:36.1Z</time>
      </trkpt>
      <trkpt lat="48.58111" lon="-3.1849">
        <ele>206</ele>
        <time>2016-06-06T14:58:39.1Z</time>
      </trkpt>
      <trkpt lat="48.58107" lon="-3.18489">
        <ele>206</ele>
        <time>2016-06-06T14:58:42.1Z</time>
      </trkpt>
      <trkpt lat="48.58103" lon="-3.18487">
        <ele>206</ele>
        <time>2016-06-06T14:58:45.1Z</time>
      </trkpt>
      <trkpt lat="48.58099" lon="-3.18486">
        <ele>206</ele>
        <time>2016-06-06T14:58:48.1Z</time>
      </trkpt>
      <trkpt lat="48.58097" lon="-3.18485">
        <ele>207</ele>
        <time>2016-06-06T14:58:50.1Z</time>
      </trkpt>
      <trkpt lat="48.58093" lon="-3.18484">
        <ele>207</ele>
        <time>2016-06-06T14:58:53.1Z</time>
      </trkpt>
      <trkpt lat="48.5809" lon="-3.18483">
        <ele>207</ele>
        <time>2016-06-06T14:58:55.1Z</time>
      </trkpt>
      <trkpt lat="48.58086" lon="-3.18482">
        <ele>207</ele>
        <time>2016-06-06T14:58:58.1Z</time>
      </trkpt>
      <trkpt lat="48.58084" lon="-3.18482">
        <ele>206</ele>
        <time>2016-06-06T14:59:00.1Z</time>
      </trkpt>
      <trkpt lat="48.58081" lon="-3.18482">
        <ele>206</ele>
        <time>2016-06-06T14:59:02.1Z</time>
      </trkpt>
      <trkpt lat="48.58078" lon="-3.18482">
        <ele>206</ele>
        <time>2016-06-06T14:59:04.1Z</time>
      </trkpt>
      <trkpt lat="48.58075" lon="-3.18482">
        <ele>207</ele>
        <time>2016-06-06T14:59:07.1Z</time>
      </trkpt>
      <trkpt lat="48.58072" lon="-3.18482">
        <ele>207</ele>
        <time>2016-06-06T14:59:09.1Z</time>
      </trkpt>
      <trkpt lat="48.58069" lon="-3.18482">
        <ele>207</ele>
        <time>2016-06-06T14:59:11.1Z</time>
      </trkpt>
      <trkpt lat="48.58066" lon="-3.18482">
        <ele>207</ele>
        <time>2016-06-06T14:59:14.1Z</time>
      </trkpt>
      <trkpt lat="48.58062" lon="-3.18481">
        <ele>207</ele>
        <time>2016-06-06T14:59:17.1Z</time>
      </trkpt>
      <trkpt lat="48.58059" lon="-3.18481">
        <ele>207</ele>
        <time>2016-06-06T14:59:19.1Z</time>
      </trkpt>
      <trkpt lat="48.58057" lon="-3.18481">
        <ele>207</ele>
        <time>2016-06-06T14:59:21.1Z</time>
      </trkpt>
      <trkpt lat="48.58054" lon="-3.1848">
        <ele>207</ele>
        <time>2016-06-06T14:59:23.1Z</time>
      </trkpt>
      <trkpt lat="48.58052" lon="-3.1848">
        <ele>207</ele>
        <time>2016-06-06T14:59:25.1Z</time>
      </trkpt>
      <trkpt lat="48.58049" lon="-3.1848">
        <ele>207</ele>
        <time>2016-06-06T14:59:27.1Z</time>
      </trkpt>
      <trkpt lat="48.58045" lon="-3.1848">
        <ele>207</ele>
        <time>2016-06-06T14:59:30.1Z</time>
      </trkpt>
      <trkpt lat="48.58043" lon="-3.1848">
        <ele>207</ele>
        <time>2016-06-06T14:59:32.1Z</time>
      </trkpt>
      <trkpt lat="48.58039" lon="-3.18479">
        <ele>207</ele>
        <time>2016-06-06T14:59:35.1Z</time>
      </trkpt>
      <trkpt lat="48.58036" lon="-3.18479">
        <ele>207</ele>
        <time>2016-06-06T14:59:37.1Z</time>
      </trkpt>
      <trkpt lat="48.58034" lon="-3.18479">
        <ele>207</ele>
        <time>2016-06-06T14:59:39.1Z</time>
      </trkpt>
      <trkpt lat="48.58031" lon="-3.18479">
        <ele>207</ele>
        <time>2016-06-06T14:59:41.1Z</time>
      </trkpt>
      <trkpt lat="48.58029" lon="-3.18479">
        <ele>207</ele>
        <time>2016-06-06T14:59:43.1Z</time>
      </trkpt>
      <trkpt lat="48.58025" lon="-3.18479">
        <ele>207</ele>
        <time>2016-06-06T14:59:46.1Z</time>
      </trkpt>
      <trkpt lat="48.58022" lon="-3.18478">
        <ele>207</ele>
        <time>2016-06-06T14:59:49.1Z</time>
      </trkpt>
      <trkpt lat="48.58019" lon="-3.18479">
        <ele>207</ele>
        <time>2016-06-06T14:59:51.1Z</time>
      </trkpt>
      <trkpt lat="48.58017" lon="-3.18479">
        <ele>207</ele>
        <time>2016-06-06T14:59:53.1Z</time>
      </trkpt>
      <trkpt lat="48.58014" lon="-3.1848">
        <ele>207</ele>
        <time>2016-06-06T14:59:55.1Z</time>
      </trkpt>
      <trkpt lat="48.5801" lon="-3.18481">
        <ele>207</ele>
        <time>2016-06-06T14:59:58.1Z</time>
      </trkpt>
      <trkpt lat="48.58008" lon="-3.18481">
        <ele>207</ele>
        <time>2016-06-06T15:00:00.1Z</time>
      </trkpt>
      <trkpt lat="48.58004" lon="-3.18481">
        <ele>207</ele>
        <time>2016-06-06T15:00:03.1Z</time>
      </trkpt>
      <trkpt lat="48.58002" lon="-3.18481">
        <ele>207</ele>
        <time>2016-06-06T15:00:05.1Z</time>
      </trkpt>
      <trkpt lat="48.57999" lon="-3.18481">
        <ele>207</ele>
        <time>2016-06-06T15:00:07.1Z</time>
      </trkpt>
      <trkpt lat="48.57996" lon="-3.1848">
        <ele>207</ele>
        <time>2016-06-06T15:00:09.1Z</time>
      </trkpt>
      <trkpt lat="48.57992" lon="-3.18479">
        <ele>207</ele>
        <time>2016-06-06T15:00:12.1Z</time>
      </trkpt>
      <trkpt lat="48.57989" lon="-3.18478">
        <ele>208</ele>
        <time>2016-06-06T15:00:14.1Z</time>
      </trkpt>
      <trkpt lat="48.57985" lon="-3.18477">
        <ele>208</ele>
        <time>2016-06-06T15:00:17.1Z</time>
      </trkpt>
      <trkpt lat="48.57982" lon="-3.18475">
        <ele>208</ele>
        <time>2016-06-06T15:00:20.1Z</time>
      </trkpt>
      <trkpt lat="48.57978" lon="-3.18472">
        <ele>208</ele>
        <time>2016-06-06T15:00:23.1Z</time>
      </trkpt>
      <trkpt lat="48.57977" lon="-3.18471">
        <ele>208</ele>
        <time>2016-06-06T15:00:25.1Z</time>
      </trkpt>
      <trkpt lat="48.57975" lon="-3.18469">
        <ele>207</ele>
        <time>2016-06-06T15:00:27.1Z</time>
      </trkpt>
      <trkpt lat="48.57971" lon="-3.18466">
        <ele>207</ele>
        <time>2016-06-06T15:00:30.1Z</time>
      </trkpt>
      <trkpt lat="48.57968" lon="-3.18463">
        <ele>207</ele>
        <time>2016-06-06T15:00:33.1Z</time>
      </trkpt>
      <trkpt lat="48.57966" lon="-3.18461">
        <ele>207</ele>
        <time>2016-06-06T15:00:35.1Z</time>
      </trkpt>
      <trkpt lat="48.57964" lon="-3.18459">
        <ele>207</ele>
        <time>2016-06-06T15:00:37.1Z</time>
      </trkpt>
      <trkpt lat="48.57961" lon="-3.18459">
        <ele>207</ele>
        <time>2016-06-06T15:00:39.1Z</time>
      </trkpt>
      <trkpt lat="48.57957" lon="-3.18456">
        <ele>207</ele>
        <time>2016-06-06T15:00:42.1Z</time>
      </trkpt>
      <trkpt lat="48.57955" lon="-3.18454">
        <ele>207</ele>
        <time>2016-06-06T15:00:44.1Z</time>
      </trkpt>
      <trkpt lat="48.57951" lon="-3.18451">
        <ele>207</ele>
        <time>2016-06-06T15:00:47.1Z</time>
      </trkpt>
      <trkpt lat="48.57949" lon="-3.18449">
        <ele>207</ele>
        <time>2016-06-06T15:00:49.1Z</time>
      </trkpt>
      <trkpt lat="48.57946" lon="-3.18447">
        <ele>207</ele>
        <time>2016-06-06T15:00:52.1Z</time>
      </trkpt>
      <trkpt lat="48.57944" lon="-3.18446">
        <ele>207</ele>
        <time>2016-06-06T15:00:54.1Z</time>
      </trkpt>
      <trkpt lat="48.57942" lon="-3.18444">
        <ele>206</ele>
        <time>2016-06-06T15:00:56.1Z</time>
      </trkpt>
      <trkpt lat="48.57939" lon="-3.18442">
        <ele>206</ele>
        <time>2016-06-06T15:00:59.1Z</time>
      </trkpt>
      <trkpt lat="48.57935" lon="-3.18439">
        <ele>205</ele>
        <time>2016-06-06T15:01:02.1Z</time>
      </trkpt>
      <trkpt lat="48.57933" lon="-3.18438">
        <ele>205</ele>
        <time>2016-06-06T15:01:04.1Z</time>
      </trkpt>
      <trkpt lat="48.5793" lon="-3.18435">
        <ele>205</ele>
        <time>2016-06-06T15:01:07.1Z</time>
      </trkpt>
      <trkpt lat="48.57926" lon="-3.18432">
        <ele>205</ele>
        <time>2016-06-06T15:01:10.1Z</time>
      </trkpt>
      <trkpt lat="48.57924" lon="-3.1843">
        <ele>205</ele>
        <time>2016-06-06T15:01:12.1Z</time>
      </trkpt>
      <trkpt lat="48.57921" lon="-3.18426">
        <ele>205</ele>
        <time>2016-06-06T15:01:15.1Z</time>
      </trkpt>
      <trkpt lat="48.57917" lon="-3.18424">
        <ele>204</ele>
        <time>2016-06-06T15:01:18.1Z</time>
      </trkpt>
      <trkpt lat="48.57915" lon="-3.18422">
        <ele>204</ele>
        <time>2016-06-06T15:01:20.1Z</time>
      </trkpt>
      <trkpt lat="48.57912" lon="-3.18421">
        <ele>204</ele>
        <time>2016-06-06T15:01:22.1Z</time>
      </trkpt>
      <trkpt lat="48.5791" lon="-3.18419">
        <ele>203</ele>
        <time>2016-06-06T15:01:24.1Z</time>
      </trkpt>
      <trkpt lat="48.57907" lon="-3.18417">
        <ele>203</ele>
        <time>2016-06-06T15:01:27.1Z</time>
      </trkpt>
      <trkpt lat="48.57904" lon="-3.18415">
        <ele>203</ele>
        <time>2016-06-06T15:01:30.1Z</time>
      </trkpt>
      <trkpt lat="48.579" lon="-3.18412">
        <ele>203</ele>
        <time>2016-06-06T15:01:33.1Z</time>
      </trkpt>
      <trkpt lat="48.57898" lon="-3.18411">
        <ele>203</ele>
        <time>2016-06-06T15:01:35.1Z</time>
      </trkpt>
      <trkpt lat="48.57895" lon="-3.18409">
        <ele>203</ele>
        <time>2016-06-06T15:01:38.1Z</time>
      </trkpt>
      <trkpt lat="48.57893" lon="-3.18407">
        <ele>203</ele>
        <time>2016-06-06T15:01:40.1Z</time>
      </trkpt>
      <trkpt lat="48.5789" lon="-3.18405">
        <ele>202</ele>
        <time>2016-06-06T15:01:42.1Z</time>
      </trkpt>
      <trkpt lat="48.57888" lon="-3.18403">
        <ele>202</ele>
        <time>2016-06-06T15:01:44.1Z</time>
      </trkpt>
      <trkpt lat="48.57885" lon="-3.184">
        <ele>202</ele>
        <time>2016-06-06T15:01:47.1Z</time>
      </trkpt>
      <trkpt lat="48.57881" lon="-3.18397">
        <ele>202</ele>
        <time>2016-06-06T15:01:50.1Z</time>
      </trkpt>
      <trkpt lat="48.57879" lon="-3.18395">
        <ele>202</ele>
        <time>2016-06-06T15:01:52.1Z</time>
      </trkpt>
      <trkpt lat="48.57876" lon="-3.18394">
        <ele>201</ele>
        <time>2016-06-06T15:01:54.1Z</time>
      </trkpt>
      <trkpt lat="48.57874" lon="-3.18393">
        <ele>201</ele>
        <time>2016-06-06T15:01:56.1Z</time>
      </trkpt>
      <trkpt lat="48.5787" lon="-3.18395">
        <ele>201</ele>
        <time>2016-06-06T15:01:59.1Z</time>
      </trkpt>
      <trkpt lat="48.57869" lon="-3.18397">
        <ele>201</ele>
        <time>2016-06-06T15:02:01.1Z</time>
      </trkpt>
      <trkpt lat="48.57867" lon="-3.184">
        <ele>201</ele>
        <time>2016-06-06T15:02:03.1Z</time>
      </trkpt>
      <trkpt lat="48.57864" lon="-3.18403">
        <ele>201</ele>
        <time>2016-06-06T15:02:06.1Z</time>
      </trkpt>
      <trkpt lat="48.57861" lon="-3.18406">
        <ele>200</ele>
        <time>2016-06-06T15:02:09.1Z</time>
      </trkpt>
      <trkpt lat="48.57859" lon="-3.18408">
        <ele>200</ele>
        <time>2016-06-06T15:02:11.1Z</time>
      </trkpt>
      <trkpt lat="48.57856" lon="-3.18409">
        <ele>200</ele>
        <time>2016-06-06T15:02:14.1Z</time>
      </trkpt>
      <trkpt lat="48.57854" lon="-3.18412">
        <ele>200</ele>
        <time>2016-06-06T15:02:17.1Z</time>
      </trkpt>
      <trkpt lat="48.57853" lon="-3.18415">
        <ele>200</ele>
        <time>2016-06-06T15:02:20.1Z</time>
      </trkpt>
      <trkpt lat="48.57851" lon="-3.18419">
        <ele>201</ele>
        <time>2016-06-06T15:02:23.1Z</time>
      </trkpt>
      <trkpt lat="48.5785" lon="-3.18421">
        <ele>200</ele>
        <time>2016-06-06T15:02:25.1Z</time>
      </trkpt>
      <trkpt lat="48.57849" lon="-3.18425">
        <ele>200</ele>
        <time>2016-06-06T15:02:28.1Z</time>
      </trkpt>
      <trkpt lat="48.57848" lon="-3.1843">
        <ele>200</ele>
        <time>2016-06-06T15:02:30.1Z</time>
      </trkpt>
      <trkpt lat="48.57846" lon="-3.18436">
        <ele>200</ele>
        <time>2016-06-06T15:02:33.1Z</time>
      </trkpt>
      <trkpt lat="48.57844" lon="-3.18439">
        <ele>200</ele>
        <time>2016-06-06T15:02:35.1Z</time>
      </trkpt>
      <trkpt lat="48.57842" lon="-3.18444">
        <ele>199</ele>
        <time>2016-06-06T15:02:38.1Z</time>
      </trkpt>
      <trkpt lat="48.5784" lon="-3.18449">
        <ele>199</ele>
        <time>2016-06-06T15:02:41.1Z</time>
      </trkpt>
      <trkpt lat="48.57839" lon="-3.18453">
        <ele>199</ele>
        <time>2016-06-06T15:02:43.1Z</time>
      </trkpt>
      <trkpt lat="48.57838" lon="-3.18456">
        <ele>199</ele>
        <time>2016-06-06T15:02:45.1Z</time>
      </trkpt>
      <trkpt lat="48.57838" lon="-3.18462">
        <ele>199</ele>
        <time>2016-06-06T15:02:48.1Z</time>
      </trkpt>
      <trkpt lat="48.57837" lon="-3.18468">
        <ele>199</ele>
        <time>2016-06-06T15:02:51.1Z</time>
      </trkpt>
      <trkpt lat="48.57836" lon="-3.18474">
        <ele>198</ele>
        <time>2016-06-06T15:02:54.1Z</time>
      </trkpt>
      <trkpt lat="48.57835" lon="-3.18477">
        <ele>198</ele>
        <time>2016-06-06T15:02:56.1Z</time>
      </trkpt>
      <trkpt lat="48.57834" lon="-3.18482">
        <ele>198</ele>
        <time>2016-06-06T15:02:59.1Z</time>
      </trkpt>
      <trkpt lat="48.57833" lon="-3.18485">
        <ele>199</ele>
        <time>2016-06-06T15:03:01.1Z</time>
      </trkpt>
      <trkpt lat="48.57831" lon="-3.1849">
        <ele>198</ele>
        <time>2016-06-06T15:03:04.1Z</time>
      </trkpt>
      <trkpt lat="48.57829" lon="-3.18495">
        <ele>198</ele>
        <time>2016-06-06T15:03:07.1Z</time>
      </trkpt>
      <trkpt lat="48.57828" lon="-3.18498">
        <ele>198</ele>
        <time>2016-06-06T15:03:09.1Z</time>
      </trkpt>
      <trkpt lat="48.57827" lon="-3.18501">
        <ele>198</ele>
        <time>2016-06-06T15:03:11.1Z</time>
      </trkpt>
      <trkpt lat="48.57824" lon="-3.18506">
        <ele>198</ele>
        <time>2016-06-06T15:03:14.1Z</time>
      </trkpt>
      <trkpt lat="48.57823" lon="-3.18508">
        <ele>198</ele>
        <time>2016-06-06T15:03:16.1Z</time>
      </trkpt>
      <trkpt lat="48.57821" lon="-3.18511">
        <ele>198</ele>
        <time>2016-06-06T15:03:18.1Z</time>
      </trkpt>
      <trkpt lat="48.57819" lon="-3.18516">
        <ele>197</ele>
        <time>2016-06-06T15:03:21.1Z</time>
      </trkpt>
      <trkpt lat="48.57817" lon="-3.18518">
        <ele>197</ele>
        <time>2016-06-06T15:03:23.1Z</time>
      </trkpt>
      <trkpt lat="48.57814" lon="-3.18522">
        <ele>197</ele>
        <time>2016-06-06T15:03:26.1Z</time>
      </trkpt>
      <trkpt lat="48.57813" lon="-3.18525">
        <ele>197</ele>
        <time>2016-06-06T15:03:28.1Z</time>
      </trkpt>
      <trkpt lat="48.5781" lon="-3.18528">
        <ele>196</ele>
        <time>2016-06-06T15:03:31.1Z</time>
      </trkpt>
      <trkpt lat="48.57808" lon="-3.1853">
        <ele>197</ele>
        <time>2016-06-06T15:03:33.1Z</time>
      </trkpt>
      <trkpt lat="48.57806" lon="-3.18532">
        <ele>196</ele>
        <time>2016-06-06T15:03:35.1Z</time>
      </trkpt>
      <trkpt lat="48.57803" lon="-3.18535">
        <ele>196</ele>
        <time>2016-06-06T15:03:38.1Z</time>
      </trkpt>
      <trkpt lat="48.578" lon="-3.18538">
        <ele>196</ele>
        <time>2016-06-06T15:03:41.1Z</time>
      </trkpt>
      <trkpt lat="48.57797" lon="-3.1854">
        <ele>195</ele>
        <time>2016-06-06T15:03:44.1Z</time>
      </trkpt>
      <trkpt lat="48.57795" lon="-3.18542">
        <ele>195</ele>
        <time>2016-06-06T15:03:46.1Z</time>
      </trkpt>
      <trkpt lat="48.57793" lon="-3.18543">
        <ele>195</ele>
        <time>2016-06-06T15:03:48.1Z</time>
      </trkpt>
      <trkpt lat="48.5779" lon="-3.18545">
        <ele>195</ele>
        <time>2016-06-06T15:03:50.1Z</time>
      </trkpt>
      <trkpt lat="48.57788" lon="-3.18546">
        <ele>195</ele>
        <time>2016-06-06T15:03:52.1Z</time>
      </trkpt>
      <trkpt lat="48.57785" lon="-3.18548">
        <ele>195</ele>
        <time>2016-06-06T15:03:55.1Z</time>
      </trkpt>
      <trkpt lat="48.57781" lon="-3.1855">
        <ele>194</ele>
        <time>2016-06-06T15:03:58.1Z</time>
      </trkpt>
      <trkpt lat="48.57779" lon="-3.1855">
        <ele>194</ele>
        <time>2016-06-06T15:04:00.1Z</time>
      </trkpt>
      <trkpt lat="48.57775" lon="-3.18552">
        <ele>194</ele>
        <time>2016-06-06T15:04:03.1Z</time>
      </trkpt>
      <trkpt lat="48.57772" lon="-3.18554">
        <ele>194</ele>
        <time>2016-06-06T15:04:06.1Z</time>
      </trkpt>
      <trkpt lat="48.57769" lon="-3.18555">
        <ele>194</ele>
        <time>2016-06-06T15:04:08.1Z</time>
      </trkpt>
      <trkpt lat="48.57767" lon="-3.18557">
        <ele>194</ele>
        <time>2016-06-06T15:04:10.1Z</time>
      </trkpt>
      <trkpt lat="48.57764" lon="-3.18558">
        <ele>194</ele>
        <time>2016-06-06T15:04:13.1Z</time>
      </trkpt>
      <trkpt lat="48.57762" lon="-3.1856">
        <ele>194</ele>
        <time>2016-06-06T15:04:15.1Z</time>
      </trkpt>
      <trkpt lat="48.5776" lon="-3.18561">
        <ele>194</ele>
        <time>2016-06-06T15:04:17.1Z</time>
      </trkpt>
      <trkpt lat="48.57756" lon="-3.18563">
        <ele>194</ele>
        <time>2016-06-06T15:04:20.1Z</time>
      </trkpt>
      <trkpt lat="48.57753" lon="-3.18564">
        <ele>194</ele>
        <time>2016-06-06T15:04:23.1Z</time>
      </trkpt>
      <trkpt lat="48.57751" lon="-3.18565">
        <ele>195</ele>
        <time>2016-06-06T15:04:25.1Z</time>
      </trkpt>
      <trkpt lat="48.57748" lon="-3.18566">
        <ele>194</ele>
        <time>2016-06-06T15:04:28.1Z</time>
      </trkpt>
      <trkpt lat="48.57745" lon="-3.18567">
        <ele>194</ele>
        <time>2016-06-06T15:04:30.1Z</time>
      </trkpt>
      <trkpt lat="48.57742" lon="-3.18568">
        <ele>194</ele>
        <time>2016-06-06T15:04:33.1Z</time>
      </trkpt>
      <trkpt lat="48.57738" lon="-3.18569">
        <ele>195</ele>
        <time>2016-06-06T15:04:36.1Z</time>
      </trkpt>
      <trkpt lat="48.57737" lon="-3.1857">
        <ele>195</ele>
        <time>2016-06-06T15:04:38.1Z</time>
      </trkpt>
      <trkpt lat="48.57733" lon="-3.18571">
        <ele>195</ele>
        <time>2016-06-06T15:04:41.1Z</time>
      </trkpt>
      <trkpt lat="48.5773" lon="-3.18573">
        <ele>196</ele>
        <time>2016-06-06T15:04:44.1Z</time>
      </trkpt>
      <trkpt lat="48.57728" lon="-3.18574">
        <ele>196</ele>
        <time>2016-06-06T15:04:46.1Z</time>
      </trkpt>
      <trkpt lat="48.57726" lon="-3.18575">
        <ele>196</ele>
        <time>2016-06-06T15:04:48.1Z</time>
      </trkpt>
      <trkpt lat="48.57724" lon="-3.18575">
        <ele>196</ele>
        <time>2016-06-06T15:04:50.1Z</time>
      </trkpt>
      <trkpt lat="48.5772" lon="-3.18576">
        <ele>196</ele>
        <time>2016-06-06T15:04:53.1Z</time>
      </trkpt>
      <trkpt lat="48.57718" lon="-3.18575">
        <ele>196</ele>
        <time>2016-06-06T15:04:55.1Z</time>
      </trkpt>
      <trkpt lat="48.57714" lon="-3.18576">
        <ele>196</ele>
        <time>2016-06-06T15:04:58.1Z</time>
      </trkpt>
      <trkpt lat="48.57713" lon="-3.18577">
        <ele>196</ele>
        <time>2016-06-06T15:05:00.1Z</time>
      </trkpt>
      <trkpt lat="48.5771" lon="-3.18579">
        <ele>197</ele>
        <time>2016-06-06T15:05:03.1Z</time>
      </trkpt>
      <trkpt lat="48.57706" lon="-3.18581">
        <ele>197</ele>
        <time>2016-06-06T15:05:06.1Z</time>
      </trkpt>
      <trkpt lat="48.57703" lon="-3.18583">
        <ele>197</ele>
        <time>2016-06-06T15:05:08.1Z</time>
      </trkpt>
      <trkpt lat="48.57701" lon="-3.18584">
        <ele>197</ele>
        <time>2016-06-06T15:05:10.1Z</time>
      </trkpt>
      <trkpt lat="48.577" lon="-3.18585">
        <ele>197</ele>
        <time>2016-06-06T15:05:12.1Z</time>
      </trkpt>
      <trkpt lat="48.57696" lon="-3.18586">
        <ele>198</ele>
        <time>2016-06-06T15:05:15.1Z</time>
      </trkpt>
      <trkpt lat="48.57693" lon="-3.18588">
        <ele>198</ele>
        <time>2016-06-06T15:05:18.1Z</time>
      </trkpt>
      <trkpt lat="48.57691" lon="-3.18589">
        <ele>198</ele>
        <time>2016-06-06T15:05:20.1Z</time>
      </trkpt>
      <trkpt lat="48.57689" lon="-3.18591">
        <ele>198</ele>
        <time>2016-06-06T15:05:22.1Z</time>
      </trkpt>
      <trkpt lat="48.57686" lon="-3.18593">
        <ele>198</ele>
        <time>2016-06-06T15:05:25.1Z</time>
      </trkpt>
      <trkpt lat="48.57685" lon="-3.18593">
        <ele>198</ele>
        <time>2016-06-06T15:05:27.1Z</time>
      </trkpt>
      <trkpt lat="48.57684" lon="-3.18593">
        <ele>198</ele>
        <time>2016-06-06T15:05:29.1Z</time>
      </trkpt>
      <trkpt lat="48.57681" lon="-3.18595">
        <ele>198</ele>
        <time>2016-06-06T15:05:32.1Z</time>
      </trkpt>
      <trkpt lat="48.57678" lon="-3.18599">
        <ele>198</ele>
        <time>2016-06-06T15:05:35.1Z</time>
      </trkpt>
      <trkpt lat="48.57676" lon="-3.18602">
        <ele>198</ele>
        <time>2016-06-06T15:05:37.1Z</time>
      </trkpt>
      <trkpt lat="48.57674" lon="-3.18606">
        <ele>197</ele>
        <time>2016-06-06T15:05:40.1Z</time>
      </trkpt>
      <trkpt lat="48.57671" lon="-3.1861">
        <ele>197</ele>
        <time>2016-06-06T15:05:43.1Z</time>
      </trkpt>
      <trkpt lat="48.57668" lon="-3.18615">
        <ele>197</ele>
        <time>2016-06-06T15:05:46.1Z</time>
      </trkpt>
      <trkpt lat="48.57666" lon="-3.18618">
        <ele>197</ele>
        <time>2016-06-06T15:05:48.1Z</time>
      </trkpt>
      <trkpt lat="48.57664" lon="-3.1862">
        <ele>198</ele>
        <time>2016-06-06T15:05:50.1Z</time>
      </trkpt>
      <trkpt lat="48.57662" lon="-3.18623">
        <ele>197</ele>
        <time>2016-06-06T15:05:52.1Z</time>
      </trkpt>
      <trkpt lat="48.57659" lon="-3.18627">
        <ele>197</ele>
        <time>2016-06-06T15:05:55.1Z</time>
      </trkpt>
      <trkpt lat="48.57657" lon="-3.18629">
        <ele>197</ele>
        <time>2016-06-06T15:05:57.1Z</time>
      </trkpt>
      <trkpt lat="48.57655" lon="-3.1863">
        <ele>197</ele>
        <time>2016-06-06T15:05:59.1Z</time>
      </trkpt>
      <trkpt lat="48.57652" lon="-3.18632">
        <ele>197</ele>
        <time>2016-06-06T15:06:02.1Z</time>
      </trkpt>
      <trkpt lat="48.5765" lon="-3.18634">
        <ele>197</ele>
        <time>2016-06-06T15:06:04.1Z</time>
      </trkpt>
      <trkpt lat="48.57648" lon="-3.18637">
        <ele>197</ele>
        <time>2016-06-06T15:06:07.1Z</time>
      </trkpt>
      <trkpt lat="48.57647" lon="-3.18638">
        <ele>197</ele>
        <time>2016-06-06T15:06:09.1Z</time>
      </trkpt>
      <trkpt lat="48.57645" lon="-3.1864">
        <ele>197</ele>
        <time>2016-06-06T15:06:11.1Z</time>
      </trkpt>
      <trkpt lat="48.57642" lon="-3.18643">
        <ele>197</ele>
        <time>2016-06-06T15:06:14.1Z</time>
      </trkpt>
      <trkpt lat="48.57639" lon="-3.18644">
        <ele>197</ele>
        <time>2016-06-06T15:06:16.1Z</time>
      </trkpt>
      <trkpt lat="48.57636" lon="-3.18644">
        <ele>196</ele>
        <time>2016-06-06T15:06:19.1Z</time>
      </trkpt>
      <trkpt lat="48.57634" lon="-3.18644">
        <ele>196</ele>
        <time>2016-06-06T15:06:21.1Z</time>
      </trkpt>
      <trkpt lat="48.57631" lon="-3.18641">
        <ele>195</ele>
        <time>2016-06-06T15:06:24.1Z</time>
      </trkpt>
      <trkpt lat="48.57629" lon="-3.18639">
        <ele>195</ele>
        <time>2016-06-06T15:06:26.1Z</time>
      </trkpt>
      <trkpt lat="48.57626" lon="-3.18635">
        <ele>195</ele>
        <time>2016-06-06T15:06:29.1Z</time>
      </trkpt>
      <trkpt lat="48.57625" lon="-3.18632">
        <ele>195</ele>
        <time>2016-06-06T15:06:31.1Z</time>
      </trkpt>
      <trkpt lat="48.57623" lon="-3.18628">
        <ele>195</ele>
        <time>2016-06-06T15:06:34.1Z</time>
      </trkpt>
      <trkpt lat="48.57622" lon="-3.18625">
        <ele>195</ele>
        <time>2016-06-06T15:06:36.1Z</time>
      </trkpt>
      <trkpt lat="48.5762" lon="-3.18621">
        <ele>194</ele>
        <time>2016-06-06T15:06:39.1Z</time>
      </trkpt>
      <trkpt lat="48.57618" lon="-3.18619">
        <ele>194</ele>
        <time>2016-06-06T15:06:42.1Z</time>
      </trkpt>
      <trkpt lat="48.57617" lon="-3.18616">
        <ele>194</ele>
        <time>2016-06-06T15:06:44.1Z</time>
      </trkpt>
      <trkpt lat="48.57616" lon="-3.18612">
        <ele>194</ele>
        <time>2016-06-06T15:06:46.1Z</time>
      </trkpt>
      <trkpt lat="48.57613" lon="-3.18608">
        <ele>195</ele>
        <time>2016-06-06T15:06:49.1Z</time>
      </trkpt>
      <trkpt lat="48.57612" lon="-3.18605">
        <ele>194</ele>
        <time>2016-06-06T15:06:51.1Z</time>
      </trkpt>
      <trkpt lat="48.5761" lon="-3.18601">
        <ele>194</ele>
        <time>2016-06-06T15:06:54.1Z</time>
      </trkpt>
      <trkpt lat="48.57608" lon="-3.18597">
        <ele>194</ele>
        <time>2016-06-06T15:06:56.1Z</time>
      </trkpt>
      <trkpt lat="48.57607" lon="-3.18594">
        <ele>194</ele>
        <time>2016-06-06T15:06:58.1Z</time>
      </trkpt>
      <trkpt lat="48.57606" lon="-3.1859">
        <ele>194</ele>
        <time>2016-06-06T15:07:00.1Z</time>
      </trkpt>
      <trkpt lat="48.57605" lon="-3.18587">
        <ele>194</ele>
        <time>2016-06-06T15:07:02.1Z</time>
      </trkpt>
      <trkpt lat="48.57605" lon="-3.18583">
        <ele>194</ele>
        <time>2016-06-06T15:07:05.1Z</time>
      </trkpt>
      <trkpt lat="48.57604" lon="-3.1858">
        <ele>194</ele>
        <time>2016-06-06T15:07:07.1Z</time>
      </trkpt>
      <trkpt lat="48.57602" lon="-3.18575">
        <ele>194</ele>
        <time>2016-06-06T15:07:10.1Z</time>
      </trkpt>
      <trkpt lat="48.57601" lon="-3.18572">
        <ele>193</ele>
        <time>2016-06-06T15:07:12.1Z</time>
      </trkpt>
      <trkpt lat="48.576" lon="-3.18567">
        <ele>193</ele>
        <time>2016-06-06T15:07:15.1Z</time>
      </trkpt>
      <trkpt lat="48.576" lon="-3.18564">
        <ele>193</ele>
        <time>2016-06-06T15:07:17.1Z</time>
      </trkpt>
      <trkpt lat="48.576" lon="-3.1856">
        <ele>192</ele>
        <time>2016-06-06T15:07:19.1Z</time>
      </trkpt>
      <trkpt lat="48.57599" lon="-3.18557">
        <ele>192</ele>
        <time>2016-06-06T15:07:21.1Z</time>
      </trkpt>
      <trkpt lat="48.57598" lon="-3.18551">
        <ele>192</ele>
        <time>2016-06-06T15:07:24.1Z</time>
      </trkpt>
      <trkpt lat="48.57597" lon="-3.18546">
        <ele>192</ele>
        <time>2016-06-06T15:07:27.1Z</time>
      </trkpt>
      <trkpt lat="48.57597" lon="-3.18541">
        <ele>192</ele>
        <time>2016-06-06T15:07:30.1Z</time>
      </trkpt>
      <trkpt lat="48.57597" lon="-3.18537">
        <ele>192</ele>
        <time>2016-06-06T15:07:33.1Z</time>
      </trkpt>
      <trkpt lat="48.57597" lon="-3.18534">
        <ele>192</ele>
        <time>2016-06-06T15:07:36.1Z</time>
      </trkpt>
      <trkpt lat="48.57597" lon="-3.18533">
        <ele>192</ele>
        <time>2016-06-06T15:07:38.1Z</time>
      </trkpt>
      <trkpt lat="48.57597" lon="-3.18533">
        <ele>192</ele>
        <time>2016-06-06T15:07:41.1Z</time>
      </trkpt>
      <trkpt lat="48.57597" lon="-3.18533">
        <ele>192</ele>
        <time>2016-06-06T15:07:45.1Z</time>
      </trkpt>
      <trkpt lat="48.57597" lon="-3.18533">
        <ele>192</ele>
        <time>2016-06-06T15:07:46.1Z</time>
      </trkpt>
    </trkseg>
  </trk>
</gpx>